<?xml version="1.0" encoding="UTF-8" standalone="no" ?>
<gpx xmlns="http://www.topografix.com/GPX/1/1" xmlns:xsi="http://www.w3.org/2001/XMLSchema-instance" xsi:schemaLocation="http://www.topografix.com/GPX/1/1 http://www.topografix.com/GPX/1/1/gpx.xsd" version="1.1" creator="VisuGPX - https://www.visugpx.com">
  <metadata>
    <name>CABRIERES / VAILHAN / MONTESQUIEU</name>
    <desc><![CDATA[Une belle sortie typée AM / Trail avec un départ à Cabrières qui nous emmène pas loin de Vailhan et Montesquieu. Pas de grosse difficulté technique, les descentes sont variées et ludique avec quelques passages sympas et elles sont essentiellement dans les bois. Le parcours peut être fait en été car pas mal à l'hombre en partant à la fraiche quand même.]]></desc>
  </metadata>
  <trk>
    <name><![CDATA[CABRIERES / VAILHAN / MONTESQUIEU_1]]></name>
    <trkseg>
      <trkpt lat="43.57735" lon="3.36263">
        <ele>169.8</ele>
        <time>2016-08-07T05:58:40Z</time>
      </trkpt>
      <trkpt lat="43.57735" lon="3.36263">
        <ele>169.8</ele>
        <time>2016-08-07T05:58:48Z</time>
      </trkpt>
      <trkpt lat="43.57733" lon="3.36262">
        <ele>172.8</ele>
        <time>2016-08-07T05:59:05Z</time>
      </trkpt>
      <trkpt lat="43.5773" lon="3.36262">
        <ele>169.2</ele>
        <time>2016-08-07T06:03:16Z</time>
      </trkpt>
      <trkpt lat="43.57726" lon="3.36256">
        <ele>168.9</ele>
        <time>2016-08-07T06:03:23Z</time>
      </trkpt>
      <trkpt lat="43.5773" lon="3.36259">
        <ele>168.2</ele>
        <time>2016-08-07T06:03:55Z</time>
      </trkpt>
      <trkpt lat="43.57732" lon="3.36258">
        <ele>168.4</ele>
        <time>2016-08-07T06:04:02Z</time>
      </trkpt>
      <trkpt lat="43.57735" lon="3.36258">
        <ele>168.6</ele>
        <time>2016-08-07T06:04:27Z</time>
      </trkpt>
      <trkpt lat="43.57738" lon="3.36255">
        <ele>168.7</ele>
        <time>2016-08-07T06:04:34Z</time>
      </trkpt>
      <trkpt lat="43.57736" lon="3.36255">
        <ele>169.9</ele>
        <time>2016-08-07T06:04:53Z</time>
      </trkpt>
      <trkpt lat="43.57735" lon="3.36258">
        <ele>170</ele>
        <time>2016-08-07T06:05:15Z</time>
      </trkpt>
      <trkpt lat="43.57736" lon="3.36253">
        <ele>169.8</ele>
        <time>2016-08-07T06:05:33Z</time>
      </trkpt>
      <trkpt lat="43.5773" lon="3.36263">
        <ele>168.4</ele>
        <time>2016-08-07T06:05:57Z</time>
      </trkpt>
      <trkpt lat="43.57735" lon="3.36264">
        <ele>168.3</ele>
        <time>2016-08-07T06:06:04Z</time>
      </trkpt>
      <trkpt lat="43.57732" lon="3.36266">
        <ele>167.8</ele>
        <time>2016-08-07T06:06:11Z</time>
      </trkpt>
      <trkpt lat="43.57732" lon="3.36271">
        <ele>167.9</ele>
        <time>2016-08-07T06:06:18Z</time>
      </trkpt>
      <trkpt lat="43.57734" lon="3.36264">
        <ele>168</ele>
        <time>2016-08-07T06:06:25Z</time>
      </trkpt>
      <trkpt lat="43.57733" lon="3.36264">
        <ele>167.7</ele>
        <time>2016-08-07T06:06:32Z</time>
      </trkpt>
      <trkpt lat="43.57731" lon="3.36264">
        <ele>167.4</ele>
        <time>2016-08-07T06:06:39Z</time>
      </trkpt>
      <trkpt lat="43.57737" lon="3.36266">
        <ele>164.9</ele>
        <time>2016-08-07T06:07:47Z</time>
      </trkpt>
      <trkpt lat="43.57734" lon="3.36274">
        <ele>164.1</ele>
        <time>2016-08-07T06:08:46Z</time>
      </trkpt>
      <trkpt lat="43.57735" lon="3.36278">
        <ele>164.1</ele>
        <time>2016-08-07T06:08:53Z</time>
      </trkpt>
      <trkpt lat="43.57743" lon="3.36287">
        <ele>164.4</ele>
        <time>2016-08-07T06:08:58Z</time>
      </trkpt>
      <trkpt lat="43.5775" lon="3.36282">
        <ele>164.9</ele>
        <time>2016-08-07T06:09:03Z</time>
      </trkpt>
      <trkpt lat="43.57756" lon="3.36274">
        <ele>165.2</ele>
        <time>2016-08-07T06:09:06Z</time>
      </trkpt>
      <trkpt lat="43.57761" lon="3.36267">
        <ele>165.7</ele>
        <time>2016-08-07T06:09:10Z</time>
      </trkpt>
      <trkpt lat="43.57768" lon="3.3626">
        <ele>166.1</ele>
        <time>2016-08-07T06:09:14Z</time>
      </trkpt>
      <trkpt lat="43.57775" lon="3.36252">
        <ele>166.6</ele>
        <time>2016-08-07T06:09:18Z</time>
      </trkpt>
      <trkpt lat="43.57781" lon="3.36247">
        <ele>167</ele>
        <time>2016-08-07T06:09:21Z</time>
      </trkpt>
      <trkpt lat="43.57789" lon="3.36243">
        <ele>167.5</ele>
        <time>2016-08-07T06:09:25Z</time>
      </trkpt>
      <trkpt lat="43.57796" lon="3.36239">
        <ele>168.1</ele>
        <time>2016-08-07T06:09:30Z</time>
      </trkpt>
      <trkpt lat="43.57804" lon="3.36236">
        <ele>168.4</ele>
        <time>2016-08-07T06:09:34Z</time>
      </trkpt>
      <trkpt lat="43.57812" lon="3.36232">
        <ele>168.9</ele>
        <time>2016-08-07T06:09:38Z</time>
      </trkpt>
      <trkpt lat="43.57819" lon="3.36225">
        <ele>169.4</ele>
        <time>2016-08-07T06:09:42Z</time>
      </trkpt>
      <trkpt lat="43.57826" lon="3.36218">
        <ele>170.1</ele>
        <time>2016-08-07T06:09:46Z</time>
      </trkpt>
      <trkpt lat="43.57832" lon="3.36213">
        <ele>170.7</ele>
        <time>2016-08-07T06:09:50Z</time>
      </trkpt>
      <trkpt lat="43.57841" lon="3.36208">
        <ele>171.4</ele>
        <time>2016-08-07T06:09:54Z</time>
      </trkpt>
      <trkpt lat="43.57848" lon="3.36205">
        <ele>171.8</ele>
        <time>2016-08-07T06:09:57Z</time>
      </trkpt>
      <trkpt lat="43.57854" lon="3.362">
        <ele>172.4</ele>
        <time>2016-08-07T06:10:02Z</time>
      </trkpt>
      <trkpt lat="43.57854" lon="3.36189">
        <ele>172.9</ele>
        <time>2016-08-07T06:10:06Z</time>
      </trkpt>
      <trkpt lat="43.57859" lon="3.36181">
        <ele>173.4</ele>
        <time>2016-08-07T06:10:09Z</time>
      </trkpt>
      <trkpt lat="43.57863" lon="3.36173">
        <ele>174.2</ele>
        <time>2016-08-07T06:10:13Z</time>
      </trkpt>
      <trkpt lat="43.57868" lon="3.36164">
        <ele>175.2</ele>
        <time>2016-08-07T06:10:17Z</time>
      </trkpt>
      <trkpt lat="43.57873" lon="3.36157">
        <ele>176.6</ele>
        <time>2016-08-07T06:10:22Z</time>
      </trkpt>
      <trkpt lat="43.5788" lon="3.36152">
        <ele>177.6</ele>
        <time>2016-08-07T06:10:27Z</time>
      </trkpt>
      <trkpt lat="43.57889" lon="3.36151">
        <ele>178.9</ele>
        <time>2016-08-07T06:10:32Z</time>
      </trkpt>
      <trkpt lat="43.57897" lon="3.3615">
        <ele>180.2</ele>
        <time>2016-08-07T06:10:37Z</time>
      </trkpt>
      <trkpt lat="43.57905" lon="3.36148">
        <ele>181.2</ele>
        <time>2016-08-07T06:10:41Z</time>
      </trkpt>
      <trkpt lat="43.57914" lon="3.36147">
        <ele>182.4</ele>
        <time>2016-08-07T06:10:46Z</time>
      </trkpt>
      <trkpt lat="43.57921" lon="3.36144">
        <ele>183.2</ele>
        <time>2016-08-07T06:10:50Z</time>
      </trkpt>
      <trkpt lat="43.57929" lon="3.36142">
        <ele>183.7</ele>
        <time>2016-08-07T06:10:54Z</time>
      </trkpt>
      <trkpt lat="43.57936" lon="3.36135">
        <ele>184.4</ele>
        <time>2016-08-07T06:10:59Z</time>
      </trkpt>
      <trkpt lat="43.57942" lon="3.36127">
        <ele>185.3</ele>
        <time>2016-08-07T06:11:04Z</time>
      </trkpt>
      <trkpt lat="43.57948" lon="3.36116">
        <ele>185.9</ele>
        <time>2016-08-07T06:11:08Z</time>
      </trkpt>
      <trkpt lat="43.57954" lon="3.36107">
        <ele>186.3</ele>
        <time>2016-08-07T06:11:11Z</time>
      </trkpt>
      <trkpt lat="43.5796" lon="3.36098">
        <ele>186.8</ele>
        <time>2016-08-07T06:11:14Z</time>
      </trkpt>
      <trkpt lat="43.57965" lon="3.36089">
        <ele>187.4</ele>
        <time>2016-08-07T06:11:17Z</time>
      </trkpt>
      <trkpt lat="43.57969" lon="3.3608">
        <ele>187.8</ele>
        <time>2016-08-07T06:11:20Z</time>
      </trkpt>
      <trkpt lat="43.57974" lon="3.36073">
        <ele>188.3</ele>
        <time>2016-08-07T06:11:23Z</time>
      </trkpt>
      <trkpt lat="43.5798" lon="3.36063">
        <ele>188.9</ele>
        <time>2016-08-07T06:11:27Z</time>
      </trkpt>
      <trkpt lat="43.57986" lon="3.36054">
        <ele>189.9</ele>
        <time>2016-08-07T06:11:32Z</time>
      </trkpt>
      <trkpt lat="43.57991" lon="3.36046">
        <ele>190.6</ele>
        <time>2016-08-07T06:11:36Z</time>
      </trkpt>
      <trkpt lat="43.57995" lon="3.36035">
        <ele>191.3</ele>
        <time>2016-08-07T06:11:41Z</time>
      </trkpt>
      <trkpt lat="43.58001" lon="3.36026">
        <ele>192.2</ele>
        <time>2016-08-07T06:11:46Z</time>
      </trkpt>
      <trkpt lat="43.58005" lon="3.36018">
        <ele>192.8</ele>
        <time>2016-08-07T06:11:50Z</time>
      </trkpt>
      <trkpt lat="43.5801" lon="3.36009">
        <ele>193.4</ele>
        <time>2016-08-07T06:11:54Z</time>
      </trkpt>
      <trkpt lat="43.58015" lon="3.36">
        <ele>194</ele>
        <time>2016-08-07T06:11:58Z</time>
      </trkpt>
      <trkpt lat="43.58019" lon="3.35991">
        <ele>194.6</ele>
        <time>2016-08-07T06:12:02Z</time>
      </trkpt>
      <trkpt lat="43.58024" lon="3.3598">
        <ele>195.1</ele>
        <time>2016-08-07T06:12:06Z</time>
      </trkpt>
      <trkpt lat="43.58029" lon="3.35971">
        <ele>195.4</ele>
        <time>2016-08-07T06:12:10Z</time>
      </trkpt>
      <trkpt lat="43.58033" lon="3.35963">
        <ele>195.5</ele>
        <time>2016-08-07T06:12:14Z</time>
      </trkpt>
      <trkpt lat="43.58039" lon="3.35955">
        <ele>195.8</ele>
        <time>2016-08-07T06:12:18Z</time>
      </trkpt>
      <trkpt lat="43.58044" lon="3.35946">
        <ele>196.3</ele>
        <time>2016-08-07T06:12:22Z</time>
      </trkpt>
      <trkpt lat="43.58048" lon="3.35937">
        <ele>197</ele>
        <time>2016-08-07T06:12:27Z</time>
      </trkpt>
      <trkpt lat="43.58053" lon="3.35927">
        <ele>197.8</ele>
        <time>2016-08-07T06:12:32Z</time>
      </trkpt>
      <trkpt lat="43.58057" lon="3.35916">
        <ele>198.3</ele>
        <time>2016-08-07T06:12:38Z</time>
      </trkpt>
      <trkpt lat="43.58062" lon="3.35906">
        <ele>198.7</ele>
        <time>2016-08-07T06:12:42Z</time>
      </trkpt>
      <trkpt lat="43.58066" lon="3.35897">
        <ele>199.2</ele>
        <time>2016-08-07T06:12:47Z</time>
      </trkpt>
      <trkpt lat="43.58071" lon="3.35888">
        <ele>199.7</ele>
        <time>2016-08-07T06:12:52Z</time>
      </trkpt>
      <trkpt lat="43.58076" lon="3.35879">
        <ele>200.6</ele>
        <time>2016-08-07T06:12:57Z</time>
      </trkpt>
      <trkpt lat="43.5808" lon="3.35871">
        <ele>201.4</ele>
        <time>2016-08-07T06:13:01Z</time>
      </trkpt>
      <trkpt lat="43.58084" lon="3.35861">
        <ele>202.4</ele>
        <time>2016-08-07T06:13:06Z</time>
      </trkpt>
      <trkpt lat="43.58088" lon="3.3585">
        <ele>203.1</ele>
        <time>2016-08-07T06:13:10Z</time>
      </trkpt>
      <trkpt lat="43.58092" lon="3.35841">
        <ele>204</ele>
        <time>2016-08-07T06:13:15Z</time>
      </trkpt>
      <trkpt lat="43.58096" lon="3.35831">
        <ele>204.9</ele>
        <time>2016-08-07T06:13:20Z</time>
      </trkpt>
      <trkpt lat="43.581" lon="3.35823">
        <ele>205.7</ele>
        <time>2016-08-07T06:13:24Z</time>
      </trkpt>
      <trkpt lat="43.58105" lon="3.35814">
        <ele>206.6</ele>
        <time>2016-08-07T06:13:28Z</time>
      </trkpt>
      <trkpt lat="43.58109" lon="3.35804">
        <ele>207.3</ele>
        <time>2016-08-07T06:13:32Z</time>
      </trkpt>
      <trkpt lat="43.58112" lon="3.35793">
        <ele>207.8</ele>
        <time>2016-08-07T06:13:37Z</time>
      </trkpt>
      <trkpt lat="43.58115" lon="3.35782">
        <ele>208.4</ele>
        <time>2016-08-07T06:13:41Z</time>
      </trkpt>
      <trkpt lat="43.58119" lon="3.3577">
        <ele>209</ele>
        <time>2016-08-07T06:13:46Z</time>
      </trkpt>
      <trkpt lat="43.58123" lon="3.3576">
        <ele>209.6</ele>
        <time>2016-08-07T06:13:50Z</time>
      </trkpt>
      <trkpt lat="43.58125" lon="3.3575">
        <ele>210.4</ele>
        <time>2016-08-07T06:13:54Z</time>
      </trkpt>
      <trkpt lat="43.58127" lon="3.35741">
        <ele>211.1</ele>
        <time>2016-08-07T06:13:58Z</time>
      </trkpt>
      <trkpt lat="43.58129" lon="3.3573">
        <ele>211.8</ele>
        <time>2016-08-07T06:14:03Z</time>
      </trkpt>
      <trkpt lat="43.58133" lon="3.3572">
        <ele>212.5</ele>
        <time>2016-08-07T06:14:07Z</time>
      </trkpt>
      <trkpt lat="43.58136" lon="3.3571">
        <ele>213</ele>
        <time>2016-08-07T06:14:11Z</time>
      </trkpt>
      <trkpt lat="43.5814" lon="3.35699">
        <ele>213.7</ele>
        <time>2016-08-07T06:14:16Z</time>
      </trkpt>
      <trkpt lat="43.58146" lon="3.3569">
        <ele>214.4</ele>
        <time>2016-08-07T06:14:20Z</time>
      </trkpt>
      <trkpt lat="43.58151" lon="3.35681">
        <ele>215</ele>
        <time>2016-08-07T06:14:24Z</time>
      </trkpt>
      <trkpt lat="43.58155" lon="3.35672">
        <ele>215.3</ele>
        <time>2016-08-07T06:14:27Z</time>
      </trkpt>
      <trkpt lat="43.58159" lon="3.35662">
        <ele>215.7</ele>
        <time>2016-08-07T06:14:30Z</time>
      </trkpt>
      <trkpt lat="43.58163" lon="3.35651">
        <ele>216.2</ele>
        <time>2016-08-07T06:14:34Z</time>
      </trkpt>
      <trkpt lat="43.58168" lon="3.35641">
        <ele>216.7</ele>
        <time>2016-08-07T06:14:38Z</time>
      </trkpt>
      <trkpt lat="43.58172" lon="3.3563">
        <ele>217</ele>
        <time>2016-08-07T06:14:41Z</time>
      </trkpt>
      <trkpt lat="43.58176" lon="3.3562">
        <ele>217.2</ele>
        <time>2016-08-07T06:14:44Z</time>
      </trkpt>
      <trkpt lat="43.58179" lon="3.3561">
        <ele>217.4</ele>
        <time>2016-08-07T06:14:47Z</time>
      </trkpt>
      <trkpt lat="43.58181" lon="3.35599">
        <ele>217.5</ele>
        <time>2016-08-07T06:14:50Z</time>
      </trkpt>
      <trkpt lat="43.58182" lon="3.35587">
        <ele>217.5</ele>
        <time>2016-08-07T06:14:53Z</time>
      </trkpt>
      <trkpt lat="43.58183" lon="3.35577">
        <ele>217.5</ele>
        <time>2016-08-07T06:14:56Z</time>
      </trkpt>
      <trkpt lat="43.58184" lon="3.35563">
        <ele>217.5</ele>
        <time>2016-08-07T06:14:59Z</time>
      </trkpt>
      <trkpt lat="43.58185" lon="3.35553">
        <ele>217.5</ele>
        <time>2016-08-07T06:15:01Z</time>
      </trkpt>
      <trkpt lat="43.58186" lon="3.3554">
        <ele>217.5</ele>
        <time>2016-08-07T06:15:04Z</time>
      </trkpt>
      <trkpt lat="43.58187" lon="3.3553">
        <ele>217.5</ele>
        <time>2016-08-07T06:15:06Z</time>
      </trkpt>
      <trkpt lat="43.58188" lon="3.35518">
        <ele>217.6</ele>
        <time>2016-08-07T06:15:08Z</time>
      </trkpt>
      <trkpt lat="43.5819" lon="3.35503">
        <ele>217.7</ele>
        <time>2016-08-07T06:15:11Z</time>
      </trkpt>
      <trkpt lat="43.58192" lon="3.35491">
        <ele>217.7</ele>
        <time>2016-08-07T06:15:13Z</time>
      </trkpt>
      <trkpt lat="43.58197" lon="3.35482">
        <ele>217.7</ele>
        <time>2016-08-07T06:15:15Z</time>
      </trkpt>
      <trkpt lat="43.58201" lon="3.35471">
        <ele>217.8</ele>
        <time>2016-08-07T06:15:18Z</time>
      </trkpt>
      <trkpt lat="43.58203" lon="3.35461">
        <ele>217.9</ele>
        <time>2016-08-07T06:15:21Z</time>
      </trkpt>
      <trkpt lat="43.58203" lon="3.3545">
        <ele>217.8</ele>
        <time>2016-08-07T06:15:24Z</time>
      </trkpt>
      <trkpt lat="43.58203" lon="3.3544">
        <ele>217.7</ele>
        <time>2016-08-07T06:15:27Z</time>
      </trkpt>
      <trkpt lat="43.582" lon="3.35428">
        <ele>217.2</ele>
        <time>2016-08-07T06:15:31Z</time>
      </trkpt>
      <trkpt lat="43.58196" lon="3.35418">
        <ele>216.9</ele>
        <time>2016-08-07T06:15:35Z</time>
      </trkpt>
      <trkpt lat="43.58191" lon="3.35408">
        <ele>216.8</ele>
        <time>2016-08-07T06:15:39Z</time>
      </trkpt>
      <trkpt lat="43.58187" lon="3.35399">
        <ele>216.8</ele>
        <time>2016-08-07T06:15:44Z</time>
      </trkpt>
      <trkpt lat="43.58184" lon="3.35387">
        <ele>216.8</ele>
        <time>2016-08-07T06:15:49Z</time>
      </trkpt>
      <trkpt lat="43.58181" lon="3.35376">
        <ele>217.1</ele>
        <time>2016-08-07T06:15:53Z</time>
      </trkpt>
      <trkpt lat="43.58178" lon="3.35365">
        <ele>217.5</ele>
        <time>2016-08-07T06:15:58Z</time>
      </trkpt>
      <trkpt lat="43.58177" lon="3.35355">
        <ele>217.6</ele>
        <time>2016-08-07T06:16:02Z</time>
      </trkpt>
      <trkpt lat="43.58176" lon="3.35344">
        <ele>217.8</ele>
        <time>2016-08-07T06:16:06Z</time>
      </trkpt>
      <trkpt lat="43.58173" lon="3.35334">
        <ele>218.2</ele>
        <time>2016-08-07T06:16:11Z</time>
      </trkpt>
      <trkpt lat="43.58172" lon="3.35323">
        <ele>218.4</ele>
        <time>2016-08-07T06:16:15Z</time>
      </trkpt>
      <trkpt lat="43.58171" lon="3.35313">
        <ele>218.6</ele>
        <time>2016-08-07T06:16:19Z</time>
      </trkpt>
      <trkpt lat="43.58169" lon="3.35302">
        <ele>218.9</ele>
        <time>2016-08-07T06:16:23Z</time>
      </trkpt>
      <trkpt lat="43.58168" lon="3.35292">
        <ele>219.4</ele>
        <time>2016-08-07T06:16:27Z</time>
      </trkpt>
      <trkpt lat="43.58166" lon="3.35281">
        <ele>219.8</ele>
        <time>2016-08-07T06:16:32Z</time>
      </trkpt>
      <trkpt lat="43.58164" lon="3.35271">
        <ele>220.1</ele>
        <time>2016-08-07T06:16:36Z</time>
      </trkpt>
      <trkpt lat="43.58163" lon="3.35261">
        <ele>220.5</ele>
        <time>2016-08-07T06:16:40Z</time>
      </trkpt>
      <trkpt lat="43.58161" lon="3.3525">
        <ele>221</ele>
        <time>2016-08-07T06:16:44Z</time>
      </trkpt>
      <trkpt lat="43.58159" lon="3.35239">
        <ele>221.6</ele>
        <time>2016-08-07T06:16:48Z</time>
      </trkpt>
      <trkpt lat="43.58158" lon="3.35229">
        <ele>222.1</ele>
        <time>2016-08-07T06:16:52Z</time>
      </trkpt>
      <trkpt lat="43.58157" lon="3.35218">
        <ele>222.6</ele>
        <time>2016-08-07T06:16:56Z</time>
      </trkpt>
      <trkpt lat="43.58157" lon="3.35207">
        <ele>223</ele>
        <time>2016-08-07T06:17:01Z</time>
      </trkpt>
      <trkpt lat="43.58155" lon="3.35196">
        <ele>223.7</ele>
        <time>2016-08-07T06:17:06Z</time>
      </trkpt>
      <trkpt lat="43.58153" lon="3.35186">
        <ele>224.3</ele>
        <time>2016-08-07T06:17:10Z</time>
      </trkpt>
      <trkpt lat="43.58151" lon="3.35176">
        <ele>225.2</ele>
        <time>2016-08-07T06:17:15Z</time>
      </trkpt>
      <trkpt lat="43.58149" lon="3.35165">
        <ele>225.8</ele>
        <time>2016-08-07T06:17:19Z</time>
      </trkpt>
      <trkpt lat="43.58147" lon="3.35154">
        <ele>226.4</ele>
        <time>2016-08-07T06:17:24Z</time>
      </trkpt>
      <trkpt lat="43.58145" lon="3.35143">
        <ele>227.1</ele>
        <time>2016-08-07T06:17:28Z</time>
      </trkpt>
      <trkpt lat="43.58145" lon="3.3513">
        <ele>227.7</ele>
        <time>2016-08-07T06:17:32Z</time>
      </trkpt>
      <trkpt lat="43.58144" lon="3.35119">
        <ele>228.4</ele>
        <time>2016-08-07T06:17:37Z</time>
      </trkpt>
      <trkpt lat="43.58143" lon="3.35109">
        <ele>229.2</ele>
        <time>2016-08-07T06:17:41Z</time>
      </trkpt>
      <trkpt lat="43.58141" lon="3.35097">
        <ele>230.6</ele>
        <time>2016-08-07T06:17:47Z</time>
      </trkpt>
      <trkpt lat="43.5814" lon="3.35085">
        <ele>231.8</ele>
        <time>2016-08-07T06:17:52Z</time>
      </trkpt>
      <trkpt lat="43.58139" lon="3.35073">
        <ele>232.7</ele>
        <time>2016-08-07T06:17:56Z</time>
      </trkpt>
      <trkpt lat="43.58138" lon="3.35062">
        <ele>233.5</ele>
        <time>2016-08-07T06:18:00Z</time>
      </trkpt>
      <trkpt lat="43.58136" lon="3.35051">
        <ele>234.2</ele>
        <time>2016-08-07T06:18:05Z</time>
      </trkpt>
      <trkpt lat="43.58135" lon="3.35041">
        <ele>234.9</ele>
        <time>2016-08-07T06:18:09Z</time>
      </trkpt>
      <trkpt lat="43.58135" lon="3.35029">
        <ele>235.9</ele>
        <time>2016-08-07T06:18:14Z</time>
      </trkpt>
      <trkpt lat="43.58134" lon="3.35017">
        <ele>236.6</ele>
        <time>2016-08-07T06:18:19Z</time>
      </trkpt>
      <trkpt lat="43.58133" lon="3.35007">
        <ele>237</ele>
        <time>2016-08-07T06:18:24Z</time>
      </trkpt>
      <trkpt lat="43.58132" lon="3.34996">
        <ele>237.6</ele>
        <time>2016-08-07T06:18:29Z</time>
      </trkpt>
      <trkpt lat="43.58131" lon="3.34985">
        <ele>238.1</ele>
        <time>2016-08-07T06:18:33Z</time>
      </trkpt>
      <trkpt lat="43.58131" lon="3.34973">
        <ele>238.5</ele>
        <time>2016-08-07T06:18:38Z</time>
      </trkpt>
      <trkpt lat="43.58132" lon="3.34962">
        <ele>239.1</ele>
        <time>2016-08-07T06:18:42Z</time>
      </trkpt>
      <trkpt lat="43.58133" lon="3.3495">
        <ele>239.7</ele>
        <time>2016-08-07T06:18:46Z</time>
      </trkpt>
      <trkpt lat="43.58134" lon="3.34939">
        <ele>240.8</ele>
        <time>2016-08-07T06:18:52Z</time>
      </trkpt>
      <trkpt lat="43.58133" lon="3.34928">
        <ele>241.6</ele>
        <time>2016-08-07T06:18:56Z</time>
      </trkpt>
      <trkpt lat="43.58131" lon="3.34919">
        <ele>242.6</ele>
        <time>2016-08-07T06:19:00Z</time>
      </trkpt>
      <trkpt lat="43.58129" lon="3.34907">
        <ele>244</ele>
        <time>2016-08-07T06:19:05Z</time>
      </trkpt>
      <trkpt lat="43.58126" lon="3.34895">
        <ele>245.5</ele>
        <time>2016-08-07T06:19:10Z</time>
      </trkpt>
      <trkpt lat="43.58125" lon="3.34883">
        <ele>246.8</ele>
        <time>2016-08-07T06:19:15Z</time>
      </trkpt>
      <trkpt lat="43.58124" lon="3.3487">
        <ele>247.7</ele>
        <time>2016-08-07T06:19:19Z</time>
      </trkpt>
      <trkpt lat="43.58123" lon="3.34859">
        <ele>248.8</ele>
        <time>2016-08-07T06:19:24Z</time>
      </trkpt>
      <trkpt lat="43.58123" lon="3.34848">
        <ele>249.4</ele>
        <time>2016-08-07T06:19:27Z</time>
      </trkpt>
      <trkpt lat="43.58119" lon="3.34839">
        <ele>250.3</ele>
        <time>2016-08-07T06:19:31Z</time>
      </trkpt>
      <trkpt lat="43.58116" lon="3.34827">
        <ele>251.2</ele>
        <time>2016-08-07T06:19:36Z</time>
      </trkpt>
      <trkpt lat="43.58113" lon="3.34816">
        <ele>252.4</ele>
        <time>2016-08-07T06:19:42Z</time>
      </trkpt>
      <trkpt lat="43.58108" lon="3.34807">
        <ele>253.7</ele>
        <time>2016-08-07T06:19:47Z</time>
      </trkpt>
      <trkpt lat="43.58103" lon="3.34799">
        <ele>254.8</ele>
        <time>2016-08-07T06:19:51Z</time>
      </trkpt>
      <trkpt lat="43.58098" lon="3.34789">
        <ele>256.3</ele>
        <time>2016-08-07T06:19:56Z</time>
      </trkpt>
      <trkpt lat="43.58093" lon="3.3478">
        <ele>258.1</ele>
        <time>2016-08-07T06:20:02Z</time>
      </trkpt>
      <trkpt lat="43.58088" lon="3.3477">
        <ele>259.5</ele>
        <time>2016-08-07T06:20:06Z</time>
      </trkpt>
      <trkpt lat="43.58083" lon="3.34762">
        <ele>260.4</ele>
        <time>2016-08-07T06:20:10Z</time>
      </trkpt>
      <trkpt lat="43.58075" lon="3.34761">
        <ele>261.3</ele>
        <time>2016-08-07T06:20:16Z</time>
      </trkpt>
      <trkpt lat="43.58074" lon="3.3477">
        <ele>261.7</ele>
        <time>2016-08-07T06:20:23Z</time>
      </trkpt>
      <trkpt lat="43.58076" lon="3.34779">
        <ele>262.2</ele>
        <time>2016-08-07T06:20:30Z</time>
      </trkpt>
      <trkpt lat="43.58081" lon="3.34789">
        <ele>262.6</ele>
        <time>2016-08-07T06:20:35Z</time>
      </trkpt>
      <trkpt lat="43.58083" lon="3.348">
        <ele>263</ele>
        <time>2016-08-07T06:20:39Z</time>
      </trkpt>
      <trkpt lat="43.58085" lon="3.34811">
        <ele>263.5</ele>
        <time>2016-08-07T06:20:43Z</time>
      </trkpt>
      <trkpt lat="43.58086" lon="3.34823">
        <ele>263.8</ele>
        <time>2016-08-07T06:20:47Z</time>
      </trkpt>
      <trkpt lat="43.58086" lon="3.34834">
        <ele>264.1</ele>
        <time>2016-08-07T06:20:51Z</time>
      </trkpt>
      <trkpt lat="43.58086" lon="3.34845">
        <ele>264.3</ele>
        <time>2016-08-07T06:20:55Z</time>
      </trkpt>
      <trkpt lat="43.58087" lon="3.34857">
        <ele>264.4</ele>
        <time>2016-08-07T06:20:59Z</time>
      </trkpt>
      <trkpt lat="43.58087" lon="3.34869">
        <ele>264.5</ele>
        <time>2016-08-07T06:21:03Z</time>
      </trkpt>
      <trkpt lat="43.58086" lon="3.34881">
        <ele>264.8</ele>
        <time>2016-08-07T06:21:08Z</time>
      </trkpt>
      <trkpt lat="43.58085" lon="3.34893">
        <ele>265</ele>
        <time>2016-08-07T06:21:13Z</time>
      </trkpt>
      <trkpt lat="43.58083" lon="3.34903">
        <ele>265.1</ele>
        <time>2016-08-07T06:21:16Z</time>
      </trkpt>
      <trkpt lat="43.58081" lon="3.34913">
        <ele>265.3</ele>
        <time>2016-08-07T06:21:20Z</time>
      </trkpt>
      <trkpt lat="43.58078" lon="3.34922">
        <ele>265.7</ele>
        <time>2016-08-07T06:21:24Z</time>
      </trkpt>
      <trkpt lat="43.58074" lon="3.34933">
        <ele>265.9</ele>
        <time>2016-08-07T06:21:29Z</time>
      </trkpt>
      <trkpt lat="43.58071" lon="3.34943">
        <ele>266</ele>
        <time>2016-08-07T06:21:33Z</time>
      </trkpt>
      <trkpt lat="43.58068" lon="3.34952">
        <ele>265.9</ele>
        <time>2016-08-07T06:21:37Z</time>
      </trkpt>
      <trkpt lat="43.58064" lon="3.34962">
        <ele>266.1</ele>
        <time>2016-08-07T06:21:41Z</time>
      </trkpt>
      <trkpt lat="43.58061" lon="3.34972">
        <ele>266.3</ele>
        <time>2016-08-07T06:21:45Z</time>
      </trkpt>
      <trkpt lat="43.58057" lon="3.34981">
        <ele>266.4</ele>
        <time>2016-08-07T06:21:49Z</time>
      </trkpt>
      <trkpt lat="43.58055" lon="3.3499">
        <ele>266.8</ele>
        <time>2016-08-07T06:21:53Z</time>
      </trkpt>
      <trkpt lat="43.58052" lon="3.35">
        <ele>267.4</ele>
        <time>2016-08-07T06:21:57Z</time>
      </trkpt>
      <trkpt lat="43.58048" lon="3.35008">
        <ele>267.9</ele>
        <time>2016-08-07T06:22:01Z</time>
      </trkpt>
      <trkpt lat="43.58045" lon="3.35018">
        <ele>268.4</ele>
        <time>2016-08-07T06:22:05Z</time>
      </trkpt>
      <trkpt lat="43.58041" lon="3.35027">
        <ele>269.2</ele>
        <time>2016-08-07T06:22:09Z</time>
      </trkpt>
      <trkpt lat="43.58038" lon="3.35037">
        <ele>269.7</ele>
        <time>2016-08-07T06:22:13Z</time>
      </trkpt>
      <trkpt lat="43.58033" lon="3.35046">
        <ele>270.2</ele>
        <time>2016-08-07T06:22:17Z</time>
      </trkpt>
      <trkpt lat="43.58028" lon="3.35055">
        <ele>270.7</ele>
        <time>2016-08-07T06:22:21Z</time>
      </trkpt>
      <trkpt lat="43.58021" lon="3.35062">
        <ele>271.3</ele>
        <time>2016-08-07T06:22:26Z</time>
      </trkpt>
      <trkpt lat="43.58014" lon="3.35057">
        <ele>271.8</ele>
        <time>2016-08-07T06:22:30Z</time>
      </trkpt>
      <trkpt lat="43.58011" lon="3.35048">
        <ele>272.3</ele>
        <time>2016-08-07T06:22:34Z</time>
      </trkpt>
      <trkpt lat="43.58009" lon="3.35038">
        <ele>272.7</ele>
        <time>2016-08-07T06:22:38Z</time>
      </trkpt>
      <trkpt lat="43.5801" lon="3.35025">
        <ele>273.2</ele>
        <time>2016-08-07T06:22:43Z</time>
      </trkpt>
      <trkpt lat="43.5801" lon="3.35015">
        <ele>273.7</ele>
        <time>2016-08-07T06:22:47Z</time>
      </trkpt>
      <trkpt lat="43.58009" lon="3.35004">
        <ele>274.2</ele>
        <time>2016-08-07T06:22:51Z</time>
      </trkpt>
      <trkpt lat="43.5801" lon="3.34994">
        <ele>274.8</ele>
        <time>2016-08-07T06:22:55Z</time>
      </trkpt>
      <trkpt lat="43.58008" lon="3.34982">
        <ele>275.4</ele>
        <time>2016-08-07T06:22:59Z</time>
      </trkpt>
      <trkpt lat="43.58007" lon="3.34972">
        <ele>276.1</ele>
        <time>2016-08-07T06:23:03Z</time>
      </trkpt>
      <trkpt lat="43.58005" lon="3.3496">
        <ele>276.7</ele>
        <time>2016-08-07T06:23:07Z</time>
      </trkpt>
      <trkpt lat="43.58002" lon="3.3495">
        <ele>277.2</ele>
        <time>2016-08-07T06:23:11Z</time>
      </trkpt>
      <trkpt lat="43.57998" lon="3.34939">
        <ele>277.4</ele>
        <time>2016-08-07T06:23:15Z</time>
      </trkpt>
      <trkpt lat="43.57995" lon="3.34929">
        <ele>277.5</ele>
        <time>2016-08-07T06:23:19Z</time>
      </trkpt>
      <trkpt lat="43.57993" lon="3.34917">
        <ele>277.8</ele>
        <time>2016-08-07T06:23:23Z</time>
      </trkpt>
      <trkpt lat="43.57992" lon="3.34907">
        <ele>278.1</ele>
        <time>2016-08-07T06:23:26Z</time>
      </trkpt>
      <trkpt lat="43.57992" lon="3.34896">
        <ele>278.4</ele>
        <time>2016-08-07T06:23:29Z</time>
      </trkpt>
      <trkpt lat="43.57993" lon="3.34883">
        <ele>279.1</ele>
        <time>2016-08-07T06:23:33Z</time>
      </trkpt>
      <trkpt lat="43.57993" lon="3.3487">
        <ele>280</ele>
        <time>2016-08-07T06:23:38Z</time>
      </trkpt>
      <trkpt lat="43.57995" lon="3.34857">
        <ele>280.7</ele>
        <time>2016-08-07T06:23:42Z</time>
      </trkpt>
      <trkpt lat="43.57997" lon="3.34847">
        <ele>281.1</ele>
        <time>2016-08-07T06:23:45Z</time>
      </trkpt>
      <trkpt lat="43.57999" lon="3.34836">
        <ele>281.6</ele>
        <time>2016-08-07T06:23:48Z</time>
      </trkpt>
      <trkpt lat="43.58" lon="3.34823">
        <ele>282.3</ele>
        <time>2016-08-07T06:23:52Z</time>
      </trkpt>
      <trkpt lat="43.57999" lon="3.34812">
        <ele>282.6</ele>
        <time>2016-08-07T06:23:55Z</time>
      </trkpt>
      <trkpt lat="43.57997" lon="3.34801">
        <ele>283</ele>
        <time>2016-08-07T06:23:58Z</time>
      </trkpt>
      <trkpt lat="43.57996" lon="3.34791">
        <ele>283.5</ele>
        <time>2016-08-07T06:24:01Z</time>
      </trkpt>
      <trkpt lat="43.57995" lon="3.34781">
        <ele>283.9</ele>
        <time>2016-08-07T06:24:04Z</time>
      </trkpt>
      <trkpt lat="43.57994" lon="3.34769">
        <ele>284.3</ele>
        <time>2016-08-07T06:24:07Z</time>
      </trkpt>
      <trkpt lat="43.57995" lon="3.34759">
        <ele>284.6</ele>
        <time>2016-08-07T06:24:10Z</time>
      </trkpt>
      <trkpt lat="43.57997" lon="3.34746">
        <ele>285.2</ele>
        <time>2016-08-07T06:24:14Z</time>
      </trkpt>
      <trkpt lat="43.57999" lon="3.34735">
        <ele>285.6</ele>
        <time>2016-08-07T06:24:18Z</time>
      </trkpt>
      <trkpt lat="43.58" lon="3.34725">
        <ele>286.1</ele>
        <time>2016-08-07T06:24:21Z</time>
      </trkpt>
      <trkpt lat="43.58001" lon="3.34715">
        <ele>286.7</ele>
        <time>2016-08-07T06:24:25Z</time>
      </trkpt>
      <trkpt lat="43.58" lon="3.34704">
        <ele>287.1</ele>
        <time>2016-08-07T06:24:29Z</time>
      </trkpt>
      <trkpt lat="43.57999" lon="3.34691">
        <ele>287.4</ele>
        <time>2016-08-07T06:24:33Z</time>
      </trkpt>
      <trkpt lat="43.57999" lon="3.34681">
        <ele>287.7</ele>
        <time>2016-08-07T06:24:36Z</time>
      </trkpt>
      <trkpt lat="43.57997" lon="3.34669">
        <ele>288.4</ele>
        <time>2016-08-07T06:24:41Z</time>
      </trkpt>
      <trkpt lat="43.57994" lon="3.34657">
        <ele>289.3</ele>
        <time>2016-08-07T06:24:46Z</time>
      </trkpt>
      <trkpt lat="43.57992" lon="3.34648">
        <ele>289.9</ele>
        <time>2016-08-07T06:24:50Z</time>
      </trkpt>
      <trkpt lat="43.57989" lon="3.34637">
        <ele>290.5</ele>
        <time>2016-08-07T06:24:54Z</time>
      </trkpt>
      <trkpt lat="43.57987" lon="3.34626">
        <ele>291.2</ele>
        <time>2016-08-07T06:24:58Z</time>
      </trkpt>
      <trkpt lat="43.57986" lon="3.34614">
        <ele>291.8</ele>
        <time>2016-08-07T06:25:02Z</time>
      </trkpt>
      <trkpt lat="43.57986" lon="3.34604">
        <ele>292.5</ele>
        <time>2016-08-07T06:25:06Z</time>
      </trkpt>
      <trkpt lat="43.57984" lon="3.34594">
        <ele>293.4</ele>
        <time>2016-08-07T06:25:10Z</time>
      </trkpt>
      <trkpt lat="43.57982" lon="3.34583">
        <ele>294.3</ele>
        <time>2016-08-07T06:25:15Z</time>
      </trkpt>
      <trkpt lat="43.57981" lon="3.34573">
        <ele>294.8</ele>
        <time>2016-08-07T06:25:19Z</time>
      </trkpt>
      <trkpt lat="43.57979" lon="3.34564">
        <ele>295.4</ele>
        <time>2016-08-07T06:25:23Z</time>
      </trkpt>
      <trkpt lat="43.57976" lon="3.34554">
        <ele>296</ele>
        <time>2016-08-07T06:25:27Z</time>
      </trkpt>
      <trkpt lat="43.57974" lon="3.34544">
        <ele>296.6</ele>
        <time>2016-08-07T06:25:32Z</time>
      </trkpt>
      <trkpt lat="43.57971" lon="3.34533">
        <ele>297.6</ele>
        <time>2016-08-07T06:25:37Z</time>
      </trkpt>
      <trkpt lat="43.57968" lon="3.34523">
        <ele>298.1</ele>
        <time>2016-08-07T06:25:41Z</time>
      </trkpt>
      <trkpt lat="43.57965" lon="3.34513">
        <ele>298.6</ele>
        <time>2016-08-07T06:25:45Z</time>
      </trkpt>
      <trkpt lat="43.57964" lon="3.34501">
        <ele>299.2</ele>
        <time>2016-08-07T06:25:50Z</time>
      </trkpt>
      <trkpt lat="43.57963" lon="3.3449">
        <ele>299.8</ele>
        <time>2016-08-07T06:25:54Z</time>
      </trkpt>
      <trkpt lat="43.57962" lon="3.3448">
        <ele>300.8</ele>
        <time>2016-08-07T06:25:59Z</time>
      </trkpt>
      <trkpt lat="43.57961" lon="3.34471">
        <ele>301.7</ele>
        <time>2016-08-07T06:26:03Z</time>
      </trkpt>
      <trkpt lat="43.5796" lon="3.34458">
        <ele>302.5</ele>
        <time>2016-08-07T06:26:08Z</time>
      </trkpt>
      <trkpt lat="43.5796" lon="3.34448">
        <ele>303.4</ele>
        <time>2016-08-07T06:26:12Z</time>
      </trkpt>
      <trkpt lat="43.57958" lon="3.34439">
        <ele>304.3</ele>
        <time>2016-08-07T06:26:16Z</time>
      </trkpt>
      <trkpt lat="43.57958" lon="3.34428">
        <ele>305.2</ele>
        <time>2016-08-07T06:26:20Z</time>
      </trkpt>
      <trkpt lat="43.5796" lon="3.34416">
        <ele>306.2</ele>
        <time>2016-08-07T06:26:24Z</time>
      </trkpt>
      <trkpt lat="43.57961" lon="3.34405">
        <ele>307.3</ele>
        <time>2016-08-07T06:26:29Z</time>
      </trkpt>
      <trkpt lat="43.57962" lon="3.34393">
        <ele>308.2</ele>
        <time>2016-08-07T06:26:33Z</time>
      </trkpt>
      <trkpt lat="43.57963" lon="3.34383">
        <ele>309.1</ele>
        <time>2016-08-07T06:26:37Z</time>
      </trkpt>
      <trkpt lat="43.57965" lon="3.34373">
        <ele>309.7</ele>
        <time>2016-08-07T06:26:41Z</time>
      </trkpt>
      <trkpt lat="43.57967" lon="3.34361">
        <ele>310.3</ele>
        <time>2016-08-07T06:26:46Z</time>
      </trkpt>
      <trkpt lat="43.57968" lon="3.34351">
        <ele>310.9</ele>
        <time>2016-08-07T06:26:50Z</time>
      </trkpt>
      <trkpt lat="43.5797" lon="3.3434">
        <ele>311.9</ele>
        <time>2016-08-07T06:26:55Z</time>
      </trkpt>
      <trkpt lat="43.57973" lon="3.34328">
        <ele>312.9</ele>
        <time>2016-08-07T06:27:00Z</time>
      </trkpt>
      <trkpt lat="43.57977" lon="3.34319">
        <ele>313.7</ele>
        <time>2016-08-07T06:27:04Z</time>
      </trkpt>
      <trkpt lat="43.57981" lon="3.3431">
        <ele>314.4</ele>
        <time>2016-08-07T06:27:08Z</time>
      </trkpt>
      <trkpt lat="43.57986" lon="3.343">
        <ele>315.4</ele>
        <time>2016-08-07T06:27:12Z</time>
      </trkpt>
      <trkpt lat="43.57991" lon="3.34293">
        <ele>316.5</ele>
        <time>2016-08-07T06:27:16Z</time>
      </trkpt>
      <trkpt lat="43.57997" lon="3.34284">
        <ele>317.6</ele>
        <time>2016-08-07T06:27:20Z</time>
      </trkpt>
      <trkpt lat="43.58003" lon="3.34276">
        <ele>318.6</ele>
        <time>2016-08-07T06:27:24Z</time>
      </trkpt>
      <trkpt lat="43.5801" lon="3.34269">
        <ele>319.8</ele>
        <time>2016-08-07T06:27:29Z</time>
      </trkpt>
      <trkpt lat="43.58017" lon="3.34262">
        <ele>320.8</ele>
        <time>2016-08-07T06:27:33Z</time>
      </trkpt>
      <trkpt lat="43.58024" lon="3.34256">
        <ele>322.1</ele>
        <time>2016-08-07T06:27:38Z</time>
      </trkpt>
      <trkpt lat="43.5803" lon="3.34249">
        <ele>323.4</ele>
        <time>2016-08-07T06:27:43Z</time>
      </trkpt>
      <trkpt lat="43.58037" lon="3.34244">
        <ele>324.5</ele>
        <time>2016-08-07T06:27:48Z</time>
      </trkpt>
      <trkpt lat="43.58045" lon="3.3424">
        <ele>325.9</ele>
        <time>2016-08-07T06:27:53Z</time>
      </trkpt>
      <trkpt lat="43.58053" lon="3.34237">
        <ele>327.1</ele>
        <time>2016-08-07T06:27:58Z</time>
      </trkpt>
      <trkpt lat="43.58061" lon="3.34234">
        <ele>328.5</ele>
        <time>2016-08-07T06:28:03Z</time>
      </trkpt>
      <trkpt lat="43.5807" lon="3.34232">
        <ele>330.3</ele>
        <time>2016-08-07T06:28:09Z</time>
      </trkpt>
      <trkpt lat="43.58077" lon="3.34229">
        <ele>331.5</ele>
        <time>2016-08-07T06:28:14Z</time>
      </trkpt>
      <trkpt lat="43.58086" lon="3.34228">
        <ele>332.2</ele>
        <time>2016-08-07T06:28:18Z</time>
      </trkpt>
      <trkpt lat="43.58094" lon="3.3423">
        <ele>333.4</ele>
        <time>2016-08-07T06:28:23Z</time>
      </trkpt>
      <trkpt lat="43.58103" lon="3.34235">
        <ele>334</ele>
        <time>2016-08-07T06:28:27Z</time>
      </trkpt>
      <trkpt lat="43.5811" lon="3.3424">
        <ele>334.5</ele>
        <time>2016-08-07T06:28:32Z</time>
      </trkpt>
      <trkpt lat="43.58114" lon="3.34251">
        <ele>335.3</ele>
        <time>2016-08-07T06:28:38Z</time>
      </trkpt>
      <trkpt lat="43.58117" lon="3.34261">
        <ele>336.1</ele>
        <time>2016-08-07T06:28:43Z</time>
      </trkpt>
      <trkpt lat="43.58119" lon="3.34272">
        <ele>336.9</ele>
        <time>2016-08-07T06:28:47Z</time>
      </trkpt>
      <trkpt lat="43.5812" lon="3.34283">
        <ele>337.6</ele>
        <time>2016-08-07T06:28:51Z</time>
      </trkpt>
      <trkpt lat="43.5812" lon="3.34295">
        <ele>338.5</ele>
        <time>2016-08-07T06:28:55Z</time>
      </trkpt>
      <trkpt lat="43.58122" lon="3.34305">
        <ele>339.3</ele>
        <time>2016-08-07T06:28:59Z</time>
      </trkpt>
      <trkpt lat="43.58124" lon="3.34317">
        <ele>339.9</ele>
        <time>2016-08-07T06:29:03Z</time>
      </trkpt>
      <trkpt lat="43.58127" lon="3.34326">
        <ele>340.9</ele>
        <time>2016-08-07T06:29:08Z</time>
      </trkpt>
      <trkpt lat="43.58131" lon="3.34338">
        <ele>342</ele>
        <time>2016-08-07T06:29:13Z</time>
      </trkpt>
      <trkpt lat="43.58134" lon="3.34349">
        <ele>342.6</ele>
        <time>2016-08-07T06:29:17Z</time>
      </trkpt>
      <trkpt lat="43.58139" lon="3.34359">
        <ele>343.2</ele>
        <time>2016-08-07T06:29:22Z</time>
      </trkpt>
      <trkpt lat="43.58143" lon="3.34368">
        <ele>343.9</ele>
        <time>2016-08-07T06:29:27Z</time>
      </trkpt>
      <trkpt lat="43.58147" lon="3.34377">
        <ele>344.4</ele>
        <time>2016-08-07T06:29:31Z</time>
      </trkpt>
      <trkpt lat="43.58152" lon="3.34385">
        <ele>345.1</ele>
        <time>2016-08-07T06:29:36Z</time>
      </trkpt>
      <trkpt lat="43.58157" lon="3.34393">
        <ele>345.7</ele>
        <time>2016-08-07T06:29:40Z</time>
      </trkpt>
      <trkpt lat="43.58163" lon="3.34401">
        <ele>346.3</ele>
        <time>2016-08-07T06:29:45Z</time>
      </trkpt>
      <trkpt lat="43.5817" lon="3.3441">
        <ele>347</ele>
        <time>2016-08-07T06:29:50Z</time>
      </trkpt>
      <trkpt lat="43.58176" lon="3.34418">
        <ele>347.8</ele>
        <time>2016-08-07T06:29:55Z</time>
      </trkpt>
      <trkpt lat="43.58181" lon="3.34425">
        <ele>348.5</ele>
        <time>2016-08-07T06:30:00Z</time>
      </trkpt>
      <trkpt lat="43.58188" lon="3.34433">
        <ele>349.3</ele>
        <time>2016-08-07T06:30:05Z</time>
      </trkpt>
      <trkpt lat="43.58194" lon="3.3444">
        <ele>349.8</ele>
        <time>2016-08-07T06:30:09Z</time>
      </trkpt>
      <trkpt lat="43.58199" lon="3.34448">
        <ele>350.3</ele>
        <time>2016-08-07T06:30:13Z</time>
      </trkpt>
      <trkpt lat="43.58205" lon="3.34454">
        <ele>350.8</ele>
        <time>2016-08-07T06:30:17Z</time>
      </trkpt>
      <trkpt lat="43.58213" lon="3.34458">
        <ele>351.7</ele>
        <time>2016-08-07T06:30:22Z</time>
      </trkpt>
      <trkpt lat="43.58222" lon="3.34459">
        <ele>353</ele>
        <time>2016-08-07T06:30:27Z</time>
      </trkpt>
      <trkpt lat="43.5823" lon="3.3446">
        <ele>353.9</ele>
        <time>2016-08-07T06:30:31Z</time>
      </trkpt>
      <trkpt lat="43.58239" lon="3.34462">
        <ele>354.9</ele>
        <time>2016-08-07T06:30:36Z</time>
      </trkpt>
      <trkpt lat="43.58247" lon="3.34464">
        <ele>355.9</ele>
        <time>2016-08-07T06:30:41Z</time>
      </trkpt>
      <trkpt lat="43.58254" lon="3.34464">
        <ele>357.2</ele>
        <time>2016-08-07T06:30:46Z</time>
      </trkpt>
      <trkpt lat="43.58261" lon="3.3446">
        <ele>358.6</ele>
        <time>2016-08-07T06:30:52Z</time>
      </trkpt>
      <trkpt lat="43.58269" lon="3.34459">
        <ele>359.9</ele>
        <time>2016-08-07T06:30:57Z</time>
      </trkpt>
      <trkpt lat="43.58276" lon="3.34456">
        <ele>361.3</ele>
        <time>2016-08-07T06:31:02Z</time>
      </trkpt>
      <trkpt lat="43.58284" lon="3.34451">
        <ele>362.4</ele>
        <time>2016-08-07T06:31:07Z</time>
      </trkpt>
      <trkpt lat="43.5829" lon="3.34443">
        <ele>363.1</ele>
        <time>2016-08-07T06:31:13Z</time>
      </trkpt>
      <trkpt lat="43.58287" lon="3.34432">
        <ele>363.9</ele>
        <time>2016-08-07T06:31:18Z</time>
      </trkpt>
      <trkpt lat="43.58278" lon="3.34428">
        <ele>364.4</ele>
        <time>2016-08-07T06:31:23Z</time>
      </trkpt>
      <trkpt lat="43.5827" lon="3.34427">
        <ele>364.9</ele>
        <time>2016-08-07T06:31:28Z</time>
      </trkpt>
      <trkpt lat="43.58263" lon="3.34423">
        <ele>365.6</ele>
        <time>2016-08-07T06:31:33Z</time>
      </trkpt>
      <trkpt lat="43.58257" lon="3.34416">
        <ele>366.1</ele>
        <time>2016-08-07T06:31:37Z</time>
      </trkpt>
      <trkpt lat="43.58253" lon="3.34407">
        <ele>366.6</ele>
        <time>2016-08-07T06:31:41Z</time>
      </trkpt>
      <trkpt lat="43.58249" lon="3.34398">
        <ele>367.1</ele>
        <time>2016-08-07T06:31:45Z</time>
      </trkpt>
      <trkpt lat="43.58245" lon="3.3439">
        <ele>367.8</ele>
        <time>2016-08-07T06:31:49Z</time>
      </trkpt>
      <trkpt lat="43.58241" lon="3.34379">
        <ele>368.5</ele>
        <time>2016-08-07T06:31:53Z</time>
      </trkpt>
      <trkpt lat="43.58237" lon="3.3437">
        <ele>369.4</ele>
        <time>2016-08-07T06:31:57Z</time>
      </trkpt>
      <trkpt lat="43.58233" lon="3.34359">
        <ele>370.3</ele>
        <time>2016-08-07T06:32:02Z</time>
      </trkpt>
      <trkpt lat="43.58229" lon="3.34348">
        <ele>371.1</ele>
        <time>2016-08-07T06:32:07Z</time>
      </trkpt>
      <trkpt lat="43.58226" lon="3.34337">
        <ele>371.9</ele>
        <time>2016-08-07T06:32:12Z</time>
      </trkpt>
      <trkpt lat="43.58223" lon="3.34325">
        <ele>372.6</ele>
        <time>2016-08-07T06:32:17Z</time>
      </trkpt>
      <trkpt lat="43.58222" lon="3.34314">
        <ele>372.9</ele>
        <time>2016-08-07T06:32:21Z</time>
      </trkpt>
      <trkpt lat="43.5822" lon="3.34303">
        <ele>373.3</ele>
        <time>2016-08-07T06:32:25Z</time>
      </trkpt>
      <trkpt lat="43.5822" lon="3.34292">
        <ele>373.7</ele>
        <time>2016-08-07T06:32:29Z</time>
      </trkpt>
      <trkpt lat="43.58222" lon="3.34281">
        <ele>374.2</ele>
        <time>2016-08-07T06:32:33Z</time>
      </trkpt>
      <trkpt lat="43.58222" lon="3.3427">
        <ele>374.8</ele>
        <time>2016-08-07T06:32:37Z</time>
      </trkpt>
      <trkpt lat="43.58223" lon="3.34257">
        <ele>375.2</ele>
        <time>2016-08-07T06:32:41Z</time>
      </trkpt>
      <trkpt lat="43.58223" lon="3.34244">
        <ele>375.8</ele>
        <time>2016-08-07T06:32:45Z</time>
      </trkpt>
      <trkpt lat="43.58223" lon="3.34232">
        <ele>376.3</ele>
        <time>2016-08-07T06:32:49Z</time>
      </trkpt>
      <trkpt lat="43.58225" lon="3.34221">
        <ele>376.8</ele>
        <time>2016-08-07T06:32:52Z</time>
      </trkpt>
      <trkpt lat="43.58227" lon="3.34209">
        <ele>377.4</ele>
        <time>2016-08-07T06:32:56Z</time>
      </trkpt>
      <trkpt lat="43.58231" lon="3.34198">
        <ele>377.9</ele>
        <time>2016-08-07T06:33:00Z</time>
      </trkpt>
      <trkpt lat="43.58235" lon="3.34188">
        <ele>378.5</ele>
        <time>2016-08-07T06:33:04Z</time>
      </trkpt>
      <trkpt lat="43.5824" lon="3.34178">
        <ele>379.1</ele>
        <time>2016-08-07T06:33:08Z</time>
      </trkpt>
      <trkpt lat="43.58244" lon="3.34168">
        <ele>379.6</ele>
        <time>2016-08-07T06:33:12Z</time>
      </trkpt>
      <trkpt lat="43.58249" lon="3.34157">
        <ele>380</ele>
        <time>2016-08-07T06:33:16Z</time>
      </trkpt>
      <trkpt lat="43.58253" lon="3.34148">
        <ele>380.5</ele>
        <time>2016-08-07T06:33:19Z</time>
      </trkpt>
      <trkpt lat="43.58258" lon="3.34138">
        <ele>381.4</ele>
        <time>2016-08-07T06:33:24Z</time>
      </trkpt>
      <trkpt lat="43.58263" lon="3.34128">
        <ele>382.1</ele>
        <time>2016-08-07T06:33:28Z</time>
      </trkpt>
      <trkpt lat="43.58268" lon="3.34117">
        <ele>382.7</ele>
        <time>2016-08-07T06:33:32Z</time>
      </trkpt>
      <trkpt lat="43.58273" lon="3.34107">
        <ele>383.2</ele>
        <time>2016-08-07T06:33:36Z</time>
      </trkpt>
      <trkpt lat="43.58278" lon="3.34098">
        <ele>383.8</ele>
        <time>2016-08-07T06:33:40Z</time>
      </trkpt>
      <trkpt lat="43.58283" lon="3.34087">
        <ele>384.2</ele>
        <time>2016-08-07T06:33:44Z</time>
      </trkpt>
      <trkpt lat="43.58286" lon="3.34078">
        <ele>384.7</ele>
        <time>2016-08-07T06:33:47Z</time>
      </trkpt>
      <trkpt lat="43.58289" lon="3.34067">
        <ele>385.4</ele>
        <time>2016-08-07T06:33:51Z</time>
      </trkpt>
      <trkpt lat="43.58286" lon="3.34055">
        <ele>386.1</ele>
        <time>2016-08-07T06:33:55Z</time>
      </trkpt>
      <trkpt lat="43.58279" lon="3.34046">
        <ele>386.5</ele>
        <time>2016-08-07T06:33:59Z</time>
      </trkpt>
      <trkpt lat="43.58272" lon="3.34041">
        <ele>387</ele>
        <time>2016-08-07T06:34:02Z</time>
      </trkpt>
      <trkpt lat="43.58265" lon="3.34037">
        <ele>387.6</ele>
        <time>2016-08-07T06:34:05Z</time>
      </trkpt>
      <trkpt lat="43.58258" lon="3.34032">
        <ele>388.3</ele>
        <time>2016-08-07T06:34:08Z</time>
      </trkpt>
      <trkpt lat="43.58252" lon="3.34026">
        <ele>388.9</ele>
        <time>2016-08-07T06:34:11Z</time>
      </trkpt>
      <trkpt lat="43.58246" lon="3.34019">
        <ele>389.6</ele>
        <time>2016-08-07T06:34:14Z</time>
      </trkpt>
      <trkpt lat="43.58241" lon="3.34012">
        <ele>390.2</ele>
        <time>2016-08-07T06:34:18Z</time>
      </trkpt>
      <trkpt lat="43.58235" lon="3.34002">
        <ele>390.3</ele>
        <time>2016-08-07T06:34:22Z</time>
      </trkpt>
      <trkpt lat="43.58228" lon="3.33993">
        <ele>390.5</ele>
        <time>2016-08-07T06:34:26Z</time>
      </trkpt>
      <trkpt lat="43.58222" lon="3.33985">
        <ele>390.9</ele>
        <time>2016-08-07T06:34:29Z</time>
      </trkpt>
      <trkpt lat="43.58216" lon="3.33977">
        <ele>391.2</ele>
        <time>2016-08-07T06:34:32Z</time>
      </trkpt>
      <trkpt lat="43.58211" lon="3.33967">
        <ele>391.6</ele>
        <time>2016-08-07T06:34:36Z</time>
      </trkpt>
      <trkpt lat="43.58207" lon="3.33958">
        <ele>392.4</ele>
        <time>2016-08-07T06:34:41Z</time>
      </trkpt>
      <trkpt lat="43.58206" lon="3.33951">
        <ele>393.4</ele>
        <time>2016-08-07T06:34:48Z</time>
      </trkpt>
      <trkpt lat="43.58206" lon="3.33955">
        <ele>394.3</ele>
        <time>2016-08-07T06:34:55Z</time>
      </trkpt>
      <trkpt lat="43.58206" lon="3.33954">
        <ele>398.1</ele>
        <time>2016-08-07T06:35:46Z</time>
      </trkpt>
      <trkpt lat="43.58207" lon="3.33945">
        <ele>401.8</ele>
        <time>2016-08-07T06:37:19Z</time>
      </trkpt>
      <trkpt lat="43.58205" lon="3.33933">
        <ele>401.8</ele>
        <time>2016-08-07T06:37:23Z</time>
      </trkpt>
      <trkpt lat="43.58206" lon="3.3392">
        <ele>401.8</ele>
        <time>2016-08-07T06:37:27Z</time>
      </trkpt>
      <trkpt lat="43.58207" lon="3.3391">
        <ele>401.8</ele>
        <time>2016-08-07T06:37:31Z</time>
      </trkpt>
      <trkpt lat="43.58209" lon="3.33899">
        <ele>402.1</ele>
        <time>2016-08-07T06:37:35Z</time>
      </trkpt>
      <trkpt lat="43.58211" lon="3.33887">
        <ele>402.4</ele>
        <time>2016-08-07T06:37:39Z</time>
      </trkpt>
      <trkpt lat="43.58215" lon="3.33876">
        <ele>402.8</ele>
        <time>2016-08-07T06:37:43Z</time>
      </trkpt>
      <trkpt lat="43.58219" lon="3.33865">
        <ele>402.9</ele>
        <time>2016-08-07T06:37:47Z</time>
      </trkpt>
      <trkpt lat="43.58221" lon="3.33855">
        <ele>403</ele>
        <time>2016-08-07T06:37:50Z</time>
      </trkpt>
      <trkpt lat="43.58225" lon="3.33846">
        <ele>403.1</ele>
        <time>2016-08-07T06:37:53Z</time>
      </trkpt>
      <trkpt lat="43.58228" lon="3.33837">
        <ele>403.3</ele>
        <time>2016-08-07T06:37:56Z</time>
      </trkpt>
      <trkpt lat="43.58232" lon="3.33826">
        <ele>403.6</ele>
        <time>2016-08-07T06:38:00Z</time>
      </trkpt>
      <trkpt lat="43.58235" lon="3.33817">
        <ele>403.8</ele>
        <time>2016-08-07T06:38:03Z</time>
      </trkpt>
      <trkpt lat="43.58237" lon="3.33804">
        <ele>404.1</ele>
        <time>2016-08-07T06:38:07Z</time>
      </trkpt>
      <trkpt lat="43.58239" lon="3.33793">
        <ele>404.5</ele>
        <time>2016-08-07T06:38:10Z</time>
      </trkpt>
      <trkpt lat="43.5824" lon="3.33783">
        <ele>405.1</ele>
        <time>2016-08-07T06:38:13Z</time>
      </trkpt>
      <trkpt lat="43.58242" lon="3.33769">
        <ele>405.8</ele>
        <time>2016-08-07T06:38:17Z</time>
      </trkpt>
      <trkpt lat="43.58244" lon="3.3376">
        <ele>406.3</ele>
        <time>2016-08-07T06:38:20Z</time>
      </trkpt>
      <trkpt lat="43.58245" lon="3.33749">
        <ele>406.6</ele>
        <time>2016-08-07T06:38:23Z</time>
      </trkpt>
      <trkpt lat="43.58245" lon="3.33737">
        <ele>406.8</ele>
        <time>2016-08-07T06:38:27Z</time>
      </trkpt>
      <trkpt lat="43.58244" lon="3.33727">
        <ele>406.8</ele>
        <time>2016-08-07T06:38:30Z</time>
      </trkpt>
      <trkpt lat="43.58242" lon="3.33714">
        <ele>406.8</ele>
        <time>2016-08-07T06:38:34Z</time>
      </trkpt>
      <trkpt lat="43.5824" lon="3.33704">
        <ele>406.7</ele>
        <time>2016-08-07T06:38:37Z</time>
      </trkpt>
      <trkpt lat="43.58239" lon="3.33694">
        <ele>406.7</ele>
        <time>2016-08-07T06:38:40Z</time>
      </trkpt>
      <trkpt lat="43.58239" lon="3.33683">
        <ele>406.7</ele>
        <time>2016-08-07T06:38:43Z</time>
      </trkpt>
      <trkpt lat="43.5824" lon="3.3367">
        <ele>406.8</ele>
        <time>2016-08-07T06:38:46Z</time>
      </trkpt>
      <trkpt lat="43.58242" lon="3.33658">
        <ele>407</ele>
        <time>2016-08-07T06:38:50Z</time>
      </trkpt>
      <trkpt lat="43.58244" lon="3.33648">
        <ele>407.3</ele>
        <time>2016-08-07T06:38:53Z</time>
      </trkpt>
      <trkpt lat="43.58247" lon="3.33638">
        <ele>407.6</ele>
        <time>2016-08-07T06:38:56Z</time>
      </trkpt>
      <trkpt lat="43.5825" lon="3.33628">
        <ele>408</ele>
        <time>2016-08-07T06:38:59Z</time>
      </trkpt>
      <trkpt lat="43.58254" lon="3.33615">
        <ele>408.5</ele>
        <time>2016-08-07T06:39:03Z</time>
      </trkpt>
      <trkpt lat="43.58257" lon="3.33606">
        <ele>408.9</ele>
        <time>2016-08-07T06:39:06Z</time>
      </trkpt>
      <trkpt lat="43.58261" lon="3.33594">
        <ele>409.4</ele>
        <time>2016-08-07T06:39:10Z</time>
      </trkpt>
      <trkpt lat="43.58266" lon="3.33585">
        <ele>409.8</ele>
        <time>2016-08-07T06:39:13Z</time>
      </trkpt>
      <trkpt lat="43.58271" lon="3.33577">
        <ele>410.1</ele>
        <time>2016-08-07T06:39:16Z</time>
      </trkpt>
      <trkpt lat="43.58275" lon="3.33568">
        <ele>410.4</ele>
        <time>2016-08-07T06:39:19Z</time>
      </trkpt>
      <trkpt lat="43.58279" lon="3.33559">
        <ele>410.7</ele>
        <time>2016-08-07T06:39:22Z</time>
      </trkpt>
      <trkpt lat="43.58282" lon="3.33547">
        <ele>411</ele>
        <time>2016-08-07T06:39:25Z</time>
      </trkpt>
      <trkpt lat="43.58284" lon="3.33536">
        <ele>411.2</ele>
        <time>2016-08-07T06:39:28Z</time>
      </trkpt>
      <trkpt lat="43.58286" lon="3.33524">
        <ele>411.4</ele>
        <time>2016-08-07T06:39:31Z</time>
      </trkpt>
      <trkpt lat="43.58288" lon="3.33512">
        <ele>411.7</ele>
        <time>2016-08-07T06:39:34Z</time>
      </trkpt>
      <trkpt lat="43.58289" lon="3.33501">
        <ele>412</ele>
        <time>2016-08-07T06:39:37Z</time>
      </trkpt>
      <trkpt lat="43.5829" lon="3.33487">
        <ele>412.2</ele>
        <time>2016-08-07T06:39:41Z</time>
      </trkpt>
      <trkpt lat="43.5829" lon="3.33476">
        <ele>412.4</ele>
        <time>2016-08-07T06:39:44Z</time>
      </trkpt>
      <trkpt lat="43.58291" lon="3.33464">
        <ele>412.5</ele>
        <time>2016-08-07T06:39:47Z</time>
      </trkpt>
      <trkpt lat="43.58292" lon="3.33453">
        <ele>412.6</ele>
        <time>2016-08-07T06:39:50Z</time>
      </trkpt>
      <trkpt lat="43.58294" lon="3.33441">
        <ele>412.7</ele>
        <time>2016-08-07T06:39:53Z</time>
      </trkpt>
      <trkpt lat="43.58296" lon="3.33429">
        <ele>412.7</ele>
        <time>2016-08-07T06:39:56Z</time>
      </trkpt>
      <trkpt lat="43.58299" lon="3.33416">
        <ele>412.6</ele>
        <time>2016-08-07T06:39:59Z</time>
      </trkpt>
      <trkpt lat="43.58301" lon="3.33404">
        <ele>412.5</ele>
        <time>2016-08-07T06:40:02Z</time>
      </trkpt>
      <trkpt lat="43.58303" lon="3.33391">
        <ele>412.2</ele>
        <time>2016-08-07T06:40:05Z</time>
      </trkpt>
      <trkpt lat="43.58305" lon="3.33379">
        <ele>411.9</ele>
        <time>2016-08-07T06:40:08Z</time>
      </trkpt>
      <trkpt lat="43.58306" lon="3.33367">
        <ele>411.6</ele>
        <time>2016-08-07T06:40:11Z</time>
      </trkpt>
      <trkpt lat="43.58306" lon="3.33353">
        <ele>411.4</ele>
        <time>2016-08-07T06:40:14Z</time>
      </trkpt>
      <trkpt lat="43.58307" lon="3.33339">
        <ele>411.4</ele>
        <time>2016-08-07T06:40:17Z</time>
      </trkpt>
      <trkpt lat="43.58307" lon="3.33328">
        <ele>411.2</ele>
        <time>2016-08-07T06:40:19Z</time>
      </trkpt>
      <trkpt lat="43.58307" lon="3.33315">
        <ele>411</ele>
        <time>2016-08-07T06:40:21Z</time>
      </trkpt>
      <trkpt lat="43.58307" lon="3.333">
        <ele>411.1</ele>
        <time>2016-08-07T06:40:23Z</time>
      </trkpt>
      <trkpt lat="43.58307" lon="3.33284">
        <ele>410.8</ele>
        <time>2016-08-07T06:40:25Z</time>
      </trkpt>
      <trkpt lat="43.58307" lon="3.33271">
        <ele>409.9</ele>
        <time>2016-08-07T06:40:27Z</time>
      </trkpt>
      <trkpt lat="43.58306" lon="3.33258">
        <ele>409.7</ele>
        <time>2016-08-07T06:40:29Z</time>
      </trkpt>
      <trkpt lat="43.58306" lon="3.33243">
        <ele>409.8</ele>
        <time>2016-08-07T06:40:31Z</time>
      </trkpt>
      <trkpt lat="43.58306" lon="3.3323">
        <ele>409.2</ele>
        <time>2016-08-07T06:40:33Z</time>
      </trkpt>
      <trkpt lat="43.58309" lon="3.33216">
        <ele>409.1</ele>
        <time>2016-08-07T06:40:35Z</time>
      </trkpt>
      <trkpt lat="43.58313" lon="3.33203">
        <ele>409</ele>
        <time>2016-08-07T06:40:37Z</time>
      </trkpt>
      <trkpt lat="43.58316" lon="3.33192">
        <ele>408.2</ele>
        <time>2016-08-07T06:40:39Z</time>
      </trkpt>
      <trkpt lat="43.58319" lon="3.33181">
        <ele>407.3</ele>
        <time>2016-08-07T06:40:41Z</time>
      </trkpt>
      <trkpt lat="43.58323" lon="3.3317">
        <ele>407.3</ele>
        <time>2016-08-07T06:40:43Z</time>
      </trkpt>
      <trkpt lat="43.58325" lon="3.33159">
        <ele>407</ele>
        <time>2016-08-07T06:40:45Z</time>
      </trkpt>
      <trkpt lat="43.58326" lon="3.33146">
        <ele>406.4</ele>
        <time>2016-08-07T06:40:47Z</time>
      </trkpt>
      <trkpt lat="43.58326" lon="3.33133">
        <ele>405.9</ele>
        <time>2016-08-07T06:40:49Z</time>
      </trkpt>
      <trkpt lat="43.58324" lon="3.33122">
        <ele>405.4</ele>
        <time>2016-08-07T06:40:51Z</time>
      </trkpt>
      <trkpt lat="43.58323" lon="3.33109">
        <ele>405.2</ele>
        <time>2016-08-07T06:40:53Z</time>
      </trkpt>
      <trkpt lat="43.58322" lon="3.33093">
        <ele>404.6</ele>
        <time>2016-08-07T06:40:55Z</time>
      </trkpt>
      <trkpt lat="43.58321" lon="3.33078">
        <ele>404.9</ele>
        <time>2016-08-07T06:40:57Z</time>
      </trkpt>
      <trkpt lat="43.58323" lon="3.33063">
        <ele>405.3</ele>
        <time>2016-08-07T06:40:59Z</time>
      </trkpt>
      <trkpt lat="43.58326" lon="3.33047">
        <ele>405.3</ele>
        <time>2016-08-07T06:41:01Z</time>
      </trkpt>
      <trkpt lat="43.58331" lon="3.33031">
        <ele>405.5</ele>
        <time>2016-08-07T06:41:03Z</time>
      </trkpt>
      <trkpt lat="43.58337" lon="3.33014">
        <ele>404.7</ele>
        <time>2016-08-07T06:41:05Z</time>
      </trkpt>
      <trkpt lat="43.58343" lon="3.32997">
        <ele>403.7</ele>
        <time>2016-08-07T06:41:07Z</time>
      </trkpt>
      <trkpt lat="43.58347" lon="3.3298">
        <ele>402.9</ele>
        <time>2016-08-07T06:41:09Z</time>
      </trkpt>
      <trkpt lat="43.58351" lon="3.32963">
        <ele>402.1</ele>
        <time>2016-08-07T06:41:11Z</time>
      </trkpt>
      <trkpt lat="43.58352" lon="3.32946">
        <ele>401.3</ele>
        <time>2016-08-07T06:41:13Z</time>
      </trkpt>
      <trkpt lat="43.58353" lon="3.32932">
        <ele>400.7</ele>
        <time>2016-08-07T06:41:15Z</time>
      </trkpt>
      <trkpt lat="43.58352" lon="3.32919">
        <ele>400.4</ele>
        <time>2016-08-07T06:41:17Z</time>
      </trkpt>
      <trkpt lat="43.58351" lon="3.32907">
        <ele>400.4</ele>
        <time>2016-08-07T06:41:19Z</time>
      </trkpt>
      <trkpt lat="43.5835" lon="3.32895">
        <ele>400.2</ele>
        <time>2016-08-07T06:41:21Z</time>
      </trkpt>
      <trkpt lat="43.58349" lon="3.32884">
        <ele>400</ele>
        <time>2016-08-07T06:41:23Z</time>
      </trkpt>
      <trkpt lat="43.58348" lon="3.32872">
        <ele>400.2</ele>
        <time>2016-08-07T06:41:25Z</time>
      </trkpt>
      <trkpt lat="43.58347" lon="3.32861">
        <ele>400.1</ele>
        <time>2016-08-07T06:41:27Z</time>
      </trkpt>
      <trkpt lat="43.58343" lon="3.32851">
        <ele>400.2</ele>
        <time>2016-08-07T06:41:30Z</time>
      </trkpt>
      <trkpt lat="43.58339" lon="3.32839">
        <ele>400.1</ele>
        <time>2016-08-07T06:41:33Z</time>
      </trkpt>
      <trkpt lat="43.58332" lon="3.32832">
        <ele>400.1</ele>
        <time>2016-08-07T06:41:36Z</time>
      </trkpt>
      <trkpt lat="43.58325" lon="3.32827">
        <ele>400.2</ele>
        <time>2016-08-07T06:41:39Z</time>
      </trkpt>
      <trkpt lat="43.58317" lon="3.32822">
        <ele>400.3</ele>
        <time>2016-08-07T06:41:42Z</time>
      </trkpt>
      <trkpt lat="43.58309" lon="3.32815">
        <ele>400.5</ele>
        <time>2016-08-07T06:41:45Z</time>
      </trkpt>
      <trkpt lat="43.58299" lon="3.32808">
        <ele>400.8</ele>
        <time>2016-08-07T06:41:48Z</time>
      </trkpt>
      <trkpt lat="43.58291" lon="3.32802">
        <ele>401</ele>
        <time>2016-08-07T06:41:51Z</time>
      </trkpt>
      <trkpt lat="43.58281" lon="3.32796">
        <ele>401</ele>
        <time>2016-08-07T06:41:54Z</time>
      </trkpt>
      <trkpt lat="43.58272" lon="3.32791">
        <ele>401</ele>
        <time>2016-08-07T06:41:57Z</time>
      </trkpt>
      <trkpt lat="43.58265" lon="3.32787">
        <ele>401.1</ele>
        <time>2016-08-07T06:41:59Z</time>
      </trkpt>
      <trkpt lat="43.58258" lon="3.32783">
        <ele>401.1</ele>
        <time>2016-08-07T06:42:01Z</time>
      </trkpt>
      <trkpt lat="43.58249" lon="3.32776">
        <ele>401.1</ele>
        <time>2016-08-07T06:42:04Z</time>
      </trkpt>
      <trkpt lat="43.58243" lon="3.32771">
        <ele>401.1</ele>
        <time>2016-08-07T06:42:06Z</time>
      </trkpt>
      <trkpt lat="43.58237" lon="3.32764">
        <ele>401.2</ele>
        <time>2016-08-07T06:42:08Z</time>
      </trkpt>
      <trkpt lat="43.58232" lon="3.32754">
        <ele>401.2</ele>
        <time>2016-08-07T06:42:11Z</time>
      </trkpt>
      <trkpt lat="43.5823" lon="3.32741">
        <ele>400.9</ele>
        <time>2016-08-07T06:42:15Z</time>
      </trkpt>
      <trkpt lat="43.58229" lon="3.32729">
        <ele>400.6</ele>
        <time>2016-08-07T06:42:18Z</time>
      </trkpt>
      <trkpt lat="43.58228" lon="3.32716">
        <ele>400.4</ele>
        <time>2016-08-07T06:42:21Z</time>
      </trkpt>
      <trkpt lat="43.58227" lon="3.32703">
        <ele>400.1</ele>
        <time>2016-08-07T06:42:24Z</time>
      </trkpt>
      <trkpt lat="43.58228" lon="3.32691">
        <ele>399.9</ele>
        <time>2016-08-07T06:42:27Z</time>
      </trkpt>
      <trkpt lat="43.58228" lon="3.32678">
        <ele>399.8</ele>
        <time>2016-08-07T06:42:30Z</time>
      </trkpt>
      <trkpt lat="43.58229" lon="3.32665">
        <ele>399.7</ele>
        <time>2016-08-07T06:42:33Z</time>
      </trkpt>
      <trkpt lat="43.5823" lon="3.32652">
        <ele>399.6</ele>
        <time>2016-08-07T06:42:36Z</time>
      </trkpt>
      <trkpt lat="43.58231" lon="3.3264">
        <ele>399.6</ele>
        <time>2016-08-07T06:42:39Z</time>
      </trkpt>
      <trkpt lat="43.58233" lon="3.32627">
        <ele>399.8</ele>
        <time>2016-08-07T06:42:42Z</time>
      </trkpt>
      <trkpt lat="43.58234" lon="3.32616">
        <ele>400</ele>
        <time>2016-08-07T06:42:45Z</time>
      </trkpt>
      <trkpt lat="43.58235" lon="3.32606">
        <ele>400.2</ele>
        <time>2016-08-07T06:42:48Z</time>
      </trkpt>
      <trkpt lat="43.58237" lon="3.32594">
        <ele>400.5</ele>
        <time>2016-08-07T06:42:51Z</time>
      </trkpt>
      <trkpt lat="43.58239" lon="3.32582">
        <ele>400.7</ele>
        <time>2016-08-07T06:42:54Z</time>
      </trkpt>
      <trkpt lat="43.58243" lon="3.32571">
        <ele>401</ele>
        <time>2016-08-07T06:42:57Z</time>
      </trkpt>
      <trkpt lat="43.58246" lon="3.3256">
        <ele>401.2</ele>
        <time>2016-08-07T06:43:00Z</time>
      </trkpt>
      <trkpt lat="43.58248" lon="3.32549">
        <ele>401.5</ele>
        <time>2016-08-07T06:43:03Z</time>
      </trkpt>
      <trkpt lat="43.58248" lon="3.32536">
        <ele>402</ele>
        <time>2016-08-07T06:43:06Z</time>
      </trkpt>
      <trkpt lat="43.58245" lon="3.32524">
        <ele>402.5</ele>
        <time>2016-08-07T06:43:09Z</time>
      </trkpt>
      <trkpt lat="43.58242" lon="3.32513">
        <ele>403.1</ele>
        <time>2016-08-07T06:43:12Z</time>
      </trkpt>
      <trkpt lat="43.58239" lon="3.32502">
        <ele>403.6</ele>
        <time>2016-08-07T06:43:15Z</time>
      </trkpt>
      <trkpt lat="43.58237" lon="3.3249">
        <ele>404.2</ele>
        <time>2016-08-07T06:43:18Z</time>
      </trkpt>
      <trkpt lat="43.58238" lon="3.32477">
        <ele>404.7</ele>
        <time>2016-08-07T06:43:21Z</time>
      </trkpt>
      <trkpt lat="43.58241" lon="3.32465">
        <ele>405.1</ele>
        <time>2016-08-07T06:43:24Z</time>
      </trkpt>
      <trkpt lat="43.58245" lon="3.32455">
        <ele>405.3</ele>
        <time>2016-08-07T06:43:27Z</time>
      </trkpt>
      <trkpt lat="43.58251" lon="3.32446">
        <ele>405.5</ele>
        <time>2016-08-07T06:43:30Z</time>
      </trkpt>
      <trkpt lat="43.58258" lon="3.32438">
        <ele>405.7</ele>
        <time>2016-08-07T06:43:33Z</time>
      </trkpt>
      <trkpt lat="43.58265" lon="3.3243">
        <ele>406</ele>
        <time>2016-08-07T06:43:36Z</time>
      </trkpt>
      <trkpt lat="43.58271" lon="3.32423">
        <ele>406.3</ele>
        <time>2016-08-07T06:43:39Z</time>
      </trkpt>
      <trkpt lat="43.58278" lon="3.32416">
        <ele>406.6</ele>
        <time>2016-08-07T06:43:42Z</time>
      </trkpt>
      <trkpt lat="43.58285" lon="3.32408">
        <ele>406.9</ele>
        <time>2016-08-07T06:43:45Z</time>
      </trkpt>
      <trkpt lat="43.58293" lon="3.32402">
        <ele>407.3</ele>
        <time>2016-08-07T06:43:48Z</time>
      </trkpt>
      <trkpt lat="43.58301" lon="3.32397">
        <ele>407.9</ele>
        <time>2016-08-07T06:43:51Z</time>
      </trkpt>
      <trkpt lat="43.58309" lon="3.32393">
        <ele>408.4</ele>
        <time>2016-08-07T06:43:54Z</time>
      </trkpt>
      <trkpt lat="43.58318" lon="3.32391">
        <ele>409</ele>
        <time>2016-08-07T06:43:57Z</time>
      </trkpt>
      <trkpt lat="43.58326" lon="3.32391">
        <ele>409.6</ele>
        <time>2016-08-07T06:44:00Z</time>
      </trkpt>
      <trkpt lat="43.58334" lon="3.3239">
        <ele>410.2</ele>
        <time>2016-08-07T06:44:03Z</time>
      </trkpt>
      <trkpt lat="43.58342" lon="3.32391">
        <ele>410.9</ele>
        <time>2016-08-07T06:44:06Z</time>
      </trkpt>
      <trkpt lat="43.58349" lon="3.32392">
        <ele>411.6</ele>
        <time>2016-08-07T06:44:09Z</time>
      </trkpt>
      <trkpt lat="43.58358" lon="3.32392">
        <ele>412.3</ele>
        <time>2016-08-07T06:44:12Z</time>
      </trkpt>
      <trkpt lat="43.58368" lon="3.32393">
        <ele>413.2</ele>
        <time>2016-08-07T06:44:16Z</time>
      </trkpt>
      <trkpt lat="43.58375" lon="3.32394">
        <ele>413.9</ele>
        <time>2016-08-07T06:44:19Z</time>
      </trkpt>
      <trkpt lat="43.58382" lon="3.32393">
        <ele>414.5</ele>
        <time>2016-08-07T06:44:22Z</time>
      </trkpt>
      <trkpt lat="43.5839" lon="3.32391">
        <ele>415.1</ele>
        <time>2016-08-07T06:44:25Z</time>
      </trkpt>
      <trkpt lat="43.58397" lon="3.32386">
        <ele>415.7</ele>
        <time>2016-08-07T06:44:28Z</time>
      </trkpt>
      <trkpt lat="43.58404" lon="3.3238">
        <ele>416.2</ele>
        <time>2016-08-07T06:44:31Z</time>
      </trkpt>
      <trkpt lat="43.58411" lon="3.32375">
        <ele>416.8</ele>
        <time>2016-08-07T06:44:34Z</time>
      </trkpt>
      <trkpt lat="43.58417" lon="3.32369">
        <ele>417.3</ele>
        <time>2016-08-07T06:44:37Z</time>
      </trkpt>
      <trkpt lat="43.58423" lon="3.32363">
        <ele>417.8</ele>
        <time>2016-08-07T06:44:40Z</time>
      </trkpt>
      <trkpt lat="43.58431" lon="3.32356">
        <ele>418.4</ele>
        <time>2016-08-07T06:44:44Z</time>
      </trkpt>
      <trkpt lat="43.58438" lon="3.32348">
        <ele>419</ele>
        <time>2016-08-07T06:44:48Z</time>
      </trkpt>
      <trkpt lat="43.58444" lon="3.32343">
        <ele>419.4</ele>
        <time>2016-08-07T06:44:51Z</time>
      </trkpt>
      <trkpt lat="43.58452" lon="3.32336">
        <ele>420.1</ele>
        <time>2016-08-07T06:44:55Z</time>
      </trkpt>
      <trkpt lat="43.5846" lon="3.32329">
        <ele>420.6</ele>
        <time>2016-08-07T06:44:59Z</time>
      </trkpt>
      <trkpt lat="43.58467" lon="3.32322">
        <ele>421</ele>
        <time>2016-08-07T06:45:02Z</time>
      </trkpt>
      <trkpt lat="43.58475" lon="3.32316">
        <ele>421.4</ele>
        <time>2016-08-07T06:45:05Z</time>
      </trkpt>
      <trkpt lat="43.58481" lon="3.32309">
        <ele>421.9</ele>
        <time>2016-08-07T06:45:08Z</time>
      </trkpt>
      <trkpt lat="43.58485" lon="3.323">
        <ele>422.4</ele>
        <time>2016-08-07T06:45:11Z</time>
      </trkpt>
      <trkpt lat="43.5849" lon="3.32291">
        <ele>422.9</ele>
        <time>2016-08-07T06:45:14Z</time>
      </trkpt>
      <trkpt lat="43.58496" lon="3.32281">
        <ele>423.3</ele>
        <time>2016-08-07T06:45:17Z</time>
      </trkpt>
      <trkpt lat="43.58502" lon="3.32271">
        <ele>423.7</ele>
        <time>2016-08-07T06:45:20Z</time>
      </trkpt>
      <trkpt lat="43.58509" lon="3.3226">
        <ele>424.5</ele>
        <time>2016-08-07T06:45:24Z</time>
      </trkpt>
      <trkpt lat="43.58514" lon="3.32249">
        <ele>425.5</ele>
        <time>2016-08-07T06:45:28Z</time>
      </trkpt>
      <trkpt lat="43.58518" lon="3.32239">
        <ele>426.3</ele>
        <time>2016-08-07T06:45:31Z</time>
      </trkpt>
      <trkpt lat="43.58521" lon="3.32229">
        <ele>427.1</ele>
        <time>2016-08-07T06:45:34Z</time>
      </trkpt>
      <trkpt lat="43.58523" lon="3.32218">
        <ele>427.8</ele>
        <time>2016-08-07T06:45:37Z</time>
      </trkpt>
      <trkpt lat="43.58522" lon="3.32208">
        <ele>429</ele>
        <time>2016-08-07T06:45:41Z</time>
      </trkpt>
      <trkpt lat="43.58518" lon="3.32194">
        <ele>429.9</ele>
        <time>2016-08-07T06:45:44Z</time>
      </trkpt>
      <trkpt lat="43.58511" lon="3.32184">
        <ele>430.5</ele>
        <time>2016-08-07T06:45:47Z</time>
      </trkpt>
      <trkpt lat="43.58503" lon="3.32176">
        <ele>432.2</ele>
        <time>2016-08-07T06:45:50Z</time>
      </trkpt>
      <trkpt lat="43.58496" lon="3.32165">
        <ele>432.5</ele>
        <time>2016-08-07T06:45:53Z</time>
      </trkpt>
      <trkpt lat="43.58492" lon="3.32156">
        <ele>432.6</ele>
        <time>2016-08-07T06:45:55Z</time>
      </trkpt>
      <trkpt lat="43.58489" lon="3.32145">
        <ele>432.8</ele>
        <time>2016-08-07T06:45:57Z</time>
      </trkpt>
      <trkpt lat="43.58489" lon="3.32133">
        <ele>433</ele>
        <time>2016-08-07T06:45:59Z</time>
      </trkpt>
      <trkpt lat="43.58489" lon="3.32118">
        <ele>433.5</ele>
        <time>2016-08-07T06:46:02Z</time>
      </trkpt>
      <trkpt lat="43.58486" lon="3.32109">
        <ele>433.8</ele>
        <time>2016-08-07T06:46:04Z</time>
      </trkpt>
      <trkpt lat="43.58479" lon="3.32098">
        <ele>434.3</ele>
        <time>2016-08-07T06:46:07Z</time>
      </trkpt>
      <trkpt lat="43.58472" lon="3.3209">
        <ele>434.8</ele>
        <time>2016-08-07T06:46:10Z</time>
      </trkpt>
      <trkpt lat="43.58463" lon="3.32085">
        <ele>435.2</ele>
        <time>2016-08-07T06:46:13Z</time>
      </trkpt>
      <trkpt lat="43.58455" lon="3.32084">
        <ele>435.6</ele>
        <time>2016-08-07T06:46:16Z</time>
      </trkpt>
      <trkpt lat="43.58447" lon="3.32082">
        <ele>436.3</ele>
        <time>2016-08-07T06:46:20Z</time>
      </trkpt>
      <trkpt lat="43.5844" lon="3.32078">
        <ele>437.3</ele>
        <time>2016-08-07T06:46:27Z</time>
      </trkpt>
      <trkpt lat="43.58448" lon="3.32074">
        <ele>437.9</ele>
        <time>2016-08-07T06:46:32Z</time>
      </trkpt>
      <trkpt lat="43.5845" lon="3.32071">
        <ele>438.5</ele>
        <time>2016-08-07T06:46:39Z</time>
      </trkpt>
      <trkpt lat="43.58456" lon="3.32062">
        <ele>439.3</ele>
        <time>2016-08-07T06:46:45Z</time>
      </trkpt>
      <trkpt lat="43.58464" lon="3.32056">
        <ele>439.6</ele>
        <time>2016-08-07T06:46:49Z</time>
      </trkpt>
      <trkpt lat="43.5847" lon="3.3205">
        <ele>439.7</ele>
        <time>2016-08-07T06:46:52Z</time>
      </trkpt>
      <trkpt lat="43.58476" lon="3.32044">
        <ele>440</ele>
        <time>2016-08-07T06:46:55Z</time>
      </trkpt>
      <trkpt lat="43.58482" lon="3.32037">
        <ele>440.5</ele>
        <time>2016-08-07T06:46:59Z</time>
      </trkpt>
      <trkpt lat="43.58487" lon="3.3203">
        <ele>440.8</ele>
        <time>2016-08-07T06:47:02Z</time>
      </trkpt>
      <trkpt lat="43.58492" lon="3.32021">
        <ele>441.2</ele>
        <time>2016-08-07T06:47:06Z</time>
      </trkpt>
      <trkpt lat="43.58498" lon="3.32013">
        <ele>441.7</ele>
        <time>2016-08-07T06:47:11Z</time>
      </trkpt>
      <trkpt lat="43.58501" lon="3.32003">
        <ele>442.1</ele>
        <time>2016-08-07T06:47:16Z</time>
      </trkpt>
      <trkpt lat="43.58501" lon="3.3199">
        <ele>442.4</ele>
        <time>2016-08-07T06:47:21Z</time>
      </trkpt>
      <trkpt lat="43.58496" lon="3.31979">
        <ele>442.7</ele>
        <time>2016-08-07T06:47:26Z</time>
      </trkpt>
      <trkpt lat="43.58493" lon="3.31969">
        <ele>443.2</ele>
        <time>2016-08-07T06:47:30Z</time>
      </trkpt>
      <trkpt lat="43.58488" lon="3.31959">
        <ele>443.6</ele>
        <time>2016-08-07T06:47:33Z</time>
      </trkpt>
      <trkpt lat="43.58487" lon="3.31945">
        <ele>445.5</ele>
        <time>2016-08-07T06:47:36Z</time>
      </trkpt>
      <trkpt lat="43.58488" lon="3.31928">
        <ele>447.7</ele>
        <time>2016-08-07T06:47:38Z</time>
      </trkpt>
      <trkpt lat="43.58492" lon="3.31913">
        <ele>449.1</ele>
        <time>2016-08-07T06:47:40Z</time>
      </trkpt>
      <trkpt lat="43.58495" lon="3.31903">
        <ele>449.1</ele>
        <time>2016-08-07T06:47:42Z</time>
      </trkpt>
      <trkpt lat="43.58498" lon="3.31892">
        <ele>449.3</ele>
        <time>2016-08-07T06:47:44Z</time>
      </trkpt>
      <trkpt lat="43.58498" lon="3.31878">
        <ele>449.4</ele>
        <time>2016-08-07T06:47:46Z</time>
      </trkpt>
      <trkpt lat="43.58495" lon="3.31863">
        <ele>450.6</ele>
        <time>2016-08-07T06:47:48Z</time>
      </trkpt>
      <trkpt lat="43.58491" lon="3.31845">
        <ele>451.7</ele>
        <time>2016-08-07T06:47:50Z</time>
      </trkpt>
      <trkpt lat="43.58486" lon="3.31824">
        <ele>452.1</ele>
        <time>2016-08-07T06:47:52Z</time>
      </trkpt>
      <trkpt lat="43.58486" lon="3.31812">
        <ele>452.7</ele>
        <time>2016-08-07T06:47:53Z</time>
      </trkpt>
      <trkpt lat="43.58487" lon="3.31802">
        <ele>453.4</ele>
        <time>2016-08-07T06:47:54Z</time>
      </trkpt>
      <trkpt lat="43.58489" lon="3.3179">
        <ele>453.4</ele>
        <time>2016-08-07T06:47:55Z</time>
      </trkpt>
      <trkpt lat="43.58491" lon="3.31773">
        <ele>453.3</ele>
        <time>2016-08-07T06:47:57Z</time>
      </trkpt>
      <trkpt lat="43.58496" lon="3.31758">
        <ele>453.2</ele>
        <time>2016-08-07T06:47:59Z</time>
      </trkpt>
      <trkpt lat="43.585" lon="3.31744">
        <ele>452.4</ele>
        <time>2016-08-07T06:48:01Z</time>
      </trkpt>
      <trkpt lat="43.58495" lon="3.31735">
        <ele>452.2</ele>
        <time>2016-08-07T06:48:03Z</time>
      </trkpt>
      <trkpt lat="43.5849" lon="3.31727">
        <ele>452</ele>
        <time>2016-08-07T06:48:05Z</time>
      </trkpt>
      <trkpt lat="43.58486" lon="3.31717">
        <ele>451.8</ele>
        <time>2016-08-07T06:48:07Z</time>
      </trkpt>
      <trkpt lat="43.58478" lon="3.31712">
        <ele>449.2</ele>
        <time>2016-08-07T06:48:09Z</time>
      </trkpt>
      <trkpt lat="43.5847" lon="3.31712">
        <ele>446.5</ele>
        <time>2016-08-07T06:48:11Z</time>
      </trkpt>
      <trkpt lat="43.58461" lon="3.31706">
        <ele>443.9</ele>
        <time>2016-08-07T06:48:13Z</time>
      </trkpt>
      <trkpt lat="43.58451" lon="3.31701">
        <ele>441.9</ele>
        <time>2016-08-07T06:48:15Z</time>
      </trkpt>
      <trkpt lat="43.58442" lon="3.3169">
        <ele>440</ele>
        <time>2016-08-07T06:48:17Z</time>
      </trkpt>
      <trkpt lat="43.58433" lon="3.31683">
        <ele>439.8</ele>
        <time>2016-08-07T06:48:19Z</time>
      </trkpt>
      <trkpt lat="43.5843" lon="3.31672">
        <ele>439.6</ele>
        <time>2016-08-07T06:48:22Z</time>
      </trkpt>
      <trkpt lat="43.58424" lon="3.3166">
        <ele>438.3</ele>
        <time>2016-08-07T06:48:25Z</time>
      </trkpt>
      <trkpt lat="43.58414" lon="3.31653">
        <ele>435.7</ele>
        <time>2016-08-07T06:48:27Z</time>
      </trkpt>
      <trkpt lat="43.58406" lon="3.31645">
        <ele>433.7</ele>
        <time>2016-08-07T06:48:29Z</time>
      </trkpt>
      <trkpt lat="43.58403" lon="3.31634">
        <ele>432.1</ele>
        <time>2016-08-07T06:48:31Z</time>
      </trkpt>
      <trkpt lat="43.58403" lon="3.31622">
        <ele>431.4</ele>
        <time>2016-08-07T06:48:33Z</time>
      </trkpt>
      <trkpt lat="43.58409" lon="3.31612">
        <ele>431.4</ele>
        <time>2016-08-07T06:48:35Z</time>
      </trkpt>
      <trkpt lat="43.58412" lon="3.31598">
        <ele>432.1</ele>
        <time>2016-08-07T06:48:37Z</time>
      </trkpt>
      <trkpt lat="43.58413" lon="3.3158">
        <ele>431.5</ele>
        <time>2016-08-07T06:48:39Z</time>
      </trkpt>
      <trkpt lat="43.5842" lon="3.31568">
        <ele>429.8</ele>
        <time>2016-08-07T06:48:41Z</time>
      </trkpt>
      <trkpt lat="43.58427" lon="3.31552">
        <ele>428.8</ele>
        <time>2016-08-07T06:48:43Z</time>
      </trkpt>
      <trkpt lat="43.58433" lon="3.31544">
        <ele>428.4</ele>
        <time>2016-08-07T06:48:44Z</time>
      </trkpt>
      <trkpt lat="43.58438" lon="3.31534">
        <ele>427.9</ele>
        <time>2016-08-07T06:48:45Z</time>
      </trkpt>
      <trkpt lat="43.58444" lon="3.31524">
        <ele>428</ele>
        <time>2016-08-07T06:48:46Z</time>
      </trkpt>
      <trkpt lat="43.58446" lon="3.31512">
        <ele>427.8</ele>
        <time>2016-08-07T06:48:47Z</time>
      </trkpt>
      <trkpt lat="43.58451" lon="3.31495">
        <ele>426.6</ele>
        <time>2016-08-07T06:48:49Z</time>
      </trkpt>
      <trkpt lat="43.58452" lon="3.31484">
        <ele>426</ele>
        <time>2016-08-07T06:48:50Z</time>
      </trkpt>
      <trkpt lat="43.58455" lon="3.31473">
        <ele>425</ele>
        <time>2016-08-07T06:48:51Z</time>
      </trkpt>
      <trkpt lat="43.58459" lon="3.31463">
        <ele>424.2</ele>
        <time>2016-08-07T06:48:52Z</time>
      </trkpt>
      <trkpt lat="43.58463" lon="3.31453">
        <ele>423.6</ele>
        <time>2016-08-07T06:48:53Z</time>
      </trkpt>
      <trkpt lat="43.58467" lon="3.31442">
        <ele>422.1</ele>
        <time>2016-08-07T06:48:54Z</time>
      </trkpt>
      <trkpt lat="43.58472" lon="3.31432">
        <ele>421</ele>
        <time>2016-08-07T06:48:55Z</time>
      </trkpt>
      <trkpt lat="43.58473" lon="3.31414">
        <ele>418.8</ele>
        <time>2016-08-07T06:48:57Z</time>
      </trkpt>
      <trkpt lat="43.58473" lon="3.31395">
        <ele>418.9</ele>
        <time>2016-08-07T06:48:59Z</time>
      </trkpt>
      <trkpt lat="43.58476" lon="3.31382">
        <ele>418.2</ele>
        <time>2016-08-07T06:49:00Z</time>
      </trkpt>
      <trkpt lat="43.58479" lon="3.31372">
        <ele>416.8</ele>
        <time>2016-08-07T06:49:01Z</time>
      </trkpt>
      <trkpt lat="43.58484" lon="3.31356">
        <ele>413.9</ele>
        <time>2016-08-07T06:49:03Z</time>
      </trkpt>
      <trkpt lat="43.58489" lon="3.31344">
        <ele>412.5</ele>
        <time>2016-08-07T06:49:05Z</time>
      </trkpt>
      <trkpt lat="43.58494" lon="3.31336">
        <ele>412.4</ele>
        <time>2016-08-07T06:49:07Z</time>
      </trkpt>
      <trkpt lat="43.58499" lon="3.31325">
        <ele>412.3</ele>
        <time>2016-08-07T06:49:09Z</time>
      </trkpt>
      <trkpt lat="43.58505" lon="3.31317">
        <ele>412.1</ele>
        <time>2016-08-07T06:49:11Z</time>
      </trkpt>
      <trkpt lat="43.5851" lon="3.31309">
        <ele>411.9</ele>
        <time>2016-08-07T06:49:14Z</time>
      </trkpt>
      <trkpt lat="43.58515" lon="3.31298">
        <ele>412.2</ele>
        <time>2016-08-07T06:49:17Z</time>
      </trkpt>
      <trkpt lat="43.5852" lon="3.31287">
        <ele>412.6</ele>
        <time>2016-08-07T06:49:20Z</time>
      </trkpt>
      <trkpt lat="43.58524" lon="3.31275">
        <ele>413</ele>
        <time>2016-08-07T06:49:24Z</time>
      </trkpt>
      <trkpt lat="43.58527" lon="3.31263">
        <ele>413.4</ele>
        <time>2016-08-07T06:49:28Z</time>
      </trkpt>
      <trkpt lat="43.58533" lon="3.31254">
        <ele>413.9</ele>
        <time>2016-08-07T06:49:32Z</time>
      </trkpt>
      <trkpt lat="43.58535" lon="3.31243">
        <ele>414.5</ele>
        <time>2016-08-07T06:49:36Z</time>
      </trkpt>
      <trkpt lat="43.58536" lon="3.31233">
        <ele>415.1</ele>
        <time>2016-08-07T06:49:40Z</time>
      </trkpt>
      <trkpt lat="43.58537" lon="3.31221">
        <ele>415.4</ele>
        <time>2016-08-07T06:49:43Z</time>
      </trkpt>
      <trkpt lat="43.5854" lon="3.31212">
        <ele>415.7</ele>
        <time>2016-08-07T06:49:46Z</time>
      </trkpt>
      <trkpt lat="43.58544" lon="3.31203">
        <ele>416</ele>
        <time>2016-08-07T06:49:49Z</time>
      </trkpt>
      <trkpt lat="43.58548" lon="3.31193">
        <ele>416.3</ele>
        <time>2016-08-07T06:49:53Z</time>
      </trkpt>
      <trkpt lat="43.5855" lon="3.31183">
        <ele>416.6</ele>
        <time>2016-08-07T06:49:56Z</time>
      </trkpt>
      <trkpt lat="43.58551" lon="3.31172">
        <ele>416.9</ele>
        <time>2016-08-07T06:49:59Z</time>
      </trkpt>
      <trkpt lat="43.58553" lon="3.31161">
        <ele>417.2</ele>
        <time>2016-08-07T06:50:03Z</time>
      </trkpt>
      <trkpt lat="43.58555" lon="3.31148">
        <ele>417.4</ele>
        <time>2016-08-07T06:50:06Z</time>
      </trkpt>
      <trkpt lat="43.58554" lon="3.31136">
        <ele>417.7</ele>
        <time>2016-08-07T06:50:10Z</time>
      </trkpt>
      <trkpt lat="43.5855" lon="3.31126">
        <ele>418.1</ele>
        <time>2016-08-07T06:50:14Z</time>
      </trkpt>
      <trkpt lat="43.58546" lon="3.31118">
        <ele>418.2</ele>
        <time>2016-08-07T06:50:16Z</time>
      </trkpt>
      <trkpt lat="43.5854" lon="3.31109">
        <ele>418.4</ele>
        <time>2016-08-07T06:50:19Z</time>
      </trkpt>
      <trkpt lat="43.58533" lon="3.311">
        <ele>418.5</ele>
        <time>2016-08-07T06:50:22Z</time>
      </trkpt>
      <trkpt lat="43.58526" lon="3.31093">
        <ele>418.6</ele>
        <time>2016-08-07T06:50:24Z</time>
      </trkpt>
      <trkpt lat="43.58519" lon="3.31088">
        <ele>418.7</ele>
        <time>2016-08-07T06:50:26Z</time>
      </trkpt>
      <trkpt lat="43.58512" lon="3.3108">
        <ele>418.8</ele>
        <time>2016-08-07T06:50:29Z</time>
      </trkpt>
      <trkpt lat="43.58507" lon="3.31072">
        <ele>419.1</ele>
        <time>2016-08-07T06:50:32Z</time>
      </trkpt>
      <trkpt lat="43.58505" lon="3.3106">
        <ele>419.4</ele>
        <time>2016-08-07T06:50:36Z</time>
      </trkpt>
      <trkpt lat="43.58506" lon="3.31047">
        <ele>419.7</ele>
        <time>2016-08-07T06:50:39Z</time>
      </trkpt>
      <trkpt lat="43.58506" lon="3.31036">
        <ele>419.9</ele>
        <time>2016-08-07T06:50:42Z</time>
      </trkpt>
      <trkpt lat="43.58505" lon="3.31023">
        <ele>420.1</ele>
        <time>2016-08-07T06:50:46Z</time>
      </trkpt>
      <trkpt lat="43.58503" lon="3.31012">
        <ele>420.3</ele>
        <time>2016-08-07T06:50:49Z</time>
      </trkpt>
      <trkpt lat="43.58504" lon="3.31001">
        <ele>420.4</ele>
        <time>2016-08-07T06:50:52Z</time>
      </trkpt>
      <trkpt lat="43.58504" lon="3.30991">
        <ele>420.6</ele>
        <time>2016-08-07T06:50:55Z</time>
      </trkpt>
      <trkpt lat="43.58505" lon="3.3098">
        <ele>420.9</ele>
        <time>2016-08-07T06:50:59Z</time>
      </trkpt>
      <trkpt lat="43.58505" lon="3.30966">
        <ele>421.2</ele>
        <time>2016-08-07T06:51:03Z</time>
      </trkpt>
      <trkpt lat="43.58505" lon="3.30953">
        <ele>421.7</ele>
        <time>2016-08-07T06:51:07Z</time>
      </trkpt>
      <trkpt lat="43.58505" lon="3.30943">
        <ele>422</ele>
        <time>2016-08-07T06:51:10Z</time>
      </trkpt>
      <trkpt lat="43.58503" lon="3.30932">
        <ele>422.6</ele>
        <time>2016-08-07T06:51:14Z</time>
      </trkpt>
      <trkpt lat="43.58499" lon="3.30921">
        <ele>423.7</ele>
        <time>2016-08-07T06:51:19Z</time>
      </trkpt>
      <trkpt lat="43.58498" lon="3.30907">
        <ele>424.5</ele>
        <time>2016-08-07T06:51:23Z</time>
      </trkpt>
      <trkpt lat="43.58499" lon="3.30895">
        <ele>425.3</ele>
        <time>2016-08-07T06:51:27Z</time>
      </trkpt>
      <trkpt lat="43.58499" lon="3.30884">
        <ele>426.1</ele>
        <time>2016-08-07T06:51:31Z</time>
      </trkpt>
      <trkpt lat="43.58502" lon="3.30874">
        <ele>427</ele>
        <time>2016-08-07T06:51:35Z</time>
      </trkpt>
      <trkpt lat="43.58509" lon="3.30868">
        <ele>428.4</ele>
        <time>2016-08-07T06:51:41Z</time>
      </trkpt>
      <trkpt lat="43.58516" lon="3.30863">
        <ele>429.2</ele>
        <time>2016-08-07T06:51:45Z</time>
      </trkpt>
      <trkpt lat="43.58523" lon="3.30856">
        <ele>432.2</ele>
        <time>2016-08-07T06:53:18Z</time>
      </trkpt>
      <trkpt lat="43.58529" lon="3.30851">
        <ele>432.9</ele>
        <time>2016-08-07T06:53:23Z</time>
      </trkpt>
      <trkpt lat="43.58536" lon="3.30842">
        <ele>433.3</ele>
        <time>2016-08-07T06:53:26Z</time>
      </trkpt>
      <trkpt lat="43.58544" lon="3.30835">
        <ele>433.7</ele>
        <time>2016-08-07T06:53:29Z</time>
      </trkpt>
      <trkpt lat="43.5855" lon="3.30826">
        <ele>434.8</ele>
        <time>2016-08-07T06:53:31Z</time>
      </trkpt>
      <trkpt lat="43.58556" lon="3.30816">
        <ele>437.7</ele>
        <time>2016-08-07T06:53:33Z</time>
      </trkpt>
      <trkpt lat="43.58564" lon="3.30802">
        <ele>440.4</ele>
        <time>2016-08-07T06:53:35Z</time>
      </trkpt>
      <trkpt lat="43.58573" lon="3.30794">
        <ele>440.4</ele>
        <time>2016-08-07T06:53:37Z</time>
      </trkpt>
      <trkpt lat="43.58579" lon="3.30801">
        <ele>440.2</ele>
        <time>2016-08-07T06:53:40Z</time>
      </trkpt>
      <trkpt lat="43.58582" lon="3.30815">
        <ele>439.8</ele>
        <time>2016-08-07T06:53:43Z</time>
      </trkpt>
      <trkpt lat="43.58584" lon="3.30829">
        <ele>439.4</ele>
        <time>2016-08-07T06:53:46Z</time>
      </trkpt>
      <trkpt lat="43.58586" lon="3.30841">
        <ele>439.1</ele>
        <time>2016-08-07T06:53:49Z</time>
      </trkpt>
      <trkpt lat="43.58588" lon="3.30852">
        <ele>438.6</ele>
        <time>2016-08-07T06:53:52Z</time>
      </trkpt>
      <trkpt lat="43.5859" lon="3.30863">
        <ele>438.3</ele>
        <time>2016-08-07T06:53:54Z</time>
      </trkpt>
      <trkpt lat="43.58593" lon="3.30877">
        <ele>437.6</ele>
        <time>2016-08-07T06:53:57Z</time>
      </trkpt>
      <trkpt lat="43.58598" lon="3.30887">
        <ele>436.9</ele>
        <time>2016-08-07T06:54:00Z</time>
      </trkpt>
      <trkpt lat="43.58604" lon="3.30895">
        <ele>436.5</ele>
        <time>2016-08-07T06:54:03Z</time>
      </trkpt>
      <trkpt lat="43.58611" lon="3.30905">
        <ele>436.2</ele>
        <time>2016-08-07T06:54:06Z</time>
      </trkpt>
      <trkpt lat="43.58619" lon="3.30913">
        <ele>436</ele>
        <time>2016-08-07T06:54:09Z</time>
      </trkpt>
      <trkpt lat="43.58626" lon="3.30921">
        <ele>435.9</ele>
        <time>2016-08-07T06:54:12Z</time>
      </trkpt>
      <trkpt lat="43.58632" lon="3.30927">
        <ele>436</ele>
        <time>2016-08-07T06:54:14Z</time>
      </trkpt>
      <trkpt lat="43.58638" lon="3.30937">
        <ele>436.3</ele>
        <time>2016-08-07T06:54:17Z</time>
      </trkpt>
      <trkpt lat="43.58644" lon="3.30948">
        <ele>436.9</ele>
        <time>2016-08-07T06:54:20Z</time>
      </trkpt>
      <trkpt lat="43.58651" lon="3.30958">
        <ele>437.3</ele>
        <time>2016-08-07T06:54:23Z</time>
      </trkpt>
      <trkpt lat="43.5866" lon="3.30962">
        <ele>437.7</ele>
        <time>2016-08-07T06:54:26Z</time>
      </trkpt>
      <trkpt lat="43.58669" lon="3.30963">
        <ele>438</ele>
        <time>2016-08-07T06:54:29Z</time>
      </trkpt>
      <trkpt lat="43.58679" lon="3.30961">
        <ele>438.1</ele>
        <time>2016-08-07T06:54:32Z</time>
      </trkpt>
      <trkpt lat="43.58688" lon="3.30958">
        <ele>438.3</ele>
        <time>2016-08-07T06:54:35Z</time>
      </trkpt>
      <trkpt lat="43.58695" lon="3.30952">
        <ele>438.2</ele>
        <time>2016-08-07T06:54:38Z</time>
      </trkpt>
      <trkpt lat="43.58701" lon="3.30947">
        <ele>438.2</ele>
        <time>2016-08-07T06:54:41Z</time>
      </trkpt>
      <trkpt lat="43.58709" lon="3.30941">
        <ele>438.2</ele>
        <time>2016-08-07T06:54:44Z</time>
      </trkpt>
      <trkpt lat="43.58716" lon="3.30937">
        <ele>438.2</ele>
        <time>2016-08-07T06:54:47Z</time>
      </trkpt>
      <trkpt lat="43.58724" lon="3.30933">
        <ele>438.2</ele>
        <time>2016-08-07T06:54:50Z</time>
      </trkpt>
      <trkpt lat="43.58731" lon="3.30927">
        <ele>438.1</ele>
        <time>2016-08-07T06:54:53Z</time>
      </trkpt>
      <trkpt lat="43.58736" lon="3.30919">
        <ele>438.2</ele>
        <time>2016-08-07T06:54:56Z</time>
      </trkpt>
      <trkpt lat="43.58743" lon="3.30911">
        <ele>438</ele>
        <time>2016-08-07T06:54:59Z</time>
      </trkpt>
      <trkpt lat="43.5875" lon="3.30905">
        <ele>437.9</ele>
        <time>2016-08-07T06:55:02Z</time>
      </trkpt>
      <trkpt lat="43.58758" lon="3.30897">
        <ele>438</ele>
        <time>2016-08-07T06:55:06Z</time>
      </trkpt>
      <trkpt lat="43.58764" lon="3.30889">
        <ele>438.1</ele>
        <time>2016-08-07T06:55:09Z</time>
      </trkpt>
      <trkpt lat="43.58769" lon="3.30879">
        <ele>438.2</ele>
        <time>2016-08-07T06:55:12Z</time>
      </trkpt>
      <trkpt lat="43.58773" lon="3.30869">
        <ele>438.6</ele>
        <time>2016-08-07T06:55:15Z</time>
      </trkpt>
      <trkpt lat="43.58778" lon="3.30856">
        <ele>439.3</ele>
        <time>2016-08-07T06:55:19Z</time>
      </trkpt>
      <trkpt lat="43.58781" lon="3.30846">
        <ele>439.6</ele>
        <time>2016-08-07T06:55:22Z</time>
      </trkpt>
      <trkpt lat="43.58785" lon="3.30837">
        <ele>439.7</ele>
        <time>2016-08-07T06:55:25Z</time>
      </trkpt>
      <trkpt lat="43.58791" lon="3.30827">
        <ele>440.2</ele>
        <time>2016-08-07T06:55:28Z</time>
      </trkpt>
      <trkpt lat="43.58796" lon="3.30816">
        <ele>440.6</ele>
        <time>2016-08-07T06:55:31Z</time>
      </trkpt>
      <trkpt lat="43.58801" lon="3.30808">
        <ele>440.9</ele>
        <time>2016-08-07T06:55:34Z</time>
      </trkpt>
      <trkpt lat="43.58806" lon="3.30798">
        <ele>441.2</ele>
        <time>2016-08-07T06:55:36Z</time>
      </trkpt>
      <trkpt lat="43.5881" lon="3.30786">
        <ele>441.4</ele>
        <time>2016-08-07T06:55:39Z</time>
      </trkpt>
      <trkpt lat="43.58814" lon="3.30774">
        <ele>441.4</ele>
        <time>2016-08-07T06:55:42Z</time>
      </trkpt>
      <trkpt lat="43.58818" lon="3.30766">
        <ele>441.4</ele>
        <time>2016-08-07T06:55:45Z</time>
      </trkpt>
      <trkpt lat="43.58823" lon="3.30758">
        <ele>441.5</ele>
        <time>2016-08-07T06:55:48Z</time>
      </trkpt>
      <trkpt lat="43.58828" lon="3.30749">
        <ele>441.7</ele>
        <time>2016-08-07T06:55:51Z</time>
      </trkpt>
      <trkpt lat="43.58832" lon="3.30739">
        <ele>442</ele>
        <time>2016-08-07T06:55:54Z</time>
      </trkpt>
      <trkpt lat="43.58835" lon="3.30729">
        <ele>442.4</ele>
        <time>2016-08-07T06:55:57Z</time>
      </trkpt>
      <trkpt lat="43.58839" lon="3.30719">
        <ele>442.8</ele>
        <time>2016-08-07T06:56:00Z</time>
      </trkpt>
      <trkpt lat="43.58842" lon="3.30707">
        <ele>443.5</ele>
        <time>2016-08-07T06:56:04Z</time>
      </trkpt>
      <trkpt lat="43.58845" lon="3.30696">
        <ele>443.9</ele>
        <time>2016-08-07T06:56:07Z</time>
      </trkpt>
      <trkpt lat="43.58846" lon="3.30684">
        <ele>444.1</ele>
        <time>2016-08-07T06:56:10Z</time>
      </trkpt>
      <trkpt lat="43.58846" lon="3.30672">
        <ele>444.5</ele>
        <time>2016-08-07T06:56:13Z</time>
      </trkpt>
      <trkpt lat="43.58846" lon="3.30661">
        <ele>444.8</ele>
        <time>2016-08-07T06:56:16Z</time>
      </trkpt>
      <trkpt lat="43.58847" lon="3.30649">
        <ele>445.5</ele>
        <time>2016-08-07T06:56:20Z</time>
      </trkpt>
      <trkpt lat="43.58849" lon="3.30638">
        <ele>445.9</ele>
        <time>2016-08-07T06:56:23Z</time>
      </trkpt>
      <trkpt lat="43.5885" lon="3.30627">
        <ele>446.1</ele>
        <time>2016-08-07T06:56:26Z</time>
      </trkpt>
      <trkpt lat="43.5885" lon="3.30615">
        <ele>446.4</ele>
        <time>2016-08-07T06:56:29Z</time>
      </trkpt>
      <trkpt lat="43.58851" lon="3.30603">
        <ele>446.7</ele>
        <time>2016-08-07T06:56:32Z</time>
      </trkpt>
      <trkpt lat="43.58851" lon="3.30592">
        <ele>447.1</ele>
        <time>2016-08-07T06:56:35Z</time>
      </trkpt>
      <trkpt lat="43.58852" lon="3.3058">
        <ele>447.3</ele>
        <time>2016-08-07T06:56:38Z</time>
      </trkpt>
      <trkpt lat="43.58853" lon="3.30569">
        <ele>447.4</ele>
        <time>2016-08-07T06:56:41Z</time>
      </trkpt>
      <trkpt lat="43.58854" lon="3.30557">
        <ele>447.6</ele>
        <time>2016-08-07T06:56:44Z</time>
      </trkpt>
      <trkpt lat="43.58855" lon="3.30546">
        <ele>447.8</ele>
        <time>2016-08-07T06:56:47Z</time>
      </trkpt>
      <trkpt lat="43.58857" lon="3.30536">
        <ele>448.2</ele>
        <time>2016-08-07T06:56:50Z</time>
      </trkpt>
      <trkpt lat="43.58857" lon="3.30524">
        <ele>448.5</ele>
        <time>2016-08-07T06:56:53Z</time>
      </trkpt>
      <trkpt lat="43.58858" lon="3.3051">
        <ele>448.7</ele>
        <time>2016-08-07T06:56:56Z</time>
      </trkpt>
      <trkpt lat="43.58859" lon="3.30497">
        <ele>448.8</ele>
        <time>2016-08-07T06:56:59Z</time>
      </trkpt>
      <trkpt lat="43.58859" lon="3.30483">
        <ele>449</ele>
        <time>2016-08-07T06:57:02Z</time>
      </trkpt>
      <trkpt lat="43.58859" lon="3.30471">
        <ele>449.2</ele>
        <time>2016-08-07T06:57:05Z</time>
      </trkpt>
      <trkpt lat="43.58859" lon="3.3046">
        <ele>449.6</ele>
        <time>2016-08-07T06:57:08Z</time>
      </trkpt>
      <trkpt lat="43.58859" lon="3.30446">
        <ele>450</ele>
        <time>2016-08-07T06:57:11Z</time>
      </trkpt>
      <trkpt lat="43.58858" lon="3.30433">
        <ele>450.5</ele>
        <time>2016-08-07T06:57:14Z</time>
      </trkpt>
      <trkpt lat="43.58857" lon="3.30422">
        <ele>450.9</ele>
        <time>2016-08-07T06:57:17Z</time>
      </trkpt>
      <trkpt lat="43.58851" lon="3.30411">
        <ele>451.5</ele>
        <time>2016-08-07T06:57:20Z</time>
      </trkpt>
      <trkpt lat="43.58844" lon="3.30405">
        <ele>452.1</ele>
        <time>2016-08-07T06:57:23Z</time>
      </trkpt>
      <trkpt lat="43.58837" lon="3.30396">
        <ele>452.7</ele>
        <time>2016-08-07T06:57:26Z</time>
      </trkpt>
      <trkpt lat="43.58831" lon="3.30389">
        <ele>453.4</ele>
        <time>2016-08-07T06:57:29Z</time>
      </trkpt>
      <trkpt lat="43.58824" lon="3.3038">
        <ele>454.1</ele>
        <time>2016-08-07T06:57:32Z</time>
      </trkpt>
      <trkpt lat="43.58818" lon="3.30375">
        <ele>456.5</ele>
        <time>2016-08-07T06:57:34Z</time>
      </trkpt>
      <trkpt lat="43.58811" lon="3.3037">
        <ele>456.9</ele>
        <time>2016-08-07T06:57:36Z</time>
      </trkpt>
      <trkpt lat="43.58804" lon="3.30365">
        <ele>457.3</ele>
        <time>2016-08-07T06:57:38Z</time>
      </trkpt>
      <trkpt lat="43.58797" lon="3.30359">
        <ele>457.8</ele>
        <time>2016-08-07T06:57:41Z</time>
      </trkpt>
      <trkpt lat="43.58789" lon="3.30349">
        <ele>458.4</ele>
        <time>2016-08-07T06:57:44Z</time>
      </trkpt>
      <trkpt lat="43.58781" lon="3.3034">
        <ele>458.9</ele>
        <time>2016-08-07T06:57:47Z</time>
      </trkpt>
      <trkpt lat="43.58776" lon="3.30329">
        <ele>459.4</ele>
        <time>2016-08-07T06:57:50Z</time>
      </trkpt>
      <trkpt lat="43.58774" lon="3.30316">
        <ele>459.9</ele>
        <time>2016-08-07T06:57:53Z</time>
      </trkpt>
      <trkpt lat="43.58774" lon="3.30306">
        <ele>460.2</ele>
        <time>2016-08-07T06:57:55Z</time>
      </trkpt>
      <trkpt lat="43.58774" lon="3.30293">
        <ele>460.6</ele>
        <time>2016-08-07T06:57:58Z</time>
      </trkpt>
      <trkpt lat="43.58771" lon="3.30281">
        <ele>461</ele>
        <time>2016-08-07T06:58:01Z</time>
      </trkpt>
      <trkpt lat="43.58768" lon="3.3027">
        <ele>461.4</ele>
        <time>2016-08-07T06:58:04Z</time>
      </trkpt>
      <trkpt lat="43.58763" lon="3.30259">
        <ele>461.9</ele>
        <time>2016-08-07T06:58:07Z</time>
      </trkpt>
      <trkpt lat="43.58758" lon="3.30251">
        <ele>462.1</ele>
        <time>2016-08-07T06:58:09Z</time>
      </trkpt>
      <trkpt lat="43.58753" lon="3.30241">
        <ele>462.6</ele>
        <time>2016-08-07T06:58:12Z</time>
      </trkpt>
      <trkpt lat="43.58748" lon="3.30232">
        <ele>463.3</ele>
        <time>2016-08-07T06:58:15Z</time>
      </trkpt>
      <trkpt lat="43.58743" lon="3.30221">
        <ele>463.9</ele>
        <time>2016-08-07T06:58:18Z</time>
      </trkpt>
      <trkpt lat="43.58737" lon="3.30212">
        <ele>464.5</ele>
        <time>2016-08-07T06:58:21Z</time>
      </trkpt>
      <trkpt lat="43.58732" lon="3.30205">
        <ele>465.2</ele>
        <time>2016-08-07T06:58:24Z</time>
      </trkpt>
      <trkpt lat="43.58726" lon="3.30196">
        <ele>465.8</ele>
        <time>2016-08-07T06:58:27Z</time>
      </trkpt>
      <trkpt lat="43.58722" lon="3.30188">
        <ele>466.5</ele>
        <time>2016-08-07T06:58:30Z</time>
      </trkpt>
      <trkpt lat="43.58717" lon="3.30179">
        <ele>467.2</ele>
        <time>2016-08-07T06:58:33Z</time>
      </trkpt>
      <trkpt lat="43.58713" lon="3.3017">
        <ele>467.9</ele>
        <time>2016-08-07T06:58:36Z</time>
      </trkpt>
      <trkpt lat="43.58707" lon="3.30163">
        <ele>468.3</ele>
        <time>2016-08-07T06:58:39Z</time>
      </trkpt>
      <trkpt lat="43.587" lon="3.30159">
        <ele>468.8</ele>
        <time>2016-08-07T06:58:42Z</time>
      </trkpt>
      <trkpt lat="43.58691" lon="3.30157">
        <ele>469.1</ele>
        <time>2016-08-07T06:58:45Z</time>
      </trkpt>
      <trkpt lat="43.58682" lon="3.30154">
        <ele>469.5</ele>
        <time>2016-08-07T06:58:48Z</time>
      </trkpt>
      <trkpt lat="43.58675" lon="3.30153">
        <ele>470</ele>
        <time>2016-08-07T06:58:51Z</time>
      </trkpt>
      <trkpt lat="43.58665" lon="3.30152">
        <ele>470.4</ele>
        <time>2016-08-07T06:58:54Z</time>
      </trkpt>
      <trkpt lat="43.58655" lon="3.30151">
        <ele>470.8</ele>
        <time>2016-08-07T06:58:57Z</time>
      </trkpt>
      <trkpt lat="43.58649" lon="3.30148">
        <ele>471</ele>
        <time>2016-08-07T06:58:59Z</time>
      </trkpt>
      <trkpt lat="43.58643" lon="3.30142">
        <ele>471.2</ele>
        <time>2016-08-07T06:59:02Z</time>
      </trkpt>
      <trkpt lat="43.5864" lon="3.30131">
        <ele>471.7</ele>
        <time>2016-08-07T06:59:05Z</time>
      </trkpt>
      <trkpt lat="43.58641" lon="3.30121">
        <ele>472</ele>
        <time>2016-08-07T06:59:07Z</time>
      </trkpt>
      <trkpt lat="43.58644" lon="3.30109">
        <ele>472.4</ele>
        <time>2016-08-07T06:59:10Z</time>
      </trkpt>
      <trkpt lat="43.58647" lon="3.30097">
        <ele>472.8</ele>
        <time>2016-08-07T06:59:13Z</time>
      </trkpt>
      <trkpt lat="43.58651" lon="3.30085">
        <ele>473.3</ele>
        <time>2016-08-07T06:59:16Z</time>
      </trkpt>
      <trkpt lat="43.58654" lon="3.30075">
        <ele>473.7</ele>
        <time>2016-08-07T06:59:19Z</time>
      </trkpt>
      <trkpt lat="43.58658" lon="3.30067">
        <ele>474</ele>
        <time>2016-08-07T06:59:21Z</time>
      </trkpt>
      <trkpt lat="43.58664" lon="3.30056">
        <ele>474.4</ele>
        <time>2016-08-07T06:59:24Z</time>
      </trkpt>
      <trkpt lat="43.58673" lon="3.30051">
        <ele>475.2</ele>
        <time>2016-08-07T06:59:28Z</time>
      </trkpt>
      <trkpt lat="43.58681" lon="3.30048">
        <ele>475.8</ele>
        <time>2016-08-07T06:59:31Z</time>
      </trkpt>
      <trkpt lat="43.5869" lon="3.30044">
        <ele>476.5</ele>
        <time>2016-08-07T06:59:35Z</time>
      </trkpt>
      <trkpt lat="43.58697" lon="3.30041">
        <ele>477.1</ele>
        <time>2016-08-07T06:59:38Z</time>
      </trkpt>
      <trkpt lat="43.58704" lon="3.30037">
        <ele>477.6</ele>
        <time>2016-08-07T06:59:41Z</time>
      </trkpt>
      <trkpt lat="43.58712" lon="3.30033">
        <ele>478.3</ele>
        <time>2016-08-07T06:59:44Z</time>
      </trkpt>
      <trkpt lat="43.58721" lon="3.30032">
        <ele>479.4</ele>
        <time>2016-08-07T06:59:48Z</time>
      </trkpt>
      <trkpt lat="43.58731" lon="3.3003">
        <ele>480.3</ele>
        <time>2016-08-07T06:59:51Z</time>
      </trkpt>
      <trkpt lat="43.5874" lon="3.30026">
        <ele>481.1</ele>
        <time>2016-08-07T06:59:54Z</time>
      </trkpt>
      <trkpt lat="43.58747" lon="3.30022">
        <ele>481.4</ele>
        <time>2016-08-07T06:59:56Z</time>
      </trkpt>
      <trkpt lat="43.58755" lon="3.30014">
        <ele>481.9</ele>
        <time>2016-08-07T06:59:59Z</time>
      </trkpt>
      <trkpt lat="43.58761" lon="3.30007">
        <ele>482</ele>
        <time>2016-08-07T07:00:01Z</time>
      </trkpt>
      <trkpt lat="43.58766" lon="3.29998">
        <ele>482.1</ele>
        <time>2016-08-07T07:00:03Z</time>
      </trkpt>
      <trkpt lat="43.58772" lon="3.29987">
        <ele>482.3</ele>
        <time>2016-08-07T07:00:06Z</time>
      </trkpt>
      <trkpt lat="43.58777" lon="3.29977">
        <ele>482.6</ele>
        <time>2016-08-07T07:00:09Z</time>
      </trkpt>
      <trkpt lat="43.58782" lon="3.29968">
        <ele>483</ele>
        <time>2016-08-07T07:00:12Z</time>
      </trkpt>
      <trkpt lat="43.58786" lon="3.29954">
        <ele>483.5</ele>
        <time>2016-08-07T07:00:15Z</time>
      </trkpt>
      <trkpt lat="43.58788" lon="3.29941">
        <ele>484</ele>
        <time>2016-08-07T07:00:18Z</time>
      </trkpt>
      <trkpt lat="43.58789" lon="3.29928">
        <ele>484.5</ele>
        <time>2016-08-07T07:00:21Z</time>
      </trkpt>
      <trkpt lat="43.58788" lon="3.29915">
        <ele>484.9</ele>
        <time>2016-08-07T07:00:24Z</time>
      </trkpt>
      <trkpt lat="43.58786" lon="3.29905">
        <ele>485.2</ele>
        <time>2016-08-07T07:00:26Z</time>
      </trkpt>
      <trkpt lat="43.58782" lon="3.29897">
        <ele>485.5</ele>
        <time>2016-08-07T07:00:28Z</time>
      </trkpt>
      <trkpt lat="43.58776" lon="3.29888">
        <ele>485.9</ele>
        <time>2016-08-07T07:00:31Z</time>
      </trkpt>
      <trkpt lat="43.58765" lon="3.29883">
        <ele>486.4</ele>
        <time>2016-08-07T07:00:34Z</time>
      </trkpt>
      <trkpt lat="43.58758" lon="3.29882">
        <ele>486.8</ele>
        <time>2016-08-07T07:00:36Z</time>
      </trkpt>
      <trkpt lat="43.58748" lon="3.29881">
        <ele>487</ele>
        <time>2016-08-07T07:00:39Z</time>
      </trkpt>
      <trkpt lat="43.58738" lon="3.29882">
        <ele>487.2</ele>
        <time>2016-08-07T07:00:42Z</time>
      </trkpt>
      <trkpt lat="43.5873" lon="3.29884">
        <ele>487.5</ele>
        <time>2016-08-07T07:00:45Z</time>
      </trkpt>
      <trkpt lat="43.58722" lon="3.29884">
        <ele>487.8</ele>
        <time>2016-08-07T07:00:48Z</time>
      </trkpt>
      <trkpt lat="43.58713" lon="3.29885">
        <ele>488.1</ele>
        <time>2016-08-07T07:00:51Z</time>
      </trkpt>
      <trkpt lat="43.58704" lon="3.29884">
        <ele>488.5</ele>
        <time>2016-08-07T07:00:54Z</time>
      </trkpt>
      <trkpt lat="43.58694" lon="3.29884">
        <ele>488.9</ele>
        <time>2016-08-07T07:00:57Z</time>
      </trkpt>
      <trkpt lat="43.58685" lon="3.29882">
        <ele>489.2</ele>
        <time>2016-08-07T07:01:00Z</time>
      </trkpt>
      <trkpt lat="43.58676" lon="3.29883">
        <ele>489.7</ele>
        <time>2016-08-07T07:01:03Z</time>
      </trkpt>
      <trkpt lat="43.58666" lon="3.29885">
        <ele>490</ele>
        <time>2016-08-07T07:01:06Z</time>
      </trkpt>
      <trkpt lat="43.58657" lon="3.29885">
        <ele>490.2</ele>
        <time>2016-08-07T07:01:09Z</time>
      </trkpt>
      <trkpt lat="43.5865" lon="3.29886">
        <ele>490.6</ele>
        <time>2016-08-07T07:01:12Z</time>
      </trkpt>
      <trkpt lat="43.58642" lon="3.29887">
        <ele>490.9</ele>
        <time>2016-08-07T07:01:15Z</time>
      </trkpt>
      <trkpt lat="43.58634" lon="3.29889">
        <ele>491.2</ele>
        <time>2016-08-07T07:01:18Z</time>
      </trkpt>
      <trkpt lat="43.58624" lon="3.29892">
        <ele>491.5</ele>
        <time>2016-08-07T07:01:21Z</time>
      </trkpt>
      <trkpt lat="43.58617" lon="3.29893">
        <ele>491.9</ele>
        <time>2016-08-07T07:01:25Z</time>
      </trkpt>
      <trkpt lat="43.58612" lon="3.29898">
        <ele>494.6</ele>
        <time>2016-08-07T07:02:21Z</time>
      </trkpt>
      <trkpt lat="43.58619" lon="3.29893">
        <ele>494.9</ele>
        <time>2016-08-07T07:02:27Z</time>
      </trkpt>
      <trkpt lat="43.58614" lon="3.299">
        <ele>495.4</ele>
        <time>2016-08-07T07:02:34Z</time>
      </trkpt>
      <trkpt lat="43.58606" lon="3.299">
        <ele>495.7</ele>
        <time>2016-08-07T07:02:38Z</time>
      </trkpt>
      <trkpt lat="43.58598" lon="3.29897">
        <ele>496.3</ele>
        <time>2016-08-07T07:02:43Z</time>
      </trkpt>
      <trkpt lat="43.58591" lon="3.29891">
        <ele>496.8</ele>
        <time>2016-08-07T07:02:47Z</time>
      </trkpt>
      <trkpt lat="43.58587" lon="3.2988">
        <ele>497.5</ele>
        <time>2016-08-07T07:02:51Z</time>
      </trkpt>
      <trkpt lat="43.58586" lon="3.29868">
        <ele>498</ele>
        <time>2016-08-07T07:02:54Z</time>
      </trkpt>
      <trkpt lat="43.58584" lon="3.29854">
        <ele>498.5</ele>
        <time>2016-08-07T07:02:57Z</time>
      </trkpt>
      <trkpt lat="43.58583" lon="3.29844">
        <ele>498.9</ele>
        <time>2016-08-07T07:03:00Z</time>
      </trkpt>
      <trkpt lat="43.58579" lon="3.29831">
        <ele>499.6</ele>
        <time>2016-08-07T07:03:04Z</time>
      </trkpt>
      <trkpt lat="43.58577" lon="3.2982">
        <ele>500.3</ele>
        <time>2016-08-07T07:03:08Z</time>
      </trkpt>
      <trkpt lat="43.58576" lon="3.29809">
        <ele>501</ele>
        <time>2016-08-07T07:03:12Z</time>
      </trkpt>
      <trkpt lat="43.58567" lon="3.29804">
        <ele>501.7</ele>
        <time>2016-08-07T07:03:16Z</time>
      </trkpt>
      <trkpt lat="43.58559" lon="3.29808">
        <ele>502.7</ele>
        <time>2016-08-07T07:03:21Z</time>
      </trkpt>
      <trkpt lat="43.58551" lon="3.29804">
        <ele>503.3</ele>
        <time>2016-08-07T07:03:25Z</time>
      </trkpt>
      <trkpt lat="43.58544" lon="3.29797">
        <ele>504.8</ele>
        <time>2016-08-07T07:03:31Z</time>
      </trkpt>
      <trkpt lat="43.58536" lon="3.29795">
        <ele>506.2</ele>
        <time>2016-08-07T07:03:37Z</time>
      </trkpt>
      <trkpt lat="43.58528" lon="3.29798">
        <ele>507.4</ele>
        <time>2016-08-07T07:03:42Z</time>
      </trkpt>
      <trkpt lat="43.5852" lon="3.29803">
        <ele>508.6</ele>
        <time>2016-08-07T07:03:47Z</time>
      </trkpt>
      <trkpt lat="43.58513" lon="3.29805">
        <ele>509.8</ele>
        <time>2016-08-07T07:03:53Z</time>
      </trkpt>
      <trkpt lat="43.58509" lon="3.29796">
        <ele>511.4</ele>
        <time>2016-08-07T07:04:00Z</time>
      </trkpt>
      <trkpt lat="43.58507" lon="3.29784">
        <ele>512.5</ele>
        <time>2016-08-07T07:04:05Z</time>
      </trkpt>
      <trkpt lat="43.58502" lon="3.29773">
        <ele>513.1</ele>
        <time>2016-08-07T07:04:09Z</time>
      </trkpt>
      <trkpt lat="43.58496" lon="3.29766">
        <ele>513.7</ele>
        <time>2016-08-07T07:04:13Z</time>
      </trkpt>
      <trkpt lat="43.58491" lon="3.29759">
        <ele>514.5</ele>
        <time>2016-08-07T07:04:20Z</time>
      </trkpt>
      <trkpt lat="43.58489" lon="3.29758">
        <ele>515.3</ele>
        <time>2016-08-07T07:04:27Z</time>
      </trkpt>
      <trkpt lat="43.58482" lon="3.29749">
        <ele>517.9</ele>
        <time>2016-08-07T07:04:56Z</time>
      </trkpt>
      <trkpt lat="43.58476" lon="3.29742">
        <ele>520.4</ele>
        <time>2016-08-07T07:04:58Z</time>
      </trkpt>
      <trkpt lat="43.58469" lon="3.29732">
        <ele>522.1</ele>
        <time>2016-08-07T07:05:00Z</time>
      </trkpt>
      <trkpt lat="43.58462" lon="3.29724">
        <ele>522.2</ele>
        <time>2016-08-07T07:05:02Z</time>
      </trkpt>
      <trkpt lat="43.58459" lon="3.29716">
        <ele>522.1</ele>
        <time>2016-08-07T07:05:09Z</time>
      </trkpt>
      <trkpt lat="43.58452" lon="3.29711">
        <ele>520.2</ele>
        <time>2016-08-07T07:05:46Z</time>
      </trkpt>
      <trkpt lat="43.58449" lon="3.29703">
        <ele>519.9</ele>
        <time>2016-08-07T07:05:53Z</time>
      </trkpt>
      <trkpt lat="43.58448" lon="3.29698">
        <ele>519.8</ele>
        <time>2016-08-07T07:06:00Z</time>
      </trkpt>
      <trkpt lat="43.58447" lon="3.29688">
        <ele>520.2</ele>
        <time>2016-08-07T07:06:13Z</time>
      </trkpt>
      <trkpt lat="43.58444" lon="3.29675">
        <ele>520.3</ele>
        <time>2016-08-07T07:06:16Z</time>
      </trkpt>
      <trkpt lat="43.58443" lon="3.29665">
        <ele>520.4</ele>
        <time>2016-08-07T07:06:19Z</time>
      </trkpt>
      <trkpt lat="43.58446" lon="3.29654">
        <ele>520.4</ele>
        <time>2016-08-07T07:06:22Z</time>
      </trkpt>
      <trkpt lat="43.58447" lon="3.29639">
        <ele>520.4</ele>
        <time>2016-08-07T07:06:25Z</time>
      </trkpt>
      <trkpt lat="43.58446" lon="3.29628">
        <ele>520.4</ele>
        <time>2016-08-07T07:06:27Z</time>
      </trkpt>
      <trkpt lat="43.58444" lon="3.29615">
        <ele>521</ele>
        <time>2016-08-07T07:06:29Z</time>
      </trkpt>
      <trkpt lat="43.58442" lon="3.296">
        <ele>521.1</ele>
        <time>2016-08-07T07:06:31Z</time>
      </trkpt>
      <trkpt lat="43.58442" lon="3.29588">
        <ele>521.2</ele>
        <time>2016-08-07T07:06:33Z</time>
      </trkpt>
      <trkpt lat="43.58439" lon="3.29577">
        <ele>521.3</ele>
        <time>2016-08-07T07:06:36Z</time>
      </trkpt>
      <trkpt lat="43.5844" lon="3.29564">
        <ele>521.3</ele>
        <time>2016-08-07T07:06:39Z</time>
      </trkpt>
      <trkpt lat="43.58442" lon="3.29553">
        <ele>521.3</ele>
        <time>2016-08-07T07:06:41Z</time>
      </trkpt>
      <trkpt lat="43.58442" lon="3.29539">
        <ele>521.2</ele>
        <time>2016-08-07T07:06:43Z</time>
      </trkpt>
      <trkpt lat="43.58439" lon="3.29526">
        <ele>521.1</ele>
        <time>2016-08-07T07:06:45Z</time>
      </trkpt>
      <trkpt lat="43.58439" lon="3.29514">
        <ele>520.9</ele>
        <time>2016-08-07T07:06:47Z</time>
      </trkpt>
      <trkpt lat="43.58439" lon="3.29503">
        <ele>520.5</ele>
        <time>2016-08-07T07:06:50Z</time>
      </trkpt>
      <trkpt lat="43.58441" lon="3.29494">
        <ele>520.3</ele>
        <time>2016-08-07T07:06:52Z</time>
      </trkpt>
      <trkpt lat="43.58443" lon="3.29482">
        <ele>518.8</ele>
        <time>2016-08-07T07:06:54Z</time>
      </trkpt>
      <trkpt lat="43.58447" lon="3.29465">
        <ele>515.8</ele>
        <time>2016-08-07T07:06:56Z</time>
      </trkpt>
      <trkpt lat="43.58451" lon="3.29447">
        <ele>514</ele>
        <time>2016-08-07T07:06:58Z</time>
      </trkpt>
      <trkpt lat="43.58453" lon="3.29437">
        <ele>513.1</ele>
        <time>2016-08-07T07:06:59Z</time>
      </trkpt>
      <trkpt lat="43.58455" lon="3.29427">
        <ele>511.9</ele>
        <time>2016-08-07T07:07:00Z</time>
      </trkpt>
      <trkpt lat="43.5846" lon="3.2941">
        <ele>510</ele>
        <time>2016-08-07T07:07:02Z</time>
      </trkpt>
      <trkpt lat="43.58461" lon="3.294">
        <ele>509.5</ele>
        <time>2016-08-07T07:07:03Z</time>
      </trkpt>
      <trkpt lat="43.58463" lon="3.2939">
        <ele>508.6</ele>
        <time>2016-08-07T07:07:04Z</time>
      </trkpt>
      <trkpt lat="43.58464" lon="3.29375">
        <ele>507.7</ele>
        <time>2016-08-07T07:07:06Z</time>
      </trkpt>
      <trkpt lat="43.58469" lon="3.29364">
        <ele>507.6</ele>
        <time>2016-08-07T07:07:09Z</time>
      </trkpt>
      <trkpt lat="43.58475" lon="3.29357">
        <ele>507.2</ele>
        <time>2016-08-07T07:07:13Z</time>
      </trkpt>
      <trkpt lat="43.58484" lon="3.29351">
        <ele>506.9</ele>
        <time>2016-08-07T07:07:17Z</time>
      </trkpt>
      <trkpt lat="43.58494" lon="3.29341">
        <ele>505.8</ele>
        <time>2016-08-07T07:07:20Z</time>
      </trkpt>
      <trkpt lat="43.58503" lon="3.29335">
        <ele>504.1</ele>
        <time>2016-08-07T07:07:22Z</time>
      </trkpt>
      <trkpt lat="43.5851" lon="3.29329">
        <ele>502.8</ele>
        <time>2016-08-07T07:07:23Z</time>
      </trkpt>
      <trkpt lat="43.58521" lon="3.29317">
        <ele>499.9</ele>
        <time>2016-08-07T07:07:25Z</time>
      </trkpt>
      <trkpt lat="43.58527" lon="3.2931">
        <ele>498.4</ele>
        <time>2016-08-07T07:07:26Z</time>
      </trkpt>
      <trkpt lat="43.58534" lon="3.29296">
        <ele>495.8</ele>
        <time>2016-08-07T07:07:28Z</time>
      </trkpt>
      <trkpt lat="43.58543" lon="3.29281">
        <ele>493.5</ele>
        <time>2016-08-07T07:07:30Z</time>
      </trkpt>
      <trkpt lat="43.58551" lon="3.29265">
        <ele>491.3</ele>
        <time>2016-08-07T07:07:32Z</time>
      </trkpt>
      <trkpt lat="43.58559" lon="3.2925">
        <ele>489.5</ele>
        <time>2016-08-07T07:07:34Z</time>
      </trkpt>
      <trkpt lat="43.58563" lon="3.29241">
        <ele>488.4</ele>
        <time>2016-08-07T07:07:35Z</time>
      </trkpt>
      <trkpt lat="43.58567" lon="3.29232">
        <ele>487.5</ele>
        <time>2016-08-07T07:07:36Z</time>
      </trkpt>
      <trkpt lat="43.58571" lon="3.29221">
        <ele>486.5</ele>
        <time>2016-08-07T07:07:37Z</time>
      </trkpt>
      <trkpt lat="43.58574" lon="3.29212">
        <ele>485.7</ele>
        <time>2016-08-07T07:07:38Z</time>
      </trkpt>
      <trkpt lat="43.58577" lon="3.29202">
        <ele>484.7</ele>
        <time>2016-08-07T07:07:39Z</time>
      </trkpt>
      <trkpt lat="43.58579" lon="3.29192">
        <ele>483.9</ele>
        <time>2016-08-07T07:07:40Z</time>
      </trkpt>
      <trkpt lat="43.5858" lon="3.29182">
        <ele>483</ele>
        <time>2016-08-07T07:07:41Z</time>
      </trkpt>
      <trkpt lat="43.58575" lon="3.29165">
        <ele>481.5</ele>
        <time>2016-08-07T07:07:43Z</time>
      </trkpt>
      <trkpt lat="43.58567" lon="3.2915">
        <ele>480.8</ele>
        <time>2016-08-07T07:07:45Z</time>
      </trkpt>
      <trkpt lat="43.58558" lon="3.29133">
        <ele>480.2</ele>
        <time>2016-08-07T07:07:47Z</time>
      </trkpt>
      <trkpt lat="43.58556" lon="3.29123">
        <ele>480.2</ele>
        <time>2016-08-07T07:07:48Z</time>
      </trkpt>
      <trkpt lat="43.58553" lon="3.29111">
        <ele>479.7</ele>
        <time>2016-08-07T07:07:49Z</time>
      </trkpt>
      <trkpt lat="43.58551" lon="3.29099">
        <ele>479.3</ele>
        <time>2016-08-07T07:07:50Z</time>
      </trkpt>
      <trkpt lat="43.58548" lon="3.29087">
        <ele>478.6</ele>
        <time>2016-08-07T07:07:51Z</time>
      </trkpt>
      <trkpt lat="43.58546" lon="3.29077">
        <ele>478.2</ele>
        <time>2016-08-07T07:07:52Z</time>
      </trkpt>
      <trkpt lat="43.58543" lon="3.29067">
        <ele>477.7</ele>
        <time>2016-08-07T07:07:53Z</time>
      </trkpt>
      <trkpt lat="43.58538" lon="3.29059">
        <ele>477.2</ele>
        <time>2016-08-07T07:07:54Z</time>
      </trkpt>
      <trkpt lat="43.58532" lon="3.29048">
        <ele>476.2</ele>
        <time>2016-08-07T07:07:55Z</time>
      </trkpt>
      <trkpt lat="43.58528" lon="3.29039">
        <ele>475.4</ele>
        <time>2016-08-07T07:07:56Z</time>
      </trkpt>
      <trkpt lat="43.58527" lon="3.29019">
        <ele>474</ele>
        <time>2016-08-07T07:07:58Z</time>
      </trkpt>
      <trkpt lat="43.58528" lon="3.29009">
        <ele>473</ele>
        <time>2016-08-07T07:07:59Z</time>
      </trkpt>
      <trkpt lat="43.58529" lon="3.28997">
        <ele>472.1</ele>
        <time>2016-08-07T07:08:01Z</time>
      </trkpt>
      <trkpt lat="43.58529" lon="3.28984">
        <ele>471.6</ele>
        <time>2016-08-07T07:08:04Z</time>
      </trkpt>
      <trkpt lat="43.5853" lon="3.28972">
        <ele>470.9</ele>
        <time>2016-08-07T07:08:08Z</time>
      </trkpt>
      <trkpt lat="43.58531" lon="3.28962">
        <ele>470.5</ele>
        <time>2016-08-07T07:08:12Z</time>
      </trkpt>
      <trkpt lat="43.58533" lon="3.2895">
        <ele>470.3</ele>
        <time>2016-08-07T07:08:15Z</time>
      </trkpt>
      <trkpt lat="43.58535" lon="3.2894">
        <ele>470.1</ele>
        <time>2016-08-07T07:08:17Z</time>
      </trkpt>
      <trkpt lat="43.5854" lon="3.28929">
        <ele>469.9</ele>
        <time>2016-08-07T07:08:19Z</time>
      </trkpt>
      <trkpt lat="43.58544" lon="3.28919">
        <ele>469.7</ele>
        <time>2016-08-07T07:08:21Z</time>
      </trkpt>
      <trkpt lat="43.58547" lon="3.2891">
        <ele>468.1</ele>
        <time>2016-08-07T07:08:23Z</time>
      </trkpt>
      <trkpt lat="43.58548" lon="3.289">
        <ele>467.8</ele>
        <time>2016-08-07T07:08:25Z</time>
      </trkpt>
      <trkpt lat="43.5855" lon="3.28889">
        <ele>467.6</ele>
        <time>2016-08-07T07:08:27Z</time>
      </trkpt>
      <trkpt lat="43.5855" lon="3.28879">
        <ele>467.3</ele>
        <time>2016-08-07T07:08:29Z</time>
      </trkpt>
      <trkpt lat="43.58548" lon="3.28866">
        <ele>466.8</ele>
        <time>2016-08-07T07:08:32Z</time>
      </trkpt>
      <trkpt lat="43.58546" lon="3.28852">
        <ele>466.4</ele>
        <time>2016-08-07T07:08:35Z</time>
      </trkpt>
      <trkpt lat="43.58545" lon="3.28841">
        <ele>465</ele>
        <time>2016-08-07T07:08:37Z</time>
      </trkpt>
      <trkpt lat="43.58543" lon="3.28829">
        <ele>464.7</ele>
        <time>2016-08-07T07:08:39Z</time>
      </trkpt>
      <trkpt lat="43.58541" lon="3.28818">
        <ele>464.4</ele>
        <time>2016-08-07T07:08:41Z</time>
      </trkpt>
      <trkpt lat="43.5854" lon="3.28807">
        <ele>464.1</ele>
        <time>2016-08-07T07:08:43Z</time>
      </trkpt>
      <trkpt lat="43.58538" lon="3.28797">
        <ele>463.7</ele>
        <time>2016-08-07T07:08:46Z</time>
      </trkpt>
      <trkpt lat="43.58535" lon="3.28786">
        <ele>463</ele>
        <time>2016-08-07T07:08:51Z</time>
      </trkpt>
      <trkpt lat="43.58535" lon="3.28775">
        <ele>462.7</ele>
        <time>2016-08-07T07:08:55Z</time>
      </trkpt>
      <trkpt lat="43.58534" lon="3.28768">
        <ele>462.5</ele>
        <time>2016-08-07T07:09:02Z</time>
      </trkpt>
      <trkpt lat="43.58526" lon="3.28778">
        <ele>461.9</ele>
        <time>2016-08-07T07:11:26Z</time>
      </trkpt>
      <trkpt lat="43.58522" lon="3.28788">
        <ele>460.6</ele>
        <time>2016-08-07T07:11:28Z</time>
      </trkpt>
      <trkpt lat="43.58517" lon="3.28801">
        <ele>459.3</ele>
        <time>2016-08-07T07:11:30Z</time>
      </trkpt>
      <trkpt lat="43.58511" lon="3.28813">
        <ele>457.5</ele>
        <time>2016-08-07T07:11:32Z</time>
      </trkpt>
      <trkpt lat="43.58506" lon="3.28829">
        <ele>456.3</ele>
        <time>2016-08-07T07:11:34Z</time>
      </trkpt>
      <trkpt lat="43.58503" lon="3.28844">
        <ele>454.6</ele>
        <time>2016-08-07T07:11:36Z</time>
      </trkpt>
      <trkpt lat="43.58499" lon="3.28856">
        <ele>453.7</ele>
        <time>2016-08-07T07:11:38Z</time>
      </trkpt>
      <trkpt lat="43.58492" lon="3.28867">
        <ele>451.3</ele>
        <time>2016-08-07T07:11:40Z</time>
      </trkpt>
      <trkpt lat="43.58486" lon="3.28882">
        <ele>449</ele>
        <time>2016-08-07T07:11:42Z</time>
      </trkpt>
      <trkpt lat="43.58479" lon="3.28896">
        <ele>446.1</ele>
        <time>2016-08-07T07:11:44Z</time>
      </trkpt>
      <trkpt lat="43.58473" lon="3.28903">
        <ele>444.8</ele>
        <time>2016-08-07T07:11:45Z</time>
      </trkpt>
      <trkpt lat="43.58464" lon="3.28917">
        <ele>442.4</ele>
        <time>2016-08-07T07:11:47Z</time>
      </trkpt>
      <trkpt lat="43.58457" lon="3.28932">
        <ele>441</ele>
        <time>2016-08-07T07:11:49Z</time>
      </trkpt>
      <trkpt lat="43.58452" lon="3.28941">
        <ele>440.3</ele>
        <time>2016-08-07T07:11:50Z</time>
      </trkpt>
      <trkpt lat="43.58445" lon="3.28954">
        <ele>438.5</ele>
        <time>2016-08-07T07:11:52Z</time>
      </trkpt>
      <trkpt lat="43.58437" lon="3.28962">
        <ele>437.5</ele>
        <time>2016-08-07T07:11:54Z</time>
      </trkpt>
      <trkpt lat="43.58427" lon="3.28971">
        <ele>435.6</ele>
        <time>2016-08-07T07:11:56Z</time>
      </trkpt>
      <trkpt lat="43.58417" lon="3.2898">
        <ele>433.5</ele>
        <time>2016-08-07T07:11:58Z</time>
      </trkpt>
      <trkpt lat="43.58404" lon="3.28988">
        <ele>431.9</ele>
        <time>2016-08-07T07:12:00Z</time>
      </trkpt>
      <trkpt lat="43.58393" lon="3.2899">
        <ele>430.8</ele>
        <time>2016-08-07T07:12:02Z</time>
      </trkpt>
      <trkpt lat="43.58381" lon="3.28988">
        <ele>428.5</ele>
        <time>2016-08-07T07:12:04Z</time>
      </trkpt>
      <trkpt lat="43.58372" lon="3.28984">
        <ele>426.1</ele>
        <time>2016-08-07T07:12:06Z</time>
      </trkpt>
      <trkpt lat="43.58362" lon="3.28979">
        <ele>425.9</ele>
        <time>2016-08-07T07:12:08Z</time>
      </trkpt>
      <trkpt lat="43.58354" lon="3.28973">
        <ele>423.4</ele>
        <time>2016-08-07T07:12:10Z</time>
      </trkpt>
      <trkpt lat="43.58346" lon="3.28967">
        <ele>421.3</ele>
        <time>2016-08-07T07:12:12Z</time>
      </trkpt>
      <trkpt lat="43.58336" lon="3.28959">
        <ele>419.6</ele>
        <time>2016-08-07T07:12:14Z</time>
      </trkpt>
      <trkpt lat="43.58327" lon="3.28955">
        <ele>416.3</ele>
        <time>2016-08-07T07:12:16Z</time>
      </trkpt>
      <trkpt lat="43.58318" lon="3.28947">
        <ele>414.9</ele>
        <time>2016-08-07T07:12:18Z</time>
      </trkpt>
      <trkpt lat="43.5831" lon="3.28947">
        <ele>414.3</ele>
        <time>2016-08-07T07:12:20Z</time>
      </trkpt>
      <trkpt lat="43.58302" lon="3.28949">
        <ele>412.8</ele>
        <time>2016-08-07T07:12:22Z</time>
      </trkpt>
      <trkpt lat="43.58292" lon="3.28951">
        <ele>412.1</ele>
        <time>2016-08-07T07:12:24Z</time>
      </trkpt>
      <trkpt lat="43.58278" lon="3.28954">
        <ele>411.3</ele>
        <time>2016-08-07T07:12:26Z</time>
      </trkpt>
      <trkpt lat="43.58268" lon="3.28957">
        <ele>410.7</ele>
        <time>2016-08-07T07:12:28Z</time>
      </trkpt>
      <trkpt lat="43.5826" lon="3.28958">
        <ele>410.6</ele>
        <time>2016-08-07T07:12:30Z</time>
      </trkpt>
      <trkpt lat="43.5825" lon="3.28961">
        <ele>409.3</ele>
        <time>2016-08-07T07:12:32Z</time>
      </trkpt>
      <trkpt lat="43.58241" lon="3.2896">
        <ele>408.5</ele>
        <time>2016-08-07T07:12:37Z</time>
      </trkpt>
      <trkpt lat="43.5823" lon="3.28959">
        <ele>407.7</ele>
        <time>2016-08-07T07:12:42Z</time>
      </trkpt>
      <trkpt lat="43.58222" lon="3.28958">
        <ele>407.4</ele>
        <time>2016-08-07T07:12:44Z</time>
      </trkpt>
      <trkpt lat="43.58213" lon="3.28953">
        <ele>406.9</ele>
        <time>2016-08-07T07:12:47Z</time>
      </trkpt>
      <trkpt lat="43.58204" lon="3.28949">
        <ele>404.9</ele>
        <time>2016-08-07T07:12:49Z</time>
      </trkpt>
      <trkpt lat="43.58193" lon="3.2895">
        <ele>404.4</ele>
        <time>2016-08-07T07:12:52Z</time>
      </trkpt>
      <trkpt lat="43.58185" lon="3.28951">
        <ele>403.9</ele>
        <time>2016-08-07T07:12:54Z</time>
      </trkpt>
      <trkpt lat="43.58177" lon="3.2895">
        <ele>403</ele>
        <time>2016-08-07T07:12:57Z</time>
      </trkpt>
      <trkpt lat="43.5817" lon="3.28951">
        <ele>399.2</ele>
        <time>2016-08-07T07:12:59Z</time>
      </trkpt>
      <trkpt lat="43.58162" lon="3.28946">
        <ele>398.6</ele>
        <time>2016-08-07T07:13:01Z</time>
      </trkpt>
      <trkpt lat="43.58154" lon="3.28937">
        <ele>397.7</ele>
        <time>2016-08-07T07:13:04Z</time>
      </trkpt>
      <trkpt lat="43.58147" lon="3.28927">
        <ele>397</ele>
        <time>2016-08-07T07:13:07Z</time>
      </trkpt>
      <trkpt lat="43.58142" lon="3.28918">
        <ele>396.3</ele>
        <time>2016-08-07T07:13:10Z</time>
      </trkpt>
      <trkpt lat="43.58138" lon="3.28909">
        <ele>395.3</ele>
        <time>2016-08-07T07:13:14Z</time>
      </trkpt>
      <trkpt lat="43.5813" lon="3.28909">
        <ele>393.8</ele>
        <time>2016-08-07T07:13:19Z</time>
      </trkpt>
      <trkpt lat="43.58122" lon="3.28911">
        <ele>392.6</ele>
        <time>2016-08-07T07:13:22Z</time>
      </trkpt>
      <trkpt lat="43.58114" lon="3.28912">
        <ele>391.3</ele>
        <time>2016-08-07T07:13:25Z</time>
      </trkpt>
      <trkpt lat="43.58105" lon="3.2891">
        <ele>389.5</ele>
        <time>2016-08-07T07:13:29Z</time>
      </trkpt>
      <trkpt lat="43.58098" lon="3.28908">
        <ele>388.4</ele>
        <time>2016-08-07T07:13:32Z</time>
      </trkpt>
      <trkpt lat="43.5809" lon="3.28907">
        <ele>387</ele>
        <time>2016-08-07T07:13:35Z</time>
      </trkpt>
      <trkpt lat="43.5808" lon="3.28902">
        <ele>385.4</ele>
        <time>2016-08-07T07:13:39Z</time>
      </trkpt>
      <trkpt lat="43.5807" lon="3.28899">
        <ele>384.6</ele>
        <time>2016-08-07T07:13:41Z</time>
      </trkpt>
      <trkpt lat="43.58063" lon="3.28896">
        <ele>383.8</ele>
        <time>2016-08-07T07:13:43Z</time>
      </trkpt>
      <trkpt lat="43.58053" lon="3.28891">
        <ele>382.6</ele>
        <time>2016-08-07T07:13:46Z</time>
      </trkpt>
      <trkpt lat="43.58045" lon="3.28887">
        <ele>381.1</ele>
        <time>2016-08-07T07:13:49Z</time>
      </trkpt>
      <trkpt lat="43.58037" lon="3.28884">
        <ele>379.3</ele>
        <time>2016-08-07T07:13:53Z</time>
      </trkpt>
      <trkpt lat="43.58027" lon="3.28882">
        <ele>373</ele>
        <time>2016-08-07T07:13:56Z</time>
      </trkpt>
      <trkpt lat="43.58018" lon="3.28878">
        <ele>369.1</ele>
        <time>2016-08-07T07:13:58Z</time>
      </trkpt>
      <trkpt lat="43.5801" lon="3.28873">
        <ele>368.5</ele>
        <time>2016-08-07T07:14:00Z</time>
      </trkpt>
      <trkpt lat="43.58002" lon="3.28873">
        <ele>367.5</ele>
        <time>2016-08-07T07:14:03Z</time>
      </trkpt>
      <trkpt lat="43.58001" lon="3.28874">
        <ele>366.3</ele>
        <time>2016-08-07T07:14:10Z</time>
      </trkpt>
      <trkpt lat="43.57993" lon="3.28871">
        <ele>357.5</ele>
        <time>2016-08-07T07:15:54Z</time>
      </trkpt>
      <trkpt lat="43.57986" lon="3.28868">
        <ele>356.9</ele>
        <time>2016-08-07T07:15:57Z</time>
      </trkpt>
      <trkpt lat="43.57978" lon="3.28864">
        <ele>356.3</ele>
        <time>2016-08-07T07:16:00Z</time>
      </trkpt>
      <trkpt lat="43.57971" lon="3.28859">
        <ele>355.8</ele>
        <time>2016-08-07T07:16:03Z</time>
      </trkpt>
      <trkpt lat="43.57962" lon="3.28853">
        <ele>355.1</ele>
        <time>2016-08-07T07:16:07Z</time>
      </trkpt>
      <trkpt lat="43.57956" lon="3.28848">
        <ele>354.9</ele>
        <time>2016-08-07T07:16:09Z</time>
      </trkpt>
      <trkpt lat="43.57949" lon="3.28843">
        <ele>354.6</ele>
        <time>2016-08-07T07:16:11Z</time>
      </trkpt>
      <trkpt lat="43.57942" lon="3.28838">
        <ele>354.3</ele>
        <time>2016-08-07T07:16:13Z</time>
      </trkpt>
      <trkpt lat="43.57936" lon="3.28832">
        <ele>354</ele>
        <time>2016-08-07T07:16:15Z</time>
      </trkpt>
      <trkpt lat="43.5793" lon="3.28826">
        <ele>353.6</ele>
        <time>2016-08-07T07:16:17Z</time>
      </trkpt>
      <trkpt lat="43.57923" lon="3.28819">
        <ele>350</ele>
        <time>2016-08-07T07:16:19Z</time>
      </trkpt>
      <trkpt lat="43.57916" lon="3.28813">
        <ele>347</ele>
        <time>2016-08-07T07:16:21Z</time>
      </trkpt>
      <trkpt lat="43.57908" lon="3.28807">
        <ele>344.4</ele>
        <time>2016-08-07T07:16:23Z</time>
      </trkpt>
      <trkpt lat="43.57901" lon="3.28802">
        <ele>342.2</ele>
        <time>2016-08-07T07:16:25Z</time>
      </trkpt>
      <trkpt lat="43.57895" lon="3.28796">
        <ele>341.9</ele>
        <time>2016-08-07T07:16:27Z</time>
      </trkpt>
      <trkpt lat="43.57889" lon="3.28788">
        <ele>341.9</ele>
        <time>2016-08-07T07:16:30Z</time>
      </trkpt>
      <trkpt lat="43.57893" lon="3.28779">
        <ele>341.6</ele>
        <time>2016-08-07T07:16:35Z</time>
      </trkpt>
      <trkpt lat="43.57901" lon="3.28771">
        <ele>341.3</ele>
        <time>2016-08-07T07:16:38Z</time>
      </trkpt>
      <trkpt lat="43.57908" lon="3.28764">
        <ele>341</ele>
        <time>2016-08-07T07:16:41Z</time>
      </trkpt>
      <trkpt lat="43.57916" lon="3.28757">
        <ele>340.8</ele>
        <time>2016-08-07T07:16:44Z</time>
      </trkpt>
      <trkpt lat="43.57925" lon="3.28751">
        <ele>340.8</ele>
        <time>2016-08-07T07:16:47Z</time>
      </trkpt>
      <trkpt lat="43.57931" lon="3.28746">
        <ele>340.9</ele>
        <time>2016-08-07T07:16:49Z</time>
      </trkpt>
      <trkpt lat="43.57938" lon="3.28743">
        <ele>341.1</ele>
        <time>2016-08-07T07:16:51Z</time>
      </trkpt>
      <trkpt lat="43.57948" lon="3.28739">
        <ele>341.4</ele>
        <time>2016-08-07T07:16:54Z</time>
      </trkpt>
      <trkpt lat="43.57955" lon="3.28736">
        <ele>341.4</ele>
        <time>2016-08-07T07:16:56Z</time>
      </trkpt>
      <trkpt lat="43.57965" lon="3.28734">
        <ele>341.3</ele>
        <time>2016-08-07T07:16:59Z</time>
      </trkpt>
      <trkpt lat="43.57974" lon="3.28732">
        <ele>341.3</ele>
        <time>2016-08-07T07:17:02Z</time>
      </trkpt>
      <trkpt lat="43.57983" lon="3.28731">
        <ele>341.3</ele>
        <time>2016-08-07T07:17:05Z</time>
      </trkpt>
      <trkpt lat="43.57993" lon="3.2873">
        <ele>341.4</ele>
        <time>2016-08-07T07:17:08Z</time>
      </trkpt>
      <trkpt lat="43.58003" lon="3.28729">
        <ele>341.3</ele>
        <time>2016-08-07T07:17:11Z</time>
      </trkpt>
      <trkpt lat="43.58011" lon="3.28726">
        <ele>341.2</ele>
        <time>2016-08-07T07:17:14Z</time>
      </trkpt>
      <trkpt lat="43.58019" lon="3.28724">
        <ele>341.2</ele>
        <time>2016-08-07T07:17:17Z</time>
      </trkpt>
      <trkpt lat="43.58026" lon="3.2872">
        <ele>341.2</ele>
        <time>2016-08-07T07:17:20Z</time>
      </trkpt>
      <trkpt lat="43.58035" lon="3.28715">
        <ele>341.1</ele>
        <time>2016-08-07T07:17:24Z</time>
      </trkpt>
      <trkpt lat="43.58042" lon="3.28711">
        <ele>341.3</ele>
        <time>2016-08-07T07:17:27Z</time>
      </trkpt>
      <trkpt lat="43.58049" lon="3.28707">
        <ele>341.5</ele>
        <time>2016-08-07T07:17:30Z</time>
      </trkpt>
      <trkpt lat="43.58056" lon="3.28705">
        <ele>341.4</ele>
        <time>2016-08-07T07:17:33Z</time>
      </trkpt>
      <trkpt lat="43.58064" lon="3.287">
        <ele>341.4</ele>
        <time>2016-08-07T07:17:37Z</time>
      </trkpt>
      <trkpt lat="43.58073" lon="3.28697">
        <ele>341.6</ele>
        <time>2016-08-07T07:17:41Z</time>
      </trkpt>
      <trkpt lat="43.58082" lon="3.28694">
        <ele>342</ele>
        <time>2016-08-07T07:17:45Z</time>
      </trkpt>
      <trkpt lat="43.58091" lon="3.28691">
        <ele>342.3</ele>
        <time>2016-08-07T07:17:50Z</time>
      </trkpt>
      <trkpt lat="43.58099" lon="3.28688">
        <ele>342.5</ele>
        <time>2016-08-07T07:17:54Z</time>
      </trkpt>
      <trkpt lat="43.58108" lon="3.28687">
        <ele>342.6</ele>
        <time>2016-08-07T07:17:57Z</time>
      </trkpt>
      <trkpt lat="43.58116" lon="3.28685">
        <ele>342.8</ele>
        <time>2016-08-07T07:18:01Z</time>
      </trkpt>
      <trkpt lat="43.58124" lon="3.28684">
        <ele>343</ele>
        <time>2016-08-07T07:18:05Z</time>
      </trkpt>
      <trkpt lat="43.58133" lon="3.28683">
        <ele>343.4</ele>
        <time>2016-08-07T07:18:09Z</time>
      </trkpt>
      <trkpt lat="43.58142" lon="3.28681">
        <ele>343.7</ele>
        <time>2016-08-07T07:18:13Z</time>
      </trkpt>
      <trkpt lat="43.58151" lon="3.28682">
        <ele>343.9</ele>
        <time>2016-08-07T07:18:17Z</time>
      </trkpt>
      <trkpt lat="43.5816" lon="3.28684">
        <ele>344.1</ele>
        <time>2016-08-07T07:18:21Z</time>
      </trkpt>
      <trkpt lat="43.58167" lon="3.28686">
        <ele>344.4</ele>
        <time>2016-08-07T07:18:24Z</time>
      </trkpt>
      <trkpt lat="43.58175" lon="3.2869">
        <ele>344.7</ele>
        <time>2016-08-07T07:18:28Z</time>
      </trkpt>
      <trkpt lat="43.58181" lon="3.28694">
        <ele>345</ele>
        <time>2016-08-07T07:18:31Z</time>
      </trkpt>
      <trkpt lat="43.5819" lon="3.28699">
        <ele>345.4</ele>
        <time>2016-08-07T07:18:35Z</time>
      </trkpt>
      <trkpt lat="43.58199" lon="3.28705">
        <ele>345.7</ele>
        <time>2016-08-07T07:18:39Z</time>
      </trkpt>
      <trkpt lat="43.58206" lon="3.28708">
        <ele>345.9</ele>
        <time>2016-08-07T07:18:42Z</time>
      </trkpt>
      <trkpt lat="43.58213" lon="3.28713">
        <ele>346.1</ele>
        <time>2016-08-07T07:18:45Z</time>
      </trkpt>
      <trkpt lat="43.58222" lon="3.28719">
        <ele>346.3</ele>
        <time>2016-08-07T07:18:48Z</time>
      </trkpt>
      <trkpt lat="43.58232" lon="3.28724">
        <ele>347</ele>
        <time>2016-08-07T07:18:51Z</time>
      </trkpt>
      <trkpt lat="43.5824" lon="3.28724">
        <ele>347</ele>
        <time>2016-08-07T07:18:53Z</time>
      </trkpt>
      <trkpt lat="43.58247" lon="3.2872">
        <ele>347.2</ele>
        <time>2016-08-07T07:18:55Z</time>
      </trkpt>
      <trkpt lat="43.58247" lon="3.28708">
        <ele>347.3</ele>
        <time>2016-08-07T07:18:58Z</time>
      </trkpt>
      <trkpt lat="43.58245" lon="3.28698">
        <ele>347.5</ele>
        <time>2016-08-07T07:19:01Z</time>
      </trkpt>
      <trkpt lat="43.5824" lon="3.28687">
        <ele>347.8</ele>
        <time>2016-08-07T07:19:04Z</time>
      </trkpt>
      <trkpt lat="43.58236" lon="3.28678">
        <ele>348.1</ele>
        <time>2016-08-07T07:19:06Z</time>
      </trkpt>
      <trkpt lat="43.58231" lon="3.28663">
        <ele>348.6</ele>
        <time>2016-08-07T07:19:09Z</time>
      </trkpt>
      <trkpt lat="43.5823" lon="3.28651">
        <ele>349.1</ele>
        <time>2016-08-07T07:19:12Z</time>
      </trkpt>
      <trkpt lat="43.58229" lon="3.28637">
        <ele>349.5</ele>
        <time>2016-08-07T07:19:15Z</time>
      </trkpt>
      <trkpt lat="43.58228" lon="3.28626">
        <ele>349.7</ele>
        <time>2016-08-07T07:19:18Z</time>
      </trkpt>
      <trkpt lat="43.58226" lon="3.28615">
        <ele>349.9</ele>
        <time>2016-08-07T07:19:21Z</time>
      </trkpt>
      <trkpt lat="43.58223" lon="3.28603">
        <ele>350.2</ele>
        <time>2016-08-07T07:19:24Z</time>
      </trkpt>
      <trkpt lat="43.58221" lon="3.2859">
        <ele>350.2</ele>
        <time>2016-08-07T07:19:27Z</time>
      </trkpt>
      <trkpt lat="43.5822" lon="3.28578">
        <ele>350.2</ele>
        <time>2016-08-07T07:19:30Z</time>
      </trkpt>
      <trkpt lat="43.58221" lon="3.28566">
        <ele>350.2</ele>
        <time>2016-08-07T07:19:33Z</time>
      </trkpt>
      <trkpt lat="43.58224" lon="3.28553">
        <ele>350.2</ele>
        <time>2016-08-07T07:19:36Z</time>
      </trkpt>
      <trkpt lat="43.58229" lon="3.28543">
        <ele>350.2</ele>
        <time>2016-08-07T07:19:39Z</time>
      </trkpt>
      <trkpt lat="43.58233" lon="3.28533">
        <ele>350.5</ele>
        <time>2016-08-07T07:19:42Z</time>
      </trkpt>
      <trkpt lat="43.58239" lon="3.28523">
        <ele>350.7</ele>
        <time>2016-08-07T07:19:45Z</time>
      </trkpt>
      <trkpt lat="43.58245" lon="3.28514">
        <ele>350.8</ele>
        <time>2016-08-07T07:19:48Z</time>
      </trkpt>
      <trkpt lat="43.58247" lon="3.28502">
        <ele>351</ele>
        <time>2016-08-07T07:19:52Z</time>
      </trkpt>
      <trkpt lat="43.58241" lon="3.28495">
        <ele>351.2</ele>
        <time>2016-08-07T07:19:55Z</time>
      </trkpt>
      <trkpt lat="43.58234" lon="3.2849">
        <ele>351.7</ele>
        <time>2016-08-07T07:19:58Z</time>
      </trkpt>
      <trkpt lat="43.58227" lon="3.28485">
        <ele>352.3</ele>
        <time>2016-08-07T07:20:01Z</time>
      </trkpt>
      <trkpt lat="43.5822" lon="3.28482">
        <ele>352.8</ele>
        <time>2016-08-07T07:20:04Z</time>
      </trkpt>
      <trkpt lat="43.58212" lon="3.28476">
        <ele>353.4</ele>
        <time>2016-08-07T07:20:07Z</time>
      </trkpt>
      <trkpt lat="43.58203" lon="3.28469">
        <ele>354.1</ele>
        <time>2016-08-07T07:20:11Z</time>
      </trkpt>
      <trkpt lat="43.58196" lon="3.28462">
        <ele>354.6</ele>
        <time>2016-08-07T07:20:14Z</time>
      </trkpt>
      <trkpt lat="43.58191" lon="3.28453">
        <ele>355.1</ele>
        <time>2016-08-07T07:20:17Z</time>
      </trkpt>
      <trkpt lat="43.5819" lon="3.2844">
        <ele>355.4</ele>
        <time>2016-08-07T07:20:20Z</time>
      </trkpt>
      <trkpt lat="43.58192" lon="3.28428">
        <ele>355.7</ele>
        <time>2016-08-07T07:20:23Z</time>
      </trkpt>
      <trkpt lat="43.58194" lon="3.28417">
        <ele>355.9</ele>
        <time>2016-08-07T07:20:26Z</time>
      </trkpt>
      <trkpt lat="43.58198" lon="3.28406">
        <ele>356.1</ele>
        <time>2016-08-07T07:20:29Z</time>
      </trkpt>
      <trkpt lat="43.58203" lon="3.28398">
        <ele>356.2</ele>
        <time>2016-08-07T07:20:32Z</time>
      </trkpt>
      <trkpt lat="43.58209" lon="3.28389">
        <ele>356.4</ele>
        <time>2016-08-07T07:20:36Z</time>
      </trkpt>
      <trkpt lat="43.58216" lon="3.28382">
        <ele>356.6</ele>
        <time>2016-08-07T07:20:39Z</time>
      </trkpt>
      <trkpt lat="43.58224" lon="3.28379">
        <ele>357</ele>
        <time>2016-08-07T07:20:42Z</time>
      </trkpt>
      <trkpt lat="43.58232" lon="3.28378">
        <ele>357.6</ele>
        <time>2016-08-07T07:20:45Z</time>
      </trkpt>
      <trkpt lat="43.5824" lon="3.28376">
        <ele>358.2</ele>
        <time>2016-08-07T07:20:48Z</time>
      </trkpt>
      <trkpt lat="43.58247" lon="3.28375">
        <ele>358.9</ele>
        <time>2016-08-07T07:20:51Z</time>
      </trkpt>
      <trkpt lat="43.58256" lon="3.28374">
        <ele>359.5</ele>
        <time>2016-08-07T07:20:54Z</time>
      </trkpt>
      <trkpt lat="43.58267" lon="3.28374">
        <ele>360.2</ele>
        <time>2016-08-07T07:20:58Z</time>
      </trkpt>
      <trkpt lat="43.58275" lon="3.28373">
        <ele>360.9</ele>
        <time>2016-08-07T07:21:02Z</time>
      </trkpt>
      <trkpt lat="43.58284" lon="3.2837">
        <ele>361.5</ele>
        <time>2016-08-07T07:21:06Z</time>
      </trkpt>
      <trkpt lat="43.58293" lon="3.28368">
        <ele>362.3</ele>
        <time>2016-08-07T07:21:10Z</time>
      </trkpt>
      <trkpt lat="43.58301" lon="3.28365">
        <ele>363</ele>
        <time>2016-08-07T07:21:13Z</time>
      </trkpt>
      <trkpt lat="43.58308" lon="3.28362">
        <ele>363.5</ele>
        <time>2016-08-07T07:21:16Z</time>
      </trkpt>
      <trkpt lat="43.58315" lon="3.28359">
        <ele>363.6</ele>
        <time>2016-08-07T07:21:19Z</time>
      </trkpt>
      <trkpt lat="43.58322" lon="3.28355">
        <ele>363.6</ele>
        <time>2016-08-07T07:21:22Z</time>
      </trkpt>
      <trkpt lat="43.58329" lon="3.28349">
        <ele>363.9</ele>
        <time>2016-08-07T07:21:26Z</time>
      </trkpt>
      <trkpt lat="43.58337" lon="3.28344">
        <ele>364.2</ele>
        <time>2016-08-07T07:21:29Z</time>
      </trkpt>
      <trkpt lat="43.58343" lon="3.28339">
        <ele>364.4</ele>
        <time>2016-08-07T07:21:32Z</time>
      </trkpt>
      <trkpt lat="43.58351" lon="3.28333">
        <ele>365</ele>
        <time>2016-08-07T07:21:36Z</time>
      </trkpt>
      <trkpt lat="43.58359" lon="3.28328">
        <ele>365.5</ele>
        <time>2016-08-07T07:21:40Z</time>
      </trkpt>
      <trkpt lat="43.58366" lon="3.28324">
        <ele>365.7</ele>
        <time>2016-08-07T07:21:43Z</time>
      </trkpt>
      <trkpt lat="43.58375" lon="3.28321">
        <ele>366.2</ele>
        <time>2016-08-07T07:21:47Z</time>
      </trkpt>
      <trkpt lat="43.58384" lon="3.28318">
        <ele>366.6</ele>
        <time>2016-08-07T07:21:51Z</time>
      </trkpt>
      <trkpt lat="43.58392" lon="3.28313">
        <ele>366.9</ele>
        <time>2016-08-07T07:21:55Z</time>
      </trkpt>
      <trkpt lat="43.58399" lon="3.28309">
        <ele>367.1</ele>
        <time>2016-08-07T07:21:58Z</time>
      </trkpt>
      <trkpt lat="43.58408" lon="3.28304">
        <ele>367.4</ele>
        <time>2016-08-07T07:22:02Z</time>
      </trkpt>
      <trkpt lat="43.58415" lon="3.283">
        <ele>367.7</ele>
        <time>2016-08-07T07:22:05Z</time>
      </trkpt>
      <trkpt lat="43.58421" lon="3.28297">
        <ele>368.1</ele>
        <time>2016-08-07T07:22:08Z</time>
      </trkpt>
      <trkpt lat="43.58428" lon="3.28293">
        <ele>368.4</ele>
        <time>2016-08-07T07:22:11Z</time>
      </trkpt>
      <trkpt lat="43.58437" lon="3.28288">
        <ele>369</ele>
        <time>2016-08-07T07:22:15Z</time>
      </trkpt>
      <trkpt lat="43.58444" lon="3.28284">
        <ele>369.3</ele>
        <time>2016-08-07T07:22:18Z</time>
      </trkpt>
      <trkpt lat="43.58453" lon="3.28279">
        <ele>369.8</ele>
        <time>2016-08-07T07:22:22Z</time>
      </trkpt>
      <trkpt lat="43.58461" lon="3.28273">
        <ele>370.5</ele>
        <time>2016-08-07T07:22:26Z</time>
      </trkpt>
      <trkpt lat="43.58468" lon="3.28269">
        <ele>371.1</ele>
        <time>2016-08-07T07:22:29Z</time>
      </trkpt>
      <trkpt lat="43.58475" lon="3.28263">
        <ele>371.6</ele>
        <time>2016-08-07T07:22:33Z</time>
      </trkpt>
      <trkpt lat="43.58482" lon="3.28257">
        <ele>372.3</ele>
        <time>2016-08-07T07:22:37Z</time>
      </trkpt>
      <trkpt lat="43.5849" lon="3.28253">
        <ele>372.7</ele>
        <time>2016-08-07T07:22:40Z</time>
      </trkpt>
      <trkpt lat="43.58499" lon="3.28255">
        <ele>373.4</ele>
        <time>2016-08-07T07:22:44Z</time>
      </trkpt>
      <trkpt lat="43.58501" lon="3.28266">
        <ele>374.3</ele>
        <time>2016-08-07T07:22:50Z</time>
      </trkpt>
      <trkpt lat="43.58494" lon="3.28272">
        <ele>374.9</ele>
        <time>2016-08-07T07:22:53Z</time>
      </trkpt>
      <trkpt lat="43.58486" lon="3.28279">
        <ele>375.6</ele>
        <time>2016-08-07T07:22:56Z</time>
      </trkpt>
      <trkpt lat="43.58479" lon="3.28284">
        <ele>376.3</ele>
        <time>2016-08-07T07:22:59Z</time>
      </trkpt>
      <trkpt lat="43.58472" lon="3.2829">
        <ele>377.2</ele>
        <time>2016-08-07T07:23:03Z</time>
      </trkpt>
      <trkpt lat="43.58465" lon="3.28297">
        <ele>377.8</ele>
        <time>2016-08-07T07:23:06Z</time>
      </trkpt>
      <trkpt lat="43.58459" lon="3.28304">
        <ele>378.4</ele>
        <time>2016-08-07T07:23:09Z</time>
      </trkpt>
      <trkpt lat="43.58453" lon="3.2831">
        <ele>379</ele>
        <time>2016-08-07T07:23:12Z</time>
      </trkpt>
      <trkpt lat="43.58447" lon="3.28317">
        <ele>379.6</ele>
        <time>2016-08-07T07:23:16Z</time>
      </trkpt>
      <trkpt lat="43.58441" lon="3.28324">
        <ele>380.2</ele>
        <time>2016-08-07T07:23:19Z</time>
      </trkpt>
      <trkpt lat="43.58435" lon="3.28331">
        <ele>380.7</ele>
        <time>2016-08-07T07:23:22Z</time>
      </trkpt>
      <trkpt lat="43.58429" lon="3.28337">
        <ele>381.1</ele>
        <time>2016-08-07T07:23:25Z</time>
      </trkpt>
      <trkpt lat="43.58422" lon="3.28346">
        <ele>381.7</ele>
        <time>2016-08-07T07:23:29Z</time>
      </trkpt>
      <trkpt lat="43.58415" lon="3.28354">
        <ele>382.4</ele>
        <time>2016-08-07T07:23:33Z</time>
      </trkpt>
      <trkpt lat="43.58409" lon="3.28361">
        <ele>382.8</ele>
        <time>2016-08-07T07:23:36Z</time>
      </trkpt>
      <trkpt lat="43.58403" lon="3.28368">
        <ele>383.2</ele>
        <time>2016-08-07T07:23:39Z</time>
      </trkpt>
      <trkpt lat="43.58397" lon="3.28375">
        <ele>383.7</ele>
        <time>2016-08-07T07:23:42Z</time>
      </trkpt>
      <trkpt lat="43.58391" lon="3.28384">
        <ele>384.4</ele>
        <time>2016-08-07T07:23:46Z</time>
      </trkpt>
      <trkpt lat="43.58385" lon="3.28393">
        <ele>385.1</ele>
        <time>2016-08-07T07:23:50Z</time>
      </trkpt>
      <trkpt lat="43.58381" lon="3.28404">
        <ele>385.8</ele>
        <time>2016-08-07T07:23:54Z</time>
      </trkpt>
      <trkpt lat="43.58382" lon="3.28416">
        <ele>386.5</ele>
        <time>2016-08-07T07:23:58Z</time>
      </trkpt>
      <trkpt lat="43.58388" lon="3.28426">
        <ele>387.3</ele>
        <time>2016-08-07T07:24:02Z</time>
      </trkpt>
      <trkpt lat="43.58396" lon="3.28429">
        <ele>387.9</ele>
        <time>2016-08-07T07:24:05Z</time>
      </trkpt>
      <trkpt lat="43.58404" lon="3.28429">
        <ele>388.7</ele>
        <time>2016-08-07T07:24:09Z</time>
      </trkpt>
      <trkpt lat="43.58411" lon="3.28425">
        <ele>389.2</ele>
        <time>2016-08-07T07:24:12Z</time>
      </trkpt>
      <trkpt lat="43.58417" lon="3.28417">
        <ele>389.6</ele>
        <time>2016-08-07T07:24:16Z</time>
      </trkpt>
      <trkpt lat="43.58422" lon="3.28408">
        <ele>389.9</ele>
        <time>2016-08-07T07:24:19Z</time>
      </trkpt>
      <trkpt lat="43.58428" lon="3.28401">
        <ele>390.3</ele>
        <time>2016-08-07T07:24:22Z</time>
      </trkpt>
      <trkpt lat="43.58435" lon="3.28394">
        <ele>390.8</ele>
        <time>2016-08-07T07:24:26Z</time>
      </trkpt>
      <trkpt lat="43.58443" lon="3.28388">
        <ele>391.3</ele>
        <time>2016-08-07T07:24:30Z</time>
      </trkpt>
      <trkpt lat="43.5845" lon="3.28385">
        <ele>391.7</ele>
        <time>2016-08-07T07:24:33Z</time>
      </trkpt>
      <trkpt lat="43.58458" lon="3.28381">
        <ele>392.2</ele>
        <time>2016-08-07T07:24:37Z</time>
      </trkpt>
      <trkpt lat="43.58467" lon="3.28378">
        <ele>392.7</ele>
        <time>2016-08-07T07:24:41Z</time>
      </trkpt>
      <trkpt lat="43.58475" lon="3.28375">
        <ele>393.2</ele>
        <time>2016-08-07T07:24:44Z</time>
      </trkpt>
      <trkpt lat="43.58484" lon="3.28372">
        <ele>393.8</ele>
        <time>2016-08-07T07:24:48Z</time>
      </trkpt>
      <trkpt lat="43.58491" lon="3.28369">
        <ele>394.4</ele>
        <time>2016-08-07T07:24:51Z</time>
      </trkpt>
      <trkpt lat="43.585" lon="3.28365">
        <ele>395.1</ele>
        <time>2016-08-07T07:24:55Z</time>
      </trkpt>
      <trkpt lat="43.58509" lon="3.28361">
        <ele>396.2</ele>
        <time>2016-08-07T07:24:59Z</time>
      </trkpt>
      <trkpt lat="43.58517" lon="3.28358">
        <ele>397</ele>
        <time>2016-08-07T07:25:03Z</time>
      </trkpt>
      <trkpt lat="43.58524" lon="3.28355">
        <ele>397.5</ele>
        <time>2016-08-07T07:25:06Z</time>
      </trkpt>
      <trkpt lat="43.58533" lon="3.28351">
        <ele>398</ele>
        <time>2016-08-07T07:25:10Z</time>
      </trkpt>
      <trkpt lat="43.58543" lon="3.28349">
        <ele>398.6</ele>
        <time>2016-08-07T07:25:14Z</time>
      </trkpt>
      <trkpt lat="43.58551" lon="3.28348">
        <ele>399.3</ele>
        <time>2016-08-07T07:25:18Z</time>
      </trkpt>
      <trkpt lat="43.5856" lon="3.28347">
        <ele>400</ele>
        <time>2016-08-07T07:25:22Z</time>
      </trkpt>
      <trkpt lat="43.58569" lon="3.28345">
        <ele>400.8</ele>
        <time>2016-08-07T07:25:26Z</time>
      </trkpt>
      <trkpt lat="43.58578" lon="3.28344">
        <ele>401.6</ele>
        <time>2016-08-07T07:25:30Z</time>
      </trkpt>
      <trkpt lat="43.58586" lon="3.28341">
        <ele>402.2</ele>
        <time>2016-08-07T07:25:34Z</time>
      </trkpt>
      <trkpt lat="43.58594" lon="3.28336">
        <ele>403.1</ele>
        <time>2016-08-07T07:25:38Z</time>
      </trkpt>
      <trkpt lat="43.58602" lon="3.28331">
        <ele>404</ele>
        <time>2016-08-07T07:25:42Z</time>
      </trkpt>
      <trkpt lat="43.58609" lon="3.28326">
        <ele>404.9</ele>
        <time>2016-08-07T07:25:46Z</time>
      </trkpt>
      <trkpt lat="43.58617" lon="3.28319">
        <ele>405.7</ele>
        <time>2016-08-07T07:25:51Z</time>
      </trkpt>
      <trkpt lat="43.58624" lon="3.28314">
        <ele>406.3</ele>
        <time>2016-08-07T07:25:55Z</time>
      </trkpt>
      <trkpt lat="43.58632" lon="3.28309">
        <ele>407</ele>
        <time>2016-08-07T07:25:59Z</time>
      </trkpt>
      <trkpt lat="43.58639" lon="3.28306">
        <ele>407.7</ele>
        <time>2016-08-07T07:26:03Z</time>
      </trkpt>
      <trkpt lat="43.58648" lon="3.28302">
        <ele>408.6</ele>
        <time>2016-08-07T07:26:07Z</time>
      </trkpt>
      <trkpt lat="43.58656" lon="3.283">
        <ele>409.5</ele>
        <time>2016-08-07T07:26:11Z</time>
      </trkpt>
      <trkpt lat="43.58665" lon="3.283">
        <ele>410.3</ele>
        <time>2016-08-07T07:26:15Z</time>
      </trkpt>
      <trkpt lat="43.58673" lon="3.28301">
        <ele>411.1</ele>
        <time>2016-08-07T07:26:19Z</time>
      </trkpt>
      <trkpt lat="43.58681" lon="3.28306">
        <ele>412.2</ele>
        <time>2016-08-07T07:26:24Z</time>
      </trkpt>
      <trkpt lat="43.58687" lon="3.28313">
        <ele>413</ele>
        <time>2016-08-07T07:26:28Z</time>
      </trkpt>
      <trkpt lat="43.58692" lon="3.28322">
        <ele>413.8</ele>
        <time>2016-08-07T07:26:32Z</time>
      </trkpt>
      <trkpt lat="43.58696" lon="3.28332">
        <ele>414.8</ele>
        <time>2016-08-07T07:26:36Z</time>
      </trkpt>
      <trkpt lat="43.58699" lon="3.28341">
        <ele>415.8</ele>
        <time>2016-08-07T07:26:40Z</time>
      </trkpt>
      <trkpt lat="43.58704" lon="3.28349">
        <ele>416.7</ele>
        <time>2016-08-07T07:26:44Z</time>
      </trkpt>
      <trkpt lat="43.5871" lon="3.28356">
        <ele>417.2</ele>
        <time>2016-08-07T07:26:47Z</time>
      </trkpt>
      <trkpt lat="43.58716" lon="3.28362">
        <ele>417.6</ele>
        <time>2016-08-07T07:26:50Z</time>
      </trkpt>
      <trkpt lat="43.58722" lon="3.28367">
        <ele>418</ele>
        <time>2016-08-07T07:26:53Z</time>
      </trkpt>
      <trkpt lat="43.58729" lon="3.28371">
        <ele>418.5</ele>
        <time>2016-08-07T07:26:56Z</time>
      </trkpt>
      <trkpt lat="43.58737" lon="3.28375">
        <ele>419.4</ele>
        <time>2016-08-07T07:27:00Z</time>
      </trkpt>
      <trkpt lat="43.58745" lon="3.28381">
        <ele>420.5</ele>
        <time>2016-08-07T07:27:04Z</time>
      </trkpt>
      <trkpt lat="43.58754" lon="3.28386">
        <ele>421.5</ele>
        <time>2016-08-07T07:27:08Z</time>
      </trkpt>
      <trkpt lat="43.58761" lon="3.28389">
        <ele>422.1</ele>
        <time>2016-08-07T07:27:11Z</time>
      </trkpt>
      <trkpt lat="43.58769" lon="3.28393">
        <ele>422.8</ele>
        <time>2016-08-07T07:27:15Z</time>
      </trkpt>
      <trkpt lat="43.58778" lon="3.28396">
        <ele>423.3</ele>
        <time>2016-08-07T07:27:19Z</time>
      </trkpt>
      <trkpt lat="43.58787" lon="3.284">
        <ele>423.9</ele>
        <time>2016-08-07T07:27:23Z</time>
      </trkpt>
      <trkpt lat="43.58795" lon="3.28404">
        <ele>424.7</ele>
        <time>2016-08-07T07:27:27Z</time>
      </trkpt>
      <trkpt lat="43.58802" lon="3.2841">
        <ele>425.5</ele>
        <time>2016-08-07T07:27:31Z</time>
      </trkpt>
      <trkpt lat="43.58808" lon="3.28414">
        <ele>426.1</ele>
        <time>2016-08-07T07:27:35Z</time>
      </trkpt>
      <trkpt lat="43.58815" lon="3.28418">
        <ele>426.5</ele>
        <time>2016-08-07T07:27:40Z</time>
      </trkpt>
      <trkpt lat="43.58816" lon="3.28414">
        <ele>426.6</ele>
        <time>2016-08-07T07:27:47Z</time>
      </trkpt>
      <trkpt lat="43.58814" lon="3.28416">
        <ele>426.6</ele>
        <time>2016-08-07T07:27:54Z</time>
      </trkpt>
      <trkpt lat="43.58821" lon="3.28419">
        <ele>428.1</ele>
        <time>2016-08-07T07:28:03Z</time>
      </trkpt>
      <trkpt lat="43.58829" lon="3.28414">
        <ele>428.4</ele>
        <time>2016-08-07T07:28:07Z</time>
      </trkpt>
      <trkpt lat="43.58835" lon="3.28409">
        <ele>428.5</ele>
        <time>2016-08-07T07:28:10Z</time>
      </trkpt>
      <trkpt lat="43.58838" lon="3.28396">
        <ele>428.7</ele>
        <time>2016-08-07T07:28:14Z</time>
      </trkpt>
      <trkpt lat="43.5884" lon="3.28382">
        <ele>428.7</ele>
        <time>2016-08-07T07:28:17Z</time>
      </trkpt>
      <trkpt lat="43.58842" lon="3.28369">
        <ele>428.9</ele>
        <time>2016-08-07T07:28:21Z</time>
      </trkpt>
      <trkpt lat="43.58847" lon="3.2836">
        <ele>429.2</ele>
        <time>2016-08-07T07:28:24Z</time>
      </trkpt>
      <trkpt lat="43.58855" lon="3.28355">
        <ele>429.5</ele>
        <time>2016-08-07T07:28:27Z</time>
      </trkpt>
      <trkpt lat="43.58864" lon="3.28351">
        <ele>429.7</ele>
        <time>2016-08-07T07:28:30Z</time>
      </trkpt>
      <trkpt lat="43.58872" lon="3.28345">
        <ele>429.9</ele>
        <time>2016-08-07T07:28:33Z</time>
      </trkpt>
      <trkpt lat="43.5888" lon="3.2834">
        <ele>430.1</ele>
        <time>2016-08-07T07:28:36Z</time>
      </trkpt>
      <trkpt lat="43.58885" lon="3.28332">
        <ele>430.2</ele>
        <time>2016-08-07T07:28:39Z</time>
      </trkpt>
      <trkpt lat="43.58885" lon="3.28319">
        <ele>430.4</ele>
        <time>2016-08-07T07:28:43Z</time>
      </trkpt>
      <trkpt lat="43.58888" lon="3.28309">
        <ele>430.6</ele>
        <time>2016-08-07T07:28:46Z</time>
      </trkpt>
      <trkpt lat="43.58893" lon="3.28298">
        <ele>430.8</ele>
        <time>2016-08-07T07:28:49Z</time>
      </trkpt>
      <trkpt lat="43.58897" lon="3.28286">
        <ele>431</ele>
        <time>2016-08-07T07:28:53Z</time>
      </trkpt>
      <trkpt lat="43.58897" lon="3.28273">
        <ele>431.4</ele>
        <time>2016-08-07T07:28:57Z</time>
      </trkpt>
      <trkpt lat="43.58898" lon="3.2826">
        <ele>431.6</ele>
        <time>2016-08-07T07:29:00Z</time>
      </trkpt>
      <trkpt lat="43.58901" lon="3.28246">
        <ele>431.8</ele>
        <time>2016-08-07T07:29:03Z</time>
      </trkpt>
      <trkpt lat="43.58903" lon="3.28232">
        <ele>431.9</ele>
        <time>2016-08-07T07:29:06Z</time>
      </trkpt>
      <trkpt lat="43.58903" lon="3.28226">
        <ele>434.4</ele>
        <time>2016-08-07T07:30:26Z</time>
      </trkpt>
      <trkpt lat="43.58905" lon="3.28214">
        <ele>434.4</ele>
        <time>2016-08-07T07:31:57Z</time>
      </trkpt>
      <trkpt lat="43.58908" lon="3.28204">
        <ele>434.4</ele>
        <time>2016-08-07T07:32:00Z</time>
      </trkpt>
      <trkpt lat="43.58909" lon="3.28192">
        <ele>434.7</ele>
        <time>2016-08-07T07:32:04Z</time>
      </trkpt>
      <trkpt lat="43.58912" lon="3.28186">
        <ele>434.7</ele>
        <time>2016-08-07T07:32:11Z</time>
      </trkpt>
      <trkpt lat="43.58909" lon="3.28185">
        <ele>433.7</ele>
        <time>2016-08-07T07:32:38Z</time>
      </trkpt>
      <trkpt lat="43.58904" lon="3.28186">
        <ele>434.1</ele>
        <time>2016-08-07T07:32:45Z</time>
      </trkpt>
      <trkpt lat="43.58897" lon="3.28182">
        <ele>434.7</ele>
        <time>2016-08-07T07:32:52Z</time>
      </trkpt>
      <trkpt lat="43.58894" lon="3.28176">
        <ele>435.2</ele>
        <time>2016-08-07T07:32:59Z</time>
      </trkpt>
      <trkpt lat="43.58893" lon="3.2817">
        <ele>435.6</ele>
        <time>2016-08-07T07:33:06Z</time>
      </trkpt>
      <trkpt lat="43.58896" lon="3.28169">
        <ele>434.5</ele>
        <time>2016-08-07T07:33:31Z</time>
      </trkpt>
      <trkpt lat="43.58898" lon="3.28176">
        <ele>434.3</ele>
        <time>2016-08-07T07:33:38Z</time>
      </trkpt>
      <trkpt lat="43.58902" lon="3.28178">
        <ele>433.9</ele>
        <time>2016-08-07T07:33:45Z</time>
      </trkpt>
      <trkpt lat="43.58906" lon="3.28179">
        <ele>434.4</ele>
        <time>2016-08-07T07:33:52Z</time>
      </trkpt>
      <trkpt lat="43.58911" lon="3.28179">
        <ele>434.7</ele>
        <time>2016-08-07T07:33:59Z</time>
      </trkpt>
      <trkpt lat="43.58912" lon="3.28181">
        <ele>434.7</ele>
        <time>2016-08-07T07:34:06Z</time>
      </trkpt>
      <trkpt lat="43.58918" lon="3.28171">
        <ele>434.4</ele>
        <time>2016-08-07T07:34:13Z</time>
      </trkpt>
      <trkpt lat="43.58923" lon="3.28163">
        <ele>434.3</ele>
        <time>2016-08-07T07:34:15Z</time>
      </trkpt>
      <trkpt lat="43.58928" lon="3.28154">
        <ele>434</ele>
        <time>2016-08-07T07:34:17Z</time>
      </trkpt>
      <trkpt lat="43.58938" lon="3.28145">
        <ele>433.7</ele>
        <time>2016-08-07T07:34:19Z</time>
      </trkpt>
      <trkpt lat="43.58947" lon="3.28134">
        <ele>433.1</ele>
        <time>2016-08-07T07:34:21Z</time>
      </trkpt>
      <trkpt lat="43.58953" lon="3.28122">
        <ele>432.8</ele>
        <time>2016-08-07T07:34:23Z</time>
      </trkpt>
      <trkpt lat="43.58956" lon="3.28107">
        <ele>432.2</ele>
        <time>2016-08-07T07:34:25Z</time>
      </trkpt>
      <trkpt lat="43.58956" lon="3.28095">
        <ele>432.7</ele>
        <time>2016-08-07T07:34:27Z</time>
      </trkpt>
      <trkpt lat="43.58956" lon="3.2808">
        <ele>433.6</ele>
        <time>2016-08-07T07:34:29Z</time>
      </trkpt>
      <trkpt lat="43.58958" lon="3.28067">
        <ele>433.6</ele>
        <time>2016-08-07T07:34:31Z</time>
      </trkpt>
      <trkpt lat="43.58962" lon="3.28053">
        <ele>433.2</ele>
        <time>2016-08-07T07:34:33Z</time>
      </trkpt>
      <trkpt lat="43.58969" lon="3.28044">
        <ele>432.5</ele>
        <time>2016-08-07T07:34:35Z</time>
      </trkpt>
      <trkpt lat="43.58975" lon="3.28039">
        <ele>432.4</ele>
        <time>2016-08-07T07:34:37Z</time>
      </trkpt>
      <trkpt lat="43.58979" lon="3.28029">
        <ele>432.3</ele>
        <time>2016-08-07T07:34:39Z</time>
      </trkpt>
      <trkpt lat="43.58977" lon="3.28014">
        <ele>432.3</ele>
        <time>2016-08-07T07:34:42Z</time>
      </trkpt>
      <trkpt lat="43.58976" lon="3.28003">
        <ele>432.1</ele>
        <time>2016-08-07T07:34:44Z</time>
      </trkpt>
      <trkpt lat="43.58978" lon="3.2799">
        <ele>432.2</ele>
        <time>2016-08-07T07:34:46Z</time>
      </trkpt>
      <trkpt lat="43.58985" lon="3.27981">
        <ele>432.2</ele>
        <time>2016-08-07T07:34:48Z</time>
      </trkpt>
      <trkpt lat="43.58993" lon="3.2798">
        <ele>432.2</ele>
        <time>2016-08-07T07:34:51Z</time>
      </trkpt>
      <trkpt lat="43.59002" lon="3.27975">
        <ele>432.3</ele>
        <time>2016-08-07T07:34:54Z</time>
      </trkpt>
      <trkpt lat="43.59011" lon="3.27969">
        <ele>432.2</ele>
        <time>2016-08-07T07:34:57Z</time>
      </trkpt>
      <trkpt lat="43.59018" lon="3.27963">
        <ele>432</ele>
        <time>2016-08-07T07:34:59Z</time>
      </trkpt>
      <trkpt lat="43.59025" lon="3.27957">
        <ele>431.7</ele>
        <time>2016-08-07T07:35:01Z</time>
      </trkpt>
      <trkpt lat="43.59032" lon="3.27951">
        <ele>431.6</ele>
        <time>2016-08-07T07:35:03Z</time>
      </trkpt>
      <trkpt lat="43.5904" lon="3.27943">
        <ele>431.3</ele>
        <time>2016-08-07T07:35:06Z</time>
      </trkpt>
      <trkpt lat="43.59044" lon="3.27937">
        <ele>430.9</ele>
        <time>2016-08-07T07:35:13Z</time>
      </trkpt>
      <trkpt lat="43.59048" lon="3.27936">
        <ele>429.7</ele>
        <time>2016-08-07T07:35:32Z</time>
      </trkpt>
      <trkpt lat="43.59058" lon="3.27932">
        <ele>429.6</ele>
        <time>2016-08-07T07:35:39Z</time>
      </trkpt>
      <trkpt lat="43.59064" lon="3.27928">
        <ele>429.4</ele>
        <time>2016-08-07T07:35:41Z</time>
      </trkpt>
      <trkpt lat="43.59071" lon="3.27924">
        <ele>429.2</ele>
        <time>2016-08-07T07:35:43Z</time>
      </trkpt>
      <trkpt lat="43.5908" lon="3.27918">
        <ele>429</ele>
        <time>2016-08-07T07:35:45Z</time>
      </trkpt>
      <trkpt lat="43.59089" lon="3.27912">
        <ele>428</ele>
        <time>2016-08-07T07:35:47Z</time>
      </trkpt>
      <trkpt lat="43.59101" lon="3.27908">
        <ele>426</ele>
        <time>2016-08-07T07:35:49Z</time>
      </trkpt>
      <trkpt lat="43.5911" lon="3.27902">
        <ele>425.6</ele>
        <time>2016-08-07T07:35:51Z</time>
      </trkpt>
      <trkpt lat="43.59119" lon="3.27896">
        <ele>425.5</ele>
        <time>2016-08-07T07:35:53Z</time>
      </trkpt>
      <trkpt lat="43.59128" lon="3.27886">
        <ele>425.1</ele>
        <time>2016-08-07T07:35:56Z</time>
      </trkpt>
      <trkpt lat="43.59132" lon="3.27876">
        <ele>424.7</ele>
        <time>2016-08-07T07:35:59Z</time>
      </trkpt>
      <trkpt lat="43.5914" lon="3.27868">
        <ele>424.2</ele>
        <time>2016-08-07T07:36:02Z</time>
      </trkpt>
      <trkpt lat="43.59147" lon="3.27865">
        <ele>423.4</ele>
        <time>2016-08-07T07:36:05Z</time>
      </trkpt>
      <trkpt lat="43.59153" lon="3.27859">
        <ele>422.4</ele>
        <time>2016-08-07T07:36:09Z</time>
      </trkpt>
      <trkpt lat="43.59162" lon="3.27853">
        <ele>421.3</ele>
        <time>2016-08-07T07:36:12Z</time>
      </trkpt>
      <trkpt lat="43.59169" lon="3.27851">
        <ele>420.2</ele>
        <time>2016-08-07T07:36:15Z</time>
      </trkpt>
      <trkpt lat="43.5918" lon="3.27846">
        <ele>418.7</ele>
        <time>2016-08-07T07:36:19Z</time>
      </trkpt>
      <trkpt lat="43.59187" lon="3.27843">
        <ele>417.8</ele>
        <time>2016-08-07T07:36:21Z</time>
      </trkpt>
      <trkpt lat="43.59197" lon="3.2784">
        <ele>412.3</ele>
        <time>2016-08-07T07:36:24Z</time>
      </trkpt>
      <trkpt lat="43.59204" lon="3.27835">
        <ele>407.9</ele>
        <time>2016-08-07T07:36:26Z</time>
      </trkpt>
      <trkpt lat="43.59212" lon="3.27831">
        <ele>407.2</ele>
        <time>2016-08-07T07:36:28Z</time>
      </trkpt>
      <trkpt lat="43.5922" lon="3.27828">
        <ele>406.1</ele>
        <time>2016-08-07T07:36:31Z</time>
      </trkpt>
      <trkpt lat="43.59228" lon="3.27828">
        <ele>404.9</ele>
        <time>2016-08-07T07:36:34Z</time>
      </trkpt>
      <trkpt lat="43.59236" lon="3.27828">
        <ele>404.1</ele>
        <time>2016-08-07T07:36:36Z</time>
      </trkpt>
      <trkpt lat="43.59245" lon="3.27828">
        <ele>402.8</ele>
        <time>2016-08-07T07:36:39Z</time>
      </trkpt>
      <trkpt lat="43.59252" lon="3.27822">
        <ele>401.6</ele>
        <time>2016-08-07T07:36:42Z</time>
      </trkpt>
      <trkpt lat="43.59262" lon="3.27824">
        <ele>400.6</ele>
        <time>2016-08-07T07:36:45Z</time>
      </trkpt>
      <trkpt lat="43.5927" lon="3.27826">
        <ele>399.9</ele>
        <time>2016-08-07T07:36:47Z</time>
      </trkpt>
      <trkpt lat="43.59278" lon="3.27835">
        <ele>395.6</ele>
        <time>2016-08-07T07:36:49Z</time>
      </trkpt>
      <trkpt lat="43.59287" lon="3.27843">
        <ele>392.3</ele>
        <time>2016-08-07T07:36:51Z</time>
      </trkpt>
      <trkpt lat="43.59297" lon="3.27847">
        <ele>391.4</ele>
        <time>2016-08-07T07:36:54Z</time>
      </trkpt>
      <trkpt lat="43.59304" lon="3.27848">
        <ele>390.6</ele>
        <time>2016-08-07T07:36:57Z</time>
      </trkpt>
      <trkpt lat="43.59314" lon="3.27846">
        <ele>389.9</ele>
        <time>2016-08-07T07:37:00Z</time>
      </trkpt>
      <trkpt lat="43.59322" lon="3.27851">
        <ele>388.6</ele>
        <time>2016-08-07T07:37:04Z</time>
      </trkpt>
      <trkpt lat="43.59331" lon="3.27856">
        <ele>387.4</ele>
        <time>2016-08-07T07:37:07Z</time>
      </trkpt>
      <trkpt lat="43.59338" lon="3.27854">
        <ele>386.6</ele>
        <time>2016-08-07T07:37:09Z</time>
      </trkpt>
      <trkpt lat="43.59346" lon="3.27856">
        <ele>385.2</ele>
        <time>2016-08-07T07:37:12Z</time>
      </trkpt>
      <trkpt lat="43.59351" lon="3.27864">
        <ele>384</ele>
        <time>2016-08-07T07:37:15Z</time>
      </trkpt>
      <trkpt lat="43.59359" lon="3.27873">
        <ele>382.7</ele>
        <time>2016-08-07T07:37:18Z</time>
      </trkpt>
      <trkpt lat="43.59365" lon="3.27878">
        <ele>381.8</ele>
        <time>2016-08-07T07:37:20Z</time>
      </trkpt>
      <trkpt lat="43.59374" lon="3.27885">
        <ele>380.1</ele>
        <time>2016-08-07T07:37:23Z</time>
      </trkpt>
      <trkpt lat="43.59384" lon="3.27891">
        <ele>378.3</ele>
        <time>2016-08-07T07:37:26Z</time>
      </trkpt>
      <trkpt lat="43.59393" lon="3.27899">
        <ele>376.5</ele>
        <time>2016-08-07T07:37:29Z</time>
      </trkpt>
      <trkpt lat="43.594" lon="3.27904">
        <ele>374.7</ele>
        <time>2016-08-07T07:37:32Z</time>
      </trkpt>
      <trkpt lat="43.59409" lon="3.27907">
        <ele>372.7</ele>
        <time>2016-08-07T07:37:35Z</time>
      </trkpt>
      <trkpt lat="43.59418" lon="3.27908">
        <ele>370.8</ele>
        <time>2016-08-07T07:37:38Z</time>
      </trkpt>
      <trkpt lat="43.59426" lon="3.27917">
        <ele>368.2</ele>
        <time>2016-08-07T07:37:42Z</time>
      </trkpt>
      <trkpt lat="43.59432" lon="3.27925">
        <ele>366.1</ele>
        <time>2016-08-07T07:37:45Z</time>
      </trkpt>
      <trkpt lat="43.59439" lon="3.27931">
        <ele>363.6</ele>
        <time>2016-08-07T07:37:49Z</time>
      </trkpt>
      <trkpt lat="43.59448" lon="3.27931">
        <ele>361.7</ele>
        <time>2016-08-07T07:37:52Z</time>
      </trkpt>
      <trkpt lat="43.59455" lon="3.2793">
        <ele>360.4</ele>
        <time>2016-08-07T07:37:54Z</time>
      </trkpt>
      <trkpt lat="43.59463" lon="3.27926">
        <ele>358.4</ele>
        <time>2016-08-07T07:37:57Z</time>
      </trkpt>
      <trkpt lat="43.59464" lon="3.27932">
        <ele>353.5</ele>
        <time>2016-08-07T07:38:04Z</time>
      </trkpt>
      <trkpt lat="43.59467" lon="3.27931">
        <ele>349.1</ele>
        <time>2016-08-07T07:38:11Z</time>
      </trkpt>
      <trkpt lat="43.59467" lon="3.27933">
        <ele>346.1</ele>
        <time>2016-08-07T07:38:18Z</time>
      </trkpt>
      <trkpt lat="43.5947" lon="3.27937">
        <ele>345.1</ele>
        <time>2016-08-07T07:38:25Z</time>
      </trkpt>
      <trkpt lat="43.59469" lon="3.27935">
        <ele>337.7</ele>
        <time>2016-08-07T07:38:53Z</time>
      </trkpt>
      <trkpt lat="43.59467" lon="3.27942">
        <ele>335.8</ele>
        <time>2016-08-07T07:39:00Z</time>
      </trkpt>
      <trkpt lat="43.59465" lon="3.27953">
        <ele>335.1</ele>
        <time>2016-08-07T07:39:04Z</time>
      </trkpt>
      <trkpt lat="43.59462" lon="3.27964">
        <ele>334.4</ele>
        <time>2016-08-07T07:39:08Z</time>
      </trkpt>
      <trkpt lat="43.59458" lon="3.27973">
        <ele>334.1</ele>
        <time>2016-08-07T07:39:12Z</time>
      </trkpt>
      <trkpt lat="43.59454" lon="3.27982">
        <ele>333.8</ele>
        <time>2016-08-07T07:39:15Z</time>
      </trkpt>
      <trkpt lat="43.5945" lon="3.27991">
        <ele>333.5</ele>
        <time>2016-08-07T07:39:19Z</time>
      </trkpt>
      <trkpt lat="43.59443" lon="3.28002">
        <ele>333.3</ele>
        <time>2016-08-07T07:39:23Z</time>
      </trkpt>
      <trkpt lat="43.59439" lon="3.2801">
        <ele>333.2</ele>
        <time>2016-08-07T07:39:27Z</time>
      </trkpt>
      <trkpt lat="43.59434" lon="3.2802">
        <ele>333</ele>
        <time>2016-08-07T07:39:32Z</time>
      </trkpt>
      <trkpt lat="43.5943" lon="3.28029">
        <ele>332.9</ele>
        <time>2016-08-07T07:39:36Z</time>
      </trkpt>
      <trkpt lat="43.59427" lon="3.28039">
        <ele>332.9</ele>
        <time>2016-08-07T07:39:40Z</time>
      </trkpt>
      <trkpt lat="43.59424" lon="3.28049">
        <ele>332.9</ele>
        <time>2016-08-07T07:39:44Z</time>
      </trkpt>
      <trkpt lat="43.59418" lon="3.28055">
        <ele>332.9</ele>
        <time>2016-08-07T07:39:48Z</time>
      </trkpt>
      <trkpt lat="43.59411" lon="3.2806">
        <ele>332.9</ele>
        <time>2016-08-07T07:39:52Z</time>
      </trkpt>
      <trkpt lat="43.59404" lon="3.28061">
        <ele>333</ele>
        <time>2016-08-07T07:39:55Z</time>
      </trkpt>
      <trkpt lat="43.59396" lon="3.28061">
        <ele>333.4</ele>
        <time>2016-08-07T07:40:01Z</time>
      </trkpt>
      <trkpt lat="43.59388" lon="3.28065">
        <ele>333.8</ele>
        <time>2016-08-07T07:40:05Z</time>
      </trkpt>
      <trkpt lat="43.5938" lon="3.28069">
        <ele>334.2</ele>
        <time>2016-08-07T07:40:09Z</time>
      </trkpt>
      <trkpt lat="43.59372" lon="3.28076">
        <ele>334.6</ele>
        <time>2016-08-07T07:40:13Z</time>
      </trkpt>
      <trkpt lat="43.59365" lon="3.28084">
        <ele>335</ele>
        <time>2016-08-07T07:40:17Z</time>
      </trkpt>
      <trkpt lat="43.5936" lon="3.28092">
        <ele>335.6</ele>
        <time>2016-08-07T07:40:22Z</time>
      </trkpt>
      <trkpt lat="43.59353" lon="3.28099">
        <ele>336.1</ele>
        <time>2016-08-07T07:40:26Z</time>
      </trkpt>
      <trkpt lat="43.59348" lon="3.28106">
        <ele>336.6</ele>
        <time>2016-08-07T07:40:30Z</time>
      </trkpt>
      <trkpt lat="43.59343" lon="3.28115">
        <ele>337</ele>
        <time>2016-08-07T07:40:34Z</time>
      </trkpt>
      <trkpt lat="43.59338" lon="3.28124">
        <ele>337.7</ele>
        <time>2016-08-07T07:40:38Z</time>
      </trkpt>
      <trkpt lat="43.59333" lon="3.28134">
        <ele>338.3</ele>
        <time>2016-08-07T07:40:43Z</time>
      </trkpt>
      <trkpt lat="43.5933" lon="3.28143">
        <ele>338.6</ele>
        <time>2016-08-07T07:40:48Z</time>
      </trkpt>
      <trkpt lat="43.59327" lon="3.28152">
        <ele>338.9</ele>
        <time>2016-08-07T07:40:51Z</time>
      </trkpt>
      <trkpt lat="43.59322" lon="3.28162">
        <ele>339.2</ele>
        <time>2016-08-07T07:40:56Z</time>
      </trkpt>
      <trkpt lat="43.59312" lon="3.28165">
        <ele>339.6</ele>
        <time>2016-08-07T07:41:01Z</time>
      </trkpt>
      <trkpt lat="43.59308" lon="3.28174">
        <ele>340.4</ele>
        <time>2016-08-07T07:41:07Z</time>
      </trkpt>
      <trkpt lat="43.59313" lon="3.28182">
        <ele>341.1</ele>
        <time>2016-08-07T07:41:11Z</time>
      </trkpt>
      <trkpt lat="43.59321" lon="3.28186">
        <ele>342</ele>
        <time>2016-08-07T07:41:16Z</time>
      </trkpt>
      <trkpt lat="43.59329" lon="3.28185">
        <ele>342.8</ele>
        <time>2016-08-07T07:41:21Z</time>
      </trkpt>
      <trkpt lat="43.59337" lon="3.28181">
        <ele>343.4</ele>
        <time>2016-08-07T07:41:25Z</time>
      </trkpt>
      <trkpt lat="43.59343" lon="3.28172">
        <ele>344.1</ele>
        <time>2016-08-07T07:41:30Z</time>
      </trkpt>
      <trkpt lat="43.59347" lon="3.28164">
        <ele>344.4</ele>
        <time>2016-08-07T07:41:34Z</time>
      </trkpt>
      <trkpt lat="43.59353" lon="3.28157">
        <ele>344.7</ele>
        <time>2016-08-07T07:41:38Z</time>
      </trkpt>
      <trkpt lat="43.59359" lon="3.2815">
        <ele>345.4</ele>
        <time>2016-08-07T07:41:42Z</time>
      </trkpt>
      <trkpt lat="43.59366" lon="3.28144">
        <ele>345.7</ele>
        <time>2016-08-07T07:41:46Z</time>
      </trkpt>
      <trkpt lat="43.59373" lon="3.2814">
        <ele>345.9</ele>
        <time>2016-08-07T07:41:50Z</time>
      </trkpt>
      <trkpt lat="43.59382" lon="3.28138">
        <ele>346.3</ele>
        <time>2016-08-07T07:41:54Z</time>
      </trkpt>
      <trkpt lat="43.59385" lon="3.28148">
        <ele>347.3</ele>
        <time>2016-08-07T07:41:59Z</time>
      </trkpt>
      <trkpt lat="43.59379" lon="3.28156">
        <ele>347.9</ele>
        <time>2016-08-07T07:42:03Z</time>
      </trkpt>
      <trkpt lat="43.59373" lon="3.28164">
        <ele>348.8</ele>
        <time>2016-08-07T07:42:07Z</time>
      </trkpt>
      <trkpt lat="43.59368" lon="3.28172">
        <ele>349.5</ele>
        <time>2016-08-07T07:42:11Z</time>
      </trkpt>
      <trkpt lat="43.59368" lon="3.28183">
        <ele>350.4</ele>
        <time>2016-08-07T07:42:16Z</time>
      </trkpt>
      <trkpt lat="43.59376" lon="3.28178">
        <ele>351.2</ele>
        <time>2016-08-07T07:42:22Z</time>
      </trkpt>
      <trkpt lat="43.59382" lon="3.28173">
        <ele>351.8</ele>
        <time>2016-08-07T07:42:26Z</time>
      </trkpt>
      <trkpt lat="43.59391" lon="3.28168">
        <ele>352.4</ele>
        <time>2016-08-07T07:42:30Z</time>
      </trkpt>
      <trkpt lat="43.59398" lon="3.2817">
        <ele>352.9</ele>
        <time>2016-08-07T07:42:34Z</time>
      </trkpt>
      <trkpt lat="43.59406" lon="3.28175">
        <ele>353.5</ele>
        <time>2016-08-07T07:42:38Z</time>
      </trkpt>
      <trkpt lat="43.59414" lon="3.28181">
        <ele>354.4</ele>
        <time>2016-08-07T07:42:42Z</time>
      </trkpt>
      <trkpt lat="43.59421" lon="3.28187">
        <ele>355.3</ele>
        <time>2016-08-07T07:42:46Z</time>
      </trkpt>
      <trkpt lat="43.59429" lon="3.28192">
        <ele>356.3</ele>
        <time>2016-08-07T07:42:50Z</time>
      </trkpt>
      <trkpt lat="43.59436" lon="3.28192">
        <ele>357</ele>
        <time>2016-08-07T07:42:54Z</time>
      </trkpt>
      <trkpt lat="43.59445" lon="3.28187">
        <ele>357.7</ele>
        <time>2016-08-07T07:42:58Z</time>
      </trkpt>
      <trkpt lat="43.59453" lon="3.28183">
        <ele>358.1</ele>
        <time>2016-08-07T07:43:02Z</time>
      </trkpt>
      <trkpt lat="43.59461" lon="3.2818">
        <ele>358.7</ele>
        <time>2016-08-07T07:43:06Z</time>
      </trkpt>
      <trkpt lat="43.59468" lon="3.28179">
        <ele>359.3</ele>
        <time>2016-08-07T07:43:10Z</time>
      </trkpt>
      <trkpt lat="43.59476" lon="3.28182">
        <ele>360</ele>
        <time>2016-08-07T07:43:14Z</time>
      </trkpt>
      <trkpt lat="43.59481" lon="3.2819">
        <ele>360.6</ele>
        <time>2016-08-07T07:43:18Z</time>
      </trkpt>
      <trkpt lat="43.59486" lon="3.28198">
        <ele>361.4</ele>
        <time>2016-08-07T07:43:22Z</time>
      </trkpt>
      <trkpt lat="43.59491" lon="3.28207">
        <ele>362.2</ele>
        <time>2016-08-07T07:43:26Z</time>
      </trkpt>
      <trkpt lat="43.59494" lon="3.28217">
        <ele>363</ele>
        <time>2016-08-07T07:43:30Z</time>
      </trkpt>
      <trkpt lat="43.59497" lon="3.28228">
        <ele>364</ele>
        <time>2016-08-07T07:43:34Z</time>
      </trkpt>
      <trkpt lat="43.59499" lon="3.28238">
        <ele>365</ele>
        <time>2016-08-07T07:43:40Z</time>
      </trkpt>
      <trkpt lat="43.59501" lon="3.2825">
        <ele>365.4</ele>
        <time>2016-08-07T07:43:44Z</time>
      </trkpt>
      <trkpt lat="43.59499" lon="3.2826">
        <ele>365.6</ele>
        <time>2016-08-07T07:43:47Z</time>
      </trkpt>
      <trkpt lat="43.59493" lon="3.28267">
        <ele>366</ele>
        <time>2016-08-07T07:43:50Z</time>
      </trkpt>
      <trkpt lat="43.59487" lon="3.28276">
        <ele>366.7</ele>
        <time>2016-08-07T07:43:56Z</time>
      </trkpt>
      <trkpt lat="43.59484" lon="3.28286">
        <ele>367.4</ele>
        <time>2016-08-07T07:44:01Z</time>
      </trkpt>
      <trkpt lat="43.59483" lon="3.28296">
        <ele>368</ele>
        <time>2016-08-07T07:44:06Z</time>
      </trkpt>
      <trkpt lat="43.59483" lon="3.28308">
        <ele>368.5</ele>
        <time>2016-08-07T07:44:11Z</time>
      </trkpt>
      <trkpt lat="43.59486" lon="3.28319">
        <ele>368.9</ele>
        <time>2016-08-07T07:44:16Z</time>
      </trkpt>
      <trkpt lat="43.59487" lon="3.2833">
        <ele>369.3</ele>
        <time>2016-08-07T07:44:21Z</time>
      </trkpt>
      <trkpt lat="43.59488" lon="3.2834">
        <ele>369.7</ele>
        <time>2016-08-07T07:44:25Z</time>
      </trkpt>
      <trkpt lat="43.5949" lon="3.28351">
        <ele>369.9</ele>
        <time>2016-08-07T07:44:30Z</time>
      </trkpt>
      <trkpt lat="43.59491" lon="3.28361">
        <ele>370.3</ele>
        <time>2016-08-07T07:44:34Z</time>
      </trkpt>
      <trkpt lat="43.59491" lon="3.28372">
        <ele>370.6</ele>
        <time>2016-08-07T07:44:38Z</time>
      </trkpt>
      <trkpt lat="43.5949" lon="3.28383">
        <ele>371</ele>
        <time>2016-08-07T07:44:42Z</time>
      </trkpt>
      <trkpt lat="43.59489" lon="3.28393">
        <ele>371.5</ele>
        <time>2016-08-07T07:44:46Z</time>
      </trkpt>
      <trkpt lat="43.59487" lon="3.28404">
        <ele>371.9</ele>
        <time>2016-08-07T07:44:50Z</time>
      </trkpt>
      <trkpt lat="43.59484" lon="3.28414">
        <ele>372.1</ele>
        <time>2016-08-07T07:44:54Z</time>
      </trkpt>
      <trkpt lat="43.5948" lon="3.28424">
        <ele>372.4</ele>
        <time>2016-08-07T07:44:58Z</time>
      </trkpt>
      <trkpt lat="43.59475" lon="3.28433">
        <ele>372.7</ele>
        <time>2016-08-07T07:45:02Z</time>
      </trkpt>
      <trkpt lat="43.5947" lon="3.28442">
        <ele>373</ele>
        <time>2016-08-07T07:45:06Z</time>
      </trkpt>
      <trkpt lat="43.59465" lon="3.28452">
        <ele>373.4</ele>
        <time>2016-08-07T07:45:10Z</time>
      </trkpt>
      <trkpt lat="43.5946" lon="3.28459">
        <ele>373.7</ele>
        <time>2016-08-07T07:45:13Z</time>
      </trkpt>
      <trkpt lat="43.59454" lon="3.28468">
        <ele>374.2</ele>
        <time>2016-08-07T07:45:17Z</time>
      </trkpt>
      <trkpt lat="43.59448" lon="3.28476">
        <ele>374.7</ele>
        <time>2016-08-07T07:45:21Z</time>
      </trkpt>
      <trkpt lat="43.59442" lon="3.28484">
        <ele>375.1</ele>
        <time>2016-08-07T07:45:25Z</time>
      </trkpt>
      <trkpt lat="43.59435" lon="3.28491">
        <ele>375.5</ele>
        <time>2016-08-07T07:45:30Z</time>
      </trkpt>
      <trkpt lat="43.59426" lon="3.28495">
        <ele>375.7</ele>
        <time>2016-08-07T07:45:34Z</time>
      </trkpt>
      <trkpt lat="43.59417" lon="3.28497">
        <ele>375.7</ele>
        <time>2016-08-07T07:45:38Z</time>
      </trkpt>
      <trkpt lat="43.59408" lon="3.28498">
        <ele>375.8</ele>
        <time>2016-08-07T07:45:42Z</time>
      </trkpt>
      <trkpt lat="43.594" lon="3.28498">
        <ele>376.1</ele>
        <time>2016-08-07T07:45:46Z</time>
      </trkpt>
      <trkpt lat="43.59391" lon="3.28498">
        <ele>376.3</ele>
        <time>2016-08-07T07:45:50Z</time>
      </trkpt>
      <trkpt lat="43.59382" lon="3.28497">
        <ele>376.7</ele>
        <time>2016-08-07T07:45:54Z</time>
      </trkpt>
      <trkpt lat="43.59373" lon="3.28498">
        <ele>377.2</ele>
        <time>2016-08-07T07:45:58Z</time>
      </trkpt>
      <trkpt lat="43.59364" lon="3.28499">
        <ele>377.6</ele>
        <time>2016-08-07T07:46:02Z</time>
      </trkpt>
      <trkpt lat="43.59355" lon="3.28501">
        <ele>378</ele>
        <time>2016-08-07T07:46:06Z</time>
      </trkpt>
      <trkpt lat="43.59348" lon="3.28502">
        <ele>378.6</ele>
        <time>2016-08-07T07:46:09Z</time>
      </trkpt>
      <trkpt lat="43.5934" lon="3.28507">
        <ele>379.6</ele>
        <time>2016-08-07T07:46:15Z</time>
      </trkpt>
      <trkpt lat="43.59332" lon="3.28511">
        <ele>380</ele>
        <time>2016-08-07T07:46:19Z</time>
      </trkpt>
      <trkpt lat="43.59324" lon="3.28516">
        <ele>380.2</ele>
        <time>2016-08-07T07:46:22Z</time>
      </trkpt>
      <trkpt lat="43.59315" lon="3.28519">
        <ele>380.2</ele>
        <time>2016-08-07T07:46:25Z</time>
      </trkpt>
      <trkpt lat="43.59306" lon="3.28521">
        <ele>380.3</ele>
        <time>2016-08-07T07:46:28Z</time>
      </trkpt>
      <trkpt lat="43.59299" lon="3.28524">
        <ele>380.5</ele>
        <time>2016-08-07T07:46:30Z</time>
      </trkpt>
      <trkpt lat="43.59293" lon="3.28528">
        <ele>381.4</ele>
        <time>2016-08-07T07:46:32Z</time>
      </trkpt>
      <trkpt lat="43.59287" lon="3.28536">
        <ele>381.7</ele>
        <time>2016-08-07T07:46:34Z</time>
      </trkpt>
      <trkpt lat="43.59282" lon="3.28546">
        <ele>381.5</ele>
        <time>2016-08-07T07:46:36Z</time>
      </trkpt>
      <trkpt lat="43.59275" lon="3.2856">
        <ele>381.3</ele>
        <time>2016-08-07T07:46:38Z</time>
      </trkpt>
      <trkpt lat="43.5927" lon="3.28569">
        <ele>381</ele>
        <time>2016-08-07T07:46:39Z</time>
      </trkpt>
      <trkpt lat="43.59264" lon="3.28585">
        <ele>380</ele>
        <time>2016-08-07T07:46:41Z</time>
      </trkpt>
      <trkpt lat="43.5926" lon="3.28596">
        <ele>379.4</ele>
        <time>2016-08-07T07:46:42Z</time>
      </trkpt>
      <trkpt lat="43.59255" lon="3.28606">
        <ele>378.6</ele>
        <time>2016-08-07T07:46:43Z</time>
      </trkpt>
      <trkpt lat="43.59251" lon="3.28617">
        <ele>377.7</ele>
        <time>2016-08-07T07:46:44Z</time>
      </trkpt>
      <trkpt lat="43.59245" lon="3.28627">
        <ele>377.3</ele>
        <time>2016-08-07T07:46:45Z</time>
      </trkpt>
      <trkpt lat="43.5924" lon="3.28637">
        <ele>376.7</ele>
        <time>2016-08-07T07:46:46Z</time>
      </trkpt>
      <trkpt lat="43.59235" lon="3.28648">
        <ele>376.5</ele>
        <time>2016-08-07T07:46:47Z</time>
      </trkpt>
      <trkpt lat="43.59229" lon="3.28658">
        <ele>375.9</ele>
        <time>2016-08-07T07:46:48Z</time>
      </trkpt>
      <trkpt lat="43.59223" lon="3.28668">
        <ele>375.1</ele>
        <time>2016-08-07T07:46:49Z</time>
      </trkpt>
      <trkpt lat="43.59216" lon="3.28677">
        <ele>374.2</ele>
        <time>2016-08-07T07:46:50Z</time>
      </trkpt>
      <trkpt lat="43.5921" lon="3.28687">
        <ele>373.4</ele>
        <time>2016-08-07T07:46:51Z</time>
      </trkpt>
      <trkpt lat="43.59203" lon="3.28696">
        <ele>372.7</ele>
        <time>2016-08-07T07:46:52Z</time>
      </trkpt>
      <trkpt lat="43.59196" lon="3.28705">
        <ele>372.3</ele>
        <time>2016-08-07T07:46:53Z</time>
      </trkpt>
      <trkpt lat="43.59189" lon="3.28714">
        <ele>371.9</ele>
        <time>2016-08-07T07:46:54Z</time>
      </trkpt>
      <trkpt lat="43.59182" lon="3.28723">
        <ele>371.6</ele>
        <time>2016-08-07T07:46:55Z</time>
      </trkpt>
      <trkpt lat="43.59175" lon="3.28732">
        <ele>371.2</ele>
        <time>2016-08-07T07:46:56Z</time>
      </trkpt>
      <trkpt lat="43.59168" lon="3.28741">
        <ele>370.6</ele>
        <time>2016-08-07T07:46:57Z</time>
      </trkpt>
      <trkpt lat="43.59161" lon="3.2875">
        <ele>370</ele>
        <time>2016-08-07T07:46:58Z</time>
      </trkpt>
      <trkpt lat="43.59154" lon="3.28759">
        <ele>369.5</ele>
        <time>2016-08-07T07:46:59Z</time>
      </trkpt>
      <trkpt lat="43.59146" lon="3.28768">
        <ele>369.2</ele>
        <time>2016-08-07T07:47:00Z</time>
      </trkpt>
      <trkpt lat="43.59139" lon="3.28777">
        <ele>368.8</ele>
        <time>2016-08-07T07:47:01Z</time>
      </trkpt>
      <trkpt lat="43.59132" lon="3.28787">
        <ele>368.3</ele>
        <time>2016-08-07T07:47:02Z</time>
      </trkpt>
      <trkpt lat="43.59127" lon="3.28797">
        <ele>368</ele>
        <time>2016-08-07T07:47:03Z</time>
      </trkpt>
      <trkpt lat="43.59121" lon="3.28806">
        <ele>367.6</ele>
        <time>2016-08-07T07:47:04Z</time>
      </trkpt>
      <trkpt lat="43.59116" lon="3.28814">
        <ele>367.2</ele>
        <time>2016-08-07T07:47:05Z</time>
      </trkpt>
      <trkpt lat="43.59105" lon="3.28814">
        <ele>366.4</ele>
        <time>2016-08-07T07:47:07Z</time>
      </trkpt>
      <trkpt lat="43.59093" lon="3.28811">
        <ele>365.8</ele>
        <time>2016-08-07T07:47:09Z</time>
      </trkpt>
      <trkpt lat="43.59084" lon="3.28811">
        <ele>365.4</ele>
        <time>2016-08-07T07:47:11Z</time>
      </trkpt>
      <trkpt lat="43.59074" lon="3.28812">
        <ele>365.4</ele>
        <time>2016-08-07T07:47:13Z</time>
      </trkpt>
      <trkpt lat="43.59065" lon="3.28814">
        <ele>365.4</ele>
        <time>2016-08-07T07:47:16Z</time>
      </trkpt>
      <trkpt lat="43.59055" lon="3.28817">
        <ele>365.6</ele>
        <time>2016-08-07T07:47:19Z</time>
      </trkpt>
      <trkpt lat="43.59045" lon="3.28822">
        <ele>365.7</ele>
        <time>2016-08-07T07:47:22Z</time>
      </trkpt>
      <trkpt lat="43.59035" lon="3.28826">
        <ele>365.9</ele>
        <time>2016-08-07T07:47:25Z</time>
      </trkpt>
      <trkpt lat="43.59027" lon="3.28831">
        <ele>366.1</ele>
        <time>2016-08-07T07:47:28Z</time>
      </trkpt>
      <trkpt lat="43.59019" lon="3.28837">
        <ele>366.3</ele>
        <time>2016-08-07T07:47:31Z</time>
      </trkpt>
      <trkpt lat="43.59013" lon="3.28843">
        <ele>366.4</ele>
        <time>2016-08-07T07:47:33Z</time>
      </trkpt>
      <trkpt lat="43.59007" lon="3.28851">
        <ele>366.6</ele>
        <time>2016-08-07T07:47:36Z</time>
      </trkpt>
      <trkpt lat="43.59" lon="3.28858">
        <ele>366.8</ele>
        <time>2016-08-07T07:47:39Z</time>
      </trkpt>
      <trkpt lat="43.58993" lon="3.28866">
        <ele>367.1</ele>
        <time>2016-08-07T07:47:42Z</time>
      </trkpt>
      <trkpt lat="43.58987" lon="3.28872">
        <ele>367.3</ele>
        <time>2016-08-07T07:47:44Z</time>
      </trkpt>
      <trkpt lat="43.58979" lon="3.2888">
        <ele>367.5</ele>
        <time>2016-08-07T07:47:47Z</time>
      </trkpt>
      <trkpt lat="43.58971" lon="3.28887">
        <ele>367.7</ele>
        <time>2016-08-07T07:47:50Z</time>
      </trkpt>
      <trkpt lat="43.58964" lon="3.28894">
        <ele>368.1</ele>
        <time>2016-08-07T07:47:53Z</time>
      </trkpt>
      <trkpt lat="43.58958" lon="3.289">
        <ele>368.4</ele>
        <time>2016-08-07T07:47:56Z</time>
      </trkpt>
      <trkpt lat="43.58951" lon="3.28909">
        <ele>369</ele>
        <time>2016-08-07T07:48:00Z</time>
      </trkpt>
      <trkpt lat="43.58945" lon="3.28916">
        <ele>369.5</ele>
        <time>2016-08-07T07:48:04Z</time>
      </trkpt>
      <trkpt lat="43.58939" lon="3.28923">
        <ele>370.1</ele>
        <time>2016-08-07T07:48:09Z</time>
      </trkpt>
      <trkpt lat="43.58938" lon="3.28924">
        <ele>370.5</ele>
        <time>2016-08-07T07:48:16Z</time>
      </trkpt>
      <trkpt lat="43.58935" lon="3.28928">
        <ele>375.3</ele>
        <time>2016-08-07T07:52:13Z</time>
      </trkpt>
      <trkpt lat="43.58933" lon="3.28925">
        <ele>378.2</ele>
        <time>2016-08-07T07:53:30Z</time>
      </trkpt>
      <trkpt lat="43.58934" lon="3.28929">
        <ele>376.9</ele>
        <time>2016-08-07T07:53:53Z</time>
      </trkpt>
      <trkpt lat="43.58931" lon="3.2892">
        <ele>376.9</ele>
        <time>2016-08-07T07:54:00Z</time>
      </trkpt>
      <trkpt lat="43.58932" lon="3.28908">
        <ele>376.6</ele>
        <time>2016-08-07T07:54:04Z</time>
      </trkpt>
      <trkpt lat="43.58937" lon="3.28896">
        <ele>376.5</ele>
        <time>2016-08-07T07:54:07Z</time>
      </trkpt>
      <trkpt lat="43.58942" lon="3.28886">
        <ele>376.5</ele>
        <time>2016-08-07T07:54:10Z</time>
      </trkpt>
      <trkpt lat="43.58946" lon="3.28875">
        <ele>376.7</ele>
        <time>2016-08-07T07:54:14Z</time>
      </trkpt>
      <trkpt lat="43.5895" lon="3.28866">
        <ele>376.7</ele>
        <time>2016-08-07T07:54:18Z</time>
      </trkpt>
      <trkpt lat="43.58954" lon="3.28857">
        <ele>376.5</ele>
        <time>2016-08-07T07:54:22Z</time>
      </trkpt>
      <trkpt lat="43.58959" lon="3.28847">
        <ele>376.3</ele>
        <time>2016-08-07T07:54:27Z</time>
      </trkpt>
      <trkpt lat="43.58962" lon="3.28836">
        <ele>376.1</ele>
        <time>2016-08-07T07:54:30Z</time>
      </trkpt>
      <trkpt lat="43.58966" lon="3.28826">
        <ele>376.2</ele>
        <time>2016-08-07T07:54:34Z</time>
      </trkpt>
      <trkpt lat="43.58971" lon="3.28817">
        <ele>376.2</ele>
        <time>2016-08-07T07:54:38Z</time>
      </trkpt>
      <trkpt lat="43.58976" lon="3.28808">
        <ele>376.6</ele>
        <time>2016-08-07T07:54:42Z</time>
      </trkpt>
      <trkpt lat="43.5898" lon="3.28799">
        <ele>377.2</ele>
        <time>2016-08-07T07:54:46Z</time>
      </trkpt>
      <trkpt lat="43.58987" lon="3.28789">
        <ele>377.7</ele>
        <time>2016-08-07T07:54:50Z</time>
      </trkpt>
      <trkpt lat="43.58993" lon="3.2878">
        <ele>378.3</ele>
        <time>2016-08-07T07:54:54Z</time>
      </trkpt>
      <trkpt lat="43.58997" lon="3.2877">
        <ele>378.6</ele>
        <time>2016-08-07T07:54:57Z</time>
      </trkpt>
      <trkpt lat="43.59001" lon="3.28762">
        <ele>379</ele>
        <time>2016-08-07T07:55:00Z</time>
      </trkpt>
      <trkpt lat="43.59004" lon="3.28752">
        <ele>379.3</ele>
        <time>2016-08-07T07:55:04Z</time>
      </trkpt>
      <trkpt lat="43.59009" lon="3.28742">
        <ele>379.6</ele>
        <time>2016-08-07T07:55:08Z</time>
      </trkpt>
      <trkpt lat="43.5901" lon="3.28732">
        <ele>379.9</ele>
        <time>2016-08-07T07:55:12Z</time>
      </trkpt>
      <trkpt lat="43.59004" lon="3.28725">
        <ele>380.4</ele>
        <time>2016-08-07T07:55:16Z</time>
      </trkpt>
      <trkpt lat="43.58997" lon="3.28721">
        <ele>380.9</ele>
        <time>2016-08-07T07:55:19Z</time>
      </trkpt>
      <trkpt lat="43.58988" lon="3.28718">
        <ele>381.8</ele>
        <time>2016-08-07T07:55:24Z</time>
      </trkpt>
      <trkpt lat="43.58982" lon="3.28716">
        <ele>382.3</ele>
        <time>2016-08-07T07:55:28Z</time>
      </trkpt>
      <trkpt lat="43.58975" lon="3.28712">
        <ele>383</ele>
        <time>2016-08-07T07:55:32Z</time>
      </trkpt>
      <trkpt lat="43.58968" lon="3.28705">
        <ele>383.8</ele>
        <time>2016-08-07T07:55:36Z</time>
      </trkpt>
      <trkpt lat="43.5896" lon="3.28699">
        <ele>384.7</ele>
        <time>2016-08-07T07:55:41Z</time>
      </trkpt>
      <trkpt lat="43.58953" lon="3.28694">
        <ele>385.2</ele>
        <time>2016-08-07T07:55:44Z</time>
      </trkpt>
      <trkpt lat="43.58945" lon="3.28691">
        <ele>386</ele>
        <time>2016-08-07T07:55:48Z</time>
      </trkpt>
      <trkpt lat="43.58936" lon="3.2869">
        <ele>386.7</ele>
        <time>2016-08-07T07:55:52Z</time>
      </trkpt>
      <trkpt lat="43.58928" lon="3.28691">
        <ele>387.3</ele>
        <time>2016-08-07T07:55:55Z</time>
      </trkpt>
      <trkpt lat="43.58921" lon="3.28691">
        <ele>387.9</ele>
        <time>2016-08-07T07:55:58Z</time>
      </trkpt>
      <trkpt lat="43.58913" lon="3.28691">
        <ele>388.4</ele>
        <time>2016-08-07T07:56:01Z</time>
      </trkpt>
      <trkpt lat="43.58904" lon="3.2869">
        <ele>389.1</ele>
        <time>2016-08-07T07:56:05Z</time>
      </trkpt>
      <trkpt lat="43.58895" lon="3.28689">
        <ele>389.8</ele>
        <time>2016-08-07T07:56:09Z</time>
      </trkpt>
      <trkpt lat="43.58887" lon="3.28689">
        <ele>390.4</ele>
        <time>2016-08-07T07:56:12Z</time>
      </trkpt>
      <trkpt lat="43.58879" lon="3.28688">
        <ele>390.9</ele>
        <time>2016-08-07T07:56:15Z</time>
      </trkpt>
      <trkpt lat="43.58871" lon="3.28689">
        <ele>391.3</ele>
        <time>2016-08-07T07:56:18Z</time>
      </trkpt>
      <trkpt lat="43.58863" lon="3.2869">
        <ele>392.1</ele>
        <time>2016-08-07T07:56:22Z</time>
      </trkpt>
      <trkpt lat="43.58854" lon="3.28693">
        <ele>392.8</ele>
        <time>2016-08-07T07:56:26Z</time>
      </trkpt>
      <trkpt lat="43.58846" lon="3.28696">
        <ele>393.4</ele>
        <time>2016-08-07T07:56:30Z</time>
      </trkpt>
      <trkpt lat="43.58837" lon="3.28698">
        <ele>394.2</ele>
        <time>2016-08-07T07:56:34Z</time>
      </trkpt>
      <trkpt lat="43.58828" lon="3.2869">
        <ele>395.1</ele>
        <time>2016-08-07T07:56:38Z</time>
      </trkpt>
      <trkpt lat="43.58824" lon="3.28682">
        <ele>395.6</ele>
        <time>2016-08-07T07:56:41Z</time>
      </trkpt>
      <trkpt lat="43.58818" lon="3.28672">
        <ele>396.6</ele>
        <time>2016-08-07T07:56:45Z</time>
      </trkpt>
      <trkpt lat="43.58811" lon="3.28665">
        <ele>397.3</ele>
        <time>2016-08-07T07:56:49Z</time>
      </trkpt>
      <trkpt lat="43.58804" lon="3.28659">
        <ele>397.9</ele>
        <time>2016-08-07T07:56:53Z</time>
      </trkpt>
      <trkpt lat="43.58796" lon="3.28653">
        <ele>398.7</ele>
        <time>2016-08-07T07:56:58Z</time>
      </trkpt>
      <trkpt lat="43.58788" lon="3.28648">
        <ele>399.7</ele>
        <time>2016-08-07T07:57:02Z</time>
      </trkpt>
      <trkpt lat="43.58779" lon="3.28645">
        <ele>400.6</ele>
        <time>2016-08-07T07:57:06Z</time>
      </trkpt>
      <trkpt lat="43.58772" lon="3.28644">
        <ele>401.5</ele>
        <time>2016-08-07T07:57:10Z</time>
      </trkpt>
      <trkpt lat="43.58764" lon="3.28644">
        <ele>402.4</ele>
        <time>2016-08-07T07:57:14Z</time>
      </trkpt>
      <trkpt lat="43.58756" lon="3.28645">
        <ele>403.3</ele>
        <time>2016-08-07T07:57:18Z</time>
      </trkpt>
      <trkpt lat="43.58748" lon="3.28644">
        <ele>404.1</ele>
        <time>2016-08-07T07:57:22Z</time>
      </trkpt>
      <trkpt lat="43.58742" lon="3.28639">
        <ele>404.8</ele>
        <time>2016-08-07T07:57:26Z</time>
      </trkpt>
      <trkpt lat="43.58736" lon="3.28631">
        <ele>405.6</ele>
        <time>2016-08-07T07:57:30Z</time>
      </trkpt>
      <trkpt lat="43.58731" lon="3.28624">
        <ele>406.4</ele>
        <time>2016-08-07T07:57:34Z</time>
      </trkpt>
      <trkpt lat="43.58726" lon="3.28615">
        <ele>407.3</ele>
        <time>2016-08-07T07:57:38Z</time>
      </trkpt>
      <trkpt lat="43.58726" lon="3.28604">
        <ele>408.5</ele>
        <time>2016-08-07T07:57:43Z</time>
      </trkpt>
      <trkpt lat="43.58729" lon="3.28594">
        <ele>409.8</ele>
        <time>2016-08-07T07:57:47Z</time>
      </trkpt>
      <trkpt lat="43.58731" lon="3.28583">
        <ele>410.8</ele>
        <time>2016-08-07T07:57:51Z</time>
      </trkpt>
      <trkpt lat="43.58732" lon="3.28572">
        <ele>412.1</ele>
        <time>2016-08-07T07:57:56Z</time>
      </trkpt>
      <trkpt lat="43.58737" lon="3.28564">
        <ele>412.9</ele>
        <time>2016-08-07T07:58:01Z</time>
      </trkpt>
      <trkpt lat="43.58745" lon="3.28562">
        <ele>413.7</ele>
        <time>2016-08-07T07:58:06Z</time>
      </trkpt>
      <trkpt lat="43.58752" lon="3.28559">
        <ele>414.1</ele>
        <time>2016-08-07T07:58:09Z</time>
      </trkpt>
      <trkpt lat="43.5876" lon="3.28554">
        <ele>414.6</ele>
        <time>2016-08-07T07:58:13Z</time>
      </trkpt>
      <trkpt lat="43.58767" lon="3.28546">
        <ele>415.1</ele>
        <time>2016-08-07T07:58:18Z</time>
      </trkpt>
      <trkpt lat="43.58773" lon="3.2854">
        <ele>415.5</ele>
        <time>2016-08-07T07:58:22Z</time>
      </trkpt>
      <trkpt lat="43.58779" lon="3.28533">
        <ele>415.9</ele>
        <time>2016-08-07T07:58:26Z</time>
      </trkpt>
      <trkpt lat="43.58786" lon="3.28524">
        <ele>416.7</ele>
        <time>2016-08-07T07:58:30Z</time>
      </trkpt>
      <trkpt lat="43.58792" lon="3.28516">
        <ele>417.2</ele>
        <time>2016-08-07T07:58:34Z</time>
      </trkpt>
      <trkpt lat="43.58797" lon="3.28508">
        <ele>417.6</ele>
        <time>2016-08-07T07:58:38Z</time>
      </trkpt>
      <trkpt lat="43.58801" lon="3.28499">
        <ele>418.1</ele>
        <time>2016-08-07T07:58:42Z</time>
      </trkpt>
      <trkpt lat="43.58805" lon="3.28488">
        <ele>418.8</ele>
        <time>2016-08-07T07:58:47Z</time>
      </trkpt>
      <trkpt lat="43.58808" lon="3.28477">
        <ele>419.4</ele>
        <time>2016-08-07T07:58:51Z</time>
      </trkpt>
      <trkpt lat="43.58811" lon="3.28465">
        <ele>420</ele>
        <time>2016-08-07T07:58:56Z</time>
      </trkpt>
      <trkpt lat="43.58813" lon="3.28455">
        <ele>420.5</ele>
        <time>2016-08-07T07:59:00Z</time>
      </trkpt>
      <trkpt lat="43.58814" lon="3.28443">
        <ele>421</ele>
        <time>2016-08-07T07:59:04Z</time>
      </trkpt>
      <trkpt lat="43.58807" lon="3.28437">
        <ele>421.9</ele>
        <time>2016-08-07T07:59:10Z</time>
      </trkpt>
      <trkpt lat="43.58799" lon="3.28442">
        <ele>422.3</ele>
        <time>2016-08-07T07:59:14Z</time>
      </trkpt>
      <trkpt lat="43.58792" lon="3.28448">
        <ele>422.8</ele>
        <time>2016-08-07T07:59:17Z</time>
      </trkpt>
      <trkpt lat="43.58786" lon="3.28454">
        <ele>423.5</ele>
        <time>2016-08-07T07:59:21Z</time>
      </trkpt>
      <trkpt lat="43.58778" lon="3.28459">
        <ele>424.3</ele>
        <time>2016-08-07T07:59:25Z</time>
      </trkpt>
      <trkpt lat="43.58772" lon="3.28465">
        <ele>425</ele>
        <time>2016-08-07T07:59:29Z</time>
      </trkpt>
      <trkpt lat="43.58766" lon="3.28473">
        <ele>426.2</ele>
        <time>2016-08-07T07:59:34Z</time>
      </trkpt>
      <trkpt lat="43.58758" lon="3.28479">
        <ele>427.1</ele>
        <time>2016-08-07T07:59:39Z</time>
      </trkpt>
      <trkpt lat="43.58752" lon="3.28484">
        <ele>427.8</ele>
        <time>2016-08-07T07:59:43Z</time>
      </trkpt>
      <trkpt lat="43.58744" lon="3.28491">
        <ele>428.7</ele>
        <time>2016-08-07T07:59:48Z</time>
      </trkpt>
      <trkpt lat="43.58737" lon="3.28498">
        <ele>429.4</ele>
        <time>2016-08-07T07:59:52Z</time>
      </trkpt>
      <trkpt lat="43.5873" lon="3.28502">
        <ele>430.2</ele>
        <time>2016-08-07T07:59:56Z</time>
      </trkpt>
      <trkpt lat="43.58722" lon="3.28508">
        <ele>431.1</ele>
        <time>2016-08-07T08:00:00Z</time>
      </trkpt>
      <trkpt lat="43.58716" lon="3.28513">
        <ele>431.7</ele>
        <time>2016-08-07T08:00:03Z</time>
      </trkpt>
      <trkpt lat="43.58708" lon="3.28519">
        <ele>432.3</ele>
        <time>2016-08-07T08:00:07Z</time>
      </trkpt>
      <trkpt lat="43.587" lon="3.28526">
        <ele>432.8</ele>
        <time>2016-08-07T08:00:11Z</time>
      </trkpt>
      <trkpt lat="43.58693" lon="3.28531">
        <ele>433.3</ele>
        <time>2016-08-07T08:00:15Z</time>
      </trkpt>
      <trkpt lat="43.58686" lon="3.28537">
        <ele>433.7</ele>
        <time>2016-08-07T08:00:19Z</time>
      </trkpt>
      <trkpt lat="43.58678" lon="3.28543">
        <ele>434.3</ele>
        <time>2016-08-07T08:00:22Z</time>
      </trkpt>
      <trkpt lat="43.5867" lon="3.28548">
        <ele>435.1</ele>
        <time>2016-08-07T08:00:26Z</time>
      </trkpt>
      <trkpt lat="43.58662" lon="3.28551">
        <ele>435.6</ele>
        <time>2016-08-07T08:00:30Z</time>
      </trkpt>
      <trkpt lat="43.58652" lon="3.28555">
        <ele>436.1</ele>
        <time>2016-08-07T08:00:34Z</time>
      </trkpt>
      <trkpt lat="43.58644" lon="3.28559">
        <ele>436.4</ele>
        <time>2016-08-07T08:00:37Z</time>
      </trkpt>
      <trkpt lat="43.58636" lon="3.28563">
        <ele>437.1</ele>
        <time>2016-08-07T08:00:41Z</time>
      </trkpt>
      <trkpt lat="43.58628" lon="3.28566">
        <ele>437.8</ele>
        <time>2016-08-07T08:00:45Z</time>
      </trkpt>
      <trkpt lat="43.58621" lon="3.28568">
        <ele>438.5</ele>
        <time>2016-08-07T08:00:48Z</time>
      </trkpt>
      <trkpt lat="43.58614" lon="3.28571">
        <ele>439.2</ele>
        <time>2016-08-07T08:00:51Z</time>
      </trkpt>
      <trkpt lat="43.58606" lon="3.28573">
        <ele>440.1</ele>
        <time>2016-08-07T08:00:55Z</time>
      </trkpt>
      <trkpt lat="43.58599" lon="3.28575">
        <ele>440.5</ele>
        <time>2016-08-07T08:00:58Z</time>
      </trkpt>
      <trkpt lat="43.5859" lon="3.2858">
        <ele>441</ele>
        <time>2016-08-07T08:01:02Z</time>
      </trkpt>
      <trkpt lat="43.58583" lon="3.28584">
        <ele>441.5</ele>
        <time>2016-08-07T08:01:05Z</time>
      </trkpt>
      <trkpt lat="43.58575" lon="3.28592">
        <ele>441.9</ele>
        <time>2016-08-07T08:01:09Z</time>
      </trkpt>
      <trkpt lat="43.5857" lon="3.286">
        <ele>442.3</ele>
        <time>2016-08-07T08:01:12Z</time>
      </trkpt>
      <trkpt lat="43.58565" lon="3.28611">
        <ele>442.7</ele>
        <time>2016-08-07T08:01:16Z</time>
      </trkpt>
      <trkpt lat="43.58564" lon="3.28621">
        <ele>443</ele>
        <time>2016-08-07T08:01:20Z</time>
      </trkpt>
      <trkpt lat="43.58562" lon="3.28633">
        <ele>443.2</ele>
        <time>2016-08-07T08:01:23Z</time>
      </trkpt>
      <trkpt lat="43.5856" lon="3.28643">
        <ele>443.3</ele>
        <time>2016-08-07T08:01:26Z</time>
      </trkpt>
      <trkpt lat="43.58557" lon="3.28654">
        <ele>443.4</ele>
        <time>2016-08-07T08:01:30Z</time>
      </trkpt>
      <trkpt lat="43.58554" lon="3.28667">
        <ele>443.6</ele>
        <time>2016-08-07T08:01:33Z</time>
      </trkpt>
      <trkpt lat="43.58552" lon="3.28678">
        <ele>444</ele>
        <time>2016-08-07T08:01:36Z</time>
      </trkpt>
      <trkpt lat="43.58548" lon="3.28689">
        <ele>444.3</ele>
        <time>2016-08-07T08:01:40Z</time>
      </trkpt>
      <trkpt lat="43.58545" lon="3.28699">
        <ele>445</ele>
        <time>2016-08-07T08:01:44Z</time>
      </trkpt>
      <trkpt lat="43.58542" lon="3.28709">
        <ele>445.5</ele>
        <time>2016-08-07T08:01:47Z</time>
      </trkpt>
      <trkpt lat="43.5854" lon="3.28719">
        <ele>445.9</ele>
        <time>2016-08-07T08:01:50Z</time>
      </trkpt>
      <trkpt lat="43.58538" lon="3.28729">
        <ele>446.6</ele>
        <time>2016-08-07T08:01:54Z</time>
      </trkpt>
      <trkpt lat="43.58536" lon="3.28742">
        <ele>447.1</ele>
        <time>2016-08-07T08:01:57Z</time>
      </trkpt>
      <trkpt lat="43.58534" lon="3.28753">
        <ele>447.7</ele>
        <time>2016-08-07T08:02:00Z</time>
      </trkpt>
      <trkpt lat="43.58535" lon="3.28764">
        <ele>448.2</ele>
        <time>2016-08-07T08:02:03Z</time>
      </trkpt>
      <trkpt lat="43.58535" lon="3.28775">
        <ele>448.7</ele>
        <time>2016-08-07T08:02:06Z</time>
      </trkpt>
      <trkpt lat="43.58536" lon="3.28785">
        <ele>449.1</ele>
        <time>2016-08-07T08:02:09Z</time>
      </trkpt>
      <trkpt lat="43.58537" lon="3.28796">
        <ele>449.6</ele>
        <time>2016-08-07T08:02:12Z</time>
      </trkpt>
      <trkpt lat="43.58539" lon="3.28808">
        <ele>450.1</ele>
        <time>2016-08-07T08:02:15Z</time>
      </trkpt>
      <trkpt lat="43.58543" lon="3.2882">
        <ele>450.7</ele>
        <time>2016-08-07T08:02:19Z</time>
      </trkpt>
      <trkpt lat="43.58543" lon="3.2883">
        <ele>451.1</ele>
        <time>2016-08-07T08:02:22Z</time>
      </trkpt>
      <trkpt lat="43.58545" lon="3.28842">
        <ele>451.6</ele>
        <time>2016-08-07T08:02:26Z</time>
      </trkpt>
      <trkpt lat="43.58546" lon="3.28855">
        <ele>451.9</ele>
        <time>2016-08-07T08:02:30Z</time>
      </trkpt>
      <trkpt lat="43.58548" lon="3.28868">
        <ele>452.2</ele>
        <time>2016-08-07T08:02:34Z</time>
      </trkpt>
      <trkpt lat="43.58548" lon="3.28878">
        <ele>452.3</ele>
        <time>2016-08-07T08:02:37Z</time>
      </trkpt>
      <trkpt lat="43.58548" lon="3.28892">
        <ele>452.6</ele>
        <time>2016-08-07T08:02:41Z</time>
      </trkpt>
      <trkpt lat="43.58546" lon="3.28903">
        <ele>452.8</ele>
        <time>2016-08-07T08:02:44Z</time>
      </trkpt>
      <trkpt lat="43.58543" lon="3.28915">
        <ele>453.1</ele>
        <time>2016-08-07T08:02:47Z</time>
      </trkpt>
      <trkpt lat="43.5854" lon="3.28927">
        <ele>453.3</ele>
        <time>2016-08-07T08:02:51Z</time>
      </trkpt>
      <trkpt lat="43.58536" lon="3.28936">
        <ele>453.4</ele>
        <time>2016-08-07T08:02:54Z</time>
      </trkpt>
      <trkpt lat="43.58533" lon="3.28946">
        <ele>453.4</ele>
        <time>2016-08-07T08:02:57Z</time>
      </trkpt>
      <trkpt lat="43.58531" lon="3.28956">
        <ele>453.6</ele>
        <time>2016-08-07T08:03:00Z</time>
      </trkpt>
      <trkpt lat="43.5853" lon="3.28967">
        <ele>453.8</ele>
        <time>2016-08-07T08:03:03Z</time>
      </trkpt>
      <trkpt lat="43.58528" lon="3.28977">
        <ele>454.1</ele>
        <time>2016-08-07T08:03:06Z</time>
      </trkpt>
      <trkpt lat="43.58528" lon="3.28988">
        <ele>454.3</ele>
        <time>2016-08-07T08:03:09Z</time>
      </trkpt>
      <trkpt lat="43.58528" lon="3.29">
        <ele>454.6</ele>
        <time>2016-08-07T08:03:12Z</time>
      </trkpt>
      <trkpt lat="43.5853" lon="3.29011">
        <ele>454.8</ele>
        <time>2016-08-07T08:03:15Z</time>
      </trkpt>
      <trkpt lat="43.58532" lon="3.29021">
        <ele>455</ele>
        <time>2016-08-07T08:03:18Z</time>
      </trkpt>
      <trkpt lat="43.58535" lon="3.2903">
        <ele>455.2</ele>
        <time>2016-08-07T08:03:21Z</time>
      </trkpt>
      <trkpt lat="43.5854" lon="3.2904">
        <ele>455.6</ele>
        <time>2016-08-07T08:03:25Z</time>
      </trkpt>
      <trkpt lat="43.58546" lon="3.2905">
        <ele>455.9</ele>
        <time>2016-08-07T08:03:29Z</time>
      </trkpt>
      <trkpt lat="43.5855" lon="3.29057">
        <ele>456.3</ele>
        <time>2016-08-07T08:03:32Z</time>
      </trkpt>
      <trkpt lat="43.58556" lon="3.29065">
        <ele>457.1</ele>
        <time>2016-08-07T08:03:36Z</time>
      </trkpt>
      <trkpt lat="43.58563" lon="3.29074">
        <ele>457.9</ele>
        <time>2016-08-07T08:03:40Z</time>
      </trkpt>
      <trkpt lat="43.58568" lon="3.29082">
        <ele>458.6</ele>
        <time>2016-08-07T08:03:43Z</time>
      </trkpt>
      <trkpt lat="43.58574" lon="3.29093">
        <ele>459.5</ele>
        <time>2016-08-07T08:03:47Z</time>
      </trkpt>
      <trkpt lat="43.58578" lon="3.29101">
        <ele>460.1</ele>
        <time>2016-08-07T08:03:50Z</time>
      </trkpt>
      <trkpt lat="43.58585" lon="3.29111">
        <ele>460.6</ele>
        <time>2016-08-07T08:03:54Z</time>
      </trkpt>
      <trkpt lat="43.58591" lon="3.2912">
        <ele>461</ele>
        <time>2016-08-07T08:03:57Z</time>
      </trkpt>
      <trkpt lat="43.58596" lon="3.29129">
        <ele>461.3</ele>
        <time>2016-08-07T08:04:00Z</time>
      </trkpt>
      <trkpt lat="43.58602" lon="3.29138">
        <ele>461.7</ele>
        <time>2016-08-07T08:04:03Z</time>
      </trkpt>
      <trkpt lat="43.58606" lon="3.2915">
        <ele>462.1</ele>
        <time>2016-08-07T08:04:06Z</time>
      </trkpt>
      <trkpt lat="43.58608" lon="3.29161">
        <ele>462.5</ele>
        <time>2016-08-07T08:04:09Z</time>
      </trkpt>
      <trkpt lat="43.5861" lon="3.29175">
        <ele>462.9</ele>
        <time>2016-08-07T08:04:12Z</time>
      </trkpt>
      <trkpt lat="43.58609" lon="3.29187">
        <ele>463.2</ele>
        <time>2016-08-07T08:04:15Z</time>
      </trkpt>
      <trkpt lat="43.58607" lon="3.29198">
        <ele>463.7</ele>
        <time>2016-08-07T08:04:18Z</time>
      </trkpt>
      <trkpt lat="43.58603" lon="3.29208">
        <ele>464.2</ele>
        <time>2016-08-07T08:04:21Z</time>
      </trkpt>
      <trkpt lat="43.586" lon="3.29217">
        <ele>464.7</ele>
        <time>2016-08-07T08:04:24Z</time>
      </trkpt>
      <trkpt lat="43.58598" lon="3.29227">
        <ele>465.2</ele>
        <time>2016-08-07T08:04:27Z</time>
      </trkpt>
      <trkpt lat="43.58595" lon="3.29239">
        <ele>465.6</ele>
        <time>2016-08-07T08:04:30Z</time>
      </trkpt>
      <trkpt lat="43.58593" lon="3.29251">
        <ele>466</ele>
        <time>2016-08-07T08:04:33Z</time>
      </trkpt>
      <trkpt lat="43.5859" lon="3.29262">
        <ele>466.4</ele>
        <time>2016-08-07T08:04:36Z</time>
      </trkpt>
      <trkpt lat="43.58587" lon="3.29272">
        <ele>466.8</ele>
        <time>2016-08-07T08:04:39Z</time>
      </trkpt>
      <trkpt lat="43.58584" lon="3.29285">
        <ele>467.3</ele>
        <time>2016-08-07T08:04:42Z</time>
      </trkpt>
      <trkpt lat="43.58579" lon="3.29294">
        <ele>467.6</ele>
        <time>2016-08-07T08:04:44Z</time>
      </trkpt>
      <trkpt lat="43.58576" lon="3.29302">
        <ele>469.3</ele>
        <time>2016-08-07T08:04:46Z</time>
      </trkpt>
      <trkpt lat="43.58572" lon="3.29313">
        <ele>470.5</ele>
        <time>2016-08-07T08:04:48Z</time>
      </trkpt>
      <trkpt lat="43.58567" lon="3.29322">
        <ele>472.6</ele>
        <time>2016-08-07T08:04:50Z</time>
      </trkpt>
      <trkpt lat="43.58562" lon="3.29333">
        <ele>473.4</ele>
        <time>2016-08-07T08:04:52Z</time>
      </trkpt>
      <trkpt lat="43.58558" lon="3.29343">
        <ele>473.3</ele>
        <time>2016-08-07T08:04:54Z</time>
      </trkpt>
      <trkpt lat="43.58553" lon="3.29353">
        <ele>473.7</ele>
        <time>2016-08-07T08:04:56Z</time>
      </trkpt>
      <trkpt lat="43.58549" lon="3.29363">
        <ele>474.7</ele>
        <time>2016-08-07T08:04:58Z</time>
      </trkpt>
      <trkpt lat="43.58544" lon="3.29374">
        <ele>475.7</ele>
        <time>2016-08-07T08:05:00Z</time>
      </trkpt>
      <trkpt lat="43.58545" lon="3.29386">
        <ele>476.9</ele>
        <time>2016-08-07T08:05:02Z</time>
      </trkpt>
      <trkpt lat="43.58548" lon="3.29398">
        <ele>476.8</ele>
        <time>2016-08-07T08:05:04Z</time>
      </trkpt>
      <trkpt lat="43.58552" lon="3.29413">
        <ele>477.1</ele>
        <time>2016-08-07T08:05:06Z</time>
      </trkpt>
      <trkpt lat="43.58555" lon="3.29425">
        <ele>477</ele>
        <time>2016-08-07T08:05:08Z</time>
      </trkpt>
      <trkpt lat="43.58558" lon="3.29438">
        <ele>476</ele>
        <time>2016-08-07T08:05:10Z</time>
      </trkpt>
      <trkpt lat="43.5856" lon="3.29452">
        <ele>475.6</ele>
        <time>2016-08-07T08:05:12Z</time>
      </trkpt>
      <trkpt lat="43.58561" lon="3.29464">
        <ele>475.3</ele>
        <time>2016-08-07T08:05:14Z</time>
      </trkpt>
      <trkpt lat="43.5856" lon="3.29478">
        <ele>476.1</ele>
        <time>2016-08-07T08:05:16Z</time>
      </trkpt>
      <trkpt lat="43.58557" lon="3.29491">
        <ele>475.8</ele>
        <time>2016-08-07T08:05:18Z</time>
      </trkpt>
      <trkpt lat="43.58553" lon="3.29503">
        <ele>476.2</ele>
        <time>2016-08-07T08:05:20Z</time>
      </trkpt>
      <trkpt lat="43.5855" lon="3.29516">
        <ele>476.2</ele>
        <time>2016-08-07T08:05:22Z</time>
      </trkpt>
      <trkpt lat="43.58548" lon="3.29527">
        <ele>476.5</ele>
        <time>2016-08-07T08:05:24Z</time>
      </trkpt>
      <trkpt lat="43.58545" lon="3.29541">
        <ele>477</ele>
        <time>2016-08-07T08:05:26Z</time>
      </trkpt>
      <trkpt lat="43.58543" lon="3.29552">
        <ele>477.7</ele>
        <time>2016-08-07T08:05:28Z</time>
      </trkpt>
      <trkpt lat="43.58541" lon="3.29564">
        <ele>477.9</ele>
        <time>2016-08-07T08:05:30Z</time>
      </trkpt>
      <trkpt lat="43.5854" lon="3.29575">
        <ele>478.6</ele>
        <time>2016-08-07T08:05:32Z</time>
      </trkpt>
      <trkpt lat="43.58539" lon="3.29586">
        <ele>479.4</ele>
        <time>2016-08-07T08:05:34Z</time>
      </trkpt>
      <trkpt lat="43.58539" lon="3.29596">
        <ele>480.1</ele>
        <time>2016-08-07T08:05:36Z</time>
      </trkpt>
      <trkpt lat="43.58539" lon="3.29607">
        <ele>481.5</ele>
        <time>2016-08-07T08:05:38Z</time>
      </trkpt>
      <trkpt lat="43.5854" lon="3.29618">
        <ele>481.9</ele>
        <time>2016-08-07T08:05:40Z</time>
      </trkpt>
      <trkpt lat="43.58543" lon="3.29631">
        <ele>482.1</ele>
        <time>2016-08-07T08:05:43Z</time>
      </trkpt>
      <trkpt lat="43.58546" lon="3.2964">
        <ele>482</ele>
        <time>2016-08-07T08:05:45Z</time>
      </trkpt>
      <trkpt lat="43.58551" lon="3.29652">
        <ele>482</ele>
        <time>2016-08-07T08:05:48Z</time>
      </trkpt>
      <trkpt lat="43.58556" lon="3.29663">
        <ele>482.2</ele>
        <time>2016-08-07T08:05:51Z</time>
      </trkpt>
      <trkpt lat="43.58562" lon="3.29671">
        <ele>482.3</ele>
        <time>2016-08-07T08:05:54Z</time>
      </trkpt>
      <trkpt lat="43.58567" lon="3.29679">
        <ele>482.5</ele>
        <time>2016-08-07T08:05:56Z</time>
      </trkpt>
      <trkpt lat="43.58573" lon="3.29688">
        <ele>482.6</ele>
        <time>2016-08-07T08:05:59Z</time>
      </trkpt>
      <trkpt lat="43.58579" lon="3.29697">
        <ele>482.8</ele>
        <time>2016-08-07T08:06:02Z</time>
      </trkpt>
      <trkpt lat="43.58586" lon="3.29707">
        <ele>482.8</ele>
        <time>2016-08-07T08:06:05Z</time>
      </trkpt>
      <trkpt lat="43.58592" lon="3.29716">
        <ele>483</ele>
        <time>2016-08-07T08:06:08Z</time>
      </trkpt>
      <trkpt lat="43.58597" lon="3.29726">
        <ele>483.2</ele>
        <time>2016-08-07T08:06:11Z</time>
      </trkpt>
      <trkpt lat="43.58601" lon="3.29738">
        <ele>483.5</ele>
        <time>2016-08-07T08:06:14Z</time>
      </trkpt>
      <trkpt lat="43.58604" lon="3.29747">
        <ele>483.9</ele>
        <time>2016-08-07T08:06:17Z</time>
      </trkpt>
      <trkpt lat="43.58607" lon="3.2976">
        <ele>484.2</ele>
        <time>2016-08-07T08:06:20Z</time>
      </trkpt>
      <trkpt lat="43.58608" lon="3.29773">
        <ele>484.5</ele>
        <time>2016-08-07T08:06:23Z</time>
      </trkpt>
      <trkpt lat="43.58609" lon="3.29786">
        <ele>484.8</ele>
        <time>2016-08-07T08:06:26Z</time>
      </trkpt>
      <trkpt lat="43.58609" lon="3.29799">
        <ele>485</ele>
        <time>2016-08-07T08:06:29Z</time>
      </trkpt>
      <trkpt lat="43.5861" lon="3.29812">
        <ele>485.4</ele>
        <time>2016-08-07T08:06:32Z</time>
      </trkpt>
      <trkpt lat="43.58608" lon="3.29826">
        <ele>486</ele>
        <time>2016-08-07T08:06:35Z</time>
      </trkpt>
      <trkpt lat="43.58606" lon="3.29839">
        <ele>486.6</ele>
        <time>2016-08-07T08:06:38Z</time>
      </trkpt>
      <trkpt lat="43.58604" lon="3.2985">
        <ele>487.1</ele>
        <time>2016-08-07T08:06:41Z</time>
      </trkpt>
      <trkpt lat="43.58604" lon="3.29863">
        <ele>487.7</ele>
        <time>2016-08-07T08:06:44Z</time>
      </trkpt>
      <trkpt lat="43.58605" lon="3.29874">
        <ele>488.2</ele>
        <time>2016-08-07T08:06:47Z</time>
      </trkpt>
      <trkpt lat="43.58608" lon="3.29886">
        <ele>488.9</ele>
        <time>2016-08-07T08:06:51Z</time>
      </trkpt>
      <trkpt lat="43.58612" lon="3.29896">
        <ele>489.6</ele>
        <time>2016-08-07T08:06:55Z</time>
      </trkpt>
      <trkpt lat="43.58616" lon="3.29906">
        <ele>490</ele>
        <time>2016-08-07T08:06:59Z</time>
      </trkpt>
      <trkpt lat="43.58618" lon="3.29916">
        <ele>490.6</ele>
        <time>2016-08-07T08:07:03Z</time>
      </trkpt>
      <trkpt lat="43.58618" lon="3.29928">
        <ele>491.4</ele>
        <time>2016-08-07T08:07:10Z</time>
      </trkpt>
      <trkpt lat="43.58612" lon="3.29933">
        <ele>492</ele>
        <time>2016-08-07T08:07:16Z</time>
      </trkpt>
      <trkpt lat="43.58604" lon="3.29931">
        <ele>493.1</ele>
        <time>2016-08-07T08:07:23Z</time>
      </trkpt>
      <trkpt lat="43.58596" lon="3.29932">
        <ele>493.8</ele>
        <time>2016-08-07T08:07:28Z</time>
      </trkpt>
      <trkpt lat="43.58591" lon="3.2994">
        <ele>494.6</ele>
        <time>2016-08-07T08:07:33Z</time>
      </trkpt>
      <trkpt lat="43.58589" lon="3.2995">
        <ele>494.9</ele>
        <time>2016-08-07T08:07:36Z</time>
      </trkpt>
      <trkpt lat="43.58586" lon="3.29959">
        <ele>495.1</ele>
        <time>2016-08-07T08:07:39Z</time>
      </trkpt>
      <trkpt lat="43.58582" lon="3.29968">
        <ele>495.6</ele>
        <time>2016-08-07T08:07:43Z</time>
      </trkpt>
      <trkpt lat="43.58577" lon="3.29977">
        <ele>496</ele>
        <time>2016-08-07T08:07:49Z</time>
      </trkpt>
      <trkpt lat="43.58575" lon="3.29987">
        <ele>496.4</ele>
        <time>2016-08-07T08:07:54Z</time>
      </trkpt>
      <trkpt lat="43.58572" lon="3.29998">
        <ele>496.6</ele>
        <time>2016-08-07T08:08:01Z</time>
      </trkpt>
      <trkpt lat="43.5857" lon="3.30009">
        <ele>496.8</ele>
        <time>2016-08-07T08:08:06Z</time>
      </trkpt>
      <trkpt lat="43.58572" lon="3.30011">
        <ele>496.9</ele>
        <time>2016-08-07T08:08:13Z</time>
      </trkpt>
      <trkpt lat="43.58575" lon="3.30012">
        <ele>497.2</ele>
        <time>2016-08-07T08:08:20Z</time>
      </trkpt>
      <trkpt lat="43.58573" lon="3.30014">
        <ele>497.6</ele>
        <time>2016-08-07T08:08:27Z</time>
      </trkpt>
      <trkpt lat="43.58564" lon="3.30024">
        <ele>497.9</ele>
        <time>2016-08-07T08:08:51Z</time>
      </trkpt>
      <trkpt lat="43.58561" lon="3.30032">
        <ele>498</ele>
        <time>2016-08-07T08:08:57Z</time>
      </trkpt>
      <trkpt lat="43.58562" lon="3.30034">
        <ele>498.4</ele>
        <time>2016-08-07T08:09:04Z</time>
      </trkpt>
      <trkpt lat="43.5856" lon="3.30032">
        <ele>498.5</ele>
        <time>2016-08-07T08:09:36Z</time>
      </trkpt>
      <trkpt lat="43.58554" lon="3.30043">
        <ele>498.7</ele>
        <time>2016-08-07T08:10:10Z</time>
      </trkpt>
      <trkpt lat="43.58549" lon="3.30052">
        <ele>498.9</ele>
        <time>2016-08-07T08:10:14Z</time>
      </trkpt>
      <trkpt lat="43.58551" lon="3.30053">
        <ele>499</ele>
        <time>2016-08-07T08:10:21Z</time>
      </trkpt>
      <trkpt lat="43.58551" lon="3.30055">
        <ele>500</ele>
        <time>2016-08-07T08:10:37Z</time>
      </trkpt>
      <trkpt lat="43.58546" lon="3.30063">
        <ele>500.3</ele>
        <time>2016-08-07T08:10:44Z</time>
      </trkpt>
      <trkpt lat="43.58541" lon="3.3007">
        <ele>500.6</ele>
        <time>2016-08-07T08:10:51Z</time>
      </trkpt>
      <trkpt lat="43.58538" lon="3.30079">
        <ele>501</ele>
        <time>2016-08-07T08:10:56Z</time>
      </trkpt>
      <trkpt lat="43.58532" lon="3.30088">
        <ele>501.3</ele>
        <time>2016-08-07T08:11:01Z</time>
      </trkpt>
      <trkpt lat="43.58526" lon="3.30098">
        <ele>501.8</ele>
        <time>2016-08-07T08:11:05Z</time>
      </trkpt>
      <trkpt lat="43.58518" lon="3.30109">
        <ele>502</ele>
        <time>2016-08-07T08:11:08Z</time>
      </trkpt>
      <trkpt lat="43.58513" lon="3.30117">
        <ele>502</ele>
        <time>2016-08-07T08:11:10Z</time>
      </trkpt>
      <trkpt lat="43.58508" lon="3.30124">
        <ele>502.2</ele>
        <time>2016-08-07T08:11:13Z</time>
      </trkpt>
      <trkpt lat="43.58501" lon="3.30134">
        <ele>502.3</ele>
        <time>2016-08-07T08:11:16Z</time>
      </trkpt>
      <trkpt lat="43.58494" lon="3.30144">
        <ele>502.4</ele>
        <time>2016-08-07T08:11:19Z</time>
      </trkpt>
      <trkpt lat="43.58486" lon="3.30157">
        <ele>503.5</ele>
        <time>2016-08-07T08:11:22Z</time>
      </trkpt>
      <trkpt lat="43.5848" lon="3.30167">
        <ele>503.6</ele>
        <time>2016-08-07T08:11:24Z</time>
      </trkpt>
      <trkpt lat="43.58474" lon="3.30177">
        <ele>503</ele>
        <time>2016-08-07T08:11:26Z</time>
      </trkpt>
      <trkpt lat="43.58468" lon="3.30186">
        <ele>503.1</ele>
        <time>2016-08-07T08:11:28Z</time>
      </trkpt>
      <trkpt lat="43.58461" lon="3.30193">
        <ele>502.8</ele>
        <time>2016-08-07T08:11:30Z</time>
      </trkpt>
      <trkpt lat="43.58453" lon="3.30201">
        <ele>503</ele>
        <time>2016-08-07T08:11:32Z</time>
      </trkpt>
      <trkpt lat="43.58445" lon="3.30208">
        <ele>503.2</ele>
        <time>2016-08-07T08:11:34Z</time>
      </trkpt>
      <trkpt lat="43.58437" lon="3.30213">
        <ele>503.6</ele>
        <time>2016-08-07T08:11:36Z</time>
      </trkpt>
      <trkpt lat="43.58427" lon="3.30218">
        <ele>504.1</ele>
        <time>2016-08-07T08:11:38Z</time>
      </trkpt>
      <trkpt lat="43.5842" lon="3.30222">
        <ele>503.9</ele>
        <time>2016-08-07T08:11:40Z</time>
      </trkpt>
      <trkpt lat="43.58412" lon="3.30226">
        <ele>503.5</ele>
        <time>2016-08-07T08:11:42Z</time>
      </trkpt>
      <trkpt lat="43.58403" lon="3.3023">
        <ele>502.1</ele>
        <time>2016-08-07T08:11:44Z</time>
      </trkpt>
      <trkpt lat="43.58396" lon="3.30233">
        <ele>501.5</ele>
        <time>2016-08-07T08:11:46Z</time>
      </trkpt>
      <trkpt lat="43.58389" lon="3.30235">
        <ele>501.6</ele>
        <time>2016-08-07T08:11:48Z</time>
      </trkpt>
      <trkpt lat="43.58378" lon="3.30237">
        <ele>501.7</ele>
        <time>2016-08-07T08:11:51Z</time>
      </trkpt>
      <trkpt lat="43.5837" lon="3.3024">
        <ele>503</ele>
        <time>2016-08-07T08:11:53Z</time>
      </trkpt>
      <trkpt lat="43.58358" lon="3.30244">
        <ele>503.6</ele>
        <time>2016-08-07T08:11:55Z</time>
      </trkpt>
      <trkpt lat="43.58345" lon="3.3025">
        <ele>502</ele>
        <time>2016-08-07T08:11:57Z</time>
      </trkpt>
      <trkpt lat="43.58337" lon="3.30253">
        <ele>500.8</ele>
        <time>2016-08-07T08:11:58Z</time>
      </trkpt>
      <trkpt lat="43.58329" lon="3.30256">
        <ele>499.6</ele>
        <time>2016-08-07T08:11:59Z</time>
      </trkpt>
      <trkpt lat="43.58318" lon="3.30264">
        <ele>497</ele>
        <time>2016-08-07T08:12:01Z</time>
      </trkpt>
      <trkpt lat="43.58313" lon="3.30279">
        <ele>494.2</ele>
        <time>2016-08-07T08:12:03Z</time>
      </trkpt>
      <trkpt lat="43.58304" lon="3.30293">
        <ele>491.7</ele>
        <time>2016-08-07T08:12:05Z</time>
      </trkpt>
      <trkpt lat="43.58299" lon="3.30307">
        <ele>489.7</ele>
        <time>2016-08-07T08:12:07Z</time>
      </trkpt>
      <trkpt lat="43.58303" lon="3.30326">
        <ele>487</ele>
        <time>2016-08-07T08:12:09Z</time>
      </trkpt>
      <trkpt lat="43.58305" lon="3.30337">
        <ele>485.6</ele>
        <time>2016-08-07T08:12:10Z</time>
      </trkpt>
      <trkpt lat="43.58306" lon="3.30348">
        <ele>484.3</ele>
        <time>2016-08-07T08:12:11Z</time>
      </trkpt>
      <trkpt lat="43.58305" lon="3.3036">
        <ele>483.3</ele>
        <time>2016-08-07T08:12:12Z</time>
      </trkpt>
      <trkpt lat="43.58304" lon="3.30372">
        <ele>482.3</ele>
        <time>2016-08-07T08:12:13Z</time>
      </trkpt>
      <trkpt lat="43.58302" lon="3.30384">
        <ele>481.6</ele>
        <time>2016-08-07T08:12:14Z</time>
      </trkpt>
      <trkpt lat="43.58301" lon="3.30395">
        <ele>480.4</ele>
        <time>2016-08-07T08:12:15Z</time>
      </trkpt>
      <trkpt lat="43.58298" lon="3.30408">
        <ele>479.8</ele>
        <time>2016-08-07T08:12:16Z</time>
      </trkpt>
      <trkpt lat="43.58297" lon="3.3042">
        <ele>479.2</ele>
        <time>2016-08-07T08:12:17Z</time>
      </trkpt>
      <trkpt lat="43.58295" lon="3.30432">
        <ele>479</ele>
        <time>2016-08-07T08:12:18Z</time>
      </trkpt>
      <trkpt lat="43.58296" lon="3.30452">
        <ele>477.8</ele>
        <time>2016-08-07T08:12:20Z</time>
      </trkpt>
      <trkpt lat="43.58298" lon="3.30463">
        <ele>477.2</ele>
        <time>2016-08-07T08:12:21Z</time>
      </trkpt>
      <trkpt lat="43.58299" lon="3.30473">
        <ele>476.6</ele>
        <time>2016-08-07T08:12:22Z</time>
      </trkpt>
      <trkpt lat="43.58301" lon="3.3049">
        <ele>475.1</ele>
        <time>2016-08-07T08:12:24Z</time>
      </trkpt>
      <trkpt lat="43.58302" lon="3.30505">
        <ele>474.3</ele>
        <time>2016-08-07T08:12:26Z</time>
      </trkpt>
      <trkpt lat="43.58304" lon="3.30519">
        <ele>473</ele>
        <time>2016-08-07T08:12:28Z</time>
      </trkpt>
      <trkpt lat="43.58304" lon="3.30533">
        <ele>473.1</ele>
        <time>2016-08-07T08:12:30Z</time>
      </trkpt>
      <trkpt lat="43.58304" lon="3.30546">
        <ele>473.9</ele>
        <time>2016-08-07T08:12:32Z</time>
      </trkpt>
      <trkpt lat="43.58304" lon="3.30558">
        <ele>474.8</ele>
        <time>2016-08-07T08:12:34Z</time>
      </trkpt>
      <trkpt lat="43.58303" lon="3.30569">
        <ele>475.6</ele>
        <time>2016-08-07T08:12:36Z</time>
      </trkpt>
      <trkpt lat="43.58302" lon="3.30583">
        <ele>477.3</ele>
        <time>2016-08-07T08:12:38Z</time>
      </trkpt>
      <trkpt lat="43.58301" lon="3.30593">
        <ele>477.8</ele>
        <time>2016-08-07T08:12:40Z</time>
      </trkpt>
      <trkpt lat="43.58296" lon="3.30604">
        <ele>478.3</ele>
        <time>2016-08-07T08:12:42Z</time>
      </trkpt>
      <trkpt lat="43.58291" lon="3.30615">
        <ele>478.3</ele>
        <time>2016-08-07T08:12:44Z</time>
      </trkpt>
      <trkpt lat="43.58285" lon="3.30625">
        <ele>478.5</ele>
        <time>2016-08-07T08:12:46Z</time>
      </trkpt>
      <trkpt lat="43.58279" lon="3.30636">
        <ele>479.6</ele>
        <time>2016-08-07T08:12:48Z</time>
      </trkpt>
      <trkpt lat="43.58275" lon="3.30645">
        <ele>480.6</ele>
        <time>2016-08-07T08:12:49Z</time>
      </trkpt>
      <trkpt lat="43.58268" lon="3.3066">
        <ele>480.6</ele>
        <time>2016-08-07T08:12:51Z</time>
      </trkpt>
      <trkpt lat="43.58265" lon="3.30669">
        <ele>480.3</ele>
        <time>2016-08-07T08:12:52Z</time>
      </trkpt>
      <trkpt lat="43.58261" lon="3.30678">
        <ele>479.4</ele>
        <time>2016-08-07T08:12:53Z</time>
      </trkpt>
      <trkpt lat="43.58256" lon="3.30688">
        <ele>478.4</ele>
        <time>2016-08-07T08:12:54Z</time>
      </trkpt>
      <trkpt lat="43.58251" lon="3.30699">
        <ele>477.1</ele>
        <time>2016-08-07T08:12:55Z</time>
      </trkpt>
      <trkpt lat="43.58246" lon="3.3071">
        <ele>475.7</ele>
        <time>2016-08-07T08:12:56Z</time>
      </trkpt>
      <trkpt lat="43.58241" lon="3.30721">
        <ele>474.2</ele>
        <time>2016-08-07T08:12:57Z</time>
      </trkpt>
      <trkpt lat="43.58233" lon="3.30729">
        <ele>473.1</ele>
        <time>2016-08-07T08:12:58Z</time>
      </trkpt>
      <trkpt lat="43.58225" lon="3.30737">
        <ele>472.2</ele>
        <time>2016-08-07T08:12:59Z</time>
      </trkpt>
      <trkpt lat="43.58217" lon="3.30744">
        <ele>470.9</ele>
        <time>2016-08-07T08:13:00Z</time>
      </trkpt>
      <trkpt lat="43.58209" lon="3.3075">
        <ele>469.6</ele>
        <time>2016-08-07T08:13:01Z</time>
      </trkpt>
      <trkpt lat="43.582" lon="3.30753">
        <ele>468.3</ele>
        <time>2016-08-07T08:13:02Z</time>
      </trkpt>
      <trkpt lat="43.5819" lon="3.30757">
        <ele>467</ele>
        <time>2016-08-07T08:13:03Z</time>
      </trkpt>
      <trkpt lat="43.5818" lon="3.3076">
        <ele>465.4</ele>
        <time>2016-08-07T08:13:04Z</time>
      </trkpt>
      <trkpt lat="43.58168" lon="3.30764">
        <ele>463.6</ele>
        <time>2016-08-07T08:13:05Z</time>
      </trkpt>
      <trkpt lat="43.58158" lon="3.30768">
        <ele>461.7</ele>
        <time>2016-08-07T08:13:06Z</time>
      </trkpt>
      <trkpt lat="43.58147" lon="3.30772">
        <ele>460.3</ele>
        <time>2016-08-07T08:13:07Z</time>
      </trkpt>
      <trkpt lat="43.58138" lon="3.30777">
        <ele>458.7</ele>
        <time>2016-08-07T08:13:08Z</time>
      </trkpt>
      <trkpt lat="43.58131" lon="3.3078">
        <ele>456.5</ele>
        <time>2016-08-07T08:13:09Z</time>
      </trkpt>
      <trkpt lat="43.5812" lon="3.30783">
        <ele>454.6</ele>
        <time>2016-08-07T08:13:11Z</time>
      </trkpt>
      <trkpt lat="43.58118" lon="3.30772">
        <ele>452.7</ele>
        <time>2016-08-07T08:13:15Z</time>
      </trkpt>
      <trkpt lat="43.58117" lon="3.3076">
        <ele>449.4</ele>
        <time>2016-08-07T08:13:17Z</time>
      </trkpt>
      <trkpt lat="43.58116" lon="3.30756">
        <ele>449</ele>
        <time>2016-08-07T08:13:24Z</time>
      </trkpt>
      <trkpt lat="43.58109" lon="3.30759">
        <ele>448.4</ele>
        <time>2016-08-07T08:13:41Z</time>
      </trkpt>
      <trkpt lat="43.58101" lon="3.30762">
        <ele>446.3</ele>
        <time>2016-08-07T08:13:42Z</time>
      </trkpt>
      <trkpt lat="43.58088" lon="3.30767">
        <ele>444.6</ele>
        <time>2016-08-07T08:13:44Z</time>
      </trkpt>
      <trkpt lat="43.5808" lon="3.30769">
        <ele>443.3</ele>
        <time>2016-08-07T08:13:45Z</time>
      </trkpt>
      <trkpt lat="43.58072" lon="3.30772">
        <ele>441.4</ele>
        <time>2016-08-07T08:13:46Z</time>
      </trkpt>
      <trkpt lat="43.58064" lon="3.30776">
        <ele>440.2</ele>
        <time>2016-08-07T08:13:47Z</time>
      </trkpt>
      <trkpt lat="43.58056" lon="3.3078">
        <ele>439</ele>
        <time>2016-08-07T08:13:48Z</time>
      </trkpt>
      <trkpt lat="43.5805" lon="3.30787">
        <ele>437.9</ele>
        <time>2016-08-07T08:13:49Z</time>
      </trkpt>
      <trkpt lat="43.58044" lon="3.30794">
        <ele>437.4</ele>
        <time>2016-08-07T08:13:50Z</time>
      </trkpt>
      <trkpt lat="43.5804" lon="3.30802">
        <ele>436.3</ele>
        <time>2016-08-07T08:13:51Z</time>
      </trkpt>
      <trkpt lat="43.58036" lon="3.30811">
        <ele>435.1</ele>
        <time>2016-08-07T08:13:52Z</time>
      </trkpt>
      <trkpt lat="43.58028" lon="3.30817">
        <ele>433.5</ele>
        <time>2016-08-07T08:13:53Z</time>
      </trkpt>
      <trkpt lat="43.58021" lon="3.30823">
        <ele>432.1</ele>
        <time>2016-08-07T08:13:54Z</time>
      </trkpt>
      <trkpt lat="43.58013" lon="3.30829">
        <ele>431.5</ele>
        <time>2016-08-07T08:13:55Z</time>
      </trkpt>
      <trkpt lat="43.58006" lon="3.30835">
        <ele>430.8</ele>
        <time>2016-08-07T08:13:56Z</time>
      </trkpt>
      <trkpt lat="43.57998" lon="3.30843">
        <ele>429.9</ele>
        <time>2016-08-07T08:13:57Z</time>
      </trkpt>
      <trkpt lat="43.57991" lon="3.30853">
        <ele>429.5</ele>
        <time>2016-08-07T08:13:58Z</time>
      </trkpt>
      <trkpt lat="43.57985" lon="3.30861">
        <ele>428.6</ele>
        <time>2016-08-07T08:13:59Z</time>
      </trkpt>
      <trkpt lat="43.5798" lon="3.30869">
        <ele>427.6</ele>
        <time>2016-08-07T08:14:00Z</time>
      </trkpt>
      <trkpt lat="43.57978" lon="3.30879">
        <ele>426.7</ele>
        <time>2016-08-07T08:14:01Z</time>
      </trkpt>
      <trkpt lat="43.57976" lon="3.3089">
        <ele>426.2</ele>
        <time>2016-08-07T08:14:02Z</time>
      </trkpt>
      <trkpt lat="43.57972" lon="3.309">
        <ele>425.3</ele>
        <time>2016-08-07T08:14:03Z</time>
      </trkpt>
      <trkpt lat="43.57967" lon="3.30908">
        <ele>424.1</ele>
        <time>2016-08-07T08:14:04Z</time>
      </trkpt>
      <trkpt lat="43.57962" lon="3.30917">
        <ele>422.5</ele>
        <time>2016-08-07T08:14:05Z</time>
      </trkpt>
      <trkpt lat="43.57956" lon="3.30927">
        <ele>421.7</ele>
        <time>2016-08-07T08:14:06Z</time>
      </trkpt>
      <trkpt lat="43.5795" lon="3.30936">
        <ele>421</ele>
        <time>2016-08-07T08:14:07Z</time>
      </trkpt>
      <trkpt lat="43.57943" lon="3.30945">
        <ele>420.6</ele>
        <time>2016-08-07T08:14:08Z</time>
      </trkpt>
      <trkpt lat="43.57937" lon="3.30962">
        <ele>420.5</ele>
        <time>2016-08-07T08:14:10Z</time>
      </trkpt>
      <trkpt lat="43.57936" lon="3.30979">
        <ele>419.9</ele>
        <time>2016-08-07T08:14:12Z</time>
      </trkpt>
      <trkpt lat="43.57935" lon="3.30996">
        <ele>419</ele>
        <time>2016-08-07T08:14:14Z</time>
      </trkpt>
      <trkpt lat="43.57931" lon="3.31013">
        <ele>418</ele>
        <time>2016-08-07T08:14:16Z</time>
      </trkpt>
      <trkpt lat="43.57929" lon="3.31023">
        <ele>418</ele>
        <time>2016-08-07T08:14:17Z</time>
      </trkpt>
      <trkpt lat="43.57929" lon="3.31032">
        <ele>418.3</ele>
        <time>2016-08-07T08:14:18Z</time>
      </trkpt>
      <trkpt lat="43.57927" lon="3.31043">
        <ele>418.4</ele>
        <time>2016-08-07T08:14:19Z</time>
      </trkpt>
      <trkpt lat="43.57924" lon="3.31061">
        <ele>418.7</ele>
        <time>2016-08-07T08:14:21Z</time>
      </trkpt>
      <trkpt lat="43.57926" lon="3.31078">
        <ele>418.9</ele>
        <time>2016-08-07T08:14:23Z</time>
      </trkpt>
      <trkpt lat="43.57924" lon="3.31095">
        <ele>419.4</ele>
        <time>2016-08-07T08:14:25Z</time>
      </trkpt>
      <trkpt lat="43.57923" lon="3.31108">
        <ele>419.4</ele>
        <time>2016-08-07T08:14:27Z</time>
      </trkpt>
      <trkpt lat="43.5792" lon="3.31123">
        <ele>419.9</ele>
        <time>2016-08-07T08:14:29Z</time>
      </trkpt>
      <trkpt lat="43.57918" lon="3.31135">
        <ele>419.9</ele>
        <time>2016-08-07T08:14:31Z</time>
      </trkpt>
      <trkpt lat="43.57919" lon="3.31147">
        <ele>419.1</ele>
        <time>2016-08-07T08:14:33Z</time>
      </trkpt>
      <trkpt lat="43.57919" lon="3.31164">
        <ele>417.8</ele>
        <time>2016-08-07T08:14:35Z</time>
      </trkpt>
      <trkpt lat="43.57916" lon="3.31173">
        <ele>416.9</ele>
        <time>2016-08-07T08:14:36Z</time>
      </trkpt>
      <trkpt lat="43.5791" lon="3.3119">
        <ele>416.9</ele>
        <time>2016-08-07T08:14:38Z</time>
      </trkpt>
      <trkpt lat="43.57903" lon="3.31204">
        <ele>417</ele>
        <time>2016-08-07T08:14:40Z</time>
      </trkpt>
      <trkpt lat="43.57895" lon="3.31218">
        <ele>416.4</ele>
        <time>2016-08-07T08:14:42Z</time>
      </trkpt>
      <trkpt lat="43.57891" lon="3.31226">
        <ele>417</ele>
        <time>2016-08-07T08:14:43Z</time>
      </trkpt>
      <trkpt lat="43.57885" lon="3.31234">
        <ele>416.9</ele>
        <time>2016-08-07T08:14:44Z</time>
      </trkpt>
      <trkpt lat="43.57874" lon="3.31245">
        <ele>416.7</ele>
        <time>2016-08-07T08:14:46Z</time>
      </trkpt>
      <trkpt lat="43.57864" lon="3.31256">
        <ele>416.9</ele>
        <time>2016-08-07T08:14:48Z</time>
      </trkpt>
      <trkpt lat="43.57858" lon="3.31262">
        <ele>416.7</ele>
        <time>2016-08-07T08:14:49Z</time>
      </trkpt>
      <trkpt lat="43.57853" lon="3.31269">
        <ele>416.2</ele>
        <time>2016-08-07T08:14:50Z</time>
      </trkpt>
      <trkpt lat="43.57843" lon="3.31279">
        <ele>416.6</ele>
        <time>2016-08-07T08:14:52Z</time>
      </trkpt>
      <trkpt lat="43.57833" lon="3.31289">
        <ele>415.8</ele>
        <time>2016-08-07T08:14:54Z</time>
      </trkpt>
      <trkpt lat="43.57824" lon="3.31302">
        <ele>414.7</ele>
        <time>2016-08-07T08:14:56Z</time>
      </trkpt>
      <trkpt lat="43.57813" lon="3.31313">
        <ele>413</ele>
        <time>2016-08-07T08:14:58Z</time>
      </trkpt>
      <trkpt lat="43.57806" lon="3.31328">
        <ele>411.7</ele>
        <time>2016-08-07T08:15:00Z</time>
      </trkpt>
      <trkpt lat="43.578" lon="3.31344">
        <ele>410.4</ele>
        <time>2016-08-07T08:15:02Z</time>
      </trkpt>
      <trkpt lat="43.57796" lon="3.31353">
        <ele>410.5</ele>
        <time>2016-08-07T08:15:03Z</time>
      </trkpt>
      <trkpt lat="43.57785" lon="3.31366">
        <ele>409.9</ele>
        <time>2016-08-07T08:15:05Z</time>
      </trkpt>
      <trkpt lat="43.57779" lon="3.31372">
        <ele>409.8</ele>
        <time>2016-08-07T08:15:06Z</time>
      </trkpt>
      <trkpt lat="43.57772" lon="3.31377">
        <ele>409.5</ele>
        <time>2016-08-07T08:15:07Z</time>
      </trkpt>
      <trkpt lat="43.57762" lon="3.31388">
        <ele>409.5</ele>
        <time>2016-08-07T08:15:09Z</time>
      </trkpt>
      <trkpt lat="43.57753" lon="3.314">
        <ele>409.1</ele>
        <time>2016-08-07T08:15:11Z</time>
      </trkpt>
      <trkpt lat="43.57746" lon="3.31409">
        <ele>408.8</ele>
        <time>2016-08-07T08:15:14Z</time>
      </trkpt>
      <trkpt lat="43.57742" lon="3.31417">
        <ele>409</ele>
        <time>2016-08-07T08:15:40Z</time>
      </trkpt>
      <trkpt lat="43.57734" lon="3.31427">
        <ele>409.3</ele>
        <time>2016-08-07T08:15:42Z</time>
      </trkpt>
      <trkpt lat="43.57728" lon="3.31436">
        <ele>409.3</ele>
        <time>2016-08-07T08:15:44Z</time>
      </trkpt>
      <trkpt lat="43.57724" lon="3.31445">
        <ele>409.4</ele>
        <time>2016-08-07T08:15:46Z</time>
      </trkpt>
      <trkpt lat="43.57718" lon="3.31454">
        <ele>409.8</ele>
        <time>2016-08-07T08:15:48Z</time>
      </trkpt>
      <trkpt lat="43.57711" lon="3.31464">
        <ele>409.5</ele>
        <time>2016-08-07T08:15:50Z</time>
      </trkpt>
      <trkpt lat="43.57703" lon="3.31469">
        <ele>409.4</ele>
        <time>2016-08-07T08:15:52Z</time>
      </trkpt>
      <trkpt lat="43.57694" lon="3.31476">
        <ele>409.2</ele>
        <time>2016-08-07T08:15:55Z</time>
      </trkpt>
      <trkpt lat="43.5769" lon="3.31484">
        <ele>409</ele>
        <time>2016-08-07T08:15:58Z</time>
      </trkpt>
      <trkpt lat="43.57685" lon="3.31492">
        <ele>409.1</ele>
        <time>2016-08-07T08:16:01Z</time>
      </trkpt>
      <trkpt lat="43.57677" lon="3.315">
        <ele>409.2</ele>
        <time>2016-08-07T08:16:04Z</time>
      </trkpt>
      <trkpt lat="43.57671" lon="3.31507">
        <ele>409.4</ele>
        <time>2016-08-07T08:16:07Z</time>
      </trkpt>
      <trkpt lat="43.57662" lon="3.31511">
        <ele>409.2</ele>
        <time>2016-08-07T08:16:13Z</time>
      </trkpt>
      <trkpt lat="43.57654" lon="3.31513">
        <ele>409.5</ele>
        <time>2016-08-07T08:16:20Z</time>
      </trkpt>
      <trkpt lat="43.57653" lon="3.31513">
        <ele>409.6</ele>
        <time>2016-08-07T08:16:27Z</time>
      </trkpt>
      <trkpt lat="43.57644" lon="3.31511">
        <ele>410.1</ele>
        <time>2016-08-07T08:16:32Z</time>
      </trkpt>
      <trkpt lat="43.57635" lon="3.31509">
        <ele>410.5</ele>
        <time>2016-08-07T08:16:35Z</time>
      </trkpt>
      <trkpt lat="43.57625" lon="3.31512">
        <ele>411.2</ele>
        <time>2016-08-07T08:16:37Z</time>
      </trkpt>
      <trkpt lat="43.57615" lon="3.31514">
        <ele>411.3</ele>
        <time>2016-08-07T08:16:39Z</time>
      </trkpt>
      <trkpt lat="43.57605" lon="3.31519">
        <ele>411.6</ele>
        <time>2016-08-07T08:16:41Z</time>
      </trkpt>
      <trkpt lat="43.57595" lon="3.31524">
        <ele>412</ele>
        <time>2016-08-07T08:16:43Z</time>
      </trkpt>
      <trkpt lat="43.57583" lon="3.31532">
        <ele>412.7</ele>
        <time>2016-08-07T08:16:45Z</time>
      </trkpt>
      <trkpt lat="43.57573" lon="3.3154">
        <ele>412.6</ele>
        <time>2016-08-07T08:16:47Z</time>
      </trkpt>
      <trkpt lat="43.57568" lon="3.31547">
        <ele>412.9</ele>
        <time>2016-08-07T08:16:48Z</time>
      </trkpt>
      <trkpt lat="43.57561" lon="3.31558">
        <ele>412.8</ele>
        <time>2016-08-07T08:16:50Z</time>
      </trkpt>
      <trkpt lat="43.57552" lon="3.31568">
        <ele>412.5</ele>
        <time>2016-08-07T08:16:52Z</time>
      </trkpt>
      <trkpt lat="43.57542" lon="3.31579">
        <ele>411.6</ele>
        <time>2016-08-07T08:16:54Z</time>
      </trkpt>
      <trkpt lat="43.57536" lon="3.31586">
        <ele>410.6</ele>
        <time>2016-08-07T08:16:55Z</time>
      </trkpt>
      <trkpt lat="43.5753" lon="3.31594">
        <ele>410</ele>
        <time>2016-08-07T08:16:56Z</time>
      </trkpt>
      <trkpt lat="43.57526" lon="3.31603">
        <ele>409.6</ele>
        <time>2016-08-07T08:16:57Z</time>
      </trkpt>
      <trkpt lat="43.5752" lon="3.31618">
        <ele>408.4</ele>
        <time>2016-08-07T08:16:59Z</time>
      </trkpt>
      <trkpt lat="43.57516" lon="3.31627">
        <ele>407.2</ele>
        <time>2016-08-07T08:17:00Z</time>
      </trkpt>
      <trkpt lat="43.57512" lon="3.31637">
        <ele>406.5</ele>
        <time>2016-08-07T08:17:01Z</time>
      </trkpt>
      <trkpt lat="43.57509" lon="3.31646">
        <ele>405.6</ele>
        <time>2016-08-07T08:17:02Z</time>
      </trkpt>
      <trkpt lat="43.57506" lon="3.31655">
        <ele>404.6</ele>
        <time>2016-08-07T08:17:03Z</time>
      </trkpt>
      <trkpt lat="43.57502" lon="3.31667">
        <ele>403.6</ele>
        <time>2016-08-07T08:17:04Z</time>
      </trkpt>
      <trkpt lat="43.57497" lon="3.31679">
        <ele>402.4</ele>
        <time>2016-08-07T08:17:05Z</time>
      </trkpt>
      <trkpt lat="43.57493" lon="3.31691">
        <ele>400.9</ele>
        <time>2016-08-07T08:17:06Z</time>
      </trkpt>
      <trkpt lat="43.5749" lon="3.31702">
        <ele>399.5</ele>
        <time>2016-08-07T08:17:07Z</time>
      </trkpt>
      <trkpt lat="43.57485" lon="3.31715">
        <ele>398.5</ele>
        <time>2016-08-07T08:17:08Z</time>
      </trkpt>
      <trkpt lat="43.5748" lon="3.31729">
        <ele>397.7</ele>
        <time>2016-08-07T08:17:09Z</time>
      </trkpt>
      <trkpt lat="43.57477" lon="3.31741">
        <ele>397</ele>
        <time>2016-08-07T08:17:10Z</time>
      </trkpt>
      <trkpt lat="43.57473" lon="3.31751">
        <ele>396.5</ele>
        <time>2016-08-07T08:17:11Z</time>
      </trkpt>
      <trkpt lat="43.5747" lon="3.31763">
        <ele>396.2</ele>
        <time>2016-08-07T08:17:12Z</time>
      </trkpt>
      <trkpt lat="43.57467" lon="3.31776">
        <ele>395.4</ele>
        <time>2016-08-07T08:17:13Z</time>
      </trkpt>
      <trkpt lat="43.57463" lon="3.31789">
        <ele>394.6</ele>
        <time>2016-08-07T08:17:14Z</time>
      </trkpt>
      <trkpt lat="43.57459" lon="3.318">
        <ele>393.2</ele>
        <time>2016-08-07T08:17:15Z</time>
      </trkpt>
      <trkpt lat="43.57456" lon="3.31812">
        <ele>392.3</ele>
        <time>2016-08-07T08:17:16Z</time>
      </trkpt>
      <trkpt lat="43.57451" lon="3.31823">
        <ele>391.5</ele>
        <time>2016-08-07T08:17:17Z</time>
      </trkpt>
      <trkpt lat="43.57447" lon="3.31831">
        <ele>391</ele>
        <time>2016-08-07T08:17:18Z</time>
      </trkpt>
      <trkpt lat="43.57444" lon="3.31845">
        <ele>391</ele>
        <time>2016-08-07T08:17:20Z</time>
      </trkpt>
      <trkpt lat="43.5744" lon="3.31854">
        <ele>390.9</ele>
        <time>2016-08-07T08:17:22Z</time>
      </trkpt>
      <trkpt lat="43.57435" lon="3.31858">
        <ele>390.5</ele>
        <time>2016-08-07T08:17:29Z</time>
      </trkpt>
      <trkpt lat="43.57436" lon="3.3187">
        <ele>389.2</ele>
        <time>2016-08-07T08:17:45Z</time>
      </trkpt>
      <trkpt lat="43.57441" lon="3.31881">
        <ele>388.5</ele>
        <time>2016-08-07T08:17:49Z</time>
      </trkpt>
      <trkpt lat="43.57447" lon="3.31893">
        <ele>386.7</ele>
        <time>2016-08-07T08:17:51Z</time>
      </trkpt>
      <trkpt lat="43.57454" lon="3.31906">
        <ele>384.6</ele>
        <time>2016-08-07T08:17:53Z</time>
      </trkpt>
      <trkpt lat="43.5746" lon="3.31923">
        <ele>381.6</ele>
        <time>2016-08-07T08:17:55Z</time>
      </trkpt>
      <trkpt lat="43.57466" lon="3.3194">
        <ele>378.6</ele>
        <time>2016-08-07T08:17:57Z</time>
      </trkpt>
      <trkpt lat="43.57472" lon="3.31956">
        <ele>376.7</ele>
        <time>2016-08-07T08:17:59Z</time>
      </trkpt>
      <trkpt lat="43.57477" lon="3.31971">
        <ele>373.9</ele>
        <time>2016-08-07T08:18:01Z</time>
      </trkpt>
      <trkpt lat="43.5748" lon="3.3199">
        <ele>372.2</ele>
        <time>2016-08-07T08:18:03Z</time>
      </trkpt>
      <trkpt lat="43.57485" lon="3.32007">
        <ele>369.7</ele>
        <time>2016-08-07T08:18:05Z</time>
      </trkpt>
      <trkpt lat="43.5749" lon="3.3202">
        <ele>366.8</ele>
        <time>2016-08-07T08:18:07Z</time>
      </trkpt>
      <trkpt lat="43.57494" lon="3.32031">
        <ele>365.7</ele>
        <time>2016-08-07T08:18:09Z</time>
      </trkpt>
      <trkpt lat="43.575" lon="3.32043">
        <ele>365.5</ele>
        <time>2016-08-07T08:18:11Z</time>
      </trkpt>
      <trkpt lat="43.57505" lon="3.32052">
        <ele>364.8</ele>
        <time>2016-08-07T08:18:12Z</time>
      </trkpt>
      <trkpt lat="43.57513" lon="3.32064">
        <ele>363.5</ele>
        <time>2016-08-07T08:18:14Z</time>
      </trkpt>
      <trkpt lat="43.5752" lon="3.32076">
        <ele>362</ele>
        <time>2016-08-07T08:18:16Z</time>
      </trkpt>
      <trkpt lat="43.57521" lon="3.32089">
        <ele>360</ele>
        <time>2016-08-07T08:18:20Z</time>
      </trkpt>
      <trkpt lat="43.57522" lon="3.32101">
        <ele>358</ele>
        <time>2016-08-07T08:18:57Z</time>
      </trkpt>
      <trkpt lat="43.57524" lon="3.32115">
        <ele>357.5</ele>
        <time>2016-08-07T08:19:01Z</time>
      </trkpt>
      <trkpt lat="43.57529" lon="3.32128">
        <ele>355</ele>
        <time>2016-08-07T08:19:03Z</time>
      </trkpt>
      <trkpt lat="43.57534" lon="3.32138">
        <ele>354.7</ele>
        <time>2016-08-07T08:19:05Z</time>
      </trkpt>
      <trkpt lat="43.57533" lon="3.32151">
        <ele>354.1</ele>
        <time>2016-08-07T08:19:08Z</time>
      </trkpt>
      <trkpt lat="43.57537" lon="3.32162">
        <ele>353.3</ele>
        <time>2016-08-07T08:19:11Z</time>
      </trkpt>
      <trkpt lat="43.57537" lon="3.32176">
        <ele>350.9</ele>
        <time>2016-08-07T08:19:13Z</time>
      </trkpt>
      <trkpt lat="43.57531" lon="3.32184">
        <ele>350.4</ele>
        <time>2016-08-07T08:19:15Z</time>
      </trkpt>
      <trkpt lat="43.57525" lon="3.32193">
        <ele>349.8</ele>
        <time>2016-08-07T08:19:18Z</time>
      </trkpt>
      <trkpt lat="43.57519" lon="3.32205">
        <ele>347.3</ele>
        <time>2016-08-07T08:19:20Z</time>
      </trkpt>
      <trkpt lat="43.57527" lon="3.32199">
        <ele>344.5</ele>
        <time>2016-08-07T08:19:27Z</time>
      </trkpt>
      <trkpt lat="43.57535" lon="3.32191">
        <ele>344.2</ele>
        <time>2016-08-07T08:19:29Z</time>
      </trkpt>
      <trkpt lat="43.57541" lon="3.32185">
        <ele>343.9</ele>
        <time>2016-08-07T08:19:31Z</time>
      </trkpt>
      <trkpt lat="43.57548" lon="3.32177">
        <ele>343.7</ele>
        <time>2016-08-07T08:19:33Z</time>
      </trkpt>
      <trkpt lat="43.57552" lon="3.32168">
        <ele>343.4</ele>
        <time>2016-08-07T08:19:35Z</time>
      </trkpt>
      <trkpt lat="43.5756" lon="3.3216">
        <ele>341.3</ele>
        <time>2016-08-07T08:19:37Z</time>
      </trkpt>
      <trkpt lat="43.57568" lon="3.32163">
        <ele>340.7</ele>
        <time>2016-08-07T08:19:40Z</time>
      </trkpt>
      <trkpt lat="43.57573" lon="3.32172">
        <ele>340.1</ele>
        <time>2016-08-07T08:19:43Z</time>
      </trkpt>
      <trkpt lat="43.57578" lon="3.32179">
        <ele>339.5</ele>
        <time>2016-08-07T08:19:47Z</time>
      </trkpt>
      <trkpt lat="43.57583" lon="3.32187">
        <ele>338.5</ele>
        <time>2016-08-07T08:19:52Z</time>
      </trkpt>
      <trkpt lat="43.57584" lon="3.32197">
        <ele>337.8</ele>
        <time>2016-08-07T08:19:56Z</time>
      </trkpt>
      <trkpt lat="43.57586" lon="3.32204">
        <ele>336.1</ele>
        <time>2016-08-07T08:20:03Z</time>
      </trkpt>
      <trkpt lat="43.57595" lon="3.32199">
        <ele>335.3</ele>
        <time>2016-08-07T08:20:06Z</time>
      </trkpt>
      <trkpt lat="43.57604" lon="3.32197">
        <ele>334.6</ele>
        <time>2016-08-07T08:20:09Z</time>
      </trkpt>
      <trkpt lat="43.57614" lon="3.322">
        <ele>333.8</ele>
        <time>2016-08-07T08:20:12Z</time>
      </trkpt>
      <trkpt lat="43.57622" lon="3.32202">
        <ele>333.3</ele>
        <time>2016-08-07T08:20:14Z</time>
      </trkpt>
      <trkpt lat="43.57629" lon="3.32204">
        <ele>332.8</ele>
        <time>2016-08-07T08:20:16Z</time>
      </trkpt>
      <trkpt lat="43.57639" lon="3.32204">
        <ele>328.6</ele>
        <time>2016-08-07T08:20:19Z</time>
      </trkpt>
      <trkpt lat="43.57653" lon="3.32205">
        <ele>323.3</ele>
        <time>2016-08-07T08:20:21Z</time>
      </trkpt>
      <trkpt lat="43.57667" lon="3.32203">
        <ele>319</ele>
        <time>2016-08-07T08:20:23Z</time>
      </trkpt>
      <trkpt lat="43.57675" lon="3.32202">
        <ele>316.5</ele>
        <time>2016-08-07T08:20:24Z</time>
      </trkpt>
      <trkpt lat="43.57684" lon="3.32203">
        <ele>314</ele>
        <time>2016-08-07T08:20:26Z</time>
      </trkpt>
      <trkpt lat="43.5769" lon="3.32201">
        <ele>313.2</ele>
        <time>2016-08-07T08:20:33Z</time>
      </trkpt>
      <trkpt lat="43.57689" lon="3.32216">
        <ele>312.5</ele>
        <time>2016-08-07T08:20:41Z</time>
      </trkpt>
      <trkpt lat="43.57685" lon="3.32228">
        <ele>312.1</ele>
        <time>2016-08-07T08:20:45Z</time>
      </trkpt>
      <trkpt lat="43.57683" lon="3.3224">
        <ele>311.9</ele>
        <time>2016-08-07T08:20:48Z</time>
      </trkpt>
      <trkpt lat="43.5768" lon="3.32249">
        <ele>311.5</ele>
        <time>2016-08-07T08:20:51Z</time>
      </trkpt>
      <trkpt lat="43.57675" lon="3.32257">
        <ele>311.2</ele>
        <time>2016-08-07T08:20:53Z</time>
      </trkpt>
      <trkpt lat="43.5767" lon="3.32266">
        <ele>310.7</ele>
        <time>2016-08-07T08:20:56Z</time>
      </trkpt>
      <trkpt lat="43.57663" lon="3.32276">
        <ele>309.9</ele>
        <time>2016-08-07T08:20:59Z</time>
      </trkpt>
      <trkpt lat="43.57657" lon="3.32282">
        <ele>309.4</ele>
        <time>2016-08-07T08:21:02Z</time>
      </trkpt>
      <trkpt lat="43.5765" lon="3.32289">
        <ele>305.6</ele>
        <time>2016-08-07T08:21:04Z</time>
      </trkpt>
      <trkpt lat="43.57643" lon="3.32296">
        <ele>303.9</ele>
        <time>2016-08-07T08:21:06Z</time>
      </trkpt>
      <trkpt lat="43.57636" lon="3.32303">
        <ele>302.5</ele>
        <time>2016-08-07T08:21:08Z</time>
      </trkpt>
      <trkpt lat="43.5763" lon="3.32312">
        <ele>302.3</ele>
        <time>2016-08-07T08:21:10Z</time>
      </trkpt>
      <trkpt lat="43.57623" lon="3.32323">
        <ele>302.3</ele>
        <time>2016-08-07T08:21:12Z</time>
      </trkpt>
      <trkpt lat="43.57616" lon="3.32333">
        <ele>301.6</ele>
        <time>2016-08-07T08:21:14Z</time>
      </trkpt>
      <trkpt lat="43.57611" lon="3.32344">
        <ele>301.2</ele>
        <time>2016-08-07T08:21:16Z</time>
      </trkpt>
      <trkpt lat="43.57603" lon="3.32354">
        <ele>301.4</ele>
        <time>2016-08-07T08:21:19Z</time>
      </trkpt>
      <trkpt lat="43.57596" lon="3.3236">
        <ele>301.5</ele>
        <time>2016-08-07T08:21:22Z</time>
      </trkpt>
      <trkpt lat="43.57589" lon="3.32367">
        <ele>301.9</ele>
        <time>2016-08-07T08:21:26Z</time>
      </trkpt>
      <trkpt lat="43.57583" lon="3.32375">
        <ele>302.3</ele>
        <time>2016-08-07T08:21:29Z</time>
      </trkpt>
      <trkpt lat="43.57578" lon="3.32381">
        <ele>302.5</ele>
        <time>2016-08-07T08:21:32Z</time>
      </trkpt>
      <trkpt lat="43.57571" lon="3.32388">
        <ele>302.8</ele>
        <time>2016-08-07T08:21:36Z</time>
      </trkpt>
      <trkpt lat="43.57564" lon="3.32394">
        <ele>303.2</ele>
        <time>2016-08-07T08:21:40Z</time>
      </trkpt>
      <trkpt lat="43.57557" lon="3.32403">
        <ele>303.6</ele>
        <time>2016-08-07T08:21:44Z</time>
      </trkpt>
      <trkpt lat="43.57549" lon="3.3241">
        <ele>304.1</ele>
        <time>2016-08-07T08:21:48Z</time>
      </trkpt>
      <trkpt lat="43.57543" lon="3.32417">
        <ele>304.7</ele>
        <time>2016-08-07T08:21:52Z</time>
      </trkpt>
      <trkpt lat="43.57535" lon="3.32425">
        <ele>305.5</ele>
        <time>2016-08-07T08:21:57Z</time>
      </trkpt>
      <trkpt lat="43.5753" lon="3.32432">
        <ele>306</ele>
        <time>2016-08-07T08:22:00Z</time>
      </trkpt>
      <trkpt lat="43.57524" lon="3.32438">
        <ele>306.5</ele>
        <time>2016-08-07T08:22:03Z</time>
      </trkpt>
      <trkpt lat="43.57518" lon="3.32446">
        <ele>307.2</ele>
        <time>2016-08-07T08:22:08Z</time>
      </trkpt>
      <trkpt lat="43.57513" lon="3.32452">
        <ele>307.8</ele>
        <time>2016-08-07T08:22:13Z</time>
      </trkpt>
      <trkpt lat="43.57506" lon="3.32458">
        <ele>308.2</ele>
        <time>2016-08-07T08:22:17Z</time>
      </trkpt>
      <trkpt lat="43.575" lon="3.32465">
        <ele>308.6</ele>
        <time>2016-08-07T08:22:21Z</time>
      </trkpt>
      <trkpt lat="43.57493" lon="3.32472">
        <ele>309.1</ele>
        <time>2016-08-07T08:22:26Z</time>
      </trkpt>
      <trkpt lat="43.57487" lon="3.32478">
        <ele>309.6</ele>
        <time>2016-08-07T08:22:30Z</time>
      </trkpt>
      <trkpt lat="43.5748" lon="3.32484">
        <ele>309.9</ele>
        <time>2016-08-07T08:22:34Z</time>
      </trkpt>
      <trkpt lat="43.57473" lon="3.32489">
        <ele>310.4</ele>
        <time>2016-08-07T08:22:39Z</time>
      </trkpt>
      <trkpt lat="43.5747" lon="3.32499">
        <ele>311.5</ele>
        <time>2016-08-07T08:22:46Z</time>
      </trkpt>
      <trkpt lat="43.57476" lon="3.32492">
        <ele>312.2</ele>
        <time>2016-08-07T08:22:51Z</time>
      </trkpt>
      <trkpt lat="43.5748" lon="3.32484">
        <ele>312.7</ele>
        <time>2016-08-07T08:22:54Z</time>
      </trkpt>
      <trkpt lat="43.57489" lon="3.32479">
        <ele>313.6</ele>
        <time>2016-08-07T08:22:58Z</time>
      </trkpt>
      <trkpt lat="43.57496" lon="3.32478">
        <ele>313.8</ele>
        <time>2016-08-07T08:23:02Z</time>
      </trkpt>
      <trkpt lat="43.57503" lon="3.32474">
        <ele>314.1</ele>
        <time>2016-08-07T08:23:06Z</time>
      </trkpt>
      <trkpt lat="43.57511" lon="3.32469">
        <ele>314.5</ele>
        <time>2016-08-07T08:23:09Z</time>
      </trkpt>
      <trkpt lat="43.5752" lon="3.32466">
        <ele>315.4</ele>
        <time>2016-08-07T08:23:13Z</time>
      </trkpt>
      <trkpt lat="43.57528" lon="3.32463">
        <ele>316.4</ele>
        <time>2016-08-07T08:23:18Z</time>
      </trkpt>
      <trkpt lat="43.57536" lon="3.3246">
        <ele>317.1</ele>
        <time>2016-08-07T08:23:23Z</time>
      </trkpt>
      <trkpt lat="43.57544" lon="3.32457">
        <ele>317.8</ele>
        <time>2016-08-07T08:23:28Z</time>
      </trkpt>
      <trkpt lat="43.57552" lon="3.32454">
        <ele>318.7</ele>
        <time>2016-08-07T08:23:35Z</time>
      </trkpt>
      <trkpt lat="43.57559" lon="3.32452">
        <ele>319.3</ele>
        <time>2016-08-07T08:23:39Z</time>
      </trkpt>
      <trkpt lat="43.57566" lon="3.32451">
        <ele>319.8</ele>
        <time>2016-08-07T08:23:43Z</time>
      </trkpt>
      <trkpt lat="43.57575" lon="3.32448">
        <ele>320.2</ele>
        <time>2016-08-07T08:23:48Z</time>
      </trkpt>
      <trkpt lat="43.57581" lon="3.32444">
        <ele>320.6</ele>
        <time>2016-08-07T08:23:51Z</time>
      </trkpt>
      <trkpt lat="43.5759" lon="3.32441">
        <ele>321.3</ele>
        <time>2016-08-07T08:23:55Z</time>
      </trkpt>
      <trkpt lat="43.57597" lon="3.32437">
        <ele>321.9</ele>
        <time>2016-08-07T08:23:59Z</time>
      </trkpt>
      <trkpt lat="43.57605" lon="3.32435">
        <ele>322.8</ele>
        <time>2016-08-07T08:24:03Z</time>
      </trkpt>
      <trkpt lat="43.57612" lon="3.32433">
        <ele>323.5</ele>
        <time>2016-08-07T08:24:06Z</time>
      </trkpt>
      <trkpt lat="43.57619" lon="3.3243">
        <ele>324.2</ele>
        <time>2016-08-07T08:24:09Z</time>
      </trkpt>
      <trkpt lat="43.57628" lon="3.32436">
        <ele>325.2</ele>
        <time>2016-08-07T08:24:13Z</time>
      </trkpt>
      <trkpt lat="43.57636" lon="3.32438">
        <ele>325.9</ele>
        <time>2016-08-07T08:24:16Z</time>
      </trkpt>
      <trkpt lat="43.57643" lon="3.3243">
        <ele>327</ele>
        <time>2016-08-07T08:24:23Z</time>
      </trkpt>
      <trkpt lat="43.57647" lon="3.32423">
        <ele>327.3</ele>
        <time>2016-08-07T08:24:28Z</time>
      </trkpt>
      <trkpt lat="43.57653" lon="3.32416">
        <ele>327.4</ele>
        <time>2016-08-07T08:24:32Z</time>
      </trkpt>
      <trkpt lat="43.57658" lon="3.32407">
        <ele>327.4</ele>
        <time>2016-08-07T08:24:35Z</time>
      </trkpt>
      <trkpt lat="43.57663" lon="3.32399">
        <ele>327.6</ele>
        <time>2016-08-07T08:24:37Z</time>
      </trkpt>
      <trkpt lat="43.57669" lon="3.32392">
        <ele>328.1</ele>
        <time>2016-08-07T08:24:40Z</time>
      </trkpt>
      <trkpt lat="43.57675" lon="3.32382">
        <ele>328.6</ele>
        <time>2016-08-07T08:24:44Z</time>
      </trkpt>
      <trkpt lat="43.57681" lon="3.32374">
        <ele>329.4</ele>
        <time>2016-08-07T08:24:48Z</time>
      </trkpt>
      <trkpt lat="43.57688" lon="3.32363">
        <ele>330.4</ele>
        <time>2016-08-07T08:24:52Z</time>
      </trkpt>
      <trkpt lat="43.57695" lon="3.32354">
        <ele>331.4</ele>
        <time>2016-08-07T08:24:56Z</time>
      </trkpt>
      <trkpt lat="43.57704" lon="3.32348">
        <ele>332.3</ele>
        <time>2016-08-07T08:25:00Z</time>
      </trkpt>
      <trkpt lat="43.57712" lon="3.32342">
        <ele>332.8</ele>
        <time>2016-08-07T08:25:04Z</time>
      </trkpt>
      <trkpt lat="43.5772" lon="3.32336">
        <ele>333.4</ele>
        <time>2016-08-07T08:25:08Z</time>
      </trkpt>
      <trkpt lat="43.57728" lon="3.3233">
        <ele>334</ele>
        <time>2016-08-07T08:25:12Z</time>
      </trkpt>
      <trkpt lat="43.57736" lon="3.32323">
        <ele>334.7</ele>
        <time>2016-08-07T08:25:16Z</time>
      </trkpt>
      <trkpt lat="43.57743" lon="3.32319">
        <ele>335.3</ele>
        <time>2016-08-07T08:25:20Z</time>
      </trkpt>
      <trkpt lat="43.5775" lon="3.32314">
        <ele>335.7</ele>
        <time>2016-08-07T08:25:23Z</time>
      </trkpt>
      <trkpt lat="43.57758" lon="3.32309">
        <ele>336.3</ele>
        <time>2016-08-07T08:25:27Z</time>
      </trkpt>
      <trkpt lat="43.57764" lon="3.32305">
        <ele>337</ele>
        <time>2016-08-07T08:25:31Z</time>
      </trkpt>
      <trkpt lat="43.57773" lon="3.323">
        <ele>337.6</ele>
        <time>2016-08-07T08:25:35Z</time>
      </trkpt>
      <trkpt lat="43.57781" lon="3.32299">
        <ele>338.1</ele>
        <time>2016-08-07T08:25:39Z</time>
      </trkpt>
      <trkpt lat="43.57788" lon="3.32299">
        <ele>338.4</ele>
        <time>2016-08-07T08:25:42Z</time>
      </trkpt>
      <trkpt lat="43.57797" lon="3.32299">
        <ele>338.9</ele>
        <time>2016-08-07T08:25:45Z</time>
      </trkpt>
      <trkpt lat="43.57805" lon="3.323">
        <ele>339.2</ele>
        <time>2016-08-07T08:25:48Z</time>
      </trkpt>
      <trkpt lat="43.57815" lon="3.32301">
        <ele>339.9</ele>
        <time>2016-08-07T08:25:52Z</time>
      </trkpt>
      <trkpt lat="43.57822" lon="3.32302">
        <ele>340.6</ele>
        <time>2016-08-07T08:25:55Z</time>
      </trkpt>
      <trkpt lat="43.5783" lon="3.32305">
        <ele>341.7</ele>
        <time>2016-08-07T08:25:59Z</time>
      </trkpt>
      <trkpt lat="43.57838" lon="3.32308">
        <ele>342.8</ele>
        <time>2016-08-07T08:26:03Z</time>
      </trkpt>
      <trkpt lat="43.57846" lon="3.32314">
        <ele>343.9</ele>
        <time>2016-08-07T08:26:07Z</time>
      </trkpt>
      <trkpt lat="43.57853" lon="3.32318">
        <ele>344.9</ele>
        <time>2016-08-07T08:26:11Z</time>
      </trkpt>
      <trkpt lat="43.5786" lon="3.32324">
        <ele>346.1</ele>
        <time>2016-08-07T08:26:15Z</time>
      </trkpt>
      <trkpt lat="43.57866" lon="3.32329">
        <ele>347.5</ele>
        <time>2016-08-07T08:26:19Z</time>
      </trkpt>
      <trkpt lat="43.57873" lon="3.32333">
        <ele>348.9</ele>
        <time>2016-08-07T08:26:23Z</time>
      </trkpt>
      <trkpt lat="43.57878" lon="3.32334">
        <ele>350.8</ele>
        <time>2016-08-07T08:26:30Z</time>
      </trkpt>
      <trkpt lat="43.57879" lon="3.3233">
        <ele>352.3</ele>
        <time>2016-08-07T08:26:37Z</time>
      </trkpt>
      <trkpt lat="43.57877" lon="3.32315">
        <ele>352.8</ele>
        <time>2016-08-07T08:26:41Z</time>
      </trkpt>
      <trkpt lat="43.57874" lon="3.32303">
        <ele>352.9</ele>
        <time>2016-08-07T08:26:44Z</time>
      </trkpt>
      <trkpt lat="43.57874" lon="3.32288">
        <ele>352.7</ele>
        <time>2016-08-07T08:26:47Z</time>
      </trkpt>
      <trkpt lat="43.57876" lon="3.32276">
        <ele>352.6</ele>
        <time>2016-08-07T08:26:50Z</time>
      </trkpt>
      <trkpt lat="43.5788" lon="3.32265">
        <ele>352.4</ele>
        <time>2016-08-07T08:26:52Z</time>
      </trkpt>
      <trkpt lat="43.57886" lon="3.32253">
        <ele>352.3</ele>
        <time>2016-08-07T08:26:55Z</time>
      </trkpt>
      <trkpt lat="43.57891" lon="3.32244">
        <ele>352.5</ele>
        <time>2016-08-07T08:26:58Z</time>
      </trkpt>
      <trkpt lat="43.57898" lon="3.32235">
        <ele>352.6</ele>
        <time>2016-08-07T08:27:01Z</time>
      </trkpt>
      <trkpt lat="43.57905" lon="3.32225">
        <ele>352.8</ele>
        <time>2016-08-07T08:27:04Z</time>
      </trkpt>
      <trkpt lat="43.57911" lon="3.32219">
        <ele>353</ele>
        <time>2016-08-07T08:27:07Z</time>
      </trkpt>
      <trkpt lat="43.57915" lon="3.32206">
        <ele>353</ele>
        <time>2016-08-07T08:27:11Z</time>
      </trkpt>
      <trkpt lat="43.57916" lon="3.32196">
        <ele>353.2</ele>
        <time>2016-08-07T08:27:16Z</time>
      </trkpt>
      <trkpt lat="43.57912" lon="3.32187">
        <ele>353.3</ele>
        <time>2016-08-07T08:27:19Z</time>
      </trkpt>
      <trkpt lat="43.57908" lon="3.32176">
        <ele>353.5</ele>
        <time>2016-08-07T08:27:22Z</time>
      </trkpt>
      <trkpt lat="43.57907" lon="3.32165">
        <ele>353.4</ele>
        <time>2016-08-07T08:27:25Z</time>
      </trkpt>
      <trkpt lat="43.57907" lon="3.32154">
        <ele>353.7</ele>
        <time>2016-08-07T08:27:28Z</time>
      </trkpt>
      <trkpt lat="43.57909" lon="3.3214">
        <ele>353.7</ele>
        <time>2016-08-07T08:27:31Z</time>
      </trkpt>
      <trkpt lat="43.57914" lon="3.32128">
        <ele>353.7</ele>
        <time>2016-08-07T08:27:34Z</time>
      </trkpt>
      <trkpt lat="43.5792" lon="3.32117">
        <ele>353.8</ele>
        <time>2016-08-07T08:27:38Z</time>
      </trkpt>
      <trkpt lat="43.57926" lon="3.3211">
        <ele>353.9</ele>
        <time>2016-08-07T08:27:42Z</time>
      </trkpt>
      <trkpt lat="43.57934" lon="3.32101">
        <ele>354</ele>
        <time>2016-08-07T08:27:46Z</time>
      </trkpt>
      <trkpt lat="43.5794" lon="3.32094">
        <ele>354.2</ele>
        <time>2016-08-07T08:27:49Z</time>
      </trkpt>
      <trkpt lat="43.57945" lon="3.32087">
        <ele>354.4</ele>
        <time>2016-08-07T08:27:52Z</time>
      </trkpt>
      <trkpt lat="43.5795" lon="3.32077">
        <ele>354.9</ele>
        <time>2016-08-07T08:27:56Z</time>
      </trkpt>
      <trkpt lat="43.57956" lon="3.3207">
        <ele>355.1</ele>
        <time>2016-08-07T08:27:59Z</time>
      </trkpt>
      <trkpt lat="43.57964" lon="3.32062">
        <ele>355.2</ele>
        <time>2016-08-07T08:28:02Z</time>
      </trkpt>
      <trkpt lat="43.57971" lon="3.32055">
        <ele>355.4</ele>
        <time>2016-08-07T08:28:06Z</time>
      </trkpt>
      <trkpt lat="43.57979" lon="3.32049">
        <ele>355.7</ele>
        <time>2016-08-07T08:28:10Z</time>
      </trkpt>
      <trkpt lat="43.57986" lon="3.32044">
        <ele>356</ele>
        <time>2016-08-07T08:28:13Z</time>
      </trkpt>
      <trkpt lat="43.57993" lon="3.32038">
        <ele>356.7</ele>
        <time>2016-08-07T08:28:18Z</time>
      </trkpt>
      <trkpt lat="43.57999" lon="3.32032">
        <ele>356.8</ele>
        <time>2016-08-07T08:28:21Z</time>
      </trkpt>
      <trkpt lat="43.58005" lon="3.32024">
        <ele>357.1</ele>
        <time>2016-08-07T08:28:25Z</time>
      </trkpt>
      <trkpt lat="43.58012" lon="3.32015">
        <ele>357.7</ele>
        <time>2016-08-07T08:28:29Z</time>
      </trkpt>
      <trkpt lat="43.5802" lon="3.32007">
        <ele>358.4</ele>
        <time>2016-08-07T08:28:33Z</time>
      </trkpt>
      <trkpt lat="43.58026" lon="3.32002">
        <ele>358.9</ele>
        <time>2016-08-07T08:28:36Z</time>
      </trkpt>
      <trkpt lat="43.58033" lon="3.31999">
        <ele>359.4</ele>
        <time>2016-08-07T08:28:39Z</time>
      </trkpt>
      <trkpt lat="43.58042" lon="3.31997">
        <ele>360.2</ele>
        <time>2016-08-07T08:28:43Z</time>
      </trkpt>
      <trkpt lat="43.58051" lon="3.31997">
        <ele>360.9</ele>
        <time>2016-08-07T08:28:47Z</time>
      </trkpt>
      <trkpt lat="43.5806" lon="3.32">
        <ele>361.6</ele>
        <time>2016-08-07T08:28:51Z</time>
      </trkpt>
      <trkpt lat="43.58068" lon="3.32004">
        <ele>362.3</ele>
        <time>2016-08-07T08:28:55Z</time>
      </trkpt>
      <trkpt lat="43.58075" lon="3.32007">
        <ele>363.2</ele>
        <time>2016-08-07T08:28:59Z</time>
      </trkpt>
      <trkpt lat="43.58083" lon="3.32009">
        <ele>364.1</ele>
        <time>2016-08-07T08:29:03Z</time>
      </trkpt>
      <trkpt lat="43.58091" lon="3.3201">
        <ele>364.8</ele>
        <time>2016-08-07T08:29:07Z</time>
      </trkpt>
      <trkpt lat="43.581" lon="3.32013">
        <ele>365.6</ele>
        <time>2016-08-07T08:29:11Z</time>
      </trkpt>
      <trkpt lat="43.58108" lon="3.32013">
        <ele>366.5</ele>
        <time>2016-08-07T08:29:16Z</time>
      </trkpt>
      <trkpt lat="43.58116" lon="3.32013">
        <ele>367.4</ele>
        <time>2016-08-07T08:29:20Z</time>
      </trkpt>
      <trkpt lat="43.58125" lon="3.32009">
        <ele>368.6</ele>
        <time>2016-08-07T08:29:26Z</time>
      </trkpt>
      <trkpt lat="43.58132" lon="3.32006">
        <ele>369.2</ele>
        <time>2016-08-07T08:29:29Z</time>
      </trkpt>
      <trkpt lat="43.5814" lon="3.32008">
        <ele>370.2</ele>
        <time>2016-08-07T08:29:33Z</time>
      </trkpt>
      <trkpt lat="43.58136" lon="3.32019">
        <ele>371</ele>
        <time>2016-08-07T08:29:37Z</time>
      </trkpt>
      <trkpt lat="43.58128" lon="3.32024">
        <ele>371.8</ele>
        <time>2016-08-07T08:29:41Z</time>
      </trkpt>
      <trkpt lat="43.5812" lon="3.32027">
        <ele>372.6</ele>
        <time>2016-08-07T08:29:45Z</time>
      </trkpt>
      <trkpt lat="43.58112" lon="3.32033">
        <ele>373.3</ele>
        <time>2016-08-07T08:29:49Z</time>
      </trkpt>
      <trkpt lat="43.58105" lon="3.32037">
        <ele>373.8</ele>
        <time>2016-08-07T08:29:52Z</time>
      </trkpt>
      <trkpt lat="43.58097" lon="3.32043">
        <ele>374.4</ele>
        <time>2016-08-07T08:29:56Z</time>
      </trkpt>
      <trkpt lat="43.5809" lon="3.32047">
        <ele>375</ele>
        <time>2016-08-07T08:29:59Z</time>
      </trkpt>
      <trkpt lat="43.58082" lon="3.3205">
        <ele>375.6</ele>
        <time>2016-08-07T08:30:02Z</time>
      </trkpt>
      <trkpt lat="43.58073" lon="3.32054">
        <ele>376.2</ele>
        <time>2016-08-07T08:30:05Z</time>
      </trkpt>
      <trkpt lat="43.58065" lon="3.32059">
        <ele>376.9</ele>
        <time>2016-08-07T08:30:08Z</time>
      </trkpt>
      <trkpt lat="43.58057" lon="3.32065">
        <ele>377.5</ele>
        <time>2016-08-07T08:30:11Z</time>
      </trkpt>
      <trkpt lat="43.5805" lon="3.32073">
        <ele>378</ele>
        <time>2016-08-07T08:30:14Z</time>
      </trkpt>
      <trkpt lat="43.58044" lon="3.32082">
        <ele>378.3</ele>
        <time>2016-08-07T08:30:17Z</time>
      </trkpt>
      <trkpt lat="43.58039" lon="3.32092">
        <ele>378.7</ele>
        <time>2016-08-07T08:30:20Z</time>
      </trkpt>
      <trkpt lat="43.58034" lon="3.321">
        <ele>379.2</ele>
        <time>2016-08-07T08:30:23Z</time>
      </trkpt>
      <trkpt lat="43.58029" lon="3.32109">
        <ele>379.9</ele>
        <time>2016-08-07T08:30:26Z</time>
      </trkpt>
      <trkpt lat="43.58025" lon="3.32118">
        <ele>380.4</ele>
        <time>2016-08-07T08:30:28Z</time>
      </trkpt>
      <trkpt lat="43.58021" lon="3.32129">
        <ele>380.9</ele>
        <time>2016-08-07T08:30:31Z</time>
      </trkpt>
      <trkpt lat="43.58018" lon="3.32139">
        <ele>381.5</ele>
        <time>2016-08-07T08:30:35Z</time>
      </trkpt>
      <trkpt lat="43.58015" lon="3.3215">
        <ele>382.1</ele>
        <time>2016-08-07T08:30:38Z</time>
      </trkpt>
      <trkpt lat="43.58012" lon="3.3216">
        <ele>382.5</ele>
        <time>2016-08-07T08:30:40Z</time>
      </trkpt>
      <trkpt lat="43.58009" lon="3.32172">
        <ele>382.8</ele>
        <time>2016-08-07T08:30:43Z</time>
      </trkpt>
      <trkpt lat="43.58006" lon="3.32183">
        <ele>383.1</ele>
        <time>2016-08-07T08:30:46Z</time>
      </trkpt>
      <trkpt lat="43.58003" lon="3.32196">
        <ele>383.3</ele>
        <time>2016-08-07T08:30:50Z</time>
      </trkpt>
      <trkpt lat="43.58003" lon="3.32209">
        <ele>383.5</ele>
        <time>2016-08-07T08:30:53Z</time>
      </trkpt>
      <trkpt lat="43.58001" lon="3.32222">
        <ele>383.8</ele>
        <time>2016-08-07T08:30:56Z</time>
      </trkpt>
      <trkpt lat="43.58" lon="3.32234">
        <ele>384</ele>
        <time>2016-08-07T08:30:59Z</time>
      </trkpt>
      <trkpt lat="43.57999" lon="3.32244">
        <ele>384.1</ele>
        <time>2016-08-07T08:31:01Z</time>
      </trkpt>
      <trkpt lat="43.57997" lon="3.32257">
        <ele>384.6</ele>
        <time>2016-08-07T08:31:05Z</time>
      </trkpt>
      <trkpt lat="43.57995" lon="3.32268">
        <ele>384.8</ele>
        <time>2016-08-07T08:31:08Z</time>
      </trkpt>
      <trkpt lat="43.57992" lon="3.32278">
        <ele>384.9</ele>
        <time>2016-08-07T08:31:11Z</time>
      </trkpt>
      <trkpt lat="43.57988" lon="3.32289">
        <ele>385.1</ele>
        <time>2016-08-07T08:31:14Z</time>
      </trkpt>
      <trkpt lat="43.57985" lon="3.323">
        <ele>385.3</ele>
        <time>2016-08-07T08:31:17Z</time>
      </trkpt>
      <trkpt lat="43.57983" lon="3.3231">
        <ele>385.6</ele>
        <time>2016-08-07T08:31:20Z</time>
      </trkpt>
      <trkpt lat="43.57982" lon="3.32322">
        <ele>386.2</ele>
        <time>2016-08-07T08:31:24Z</time>
      </trkpt>
      <trkpt lat="43.57981" lon="3.32333">
        <ele>386.6</ele>
        <time>2016-08-07T08:31:28Z</time>
      </trkpt>
      <trkpt lat="43.57979" lon="3.32344">
        <ele>387.3</ele>
        <time>2016-08-07T08:31:31Z</time>
      </trkpt>
      <trkpt lat="43.57977" lon="3.32357">
        <ele>388.1</ele>
        <time>2016-08-07T08:31:35Z</time>
      </trkpt>
      <trkpt lat="43.57977" lon="3.32367">
        <ele>388.7</ele>
        <time>2016-08-07T08:31:38Z</time>
      </trkpt>
      <trkpt lat="43.57977" lon="3.32379">
        <ele>389.3</ele>
        <time>2016-08-07T08:31:41Z</time>
      </trkpt>
      <trkpt lat="43.57976" lon="3.3239">
        <ele>389.9</ele>
        <time>2016-08-07T08:31:44Z</time>
      </trkpt>
      <trkpt lat="43.57974" lon="3.32402">
        <ele>390.5</ele>
        <time>2016-08-07T08:31:47Z</time>
      </trkpt>
      <trkpt lat="43.57972" lon="3.32413">
        <ele>391.1</ele>
        <time>2016-08-07T08:31:50Z</time>
      </trkpt>
      <trkpt lat="43.57968" lon="3.32424">
        <ele>391.8</ele>
        <time>2016-08-07T08:31:54Z</time>
      </trkpt>
      <trkpt lat="43.57965" lon="3.32434">
        <ele>392.6</ele>
        <time>2016-08-07T08:31:58Z</time>
      </trkpt>
      <trkpt lat="43.57962" lon="3.32444">
        <ele>393.4</ele>
        <time>2016-08-07T08:32:03Z</time>
      </trkpt>
      <trkpt lat="43.57957" lon="3.32455">
        <ele>394.2</ele>
        <time>2016-08-07T08:32:08Z</time>
      </trkpt>
      <trkpt lat="43.57951" lon="3.32463">
        <ele>394.9</ele>
        <time>2016-08-07T08:32:12Z</time>
      </trkpt>
      <trkpt lat="43.57946" lon="3.3247">
        <ele>395.2</ele>
        <time>2016-08-07T08:32:15Z</time>
      </trkpt>
      <trkpt lat="43.57939" lon="3.3248">
        <ele>395.4</ele>
        <time>2016-08-07T08:32:18Z</time>
      </trkpt>
      <trkpt lat="43.57931" lon="3.32489">
        <ele>395.7</ele>
        <time>2016-08-07T08:32:21Z</time>
      </trkpt>
      <trkpt lat="43.57925" lon="3.32494">
        <ele>396.4</ele>
        <time>2016-08-07T08:32:23Z</time>
      </trkpt>
      <trkpt lat="43.57918" lon="3.32499">
        <ele>396.6</ele>
        <time>2016-08-07T08:32:25Z</time>
      </trkpt>
      <trkpt lat="43.57909" lon="3.32506">
        <ele>397</ele>
        <time>2016-08-07T08:32:28Z</time>
      </trkpt>
      <trkpt lat="43.579" lon="3.3251">
        <ele>397.2</ele>
        <time>2016-08-07T08:32:31Z</time>
      </trkpt>
      <trkpt lat="43.57892" lon="3.32514">
        <ele>397.6</ele>
        <time>2016-08-07T08:32:34Z</time>
      </trkpt>
      <trkpt lat="43.57885" lon="3.32518">
        <ele>397.9</ele>
        <time>2016-08-07T08:32:37Z</time>
      </trkpt>
      <trkpt lat="43.57876" lon="3.32521">
        <ele>398.2</ele>
        <time>2016-08-07T08:32:40Z</time>
      </trkpt>
      <trkpt lat="43.57867" lon="3.32524">
        <ele>398.5</ele>
        <time>2016-08-07T08:32:43Z</time>
      </trkpt>
      <trkpt lat="43.57858" lon="3.32527">
        <ele>398.8</ele>
        <time>2016-08-07T08:32:46Z</time>
      </trkpt>
      <trkpt lat="43.5785" lon="3.32531">
        <ele>399.2</ele>
        <time>2016-08-07T08:32:49Z</time>
      </trkpt>
      <trkpt lat="43.57843" lon="3.32536">
        <ele>399.6</ele>
        <time>2016-08-07T08:32:52Z</time>
      </trkpt>
      <trkpt lat="43.57834" lon="3.32538">
        <ele>400.1</ele>
        <time>2016-08-07T08:32:55Z</time>
      </trkpt>
      <trkpt lat="43.57826" lon="3.32542">
        <ele>400.6</ele>
        <time>2016-08-07T08:32:58Z</time>
      </trkpt>
      <trkpt lat="43.57819" lon="3.32545">
        <ele>400.9</ele>
        <time>2016-08-07T08:33:01Z</time>
      </trkpt>
      <trkpt lat="43.57813" lon="3.32554">
        <ele>401.7</ele>
        <time>2016-08-07T08:33:06Z</time>
      </trkpt>
      <trkpt lat="43.57813" lon="3.32556">
        <ele>402.5</ele>
        <time>2016-08-07T08:33:13Z</time>
      </trkpt>
      <trkpt lat="43.57815" lon="3.32557">
        <ele>403.4</ele>
        <time>2016-08-07T08:33:23Z</time>
      </trkpt>
      <trkpt lat="43.57812" lon="3.3256">
        <ele>405.5</ele>
        <time>2016-08-07T08:34:52Z</time>
      </trkpt>
      <trkpt lat="43.57805" lon="3.32562">
        <ele>406.7</ele>
        <time>2016-08-07T08:35:19Z</time>
      </trkpt>
      <trkpt lat="43.57798" lon="3.32568">
        <ele>407</ele>
        <time>2016-08-07T08:35:21Z</time>
      </trkpt>
      <trkpt lat="43.57791" lon="3.32575">
        <ele>407.5</ele>
        <time>2016-08-07T08:35:23Z</time>
      </trkpt>
      <trkpt lat="43.57783" lon="3.32584">
        <ele>408.1</ele>
        <time>2016-08-07T08:35:25Z</time>
      </trkpt>
      <trkpt lat="43.57775" lon="3.32594">
        <ele>409.3</ele>
        <time>2016-08-07T08:35:27Z</time>
      </trkpt>
      <trkpt lat="43.57769" lon="3.32606">
        <ele>408.9</ele>
        <time>2016-08-07T08:35:29Z</time>
      </trkpt>
      <trkpt lat="43.57764" lon="3.32617">
        <ele>408.2</ele>
        <time>2016-08-07T08:35:31Z</time>
      </trkpt>
      <trkpt lat="43.57757" lon="3.3263">
        <ele>407.3</ele>
        <time>2016-08-07T08:35:33Z</time>
      </trkpt>
      <trkpt lat="43.5775" lon="3.32643">
        <ele>406</ele>
        <time>2016-08-07T08:35:35Z</time>
      </trkpt>
      <trkpt lat="43.57741" lon="3.32658">
        <ele>405.2</ele>
        <time>2016-08-07T08:35:37Z</time>
      </trkpt>
      <trkpt lat="43.5773" lon="3.32671">
        <ele>404.7</ele>
        <time>2016-08-07T08:35:39Z</time>
      </trkpt>
      <trkpt lat="43.57718" lon="3.3268">
        <ele>403.7</ele>
        <time>2016-08-07T08:35:41Z</time>
      </trkpt>
      <trkpt lat="43.57706" lon="3.32688">
        <ele>403</ele>
        <time>2016-08-07T08:35:43Z</time>
      </trkpt>
      <trkpt lat="43.57694" lon="3.32694">
        <ele>402.1</ele>
        <time>2016-08-07T08:35:45Z</time>
      </trkpt>
      <trkpt lat="43.57681" lon="3.327">
        <ele>401.4</ele>
        <time>2016-08-07T08:35:47Z</time>
      </trkpt>
      <trkpt lat="43.57675" lon="3.32704">
        <ele>401.3</ele>
        <time>2016-08-07T08:35:48Z</time>
      </trkpt>
      <trkpt lat="43.57668" lon="3.32708">
        <ele>401</ele>
        <time>2016-08-07T08:35:49Z</time>
      </trkpt>
      <trkpt lat="43.57661" lon="3.32713">
        <ele>401.5</ele>
        <time>2016-08-07T08:35:50Z</time>
      </trkpt>
      <trkpt lat="43.57654" lon="3.32717">
        <ele>401.7</ele>
        <time>2016-08-07T08:35:51Z</time>
      </trkpt>
      <trkpt lat="43.57645" lon="3.32722">
        <ele>401.6</ele>
        <time>2016-08-07T08:35:52Z</time>
      </trkpt>
      <trkpt lat="43.57637" lon="3.32727">
        <ele>401.5</ele>
        <time>2016-08-07T08:35:53Z</time>
      </trkpt>
      <trkpt lat="43.5763" lon="3.32731">
        <ele>401.3</ele>
        <time>2016-08-07T08:35:54Z</time>
      </trkpt>
      <trkpt lat="43.57622" lon="3.32735">
        <ele>401.1</ele>
        <time>2016-08-07T08:35:55Z</time>
      </trkpt>
      <trkpt lat="43.57612" lon="3.32741">
        <ele>400.4</ele>
        <time>2016-08-07T08:35:57Z</time>
      </trkpt>
      <trkpt lat="43.57601" lon="3.32745">
        <ele>399.7</ele>
        <time>2016-08-07T08:35:59Z</time>
      </trkpt>
      <trkpt lat="43.57591" lon="3.3275">
        <ele>399.1</ele>
        <time>2016-08-07T08:36:01Z</time>
      </trkpt>
      <trkpt lat="43.57584" lon="3.32756">
        <ele>398.6</ele>
        <time>2016-08-07T08:36:05Z</time>
      </trkpt>
      <trkpt lat="43.57578" lon="3.3276">
        <ele>398.1</ele>
        <time>2016-08-07T08:36:07Z</time>
      </trkpt>
      <trkpt lat="43.57571" lon="3.32771">
        <ele>393.5</ele>
        <time>2016-08-07T08:36:09Z</time>
      </trkpt>
      <trkpt lat="43.57565" lon="3.32779">
        <ele>391.9</ele>
        <time>2016-08-07T08:36:10Z</time>
      </trkpt>
      <trkpt lat="43.5756" lon="3.32786">
        <ele>390.3</ele>
        <time>2016-08-07T08:36:11Z</time>
      </trkpt>
      <trkpt lat="43.57554" lon="3.32794">
        <ele>388.8</ele>
        <time>2016-08-07T08:36:12Z</time>
      </trkpt>
      <trkpt lat="43.57547" lon="3.328">
        <ele>387.8</ele>
        <time>2016-08-07T08:36:13Z</time>
      </trkpt>
      <trkpt lat="43.5754" lon="3.32808">
        <ele>386.5</ele>
        <time>2016-08-07T08:36:14Z</time>
      </trkpt>
      <trkpt lat="43.57533" lon="3.32817">
        <ele>385.4</ele>
        <time>2016-08-07T08:36:15Z</time>
      </trkpt>
      <trkpt lat="43.57525" lon="3.32825">
        <ele>384.2</ele>
        <time>2016-08-07T08:36:16Z</time>
      </trkpt>
      <trkpt lat="43.57517" lon="3.32832">
        <ele>382.9</ele>
        <time>2016-08-07T08:36:17Z</time>
      </trkpt>
      <trkpt lat="43.57509" lon="3.3284">
        <ele>380.9</ele>
        <time>2016-08-07T08:36:18Z</time>
      </trkpt>
      <trkpt lat="43.57501" lon="3.32847">
        <ele>379.9</ele>
        <time>2016-08-07T08:36:19Z</time>
      </trkpt>
      <trkpt lat="43.57495" lon="3.32854">
        <ele>379.2</ele>
        <time>2016-08-07T08:36:20Z</time>
      </trkpt>
      <trkpt lat="43.57487" lon="3.32861">
        <ele>378.1</ele>
        <time>2016-08-07T08:36:21Z</time>
      </trkpt>
      <trkpt lat="43.5748" lon="3.32869">
        <ele>377.1</ele>
        <time>2016-08-07T08:36:22Z</time>
      </trkpt>
      <trkpt lat="43.57474" lon="3.32876">
        <ele>375.5</ele>
        <time>2016-08-07T08:36:23Z</time>
      </trkpt>
      <trkpt lat="43.57466" lon="3.32888">
        <ele>373.6</ele>
        <time>2016-08-07T08:36:25Z</time>
      </trkpt>
      <trkpt lat="43.5746" lon="3.32894">
        <ele>372.6</ele>
        <time>2016-08-07T08:36:26Z</time>
      </trkpt>
      <trkpt lat="43.57449" lon="3.32905">
        <ele>371</ele>
        <time>2016-08-07T08:36:28Z</time>
      </trkpt>
      <trkpt lat="43.57439" lon="3.32917">
        <ele>369.4</ele>
        <time>2016-08-07T08:36:30Z</time>
      </trkpt>
      <trkpt lat="43.57431" lon="3.3293">
        <ele>368.5</ele>
        <time>2016-08-07T08:36:32Z</time>
      </trkpt>
      <trkpt lat="43.57427" lon="3.32946">
        <ele>366.7</ele>
        <time>2016-08-07T08:36:34Z</time>
      </trkpt>
      <trkpt lat="43.57419" lon="3.32959">
        <ele>364</ele>
        <time>2016-08-07T08:36:36Z</time>
      </trkpt>
      <trkpt lat="43.57418" lon="3.32973">
        <ele>362.3</ele>
        <time>2016-08-07T08:36:38Z</time>
      </trkpt>
      <trkpt lat="43.57411" lon="3.32983">
        <ele>361</ele>
        <time>2016-08-07T08:36:40Z</time>
      </trkpt>
      <trkpt lat="43.57407" lon="3.32995">
        <ele>360.4</ele>
        <time>2016-08-07T08:36:42Z</time>
      </trkpt>
      <trkpt lat="43.57404" lon="3.33006">
        <ele>360.2</ele>
        <time>2016-08-07T08:36:44Z</time>
      </trkpt>
      <trkpt lat="43.57401" lon="3.33015">
        <ele>359.4</ele>
        <time>2016-08-07T08:36:51Z</time>
      </trkpt>
      <trkpt lat="43.574" lon="3.33025">
        <ele>358.9</ele>
        <time>2016-08-07T08:36:53Z</time>
      </trkpt>
      <trkpt lat="43.57396" lon="3.33036">
        <ele>358.4</ele>
        <time>2016-08-07T08:36:55Z</time>
      </trkpt>
      <trkpt lat="43.57392" lon="3.33044">
        <ele>357.9</ele>
        <time>2016-08-07T08:36:57Z</time>
      </trkpt>
      <trkpt lat="43.57388" lon="3.33058">
        <ele>357.1</ele>
        <time>2016-08-07T08:37:00Z</time>
      </trkpt>
      <trkpt lat="43.57383" lon="3.33068">
        <ele>356.6</ele>
        <time>2016-08-07T08:37:02Z</time>
      </trkpt>
      <trkpt lat="43.57382" lon="3.3307">
        <ele>354.8</ele>
        <time>2016-08-07T08:37:09Z</time>
      </trkpt>
      <trkpt lat="43.57373" lon="3.33076">
        <ele>354.3</ele>
        <time>2016-08-07T08:37:11Z</time>
      </trkpt>
      <trkpt lat="43.57367" lon="3.33085">
        <ele>351.2</ele>
        <time>2016-08-07T08:37:15Z</time>
      </trkpt>
      <trkpt lat="43.57365" lon="3.33095">
        <ele>350.5</ele>
        <time>2016-08-07T08:37:17Z</time>
      </trkpt>
      <trkpt lat="43.57361" lon="3.33106">
        <ele>346.2</ele>
        <time>2016-08-07T08:37:19Z</time>
      </trkpt>
      <trkpt lat="43.57359" lon="3.33116">
        <ele>345.5</ele>
        <time>2016-08-07T08:37:21Z</time>
      </trkpt>
      <trkpt lat="43.57355" lon="3.33132">
        <ele>340.1</ele>
        <time>2016-08-07T08:37:23Z</time>
      </trkpt>
      <trkpt lat="43.5735" lon="3.3314">
        <ele>338.3</ele>
        <time>2016-08-07T08:37:24Z</time>
      </trkpt>
      <trkpt lat="43.57341" lon="3.33156">
        <ele>334.8</ele>
        <time>2016-08-07T08:37:26Z</time>
      </trkpt>
      <trkpt lat="43.57336" lon="3.33163">
        <ele>333.3</ele>
        <time>2016-08-07T08:37:27Z</time>
      </trkpt>
      <trkpt lat="43.57331" lon="3.33171">
        <ele>331.3</ele>
        <time>2016-08-07T08:37:28Z</time>
      </trkpt>
      <trkpt lat="43.57321" lon="3.33188">
        <ele>328.1</ele>
        <time>2016-08-07T08:37:30Z</time>
      </trkpt>
      <trkpt lat="43.57312" lon="3.33203">
        <ele>325</ele>
        <time>2016-08-07T08:37:32Z</time>
      </trkpt>
      <trkpt lat="43.57307" lon="3.33212">
        <ele>323.1</ele>
        <time>2016-08-07T08:37:33Z</time>
      </trkpt>
      <trkpt lat="43.57303" lon="3.3322">
        <ele>321.6</ele>
        <time>2016-08-07T08:37:34Z</time>
      </trkpt>
      <trkpt lat="43.57299" lon="3.33229">
        <ele>319.9</ele>
        <time>2016-08-07T08:37:35Z</time>
      </trkpt>
      <trkpt lat="43.57296" lon="3.3324">
        <ele>318.3</ele>
        <time>2016-08-07T08:37:36Z</time>
      </trkpt>
      <trkpt lat="43.57292" lon="3.33255">
        <ele>316.5</ele>
        <time>2016-08-07T08:37:38Z</time>
      </trkpt>
      <trkpt lat="43.57292" lon="3.33269">
        <ele>314.2</ele>
        <time>2016-08-07T08:37:40Z</time>
      </trkpt>
      <trkpt lat="43.57288" lon="3.33285">
        <ele>310.4</ele>
        <time>2016-08-07T08:37:42Z</time>
      </trkpt>
      <trkpt lat="43.57282" lon="3.333">
        <ele>308.2</ele>
        <time>2016-08-07T08:37:44Z</time>
      </trkpt>
      <trkpt lat="43.57273" lon="3.33316">
        <ele>305.9</ele>
        <time>2016-08-07T08:37:46Z</time>
      </trkpt>
      <trkpt lat="43.57268" lon="3.33324">
        <ele>304.5</ele>
        <time>2016-08-07T08:37:47Z</time>
      </trkpt>
      <trkpt lat="43.57259" lon="3.33336">
        <ele>301.7</ele>
        <time>2016-08-07T08:37:49Z</time>
      </trkpt>
      <trkpt lat="43.57252" lon="3.33345">
        <ele>299.7</ele>
        <time>2016-08-07T08:37:51Z</time>
      </trkpt>
      <trkpt lat="43.57245" lon="3.33356">
        <ele>298.9</ele>
        <time>2016-08-07T08:37:53Z</time>
      </trkpt>
      <trkpt lat="43.5724" lon="3.3336">
        <ele>298.6</ele>
        <time>2016-08-07T08:38:00Z</time>
      </trkpt>
      <trkpt lat="43.57235" lon="3.33368">
        <ele>297.1</ele>
        <time>2016-08-07T08:40:27Z</time>
      </trkpt>
      <trkpt lat="43.57233" lon="3.33382">
        <ele>295.1</ele>
        <time>2016-08-07T08:40:30Z</time>
      </trkpt>
      <trkpt lat="43.57231" lon="3.33396">
        <ele>291.8</ele>
        <time>2016-08-07T08:40:32Z</time>
      </trkpt>
      <trkpt lat="43.57229" lon="3.33412">
        <ele>289.2</ele>
        <time>2016-08-07T08:40:34Z</time>
      </trkpt>
      <trkpt lat="43.57227" lon="3.33422">
        <ele>288.9</ele>
        <time>2016-08-07T08:40:35Z</time>
      </trkpt>
      <trkpt lat="43.57226" lon="3.33432">
        <ele>288.3</ele>
        <time>2016-08-07T08:40:36Z</time>
      </trkpt>
      <trkpt lat="43.57225" lon="3.33445">
        <ele>287.6</ele>
        <time>2016-08-07T08:40:37Z</time>
      </trkpt>
      <trkpt lat="43.57224" lon="3.33457">
        <ele>287</ele>
        <time>2016-08-07T08:40:38Z</time>
      </trkpt>
      <trkpt lat="43.57224" lon="3.33468">
        <ele>285.8</ele>
        <time>2016-08-07T08:40:39Z</time>
      </trkpt>
      <trkpt lat="43.57223" lon="3.33482">
        <ele>285.5</ele>
        <time>2016-08-07T08:40:40Z</time>
      </trkpt>
      <trkpt lat="43.57222" lon="3.33495">
        <ele>284.6</ele>
        <time>2016-08-07T08:40:41Z</time>
      </trkpt>
      <trkpt lat="43.57222" lon="3.33507">
        <ele>284.2</ele>
        <time>2016-08-07T08:40:42Z</time>
      </trkpt>
      <trkpt lat="43.57222" lon="3.33519">
        <ele>284.4</ele>
        <time>2016-08-07T08:40:43Z</time>
      </trkpt>
      <trkpt lat="43.57222" lon="3.33529">
        <ele>284.4</ele>
        <time>2016-08-07T08:40:44Z</time>
      </trkpt>
      <trkpt lat="43.57221" lon="3.33544">
        <ele>284.8</ele>
        <time>2016-08-07T08:40:46Z</time>
      </trkpt>
      <trkpt lat="43.57221" lon="3.33557">
        <ele>284.6</ele>
        <time>2016-08-07T08:40:48Z</time>
      </trkpt>
      <trkpt lat="43.5722" lon="3.33567">
        <ele>284.7</ele>
        <time>2016-08-07T08:40:50Z</time>
      </trkpt>
      <trkpt lat="43.57218" lon="3.33577">
        <ele>284.9</ele>
        <time>2016-08-07T08:40:52Z</time>
      </trkpt>
      <trkpt lat="43.57216" lon="3.33587">
        <ele>285.3</ele>
        <time>2016-08-07T08:40:55Z</time>
      </trkpt>
      <trkpt lat="43.57217" lon="3.33598">
        <ele>285.7</ele>
        <time>2016-08-07T08:40:59Z</time>
      </trkpt>
      <trkpt lat="43.5722" lon="3.3361">
        <ele>286.2</ele>
        <time>2016-08-07T08:41:03Z</time>
      </trkpt>
      <trkpt lat="43.57223" lon="3.33619">
        <ele>287.2</ele>
        <time>2016-08-07T08:41:08Z</time>
      </trkpt>
      <trkpt lat="43.5723" lon="3.33627">
        <ele>288.3</ele>
        <time>2016-08-07T08:41:14Z</time>
      </trkpt>
      <trkpt lat="43.57235" lon="3.33634">
        <ele>289.7</ele>
        <time>2016-08-07T08:41:19Z</time>
      </trkpt>
      <trkpt lat="43.57241" lon="3.33641">
        <ele>290.9</ele>
        <time>2016-08-07T08:41:24Z</time>
      </trkpt>
      <trkpt lat="43.57248" lon="3.33647">
        <ele>292</ele>
        <time>2016-08-07T08:41:28Z</time>
      </trkpt>
      <trkpt lat="43.57256" lon="3.3365">
        <ele>293.1</ele>
        <time>2016-08-07T08:41:32Z</time>
      </trkpt>
      <trkpt lat="43.57263" lon="3.33652">
        <ele>293.9</ele>
        <time>2016-08-07T08:41:35Z</time>
      </trkpt>
      <trkpt lat="43.57272" lon="3.33654">
        <ele>294.9</ele>
        <time>2016-08-07T08:41:39Z</time>
      </trkpt>
      <trkpt lat="43.57281" lon="3.33653">
        <ele>295.6</ele>
        <time>2016-08-07T08:41:43Z</time>
      </trkpt>
      <trkpt lat="43.5729" lon="3.33652">
        <ele>295.9</ele>
        <time>2016-08-07T08:41:47Z</time>
      </trkpt>
      <trkpt lat="43.57298" lon="3.3365">
        <ele>296</ele>
        <time>2016-08-07T08:41:50Z</time>
      </trkpt>
      <trkpt lat="43.57307" lon="3.33646">
        <ele>296.2</ele>
        <time>2016-08-07T08:41:53Z</time>
      </trkpt>
      <trkpt lat="43.57315" lon="3.33643">
        <ele>296.5</ele>
        <time>2016-08-07T08:41:56Z</time>
      </trkpt>
      <trkpt lat="43.57323" lon="3.33641">
        <ele>296.8</ele>
        <time>2016-08-07T08:41:59Z</time>
      </trkpt>
      <trkpt lat="43.5733" lon="3.33638">
        <ele>297.2</ele>
        <time>2016-08-07T08:42:02Z</time>
      </trkpt>
      <trkpt lat="43.57341" lon="3.33636">
        <ele>297.5</ele>
        <time>2016-08-07T08:42:05Z</time>
      </trkpt>
      <trkpt lat="43.57351" lon="3.33634">
        <ele>297.7</ele>
        <time>2016-08-07T08:42:08Z</time>
      </trkpt>
      <trkpt lat="43.57359" lon="3.33633">
        <ele>298.1</ele>
        <time>2016-08-07T08:42:11Z</time>
      </trkpt>
      <trkpt lat="43.57366" lon="3.33631">
        <ele>298.3</ele>
        <time>2016-08-07T08:42:13Z</time>
      </trkpt>
      <trkpt lat="43.57375" lon="3.33628">
        <ele>298.9</ele>
        <time>2016-08-07T08:42:16Z</time>
      </trkpt>
      <trkpt lat="43.57383" lon="3.33624">
        <ele>301.1</ele>
        <time>2016-08-07T08:42:18Z</time>
      </trkpt>
      <trkpt lat="43.5739" lon="3.33618">
        <ele>302.2</ele>
        <time>2016-08-07T08:42:20Z</time>
      </trkpt>
      <trkpt lat="43.57396" lon="3.33612">
        <ele>302.3</ele>
        <time>2016-08-07T08:42:22Z</time>
      </trkpt>
      <trkpt lat="43.57403" lon="3.33603">
        <ele>302.6</ele>
        <time>2016-08-07T08:42:24Z</time>
      </trkpt>
      <trkpt lat="43.57411" lon="3.33591">
        <ele>303.1</ele>
        <time>2016-08-07T08:42:26Z</time>
      </trkpt>
      <trkpt lat="43.57418" lon="3.3358">
        <ele>303.3</ele>
        <time>2016-08-07T08:42:28Z</time>
      </trkpt>
      <trkpt lat="43.57426" lon="3.33566">
        <ele>303.2</ele>
        <time>2016-08-07T08:42:30Z</time>
      </trkpt>
      <trkpt lat="43.57434" lon="3.33555">
        <ele>304.1</ele>
        <time>2016-08-07T08:42:32Z</time>
      </trkpt>
      <trkpt lat="43.57441" lon="3.33547">
        <ele>304.7</ele>
        <time>2016-08-07T08:42:34Z</time>
      </trkpt>
      <trkpt lat="43.57451" lon="3.33541">
        <ele>305.4</ele>
        <time>2016-08-07T08:42:37Z</time>
      </trkpt>
      <trkpt lat="43.57461" lon="3.33533">
        <ele>305.2</ele>
        <time>2016-08-07T08:42:39Z</time>
      </trkpt>
      <trkpt lat="43.5747" lon="3.33526">
        <ele>305.8</ele>
        <time>2016-08-07T08:42:41Z</time>
      </trkpt>
      <trkpt lat="43.57476" lon="3.33521">
        <ele>305.8</ele>
        <time>2016-08-07T08:42:43Z</time>
      </trkpt>
      <trkpt lat="43.57484" lon="3.33518">
        <ele>305.9</ele>
        <time>2016-08-07T08:42:45Z</time>
      </trkpt>
      <trkpt lat="43.57492" lon="3.33514">
        <ele>306.1</ele>
        <time>2016-08-07T08:42:48Z</time>
      </trkpt>
      <trkpt lat="43.57499" lon="3.33511">
        <ele>306.2</ele>
        <time>2016-08-07T08:42:50Z</time>
      </trkpt>
      <trkpt lat="43.5751" lon="3.33508">
        <ele>305.5</ele>
        <time>2016-08-07T08:42:52Z</time>
      </trkpt>
      <trkpt lat="43.57518" lon="3.33506">
        <ele>305</ele>
        <time>2016-08-07T08:42:53Z</time>
      </trkpt>
      <trkpt lat="43.57525" lon="3.33504">
        <ele>304.5</ele>
        <time>2016-08-07T08:42:54Z</time>
      </trkpt>
      <trkpt lat="43.57539" lon="3.335">
        <ele>304.1</ele>
        <time>2016-08-07T08:42:56Z</time>
      </trkpt>
      <trkpt lat="43.57546" lon="3.33497">
        <ele>304.4</ele>
        <time>2016-08-07T08:42:57Z</time>
      </trkpt>
      <trkpt lat="43.57553" lon="3.33492">
        <ele>304.4</ele>
        <time>2016-08-07T08:42:58Z</time>
      </trkpt>
      <trkpt lat="43.5756" lon="3.33488">
        <ele>304.9</ele>
        <time>2016-08-07T08:42:59Z</time>
      </trkpt>
      <trkpt lat="43.57567" lon="3.33482">
        <ele>305</ele>
        <time>2016-08-07T08:43:00Z</time>
      </trkpt>
      <trkpt lat="43.57576" lon="3.33474">
        <ele>305.1</ele>
        <time>2016-08-07T08:43:02Z</time>
      </trkpt>
      <trkpt lat="43.57584" lon="3.33467">
        <ele>305.5</ele>
        <time>2016-08-07T08:43:04Z</time>
      </trkpt>
      <trkpt lat="43.57591" lon="3.33461">
        <ele>305.6</ele>
        <time>2016-08-07T08:43:06Z</time>
      </trkpt>
      <trkpt lat="43.57599" lon="3.33454">
        <ele>305.6</ele>
        <time>2016-08-07T08:43:08Z</time>
      </trkpt>
      <trkpt lat="43.57606" lon="3.33449">
        <ele>305.7</ele>
        <time>2016-08-07T08:43:11Z</time>
      </trkpt>
      <trkpt lat="43.57616" lon="3.33449">
        <ele>306.1</ele>
        <time>2016-08-07T08:43:16Z</time>
      </trkpt>
      <trkpt lat="43.57624" lon="3.33454">
        <ele>306.5</ele>
        <time>2016-08-07T08:43:19Z</time>
      </trkpt>
      <trkpt lat="43.57634" lon="3.33458">
        <ele>306.9</ele>
        <time>2016-08-07T08:43:22Z</time>
      </trkpt>
      <trkpt lat="43.5764" lon="3.33468">
        <ele>307.1</ele>
        <time>2016-08-07T08:43:25Z</time>
      </trkpt>
      <trkpt lat="43.57643" lon="3.3348">
        <ele>307</ele>
        <time>2016-08-07T08:43:28Z</time>
      </trkpt>
      <trkpt lat="43.57646" lon="3.33494">
        <ele>306.8</ele>
        <time>2016-08-07T08:43:31Z</time>
      </trkpt>
      <trkpt lat="43.57651" lon="3.33503">
        <ele>306.6</ele>
        <time>2016-08-07T08:43:34Z</time>
      </trkpt>
      <trkpt lat="43.57657" lon="3.33512">
        <ele>306.7</ele>
        <time>2016-08-07T08:43:38Z</time>
      </trkpt>
      <trkpt lat="43.57664" lon="3.3352">
        <ele>306.9</ele>
        <time>2016-08-07T08:43:42Z</time>
      </trkpt>
      <trkpt lat="43.57672" lon="3.33522">
        <ele>306.9</ele>
        <time>2016-08-07T08:43:45Z</time>
      </trkpt>
      <trkpt lat="43.57683" lon="3.33519">
        <ele>306.9</ele>
        <time>2016-08-07T08:43:48Z</time>
      </trkpt>
      <trkpt lat="43.57692" lon="3.33514">
        <ele>306.8</ele>
        <time>2016-08-07T08:43:51Z</time>
      </trkpt>
      <trkpt lat="43.577" lon="3.33506">
        <ele>306.7</ele>
        <time>2016-08-07T08:43:54Z</time>
      </trkpt>
      <trkpt lat="43.57705" lon="3.33499">
        <ele>306.6</ele>
        <time>2016-08-07T08:43:56Z</time>
      </trkpt>
      <trkpt lat="43.57711" lon="3.33491">
        <ele>306.1</ele>
        <time>2016-08-07T08:43:58Z</time>
      </trkpt>
      <trkpt lat="43.57718" lon="3.33482">
        <ele>306.2</ele>
        <time>2016-08-07T08:44:01Z</time>
      </trkpt>
      <trkpt lat="43.57724" lon="3.33475">
        <ele>306.3</ele>
        <time>2016-08-07T08:44:03Z</time>
      </trkpt>
      <trkpt lat="43.57732" lon="3.33466">
        <ele>306.8</ele>
        <time>2016-08-07T08:44:05Z</time>
      </trkpt>
      <trkpt lat="43.5774" lon="3.33458">
        <ele>306.8</ele>
        <time>2016-08-07T08:44:07Z</time>
      </trkpt>
      <trkpt lat="43.57749" lon="3.33449">
        <ele>307.6</ele>
        <time>2016-08-07T08:44:09Z</time>
      </trkpt>
      <trkpt lat="43.57756" lon="3.33442">
        <ele>307.5</ele>
        <time>2016-08-07T08:44:11Z</time>
      </trkpt>
      <trkpt lat="43.57765" lon="3.33434">
        <ele>307.2</ele>
        <time>2016-08-07T08:44:13Z</time>
      </trkpt>
      <trkpt lat="43.57773" lon="3.33429">
        <ele>306.7</ele>
        <time>2016-08-07T08:44:15Z</time>
      </trkpt>
      <trkpt lat="43.57783" lon="3.33423">
        <ele>306.3</ele>
        <time>2016-08-07T08:44:17Z</time>
      </trkpt>
      <trkpt lat="43.57794" lon="3.33416">
        <ele>305.4</ele>
        <time>2016-08-07T08:44:19Z</time>
      </trkpt>
      <trkpt lat="43.57803" lon="3.3341">
        <ele>304.3</ele>
        <time>2016-08-07T08:44:21Z</time>
      </trkpt>
      <trkpt lat="43.57812" lon="3.33407">
        <ele>304.6</ele>
        <time>2016-08-07T08:44:23Z</time>
      </trkpt>
      <trkpt lat="43.57821" lon="3.33402">
        <ele>305</ele>
        <time>2016-08-07T08:44:25Z</time>
      </trkpt>
      <trkpt lat="43.57829" lon="3.33396">
        <ele>304.9</ele>
        <time>2016-08-07T08:44:27Z</time>
      </trkpt>
      <trkpt lat="43.57837" lon="3.33389">
        <ele>304.5</ele>
        <time>2016-08-07T08:44:29Z</time>
      </trkpt>
      <trkpt lat="43.57845" lon="3.33382">
        <ele>304.1</ele>
        <time>2016-08-07T08:44:31Z</time>
      </trkpt>
      <trkpt lat="43.57851" lon="3.33375">
        <ele>304</ele>
        <time>2016-08-07T08:44:33Z</time>
      </trkpt>
      <trkpt lat="43.57857" lon="3.33368">
        <ele>303.3</ele>
        <time>2016-08-07T08:44:35Z</time>
      </trkpt>
      <trkpt lat="43.57863" lon="3.33357">
        <ele>304.2</ele>
        <time>2016-08-07T08:44:37Z</time>
      </trkpt>
      <trkpt lat="43.57868" lon="3.33346">
        <ele>304</ele>
        <time>2016-08-07T08:44:39Z</time>
      </trkpt>
      <trkpt lat="43.57872" lon="3.33336">
        <ele>304</ele>
        <time>2016-08-07T08:44:41Z</time>
      </trkpt>
      <trkpt lat="43.57875" lon="3.33324">
        <ele>304.2</ele>
        <time>2016-08-07T08:44:44Z</time>
      </trkpt>
      <trkpt lat="43.57878" lon="3.33311">
        <ele>304.4</ele>
        <time>2016-08-07T08:44:47Z</time>
      </trkpt>
      <trkpt lat="43.57882" lon="3.33301">
        <ele>304.7</ele>
        <time>2016-08-07T08:44:50Z</time>
      </trkpt>
      <trkpt lat="43.57888" lon="3.33291">
        <ele>305</ele>
        <time>2016-08-07T08:44:53Z</time>
      </trkpt>
      <trkpt lat="43.57894" lon="3.33283">
        <ele>305.6</ele>
        <time>2016-08-07T08:44:56Z</time>
      </trkpt>
      <trkpt lat="43.57898" lon="3.33275">
        <ele>306.2</ele>
        <time>2016-08-07T08:44:59Z</time>
      </trkpt>
      <trkpt lat="43.57903" lon="3.33266">
        <ele>306.9</ele>
        <time>2016-08-07T08:45:02Z</time>
      </trkpt>
      <trkpt lat="43.57907" lon="3.33257">
        <ele>307.6</ele>
        <time>2016-08-07T08:45:05Z</time>
      </trkpt>
      <trkpt lat="43.57912" lon="3.33248">
        <ele>308.1</ele>
        <time>2016-08-07T08:45:08Z</time>
      </trkpt>
      <trkpt lat="43.57918" lon="3.33242">
        <ele>308.5</ele>
        <time>2016-08-07T08:45:11Z</time>
      </trkpt>
      <trkpt lat="43.57925" lon="3.33248">
        <ele>309.1</ele>
        <time>2016-08-07T08:45:15Z</time>
      </trkpt>
      <trkpt lat="43.57926" lon="3.33258">
        <ele>309.5</ele>
        <time>2016-08-07T08:45:18Z</time>
      </trkpt>
      <trkpt lat="43.57926" lon="3.33269">
        <ele>309.7</ele>
        <time>2016-08-07T08:45:21Z</time>
      </trkpt>
      <trkpt lat="43.57926" lon="3.33282">
        <ele>309.8</ele>
        <time>2016-08-07T08:45:25Z</time>
      </trkpt>
      <trkpt lat="43.57926" lon="3.33294">
        <ele>309.8</ele>
        <time>2016-08-07T08:45:28Z</time>
      </trkpt>
      <trkpt lat="43.57926" lon="3.33305">
        <ele>309.7</ele>
        <time>2016-08-07T08:45:31Z</time>
      </trkpt>
      <trkpt lat="43.57927" lon="3.33317">
        <ele>309.6</ele>
        <time>2016-08-07T08:45:34Z</time>
      </trkpt>
      <trkpt lat="43.57926" lon="3.33329">
        <ele>309.6</ele>
        <time>2016-08-07T08:45:37Z</time>
      </trkpt>
      <trkpt lat="43.57927" lon="3.33342">
        <ele>309.6</ele>
        <time>2016-08-07T08:45:41Z</time>
      </trkpt>
      <trkpt lat="43.57929" lon="3.33352">
        <ele>309.6</ele>
        <time>2016-08-07T08:45:44Z</time>
      </trkpt>
      <trkpt lat="43.57934" lon="3.33364">
        <ele>309.8</ele>
        <time>2016-08-07T08:45:47Z</time>
      </trkpt>
      <trkpt lat="43.57939" lon="3.33376">
        <ele>309.9</ele>
        <time>2016-08-07T08:45:50Z</time>
      </trkpt>
      <trkpt lat="43.57942" lon="3.33386">
        <ele>310</ele>
        <time>2016-08-07T08:45:52Z</time>
      </trkpt>
      <trkpt lat="43.5794" lon="3.33398">
        <ele>310.5</ele>
        <time>2016-08-07T08:45:54Z</time>
      </trkpt>
      <trkpt lat="43.57935" lon="3.33408">
        <ele>311.5</ele>
        <time>2016-08-07T08:45:56Z</time>
      </trkpt>
      <trkpt lat="43.57929" lon="3.33416">
        <ele>311.9</ele>
        <time>2016-08-07T08:45:58Z</time>
      </trkpt>
      <trkpt lat="43.57923" lon="3.33423">
        <ele>311.9</ele>
        <time>2016-08-07T08:46:00Z</time>
      </trkpt>
      <trkpt lat="43.57915" lon="3.33432">
        <ele>312</ele>
        <time>2016-08-07T08:46:03Z</time>
      </trkpt>
      <trkpt lat="43.57907" lon="3.33441">
        <ele>312.1</ele>
        <time>2016-08-07T08:46:06Z</time>
      </trkpt>
      <trkpt lat="43.57901" lon="3.33449">
        <ele>313</ele>
        <time>2016-08-07T08:46:08Z</time>
      </trkpt>
      <trkpt lat="43.57896" lon="3.33458">
        <ele>313.6</ele>
        <time>2016-08-07T08:46:10Z</time>
      </trkpt>
      <trkpt lat="43.57889" lon="3.33467">
        <ele>313.6</ele>
        <time>2016-08-07T08:46:12Z</time>
      </trkpt>
      <trkpt lat="43.57884" lon="3.33477">
        <ele>313.4</ele>
        <time>2016-08-07T08:46:14Z</time>
      </trkpt>
      <trkpt lat="43.57879" lon="3.33489">
        <ele>314.4</ele>
        <time>2016-08-07T08:46:16Z</time>
      </trkpt>
      <trkpt lat="43.57875" lon="3.335">
        <ele>315.2</ele>
        <time>2016-08-07T08:46:18Z</time>
      </trkpt>
      <trkpt lat="43.57873" lon="3.33512">
        <ele>315.5</ele>
        <time>2016-08-07T08:46:20Z</time>
      </trkpt>
      <trkpt lat="43.57872" lon="3.33523">
        <ele>315.5</ele>
        <time>2016-08-07T08:46:22Z</time>
      </trkpt>
      <trkpt lat="43.57871" lon="3.33535">
        <ele>315.6</ele>
        <time>2016-08-07T08:46:24Z</time>
      </trkpt>
      <trkpt lat="43.57869" lon="3.33547">
        <ele>314.9</ele>
        <time>2016-08-07T08:46:26Z</time>
      </trkpt>
      <trkpt lat="43.57867" lon="3.33556">
        <ele>314</ele>
        <time>2016-08-07T08:46:28Z</time>
      </trkpt>
      <trkpt lat="43.57863" lon="3.33564">
        <ele>314</ele>
        <time>2016-08-07T08:46:30Z</time>
      </trkpt>
      <trkpt lat="43.57857" lon="3.33571">
        <ele>314.2</ele>
        <time>2016-08-07T08:46:32Z</time>
      </trkpt>
      <trkpt lat="43.5785" lon="3.33578">
        <ele>314.5</ele>
        <time>2016-08-07T08:46:34Z</time>
      </trkpt>
      <trkpt lat="43.57845" lon="3.33586">
        <ele>314.7</ele>
        <time>2016-08-07T08:46:36Z</time>
      </trkpt>
      <trkpt lat="43.5784" lon="3.33595">
        <ele>315.1</ele>
        <time>2016-08-07T08:46:38Z</time>
      </trkpt>
      <trkpt lat="43.57836" lon="3.33604">
        <ele>315.4</ele>
        <time>2016-08-07T08:46:40Z</time>
      </trkpt>
      <trkpt lat="43.57833" lon="3.33615">
        <ele>315.3</ele>
        <time>2016-08-07T08:46:42Z</time>
      </trkpt>
      <trkpt lat="43.5783" lon="3.33624">
        <ele>315.2</ele>
        <time>2016-08-07T08:46:44Z</time>
      </trkpt>
      <trkpt lat="43.57827" lon="3.33634">
        <ele>315.1</ele>
        <time>2016-08-07T08:46:46Z</time>
      </trkpt>
      <trkpt lat="43.57824" lon="3.33645">
        <ele>315.7</ele>
        <time>2016-08-07T08:46:48Z</time>
      </trkpt>
      <trkpt lat="43.57821" lon="3.33657">
        <ele>315.8</ele>
        <time>2016-08-07T08:46:50Z</time>
      </trkpt>
      <trkpt lat="43.57817" lon="3.3367">
        <ele>316.2</ele>
        <time>2016-08-07T08:46:52Z</time>
      </trkpt>
      <trkpt lat="43.57814" lon="3.33683">
        <ele>316.8</ele>
        <time>2016-08-07T08:46:54Z</time>
      </trkpt>
      <trkpt lat="43.57809" lon="3.33698">
        <ele>317.3</ele>
        <time>2016-08-07T08:46:56Z</time>
      </trkpt>
      <trkpt lat="43.57804" lon="3.3371">
        <ele>317.3</ele>
        <time>2016-08-07T08:46:58Z</time>
      </trkpt>
      <trkpt lat="43.57798" lon="3.33722">
        <ele>316.1</ele>
        <time>2016-08-07T08:47:00Z</time>
      </trkpt>
      <trkpt lat="43.57794" lon="3.33733">
        <ele>315.6</ele>
        <time>2016-08-07T08:47:02Z</time>
      </trkpt>
      <trkpt lat="43.57789" lon="3.33746">
        <ele>315.3</ele>
        <time>2016-08-07T08:47:04Z</time>
      </trkpt>
      <trkpt lat="43.57784" lon="3.3376">
        <ele>314.2</ele>
        <time>2016-08-07T08:47:06Z</time>
      </trkpt>
      <trkpt lat="43.57779" lon="3.33772">
        <ele>314.2</ele>
        <time>2016-08-07T08:47:08Z</time>
      </trkpt>
      <trkpt lat="43.57776" lon="3.33784">
        <ele>315.2</ele>
        <time>2016-08-07T08:47:10Z</time>
      </trkpt>
      <trkpt lat="43.57774" lon="3.33795">
        <ele>316</ele>
        <time>2016-08-07T08:47:12Z</time>
      </trkpt>
      <trkpt lat="43.57771" lon="3.33808">
        <ele>316.9</ele>
        <time>2016-08-07T08:47:14Z</time>
      </trkpt>
      <trkpt lat="43.57768" lon="3.33822">
        <ele>315.9</ele>
        <time>2016-08-07T08:47:16Z</time>
      </trkpt>
      <trkpt lat="43.57767" lon="3.33838">
        <ele>316.3</ele>
        <time>2016-08-07T08:47:18Z</time>
      </trkpt>
      <trkpt lat="43.57766" lon="3.33851">
        <ele>314.9</ele>
        <time>2016-08-07T08:47:20Z</time>
      </trkpt>
      <trkpt lat="43.57764" lon="3.33863">
        <ele>314.2</ele>
        <time>2016-08-07T08:47:22Z</time>
      </trkpt>
      <trkpt lat="43.57762" lon="3.33876">
        <ele>314.6</ele>
        <time>2016-08-07T08:47:24Z</time>
      </trkpt>
      <trkpt lat="43.5776" lon="3.33888">
        <ele>315</ele>
        <time>2016-08-07T08:47:26Z</time>
      </trkpt>
      <trkpt lat="43.57761" lon="3.33901">
        <ele>315.6</ele>
        <time>2016-08-07T08:47:28Z</time>
      </trkpt>
      <trkpt lat="43.57764" lon="3.33912">
        <ele>314.9</ele>
        <time>2016-08-07T08:47:30Z</time>
      </trkpt>
      <trkpt lat="43.5777" lon="3.33922">
        <ele>314.7</ele>
        <time>2016-08-07T08:47:32Z</time>
      </trkpt>
      <trkpt lat="43.57778" lon="3.33926">
        <ele>315.7</ele>
        <time>2016-08-07T08:47:34Z</time>
      </trkpt>
      <trkpt lat="43.57787" lon="3.33928">
        <ele>316.8</ele>
        <time>2016-08-07T08:47:36Z</time>
      </trkpt>
      <trkpt lat="43.57795" lon="3.33927">
        <ele>318.4</ele>
        <time>2016-08-07T08:47:38Z</time>
      </trkpt>
      <trkpt lat="43.57806" lon="3.33924">
        <ele>318.6</ele>
        <time>2016-08-07T08:47:40Z</time>
      </trkpt>
      <trkpt lat="43.57815" lon="3.3392">
        <ele>318.6</ele>
        <time>2016-08-07T08:47:42Z</time>
      </trkpt>
      <trkpt lat="43.57824" lon="3.33915">
        <ele>318.7</ele>
        <time>2016-08-07T08:47:44Z</time>
      </trkpt>
      <trkpt lat="43.57832" lon="3.3391">
        <ele>318.5</ele>
        <time>2016-08-07T08:47:46Z</time>
      </trkpt>
      <trkpt lat="43.5784" lon="3.33905">
        <ele>318.3</ele>
        <time>2016-08-07T08:47:48Z</time>
      </trkpt>
      <trkpt lat="43.5785" lon="3.339">
        <ele>319.1</ele>
        <time>2016-08-07T08:47:50Z</time>
      </trkpt>
      <trkpt lat="43.57859" lon="3.33897">
        <ele>320.5</ele>
        <time>2016-08-07T08:47:52Z</time>
      </trkpt>
      <trkpt lat="43.57867" lon="3.33895">
        <ele>321.7</ele>
        <time>2016-08-07T08:47:54Z</time>
      </trkpt>
      <trkpt lat="43.57876" lon="3.33894">
        <ele>322.8</ele>
        <time>2016-08-07T08:47:56Z</time>
      </trkpt>
      <trkpt lat="43.57886" lon="3.33894">
        <ele>323</ele>
        <time>2016-08-07T08:47:58Z</time>
      </trkpt>
      <trkpt lat="43.57896" lon="3.33894">
        <ele>323.2</ele>
        <time>2016-08-07T08:48:00Z</time>
      </trkpt>
      <trkpt lat="43.57904" lon="3.33896">
        <ele>323.3</ele>
        <time>2016-08-07T08:48:02Z</time>
      </trkpt>
      <trkpt lat="43.57912" lon="3.33896">
        <ele>323.5</ele>
        <time>2016-08-07T08:48:04Z</time>
      </trkpt>
      <trkpt lat="43.57921" lon="3.33897">
        <ele>324.2</ele>
        <time>2016-08-07T08:48:07Z</time>
      </trkpt>
      <trkpt lat="43.57929" lon="3.33899">
        <ele>324.7</ele>
        <time>2016-08-07T08:48:09Z</time>
      </trkpt>
      <trkpt lat="43.57938" lon="3.33904">
        <ele>325.4</ele>
        <time>2016-08-07T08:48:12Z</time>
      </trkpt>
      <trkpt lat="43.57945" lon="3.33908">
        <ele>325.9</ele>
        <time>2016-08-07T08:48:14Z</time>
      </trkpt>
      <trkpt lat="43.57953" lon="3.33911">
        <ele>326.2</ele>
        <time>2016-08-07T08:48:16Z</time>
      </trkpt>
      <trkpt lat="43.5796" lon="3.33914">
        <ele>326.6</ele>
        <time>2016-08-07T08:48:18Z</time>
      </trkpt>
      <trkpt lat="43.57967" lon="3.33919">
        <ele>326.9</ele>
        <time>2016-08-07T08:48:20Z</time>
      </trkpt>
      <trkpt lat="43.57974" lon="3.33924">
        <ele>327.3</ele>
        <time>2016-08-07T08:48:22Z</time>
      </trkpt>
      <trkpt lat="43.57977" lon="3.33934">
        <ele>328.4</ele>
        <time>2016-08-07T08:48:25Z</time>
      </trkpt>
      <trkpt lat="43.57974" lon="3.33944">
        <ele>329.4</ele>
        <time>2016-08-07T08:48:27Z</time>
      </trkpt>
      <trkpt lat="43.5797" lon="3.33955">
        <ele>330.4</ele>
        <time>2016-08-07T08:48:29Z</time>
      </trkpt>
      <trkpt lat="43.57966" lon="3.33964">
        <ele>330.4</ele>
        <time>2016-08-07T08:48:31Z</time>
      </trkpt>
      <trkpt lat="43.5796" lon="3.33973">
        <ele>330.5</ele>
        <time>2016-08-07T08:48:33Z</time>
      </trkpt>
      <trkpt lat="43.57954" lon="3.33985">
        <ele>330</ele>
        <time>2016-08-07T08:48:36Z</time>
      </trkpt>
      <trkpt lat="43.57948" lon="3.33996">
        <ele>329.8</ele>
        <time>2016-08-07T08:48:38Z</time>
      </trkpt>
      <trkpt lat="43.57943" lon="3.34008">
        <ele>328.2</ele>
        <time>2016-08-07T08:48:41Z</time>
      </trkpt>
      <trkpt lat="43.57941" lon="3.3402">
        <ele>327.6</ele>
        <time>2016-08-07T08:48:43Z</time>
      </trkpt>
      <trkpt lat="43.57939" lon="3.34031">
        <ele>327.5</ele>
        <time>2016-08-07T08:48:45Z</time>
      </trkpt>
      <trkpt lat="43.57939" lon="3.34044">
        <ele>327.7</ele>
        <time>2016-08-07T08:48:47Z</time>
      </trkpt>
      <trkpt lat="43.57939" lon="3.34058">
        <ele>328.3</ele>
        <time>2016-08-07T08:48:49Z</time>
      </trkpt>
      <trkpt lat="43.57941" lon="3.34069">
        <ele>329.1</ele>
        <time>2016-08-07T08:48:51Z</time>
      </trkpt>
      <trkpt lat="43.57942" lon="3.34082">
        <ele>329.2</ele>
        <time>2016-08-07T08:48:53Z</time>
      </trkpt>
      <trkpt lat="43.57945" lon="3.34096">
        <ele>328.9</ele>
        <time>2016-08-07T08:48:55Z</time>
      </trkpt>
      <trkpt lat="43.57947" lon="3.3411">
        <ele>327.6</ele>
        <time>2016-08-07T08:48:57Z</time>
      </trkpt>
      <trkpt lat="43.5795" lon="3.34122">
        <ele>327.9</ele>
        <time>2016-08-07T08:48:59Z</time>
      </trkpt>
      <trkpt lat="43.57955" lon="3.34135">
        <ele>327.6</ele>
        <time>2016-08-07T08:49:01Z</time>
      </trkpt>
      <trkpt lat="43.5796" lon="3.3415">
        <ele>326.6</ele>
        <time>2016-08-07T08:49:03Z</time>
      </trkpt>
      <trkpt lat="43.57964" lon="3.34162">
        <ele>325.4</ele>
        <time>2016-08-07T08:49:05Z</time>
      </trkpt>
      <trkpt lat="43.57969" lon="3.34174">
        <ele>325.6</ele>
        <time>2016-08-07T08:49:07Z</time>
      </trkpt>
      <trkpt lat="43.57972" lon="3.34185">
        <ele>324.6</ele>
        <time>2016-08-07T08:49:09Z</time>
      </trkpt>
      <trkpt lat="43.57976" lon="3.34197">
        <ele>324.1</ele>
        <time>2016-08-07T08:49:11Z</time>
      </trkpt>
      <trkpt lat="43.57978" lon="3.34209">
        <ele>324.4</ele>
        <time>2016-08-07T08:49:13Z</time>
      </trkpt>
      <trkpt lat="43.5798" lon="3.34219">
        <ele>324.2</ele>
        <time>2016-08-07T08:49:15Z</time>
      </trkpt>
      <trkpt lat="43.57981" lon="3.34231">
        <ele>324.8</ele>
        <time>2016-08-07T08:49:17Z</time>
      </trkpt>
      <trkpt lat="43.57981" lon="3.34243">
        <ele>324.8</ele>
        <time>2016-08-07T08:49:19Z</time>
      </trkpt>
      <trkpt lat="43.57983" lon="3.34255">
        <ele>324.8</ele>
        <time>2016-08-07T08:49:21Z</time>
      </trkpt>
      <trkpt lat="43.57985" lon="3.34265">
        <ele>324.8</ele>
        <time>2016-08-07T08:49:23Z</time>
      </trkpt>
      <trkpt lat="43.57991" lon="3.34277">
        <ele>324.8</ele>
        <time>2016-08-07T08:49:26Z</time>
      </trkpt>
      <trkpt lat="43.58001" lon="3.34277">
        <ele>324.6</ele>
        <time>2016-08-07T08:49:29Z</time>
      </trkpt>
      <trkpt lat="43.58008" lon="3.34268">
        <ele>324.6</ele>
        <time>2016-08-07T08:49:33Z</time>
      </trkpt>
      <trkpt lat="43.58014" lon="3.3426">
        <ele>324.6</ele>
        <time>2016-08-07T08:49:38Z</time>
      </trkpt>
      <trkpt lat="43.58021" lon="3.34254">
        <ele>324.8</ele>
        <time>2016-08-07T08:49:42Z</time>
      </trkpt>
      <trkpt lat="43.58028" lon="3.3425">
        <ele>325.1</ele>
        <time>2016-08-07T08:49:45Z</time>
      </trkpt>
      <trkpt lat="43.58035" lon="3.34244">
        <ele>325.4</ele>
        <time>2016-08-07T08:49:48Z</time>
      </trkpt>
      <trkpt lat="43.58044" lon="3.34242">
        <ele>325.9</ele>
        <time>2016-08-07T08:49:52Z</time>
      </trkpt>
      <trkpt lat="43.58053" lon="3.34238">
        <ele>326.3</ele>
        <time>2016-08-07T08:49:55Z</time>
      </trkpt>
      <trkpt lat="43.5806" lon="3.34235">
        <ele>326.7</ele>
        <time>2016-08-07T08:49:58Z</time>
      </trkpt>
      <trkpt lat="43.58069" lon="3.34232">
        <ele>327.5</ele>
        <time>2016-08-07T08:50:02Z</time>
      </trkpt>
      <trkpt lat="43.58077" lon="3.34228">
        <ele>328.2</ele>
        <time>2016-08-07T08:50:05Z</time>
      </trkpt>
      <trkpt lat="43.58087" lon="3.34227">
        <ele>328.9</ele>
        <time>2016-08-07T08:50:08Z</time>
      </trkpt>
      <trkpt lat="43.58096" lon="3.34229">
        <ele>329.5</ele>
        <time>2016-08-07T08:50:11Z</time>
      </trkpt>
      <trkpt lat="43.58104" lon="3.3423">
        <ele>330.5</ele>
        <time>2016-08-07T08:50:15Z</time>
      </trkpt>
      <trkpt lat="43.58111" lon="3.34236">
        <ele>331.7</ele>
        <time>2016-08-07T08:50:20Z</time>
      </trkpt>
      <trkpt lat="43.58115" lon="3.34247">
        <ele>332.6</ele>
        <time>2016-08-07T08:50:24Z</time>
      </trkpt>
      <trkpt lat="43.58116" lon="3.34259">
        <ele>333.9</ele>
        <time>2016-08-07T08:50:29Z</time>
      </trkpt>
      <trkpt lat="43.58117" lon="3.3427">
        <ele>334.8</ele>
        <time>2016-08-07T08:50:33Z</time>
      </trkpt>
      <trkpt lat="43.58118" lon="3.34281">
        <ele>335.7</ele>
        <time>2016-08-07T08:50:37Z</time>
      </trkpt>
      <trkpt lat="43.58119" lon="3.34292">
        <ele>336.5</ele>
        <time>2016-08-07T08:50:41Z</time>
      </trkpt>
      <trkpt lat="43.58121" lon="3.34304">
        <ele>337.5</ele>
        <time>2016-08-07T08:50:45Z</time>
      </trkpt>
      <trkpt lat="43.58125" lon="3.34316">
        <ele>338.4</ele>
        <time>2016-08-07T08:50:49Z</time>
      </trkpt>
      <trkpt lat="43.58127" lon="3.34325">
        <ele>339.1</ele>
        <time>2016-08-07T08:50:52Z</time>
      </trkpt>
      <trkpt lat="43.5813" lon="3.34336">
        <ele>339.8</ele>
        <time>2016-08-07T08:50:56Z</time>
      </trkpt>
      <trkpt lat="43.58133" lon="3.34345">
        <ele>340.4</ele>
        <time>2016-08-07T08:50:59Z</time>
      </trkpt>
      <trkpt lat="43.58136" lon="3.34355">
        <ele>340.8</ele>
        <time>2016-08-07T08:51:02Z</time>
      </trkpt>
      <trkpt lat="43.5814" lon="3.34365">
        <ele>341.5</ele>
        <time>2016-08-07T08:51:06Z</time>
      </trkpt>
      <trkpt lat="43.58144" lon="3.34374">
        <ele>341.9</ele>
        <time>2016-08-07T08:51:09Z</time>
      </trkpt>
      <trkpt lat="43.58149" lon="3.34384">
        <ele>342.5</ele>
        <time>2016-08-07T08:51:13Z</time>
      </trkpt>
      <trkpt lat="43.58154" lon="3.34391">
        <ele>343</ele>
        <time>2016-08-07T08:51:16Z</time>
      </trkpt>
      <trkpt lat="43.58161" lon="3.344">
        <ele>343.6</ele>
        <time>2016-08-07T08:51:20Z</time>
      </trkpt>
      <trkpt lat="43.58167" lon="3.34407">
        <ele>344.3</ele>
        <time>2016-08-07T08:51:24Z</time>
      </trkpt>
      <trkpt lat="43.58172" lon="3.34414">
        <ele>345.1</ele>
        <time>2016-08-07T08:51:28Z</time>
      </trkpt>
      <trkpt lat="43.58178" lon="3.34422">
        <ele>345.8</ele>
        <time>2016-08-07T08:51:32Z</time>
      </trkpt>
      <trkpt lat="43.58185" lon="3.3443">
        <ele>346.6</ele>
        <time>2016-08-07T08:51:36Z</time>
      </trkpt>
      <trkpt lat="43.58191" lon="3.3444">
        <ele>347.5</ele>
        <time>2016-08-07T08:51:40Z</time>
      </trkpt>
      <trkpt lat="43.58198" lon="3.34447">
        <ele>348.4</ele>
        <time>2016-08-07T08:51:44Z</time>
      </trkpt>
      <trkpt lat="43.58205" lon="3.34453">
        <ele>348.9</ele>
        <time>2016-08-07T08:51:47Z</time>
      </trkpt>
      <trkpt lat="43.58213" lon="3.34458">
        <ele>349.5</ele>
        <time>2016-08-07T08:51:51Z</time>
      </trkpt>
      <trkpt lat="43.58221" lon="3.3446">
        <ele>350.3</ele>
        <time>2016-08-07T08:51:55Z</time>
      </trkpt>
      <trkpt lat="43.58229" lon="3.34461">
        <ele>350.8</ele>
        <time>2016-08-07T08:51:58Z</time>
      </trkpt>
      <trkpt lat="43.58237" lon="3.34462">
        <ele>351.3</ele>
        <time>2016-08-07T08:52:01Z</time>
      </trkpt>
      <trkpt lat="43.58244" lon="3.34463">
        <ele>351.9</ele>
        <time>2016-08-07T08:52:04Z</time>
      </trkpt>
      <trkpt lat="43.58252" lon="3.34464">
        <ele>352.6</ele>
        <time>2016-08-07T08:52:08Z</time>
      </trkpt>
      <trkpt lat="43.58256" lon="3.34465">
        <ele>353.2</ele>
        <time>2016-08-07T08:52:15Z</time>
      </trkpt>
      <trkpt lat="43.58248" lon="3.34463">
        <ele>360.6</ele>
        <time>2016-08-07T08:53:33Z</time>
      </trkpt>
      <trkpt lat="43.58252" lon="3.3446">
        <ele>361.7</ele>
        <time>2016-08-07T08:53:44Z</time>
      </trkpt>
      <trkpt lat="43.58254" lon="3.34457">
        <ele>361.9</ele>
        <time>2016-08-07T08:53:51Z</time>
      </trkpt>
      <trkpt lat="43.58253" lon="3.3446">
        <ele>362.8</ele>
        <time>2016-08-07T08:55:32Z</time>
      </trkpt>
      <trkpt lat="43.58253" lon="3.34472">
        <ele>366.1</ele>
        <time>2016-08-07T08:58:26Z</time>
      </trkpt>
      <trkpt lat="43.58256" lon="3.34484">
        <ele>366</ele>
        <time>2016-08-07T08:58:27Z</time>
      </trkpt>
      <trkpt lat="43.5826" lon="3.34493">
        <ele>365.8</ele>
        <time>2016-08-07T08:58:29Z</time>
      </trkpt>
      <trkpt lat="43.58266" lon="3.34505">
        <ele>362.9</ele>
        <time>2016-08-07T08:58:31Z</time>
      </trkpt>
      <trkpt lat="43.58271" lon="3.34517">
        <ele>361.5</ele>
        <time>2016-08-07T08:58:33Z</time>
      </trkpt>
      <trkpt lat="43.58279" lon="3.34526">
        <ele>361.3</ele>
        <time>2016-08-07T08:58:35Z</time>
      </trkpt>
      <trkpt lat="43.58286" lon="3.34535">
        <ele>360.9</ele>
        <time>2016-08-07T08:58:37Z</time>
      </trkpt>
      <trkpt lat="43.58294" lon="3.34544">
        <ele>360.2</ele>
        <time>2016-08-07T08:58:40Z</time>
      </trkpt>
      <trkpt lat="43.583" lon="3.34556">
        <ele>359.5</ele>
        <time>2016-08-07T08:58:43Z</time>
      </trkpt>
      <trkpt lat="43.58306" lon="3.34562">
        <ele>357.4</ele>
        <time>2016-08-07T08:58:45Z</time>
      </trkpt>
      <trkpt lat="43.58316" lon="3.3457">
        <ele>354.6</ele>
        <time>2016-08-07T08:58:47Z</time>
      </trkpt>
      <trkpt lat="43.58328" lon="3.34576">
        <ele>352.6</ele>
        <time>2016-08-07T08:58:49Z</time>
      </trkpt>
      <trkpt lat="43.58335" lon="3.34586">
        <ele>350.8</ele>
        <time>2016-08-07T08:58:51Z</time>
      </trkpt>
      <trkpt lat="43.58343" lon="3.34595">
        <ele>349.2</ele>
        <time>2016-08-07T08:58:53Z</time>
      </trkpt>
      <trkpt lat="43.5835" lon="3.346">
        <ele>349.2</ele>
        <time>2016-08-07T08:58:55Z</time>
      </trkpt>
      <trkpt lat="43.58351" lon="3.34605">
        <ele>348.8</ele>
        <time>2016-08-07T08:59:02Z</time>
      </trkpt>
      <trkpt lat="43.58351" lon="3.34608">
        <ele>347.9</ele>
        <time>2016-08-07T08:59:09Z</time>
      </trkpt>
      <trkpt lat="43.5835" lon="3.34622">
        <ele>345.8</ele>
        <time>2016-08-07T08:59:36Z</time>
      </trkpt>
      <trkpt lat="43.58347" lon="3.34636">
        <ele>345.1</ele>
        <time>2016-08-07T08:59:38Z</time>
      </trkpt>
      <trkpt lat="43.58345" lon="3.34645">
        <ele>344</ele>
        <time>2016-08-07T08:59:39Z</time>
      </trkpt>
      <trkpt lat="43.58343" lon="3.34664">
        <ele>342.1</ele>
        <time>2016-08-07T08:59:41Z</time>
      </trkpt>
      <trkpt lat="43.58343" lon="3.34683">
        <ele>341.4</ele>
        <time>2016-08-07T08:59:43Z</time>
      </trkpt>
      <trkpt lat="43.58344" lon="3.34694">
        <ele>341.3</ele>
        <time>2016-08-07T08:59:44Z</time>
      </trkpt>
      <trkpt lat="43.58344" lon="3.34704">
        <ele>341.7</ele>
        <time>2016-08-07T08:59:45Z</time>
      </trkpt>
      <trkpt lat="43.58349" lon="3.34719">
        <ele>342.9</ele>
        <time>2016-08-07T08:59:47Z</time>
      </trkpt>
      <trkpt lat="43.58355" lon="3.34735">
        <ele>344.2</ele>
        <time>2016-08-07T08:59:49Z</time>
      </trkpt>
      <trkpt lat="43.58363" lon="3.34749">
        <ele>344.7</ele>
        <time>2016-08-07T08:59:51Z</time>
      </trkpt>
      <trkpt lat="43.58367" lon="3.34758">
        <ele>344.1</ele>
        <time>2016-08-07T08:59:52Z</time>
      </trkpt>
      <trkpt lat="43.58376" lon="3.34773">
        <ele>342.5</ele>
        <time>2016-08-07T08:59:54Z</time>
      </trkpt>
      <trkpt lat="43.58381" lon="3.34782">
        <ele>341.7</ele>
        <time>2016-08-07T08:59:55Z</time>
      </trkpt>
      <trkpt lat="43.58384" lon="3.34792">
        <ele>340.8</ele>
        <time>2016-08-07T08:59:56Z</time>
      </trkpt>
      <trkpt lat="43.58386" lon="3.34802">
        <ele>339.4</ele>
        <time>2016-08-07T08:59:57Z</time>
      </trkpt>
      <trkpt lat="43.58388" lon="3.34816">
        <ele>337.7</ele>
        <time>2016-08-07T08:59:58Z</time>
      </trkpt>
      <trkpt lat="43.58389" lon="3.34829">
        <ele>335.4</ele>
        <time>2016-08-07T08:59:59Z</time>
      </trkpt>
      <trkpt lat="43.5839" lon="3.34842">
        <ele>333.4</ele>
        <time>2016-08-07T09:00:00Z</time>
      </trkpt>
      <trkpt lat="43.58389" lon="3.34855">
        <ele>331.4</ele>
        <time>2016-08-07T09:00:01Z</time>
      </trkpt>
      <trkpt lat="43.58388" lon="3.34871">
        <ele>327.6</ele>
        <time>2016-08-07T09:00:03Z</time>
      </trkpt>
      <trkpt lat="43.58387" lon="3.34889">
        <ele>325.8</ele>
        <time>2016-08-07T09:00:05Z</time>
      </trkpt>
      <trkpt lat="43.58382" lon="3.34905">
        <ele>323.9</ele>
        <time>2016-08-07T09:00:07Z</time>
      </trkpt>
      <trkpt lat="43.58377" lon="3.34923">
        <ele>322.7</ele>
        <time>2016-08-07T09:00:09Z</time>
      </trkpt>
      <trkpt lat="43.58375" lon="3.34927">
        <ele>322.4</ele>
        <time>2016-08-07T09:00:16Z</time>
      </trkpt>
      <trkpt lat="43.58375" lon="3.34903">
        <ele>323.8</ele>
        <time>2016-08-07T08:59:47Z</time>
      </trkpt>
      <trkpt lat="43.58379" lon="3.34893">
        <ele>324.9</ele>
        <time>2016-08-07T09:01:11Z</time>
      </trkpt>
      <trkpt lat="43.58388" lon="3.34875">
        <ele>324.5</ele>
        <time>2016-08-07T09:05:07Z</time>
      </trkpt>
      <trkpt lat="43.58388" lon="3.34881">
        <ele>324.9</ele>
        <time>2016-08-07T09:05:14Z</time>
      </trkpt>
      <trkpt lat="43.58386" lon="3.34882">
        <ele>324.6</ele>
        <time>2016-08-07T09:05:21Z</time>
      </trkpt>
      <trkpt lat="43.58381" lon="3.34884">
        <ele>324.4</ele>
        <time>2016-08-07T09:05:31Z</time>
      </trkpt>
      <trkpt lat="43.58384" lon="3.3488">
        <ele>323.8</ele>
        <time>2016-08-07T09:05:43Z</time>
      </trkpt>
      <trkpt lat="43.58388" lon="3.34874">
        <ele>323.5</ele>
        <time>2016-08-07T09:07:13Z</time>
      </trkpt>
      <trkpt lat="43.58384" lon="3.34878">
        <ele>323.6</ele>
        <time>2016-08-07T09:07:24Z</time>
      </trkpt>
      <trkpt lat="43.58381" lon="3.3488">
        <ele>323.7</ele>
        <time>2016-08-07T09:07:31Z</time>
      </trkpt>
      <trkpt lat="43.58379" lon="3.34892">
        <ele>324.1</ele>
        <time>2016-08-07T09:07:37Z</time>
      </trkpt>
      <trkpt lat="43.58378" lon="3.34902">
        <ele>323.7</ele>
        <time>2016-08-07T09:07:44Z</time>
      </trkpt>
      <trkpt lat="43.58376" lon="3.34913">
        <ele>322.9</ele>
        <time>2016-08-07T09:07:50Z</time>
      </trkpt>
      <trkpt lat="43.58373" lon="3.34922">
        <ele>321.5</ele>
        <time>2016-08-07T09:07:57Z</time>
      </trkpt>
      <trkpt lat="43.58372" lon="3.34924">
        <ele>321.3</ele>
        <time>2016-08-07T09:08:04Z</time>
      </trkpt>
      <trkpt lat="43.5837" lon="3.34927">
        <ele>320.6</ele>
        <time>2016-08-07T09:08:13Z</time>
      </trkpt>
      <trkpt lat="43.58371" lon="3.34932">
        <ele>320.8</ele>
        <time>2016-08-07T09:08:20Z</time>
      </trkpt>
      <trkpt lat="43.58373" lon="3.34935">
        <ele>321.4</ele>
        <time>2016-08-07T09:08:27Z</time>
      </trkpt>
      <trkpt lat="43.58375" lon="3.34932">
        <ele>321.7</ele>
        <time>2016-08-07T09:08:34Z</time>
      </trkpt>
      <trkpt lat="43.58378" lon="3.34929">
        <ele>321.7</ele>
        <time>2016-08-07T09:08:41Z</time>
      </trkpt>
      <trkpt lat="43.5838" lon="3.34934">
        <ele>322.5</ele>
        <time>2016-08-07T09:09:04Z</time>
      </trkpt>
      <trkpt lat="43.58375" lon="3.34938">
        <ele>322.3</ele>
        <time>2016-08-07T09:09:11Z</time>
      </trkpt>
      <trkpt lat="43.5837" lon="3.3495">
        <ele>321.6</ele>
        <time>2016-08-07T09:09:17Z</time>
      </trkpt>
      <trkpt lat="43.58366" lon="3.34961">
        <ele>321.4</ele>
        <time>2016-08-07T09:09:19Z</time>
      </trkpt>
      <trkpt lat="43.5836" lon="3.34975">
        <ele>319</ele>
        <time>2016-08-07T09:09:21Z</time>
      </trkpt>
      <trkpt lat="43.58353" lon="3.34988">
        <ele>317.4</ele>
        <time>2016-08-07T09:09:23Z</time>
      </trkpt>
      <trkpt lat="43.58347" lon="3.34999">
        <ele>316.3</ele>
        <time>2016-08-07T09:09:25Z</time>
      </trkpt>
      <trkpt lat="43.58337" lon="3.35009">
        <ele>314.4</ele>
        <time>2016-08-07T09:09:27Z</time>
      </trkpt>
      <trkpt lat="43.58327" lon="3.35019">
        <ele>312.5</ele>
        <time>2016-08-07T09:09:29Z</time>
      </trkpt>
      <trkpt lat="43.58317" lon="3.35024">
        <ele>312.3</ele>
        <time>2016-08-07T09:09:31Z</time>
      </trkpt>
      <trkpt lat="43.58311" lon="3.35036">
        <ele>311.7</ele>
        <time>2016-08-07T09:09:35Z</time>
      </trkpt>
      <trkpt lat="43.5831" lon="3.35053">
        <ele>308.3</ele>
        <time>2016-08-07T09:09:37Z</time>
      </trkpt>
      <trkpt lat="43.58308" lon="3.35063">
        <ele>306.9</ele>
        <time>2016-08-07T09:09:38Z</time>
      </trkpt>
      <trkpt lat="43.58304" lon="3.35073">
        <ele>306</ele>
        <time>2016-08-07T09:09:39Z</time>
      </trkpt>
      <trkpt lat="43.583" lon="3.35088">
        <ele>304.5</ele>
        <time>2016-08-07T09:09:41Z</time>
      </trkpt>
      <trkpt lat="43.58304" lon="3.35099">
        <ele>302.8</ele>
        <time>2016-08-07T09:09:45Z</time>
      </trkpt>
      <trkpt lat="43.58308" lon="3.35115">
        <ele>302.6</ele>
        <time>2016-08-07T09:09:47Z</time>
      </trkpt>
      <trkpt lat="43.5831" lon="3.35134">
        <ele>302.7</ele>
        <time>2016-08-07T09:09:49Z</time>
      </trkpt>
      <trkpt lat="43.58312" lon="3.35145">
        <ele>301.5</ele>
        <time>2016-08-07T09:09:50Z</time>
      </trkpt>
      <trkpt lat="43.58316" lon="3.35156">
        <ele>300.1</ele>
        <time>2016-08-07T09:09:51Z</time>
      </trkpt>
      <trkpt lat="43.58318" lon="3.35174">
        <ele>297.6</ele>
        <time>2016-08-07T09:09:53Z</time>
      </trkpt>
      <trkpt lat="43.58319" lon="3.35185">
        <ele>295.4</ele>
        <time>2016-08-07T09:09:54Z</time>
      </trkpt>
      <trkpt lat="43.58321" lon="3.35194">
        <ele>295</ele>
        <time>2016-08-07T09:09:56Z</time>
      </trkpt>
      <trkpt lat="43.58326" lon="3.35201">
        <ele>294.6</ele>
        <time>2016-08-07T09:09:58Z</time>
      </trkpt>
      <trkpt lat="43.58331" lon="3.35211">
        <ele>292.2</ele>
        <time>2016-08-07T09:10:00Z</time>
      </trkpt>
      <trkpt lat="43.58332" lon="3.3523">
        <ele>287.3</ele>
        <time>2016-08-07T09:10:02Z</time>
      </trkpt>
      <trkpt lat="43.58333" lon="3.35247">
        <ele>283.8</ele>
        <time>2016-08-07T09:10:04Z</time>
      </trkpt>
      <trkpt lat="43.58332" lon="3.35264">
        <ele>281.1</ele>
        <time>2016-08-07T09:10:06Z</time>
      </trkpt>
      <trkpt lat="43.58331" lon="3.35277">
        <ele>279.3</ele>
        <time>2016-08-07T09:10:08Z</time>
      </trkpt>
      <trkpt lat="43.58336" lon="3.35287">
        <ele>278.9</ele>
        <time>2016-08-07T09:10:11Z</time>
      </trkpt>
      <trkpt lat="43.58336" lon="3.35294">
        <ele>277.5</ele>
        <time>2016-08-07T09:10:18Z</time>
      </trkpt>
      <trkpt lat="43.58333" lon="3.35308">
        <ele>273.7</ele>
        <time>2016-08-07T09:10:55Z</time>
      </trkpt>
      <trkpt lat="43.5833" lon="3.35323">
        <ele>271.5</ele>
        <time>2016-08-07T09:10:57Z</time>
      </trkpt>
      <trkpt lat="43.58329" lon="3.35337">
        <ele>268.3</ele>
        <time>2016-08-07T09:10:59Z</time>
      </trkpt>
      <trkpt lat="43.58327" lon="3.35351">
        <ele>266.7</ele>
        <time>2016-08-07T09:11:01Z</time>
      </trkpt>
      <trkpt lat="43.58327" lon="3.35362">
        <ele>265.8</ele>
        <time>2016-08-07T09:11:03Z</time>
      </trkpt>
      <trkpt lat="43.58327" lon="3.35378">
        <ele>264.8</ele>
        <time>2016-08-07T09:11:05Z</time>
      </trkpt>
      <trkpt lat="43.58326" lon="3.35397">
        <ele>264.3</ele>
        <time>2016-08-07T09:11:07Z</time>
      </trkpt>
      <trkpt lat="43.58326" lon="3.35407">
        <ele>263.2</ele>
        <time>2016-08-07T09:11:08Z</time>
      </trkpt>
      <trkpt lat="43.58326" lon="3.35417">
        <ele>262.1</ele>
        <time>2016-08-07T09:11:09Z</time>
      </trkpt>
      <trkpt lat="43.58327" lon="3.35438">
        <ele>261.3</ele>
        <time>2016-08-07T09:11:11Z</time>
      </trkpt>
      <trkpt lat="43.58327" lon="3.3545">
        <ele>261</ele>
        <time>2016-08-07T09:11:12Z</time>
      </trkpt>
      <trkpt lat="43.58327" lon="3.35461">
        <ele>260.3</ele>
        <time>2016-08-07T09:11:13Z</time>
      </trkpt>
      <trkpt lat="43.58327" lon="3.35471">
        <ele>259.4</ele>
        <time>2016-08-07T09:11:14Z</time>
      </trkpt>
      <trkpt lat="43.58326" lon="3.35482">
        <ele>258.2</ele>
        <time>2016-08-07T09:11:15Z</time>
      </trkpt>
      <trkpt lat="43.58326" lon="3.35494">
        <ele>257.2</ele>
        <time>2016-08-07T09:11:16Z</time>
      </trkpt>
      <trkpt lat="43.58324" lon="3.35506">
        <ele>256.4</ele>
        <time>2016-08-07T09:11:17Z</time>
      </trkpt>
      <trkpt lat="43.58323" lon="3.35518">
        <ele>256.4</ele>
        <time>2016-08-07T09:11:18Z</time>
      </trkpt>
      <trkpt lat="43.58322" lon="3.3553">
        <ele>255.9</ele>
        <time>2016-08-07T09:11:19Z</time>
      </trkpt>
      <trkpt lat="43.5832" lon="3.3554">
        <ele>255.2</ele>
        <time>2016-08-07T09:11:20Z</time>
      </trkpt>
      <trkpt lat="43.58317" lon="3.35552">
        <ele>254.2</ele>
        <time>2016-08-07T09:11:21Z</time>
      </trkpt>
      <trkpt lat="43.58314" lon="3.35565">
        <ele>253.5</ele>
        <time>2016-08-07T09:11:22Z</time>
      </trkpt>
      <trkpt lat="43.58312" lon="3.35577">
        <ele>252.5</ele>
        <time>2016-08-07T09:11:23Z</time>
      </trkpt>
      <trkpt lat="43.5831" lon="3.35588">
        <ele>251.9</ele>
        <time>2016-08-07T09:11:24Z</time>
      </trkpt>
      <trkpt lat="43.58307" lon="3.35598">
        <ele>251.4</ele>
        <time>2016-08-07T09:11:25Z</time>
      </trkpt>
      <trkpt lat="43.58301" lon="3.35607">
        <ele>250.8</ele>
        <time>2016-08-07T09:11:26Z</time>
      </trkpt>
      <trkpt lat="43.58295" lon="3.35617">
        <ele>250.1</ele>
        <time>2016-08-07T09:11:27Z</time>
      </trkpt>
      <trkpt lat="43.5829" lon="3.35625">
        <ele>249.7</ele>
        <time>2016-08-07T09:11:28Z</time>
      </trkpt>
      <trkpt lat="43.58284" lon="3.35643">
        <ele>248.6</ele>
        <time>2016-08-07T09:11:30Z</time>
      </trkpt>
      <trkpt lat="43.58282" lon="3.35655">
        <ele>248.4</ele>
        <time>2016-08-07T09:11:31Z</time>
      </trkpt>
      <trkpt lat="43.58279" lon="3.35666">
        <ele>248.3</ele>
        <time>2016-08-07T09:11:32Z</time>
      </trkpt>
      <trkpt lat="43.58276" lon="3.35678">
        <ele>247.6</ele>
        <time>2016-08-07T09:11:33Z</time>
      </trkpt>
      <trkpt lat="43.58274" lon="3.35689">
        <ele>247.3</ele>
        <time>2016-08-07T09:11:34Z</time>
      </trkpt>
      <trkpt lat="43.5827" lon="3.35701">
        <ele>247.2</ele>
        <time>2016-08-07T09:11:35Z</time>
      </trkpt>
      <trkpt lat="43.58266" lon="3.35714">
        <ele>246.7</ele>
        <time>2016-08-07T09:11:36Z</time>
      </trkpt>
      <trkpt lat="43.58262" lon="3.35727">
        <ele>245.6</ele>
        <time>2016-08-07T09:11:37Z</time>
      </trkpt>
      <trkpt lat="43.58257" lon="3.3574">
        <ele>244.9</ele>
        <time>2016-08-07T09:11:38Z</time>
      </trkpt>
      <trkpt lat="43.58253" lon="3.35753">
        <ele>244</ele>
        <time>2016-08-07T09:11:39Z</time>
      </trkpt>
      <trkpt lat="43.58248" lon="3.35767">
        <ele>242.1</ele>
        <time>2016-08-07T09:11:40Z</time>
      </trkpt>
      <trkpt lat="43.58244" lon="3.35782">
        <ele>240.5</ele>
        <time>2016-08-07T09:11:41Z</time>
      </trkpt>
      <trkpt lat="43.58238" lon="3.35799">
        <ele>238.6</ele>
        <time>2016-08-07T09:11:42Z</time>
      </trkpt>
      <trkpt lat="43.58232" lon="3.35815">
        <ele>236.6</ele>
        <time>2016-08-07T09:11:43Z</time>
      </trkpt>
      <trkpt lat="43.58226" lon="3.3583">
        <ele>234.4</ele>
        <time>2016-08-07T09:11:44Z</time>
      </trkpt>
      <trkpt lat="43.5822" lon="3.35845">
        <ele>232.2</ele>
        <time>2016-08-07T09:11:45Z</time>
      </trkpt>
      <trkpt lat="43.58215" lon="3.35858">
        <ele>230</ele>
        <time>2016-08-07T09:11:46Z</time>
      </trkpt>
      <trkpt lat="43.58211" lon="3.35868">
        <ele>228</ele>
        <time>2016-08-07T09:11:47Z</time>
      </trkpt>
      <trkpt lat="43.58206" lon="3.3588">
        <ele>226.4</ele>
        <time>2016-08-07T09:11:49Z</time>
      </trkpt>
      <trkpt lat="43.58214" lon="3.35883">
        <ele>225.5</ele>
        <time>2016-08-07T09:11:56Z</time>
      </trkpt>
      <trkpt lat="43.58223" lon="3.35878">
        <ele>225.1</ele>
        <time>2016-08-07T09:11:59Z</time>
      </trkpt>
      <trkpt lat="43.58232" lon="3.35872">
        <ele>224.7</ele>
        <time>2016-08-07T09:12:02Z</time>
      </trkpt>
      <trkpt lat="43.58239" lon="3.35866">
        <ele>224.6</ele>
        <time>2016-08-07T09:12:04Z</time>
      </trkpt>
      <trkpt lat="43.58246" lon="3.35862">
        <ele>223.3</ele>
        <time>2016-08-07T09:12:06Z</time>
      </trkpt>
      <trkpt lat="43.58255" lon="3.35857">
        <ele>220.8</ele>
        <time>2016-08-07T09:12:08Z</time>
      </trkpt>
      <trkpt lat="43.58265" lon="3.35851">
        <ele>220.7</ele>
        <time>2016-08-07T09:12:10Z</time>
      </trkpt>
      <trkpt lat="43.58272" lon="3.35846">
        <ele>220.4</ele>
        <time>2016-08-07T09:12:12Z</time>
      </trkpt>
      <trkpt lat="43.58281" lon="3.35841">
        <ele>219</ele>
        <time>2016-08-07T09:12:14Z</time>
      </trkpt>
      <trkpt lat="43.5829" lon="3.35835">
        <ele>219.3</ele>
        <time>2016-08-07T09:12:17Z</time>
      </trkpt>
      <trkpt lat="43.583" lon="3.3583">
        <ele>219.1</ele>
        <time>2016-08-07T09:12:20Z</time>
      </trkpt>
      <trkpt lat="43.58309" lon="3.35825">
        <ele>219.1</ele>
        <time>2016-08-07T09:12:23Z</time>
      </trkpt>
      <trkpt lat="43.58315" lon="3.3582">
        <ele>219.1</ele>
        <time>2016-08-07T09:12:25Z</time>
      </trkpt>
      <trkpt lat="43.58321" lon="3.35815">
        <ele>219.2</ele>
        <time>2016-08-07T09:12:27Z</time>
      </trkpt>
      <trkpt lat="43.58328" lon="3.35809">
        <ele>219.7</ele>
        <time>2016-08-07T09:12:29Z</time>
      </trkpt>
      <trkpt lat="43.58335" lon="3.35803">
        <ele>219.7</ele>
        <time>2016-08-07T09:12:31Z</time>
      </trkpt>
      <trkpt lat="43.58344" lon="3.35795">
        <ele>220</ele>
        <time>2016-08-07T09:12:34Z</time>
      </trkpt>
      <trkpt lat="43.5835" lon="3.35787">
        <ele>220.2</ele>
        <time>2016-08-07T09:12:36Z</time>
      </trkpt>
      <trkpt lat="43.58358" lon="3.35778">
        <ele>221.3</ele>
        <time>2016-08-07T09:12:38Z</time>
      </trkpt>
      <trkpt lat="43.58367" lon="3.35768">
        <ele>222.6</ele>
        <time>2016-08-07T09:12:40Z</time>
      </trkpt>
      <trkpt lat="43.58375" lon="3.3576">
        <ele>222.6</ele>
        <time>2016-08-07T09:12:42Z</time>
      </trkpt>
      <trkpt lat="43.58382" lon="3.35753">
        <ele>223.1</ele>
        <time>2016-08-07T09:12:44Z</time>
      </trkpt>
      <trkpt lat="43.58391" lon="3.35747">
        <ele>223.9</ele>
        <time>2016-08-07T09:12:46Z</time>
      </trkpt>
      <trkpt lat="43.58399" lon="3.35739">
        <ele>223.9</ele>
        <time>2016-08-07T09:12:48Z</time>
      </trkpt>
      <trkpt lat="43.58406" lon="3.35731">
        <ele>224</ele>
        <time>2016-08-07T09:12:50Z</time>
      </trkpt>
      <trkpt lat="43.58413" lon="3.35725">
        <ele>224.1</ele>
        <time>2016-08-07T09:12:52Z</time>
      </trkpt>
      <trkpt lat="43.58422" lon="3.35717">
        <ele>224.3</ele>
        <time>2016-08-07T09:12:54Z</time>
      </trkpt>
      <trkpt lat="43.58435" lon="3.35705">
        <ele>223.1</ele>
        <time>2016-08-07T09:12:56Z</time>
      </trkpt>
      <trkpt lat="43.58442" lon="3.357">
        <ele>223.1</ele>
        <time>2016-08-07T09:12:57Z</time>
      </trkpt>
      <trkpt lat="43.58448" lon="3.35695">
        <ele>223.2</ele>
        <time>2016-08-07T09:12:58Z</time>
      </trkpt>
      <trkpt lat="43.58458" lon="3.35687">
        <ele>222.5</ele>
        <time>2016-08-07T09:13:00Z</time>
      </trkpt>
      <trkpt lat="43.58468" lon="3.35681">
        <ele>222</ele>
        <time>2016-08-07T09:13:02Z</time>
      </trkpt>
      <trkpt lat="43.58477" lon="3.35675">
        <ele>221.9</ele>
        <time>2016-08-07T09:13:04Z</time>
      </trkpt>
      <trkpt lat="43.58487" lon="3.35667">
        <ele>221.8</ele>
        <time>2016-08-07T09:13:06Z</time>
      </trkpt>
      <trkpt lat="43.58496" lon="3.35661">
        <ele>220.9</ele>
        <time>2016-08-07T09:13:08Z</time>
      </trkpt>
      <trkpt lat="43.58505" lon="3.35657">
        <ele>220.6</ele>
        <time>2016-08-07T09:13:10Z</time>
      </trkpt>
      <trkpt lat="43.58515" lon="3.35654">
        <ele>219.4</ele>
        <time>2016-08-07T09:13:12Z</time>
      </trkpt>
      <trkpt lat="43.58523" lon="3.35652">
        <ele>217.8</ele>
        <time>2016-08-07T09:13:14Z</time>
      </trkpt>
      <trkpt lat="43.58532" lon="3.3565">
        <ele>216.3</ele>
        <time>2016-08-07T09:13:16Z</time>
      </trkpt>
      <trkpt lat="43.58541" lon="3.3565">
        <ele>215.5</ele>
        <time>2016-08-07T09:13:18Z</time>
      </trkpt>
      <trkpt lat="43.58549" lon="3.35653">
        <ele>215.5</ele>
        <time>2016-08-07T09:13:20Z</time>
      </trkpt>
      <trkpt lat="43.58558" lon="3.3565">
        <ele>215.4</ele>
        <time>2016-08-07T09:13:24Z</time>
      </trkpt>
      <trkpt lat="43.58567" lon="3.35644">
        <ele>215.2</ele>
        <time>2016-08-07T09:13:27Z</time>
      </trkpt>
      <trkpt lat="43.58574" lon="3.3564">
        <ele>214.8</ele>
        <time>2016-08-07T09:13:29Z</time>
      </trkpt>
      <trkpt lat="43.58582" lon="3.35635">
        <ele>214.4</ele>
        <time>2016-08-07T09:13:31Z</time>
      </trkpt>
      <trkpt lat="43.58591" lon="3.3563">
        <ele>213.4</ele>
        <time>2016-08-07T09:13:33Z</time>
      </trkpt>
      <trkpt lat="43.58599" lon="3.35625">
        <ele>213.1</ele>
        <time>2016-08-07T09:13:35Z</time>
      </trkpt>
      <trkpt lat="43.58607" lon="3.35619">
        <ele>212.8</ele>
        <time>2016-08-07T09:13:37Z</time>
      </trkpt>
      <trkpt lat="43.58616" lon="3.35614">
        <ele>212.6</ele>
        <time>2016-08-07T09:13:39Z</time>
      </trkpt>
      <trkpt lat="43.58624" lon="3.35611">
        <ele>212.9</ele>
        <time>2016-08-07T09:13:41Z</time>
      </trkpt>
      <trkpt lat="43.58633" lon="3.35607">
        <ele>212.9</ele>
        <time>2016-08-07T09:13:43Z</time>
      </trkpt>
      <trkpt lat="43.58641" lon="3.35604">
        <ele>212.6</ele>
        <time>2016-08-07T09:13:45Z</time>
      </trkpt>
      <trkpt lat="43.5865" lon="3.35599">
        <ele>212.4</ele>
        <time>2016-08-07T09:13:47Z</time>
      </trkpt>
      <trkpt lat="43.58657" lon="3.35593">
        <ele>212.5</ele>
        <time>2016-08-07T09:13:49Z</time>
      </trkpt>
      <trkpt lat="43.58662" lon="3.35586">
        <ele>212.6</ele>
        <time>2016-08-07T09:13:51Z</time>
      </trkpt>
      <trkpt lat="43.58668" lon="3.35577">
        <ele>213.3</ele>
        <time>2016-08-07T09:13:53Z</time>
      </trkpt>
      <trkpt lat="43.58673" lon="3.35569">
        <ele>213.9</ele>
        <time>2016-08-07T09:13:55Z</time>
      </trkpt>
      <trkpt lat="43.5868" lon="3.3556">
        <ele>214.3</ele>
        <time>2016-08-07T09:13:57Z</time>
      </trkpt>
      <trkpt lat="43.58687" lon="3.35548">
        <ele>215.4</ele>
        <time>2016-08-07T09:14:00Z</time>
      </trkpt>
      <trkpt lat="43.58693" lon="3.35537">
        <ele>216.1</ele>
        <time>2016-08-07T09:14:02Z</time>
      </trkpt>
      <trkpt lat="43.58696" lon="3.35528">
        <ele>216.5</ele>
        <time>2016-08-07T09:14:04Z</time>
      </trkpt>
      <trkpt lat="43.58699" lon="3.35518">
        <ele>216.3</ele>
        <time>2016-08-07T09:14:06Z</time>
      </trkpt>
      <trkpt lat="43.58702" lon="3.35507">
        <ele>215.8</ele>
        <time>2016-08-07T09:14:08Z</time>
      </trkpt>
      <trkpt lat="43.58706" lon="3.35498">
        <ele>215.8</ele>
        <time>2016-08-07T09:14:10Z</time>
      </trkpt>
      <trkpt lat="43.58711" lon="3.35488">
        <ele>215.8</ele>
        <time>2016-08-07T09:14:12Z</time>
      </trkpt>
      <trkpt lat="43.58719" lon="3.35479">
        <ele>215.7</ele>
        <time>2016-08-07T09:14:15Z</time>
      </trkpt>
      <trkpt lat="43.58726" lon="3.35474">
        <ele>215.7</ele>
        <time>2016-08-07T09:14:17Z</time>
      </trkpt>
      <trkpt lat="43.58734" lon="3.35468">
        <ele>215.6</ele>
        <time>2016-08-07T09:14:20Z</time>
      </trkpt>
      <trkpt lat="43.58743" lon="3.35462">
        <ele>215.5</ele>
        <time>2016-08-07T09:14:23Z</time>
      </trkpt>
      <trkpt lat="43.58749" lon="3.35456">
        <ele>215.5</ele>
        <time>2016-08-07T09:14:25Z</time>
      </trkpt>
      <trkpt lat="43.58754" lon="3.35449">
        <ele>214.7</ele>
        <time>2016-08-07T09:14:27Z</time>
      </trkpt>
      <trkpt lat="43.58759" lon="3.3544">
        <ele>214.6</ele>
        <time>2016-08-07T09:14:29Z</time>
      </trkpt>
      <trkpt lat="43.58761" lon="3.3543">
        <ele>214.6</ele>
        <time>2016-08-07T09:14:31Z</time>
      </trkpt>
      <trkpt lat="43.58763" lon="3.35418">
        <ele>214.7</ele>
        <time>2016-08-07T09:14:34Z</time>
      </trkpt>
      <trkpt lat="43.58767" lon="3.35406">
        <ele>214.7</ele>
        <time>2016-08-07T09:14:37Z</time>
      </trkpt>
      <trkpt lat="43.58771" lon="3.35397">
        <ele>214.9</ele>
        <time>2016-08-07T09:14:40Z</time>
      </trkpt>
      <trkpt lat="43.58775" lon="3.35386">
        <ele>215</ele>
        <time>2016-08-07T09:14:43Z</time>
      </trkpt>
      <trkpt lat="43.58782" lon="3.3538">
        <ele>215</ele>
        <time>2016-08-07T09:14:46Z</time>
      </trkpt>
      <trkpt lat="43.58791" lon="3.35375">
        <ele>214.9</ele>
        <time>2016-08-07T09:14:49Z</time>
      </trkpt>
      <trkpt lat="43.58802" lon="3.35374">
        <ele>213.7</ele>
        <time>2016-08-07T09:14:52Z</time>
      </trkpt>
      <trkpt lat="43.58816" lon="3.35371">
        <ele>210.7</ele>
        <time>2016-08-07T09:14:54Z</time>
      </trkpt>
      <trkpt lat="43.58828" lon="3.35369">
        <ele>208.7</ele>
        <time>2016-08-07T09:14:56Z</time>
      </trkpt>
      <trkpt lat="43.58834" lon="3.35364">
        <ele>208.3</ele>
        <time>2016-08-07T09:15:03Z</time>
      </trkpt>
      <trkpt lat="43.58839" lon="3.35367">
        <ele>207.4</ele>
        <time>2016-08-07T09:14:35Z</time>
      </trkpt>
      <trkpt lat="43.58841" lon="3.35378">
        <ele>206.3</ele>
        <time>2016-08-07T09:14:37Z</time>
      </trkpt>
      <trkpt lat="43.58841" lon="3.35392">
        <ele>205.1</ele>
        <time>2016-08-07T09:14:39Z</time>
      </trkpt>
      <trkpt lat="43.5884" lon="3.35407">
        <ele>202.7</ele>
        <time>2016-08-07T09:14:41Z</time>
      </trkpt>
      <trkpt lat="43.5884" lon="3.35419">
        <ele>200.2</ele>
        <time>2016-08-07T09:14:43Z</time>
      </trkpt>
      <trkpt lat="43.58836" lon="3.35433">
        <ele>197.3</ele>
        <time>2016-08-07T09:14:45Z</time>
      </trkpt>
      <trkpt lat="43.58831" lon="3.3545">
        <ele>194.3</ele>
        <time>2016-08-07T09:14:47Z</time>
      </trkpt>
      <trkpt lat="43.58828" lon="3.35464">
        <ele>192.3</ele>
        <time>2016-08-07T09:14:49Z</time>
      </trkpt>
      <trkpt lat="43.58828" lon="3.35467">
        <ele>191.9</ele>
        <time>2016-08-07T09:16:01Z</time>
      </trkpt>
      <trkpt lat="43.58821" lon="3.35475">
        <ele>190.8</ele>
        <time>2016-08-07T09:15:47Z</time>
      </trkpt>
      <trkpt lat="43.58814" lon="3.35483">
        <ele>190.7</ele>
        <time>2016-08-07T09:16:55Z</time>
      </trkpt>
      <trkpt lat="43.58807" lon="3.35491">
        <ele>190.7</ele>
        <time>2016-08-07T09:16:58Z</time>
      </trkpt>
      <trkpt lat="43.58802" lon="3.355">
        <ele>190.6</ele>
        <time>2016-08-07T09:17:01Z</time>
      </trkpt>
      <trkpt lat="43.58797" lon="3.35511">
        <ele>190.5</ele>
        <time>2016-08-07T09:17:04Z</time>
      </trkpt>
      <trkpt lat="43.58794" lon="3.35519">
        <ele>190.3</ele>
        <time>2016-08-07T09:17:11Z</time>
      </trkpt>
      <trkpt lat="43.58786" lon="3.35528">
        <ele>189.6</ele>
        <time>2016-08-07T09:17:22Z</time>
      </trkpt>
      <trkpt lat="43.58783" lon="3.35539">
        <ele>189.2</ele>
        <time>2016-08-07T09:17:28Z</time>
      </trkpt>
      <trkpt lat="43.58778" lon="3.35553">
        <ele>189</ele>
        <time>2016-08-07T09:17:31Z</time>
      </trkpt>
      <trkpt lat="43.58773" lon="3.35566">
        <ele>188.4</ele>
        <time>2016-08-07T09:17:33Z</time>
      </trkpt>
      <trkpt lat="43.58768" lon="3.35578">
        <ele>187.4</ele>
        <time>2016-08-07T09:17:35Z</time>
      </trkpt>
      <trkpt lat="43.58762" lon="3.35587">
        <ele>187.5</ele>
        <time>2016-08-07T09:17:37Z</time>
      </trkpt>
      <trkpt lat="43.58755" lon="3.35593">
        <ele>186.7</ele>
        <time>2016-08-07T09:17:39Z</time>
      </trkpt>
      <trkpt lat="43.58749" lon="3.35601">
        <ele>186.5</ele>
        <time>2016-08-07T09:17:41Z</time>
      </trkpt>
      <trkpt lat="43.58744" lon="3.35611">
        <ele>186.5</ele>
        <time>2016-08-07T09:17:43Z</time>
      </trkpt>
      <trkpt lat="43.58741" lon="3.3562">
        <ele>186.8</ele>
        <time>2016-08-07T09:17:47Z</time>
      </trkpt>
      <trkpt lat="43.58736" lon="3.3563">
        <ele>187.1</ele>
        <time>2016-08-07T09:17:50Z</time>
      </trkpt>
      <trkpt lat="43.58734" lon="3.35641">
        <ele>187.2</ele>
        <time>2016-08-07T09:17:53Z</time>
      </trkpt>
      <trkpt lat="43.58733" lon="3.35652">
        <ele>187.3</ele>
        <time>2016-08-07T09:17:55Z</time>
      </trkpt>
      <trkpt lat="43.58731" lon="3.35663">
        <ele>187.8</ele>
        <time>2016-08-07T09:17:57Z</time>
      </trkpt>
      <trkpt lat="43.58728" lon="3.35677">
        <ele>188.6</ele>
        <time>2016-08-07T09:17:59Z</time>
      </trkpt>
      <trkpt lat="43.58725" lon="3.35692">
        <ele>189.4</ele>
        <time>2016-08-07T09:18:01Z</time>
      </trkpt>
      <trkpt lat="43.58722" lon="3.35707">
        <ele>188.5</ele>
        <time>2016-08-07T09:18:03Z</time>
      </trkpt>
      <trkpt lat="43.58726" lon="3.35723">
        <ele>187</ele>
        <time>2016-08-07T09:18:05Z</time>
      </trkpt>
      <trkpt lat="43.58726" lon="3.35738">
        <ele>184.9</ele>
        <time>2016-08-07T09:18:07Z</time>
      </trkpt>
      <trkpt lat="43.58731" lon="3.35754">
        <ele>182.5</ele>
        <time>2016-08-07T09:18:09Z</time>
      </trkpt>
      <trkpt lat="43.58738" lon="3.35768">
        <ele>180.5</ele>
        <time>2016-08-07T09:18:11Z</time>
      </trkpt>
      <trkpt lat="43.58745" lon="3.35778">
        <ele>178.8</ele>
        <time>2016-08-07T09:18:13Z</time>
      </trkpt>
      <trkpt lat="43.58751" lon="3.35789">
        <ele>177.3</ele>
        <time>2016-08-07T09:18:15Z</time>
      </trkpt>
      <trkpt lat="43.58758" lon="3.35801">
        <ele>176</ele>
        <time>2016-08-07T09:18:17Z</time>
      </trkpt>
      <trkpt lat="43.58764" lon="3.35813">
        <ele>175.2</ele>
        <time>2016-08-07T09:18:19Z</time>
      </trkpt>
      <trkpt lat="43.58766" lon="3.35826">
        <ele>174.3</ele>
        <time>2016-08-07T09:18:21Z</time>
      </trkpt>
      <trkpt lat="43.5876" lon="3.35836">
        <ele>172.8</ele>
        <time>2016-08-07T09:18:23Z</time>
      </trkpt>
      <trkpt lat="43.58754" lon="3.35842">
        <ele>172.7</ele>
        <time>2016-08-07T09:18:25Z</time>
      </trkpt>
      <trkpt lat="43.58748" lon="3.35849">
        <ele>172.4</ele>
        <time>2016-08-07T09:18:27Z</time>
      </trkpt>
      <trkpt lat="43.58742" lon="3.35856">
        <ele>172.1</ele>
        <time>2016-08-07T09:18:29Z</time>
      </trkpt>
      <trkpt lat="43.58735" lon="3.35865">
        <ele>172</ele>
        <time>2016-08-07T09:18:31Z</time>
      </trkpt>
      <trkpt lat="43.58728" lon="3.35872">
        <ele>172.2</ele>
        <time>2016-08-07T09:18:33Z</time>
      </trkpt>
      <trkpt lat="43.5872" lon="3.35879">
        <ele>172</ele>
        <time>2016-08-07T09:18:35Z</time>
      </trkpt>
      <trkpt lat="43.58711" lon="3.35887">
        <ele>172.3</ele>
        <time>2016-08-07T09:18:37Z</time>
      </trkpt>
      <trkpt lat="43.58702" lon="3.35894">
        <ele>172.6</ele>
        <time>2016-08-07T09:18:39Z</time>
      </trkpt>
      <trkpt lat="43.58691" lon="3.35903">
        <ele>172.3</ele>
        <time>2016-08-07T09:18:41Z</time>
      </trkpt>
      <trkpt lat="43.5868" lon="3.35912">
        <ele>171.8</ele>
        <time>2016-08-07T09:18:43Z</time>
      </trkpt>
      <trkpt lat="43.58667" lon="3.35922">
        <ele>171.5</ele>
        <time>2016-08-07T09:18:45Z</time>
      </trkpt>
      <trkpt lat="43.58655" lon="3.35931">
        <ele>170.7</ele>
        <time>2016-08-07T09:18:47Z</time>
      </trkpt>
      <trkpt lat="43.58649" lon="3.35936">
        <ele>170.8</ele>
        <time>2016-08-07T09:18:48Z</time>
      </trkpt>
      <trkpt lat="43.58637" lon="3.35944">
        <ele>170.8</ele>
        <time>2016-08-07T09:18:50Z</time>
      </trkpt>
      <trkpt lat="43.58624" lon="3.35952">
        <ele>170.4</ele>
        <time>2016-08-07T09:18:52Z</time>
      </trkpt>
      <trkpt lat="43.58612" lon="3.35956">
        <ele>170.6</ele>
        <time>2016-08-07T09:18:54Z</time>
      </trkpt>
      <trkpt lat="43.58602" lon="3.3596">
        <ele>170.3</ele>
        <time>2016-08-07T09:18:56Z</time>
      </trkpt>
      <trkpt lat="43.5859" lon="3.35963">
        <ele>171.1</ele>
        <time>2016-08-07T09:18:58Z</time>
      </trkpt>
      <trkpt lat="43.58578" lon="3.35969">
        <ele>170.6</ele>
        <time>2016-08-07T09:19:00Z</time>
      </trkpt>
      <trkpt lat="43.58568" lon="3.35977">
        <ele>169.9</ele>
        <time>2016-08-07T09:19:02Z</time>
      </trkpt>
      <trkpt lat="43.58558" lon="3.35984">
        <ele>169.9</ele>
        <time>2016-08-07T09:19:04Z</time>
      </trkpt>
      <trkpt lat="43.58549" lon="3.35991">
        <ele>170.4</ele>
        <time>2016-08-07T09:19:06Z</time>
      </trkpt>
      <trkpt lat="43.58539" lon="3.35999">
        <ele>170.5</ele>
        <time>2016-08-07T09:19:08Z</time>
      </trkpt>
      <trkpt lat="43.58533" lon="3.36003">
        <ele>170.1</ele>
        <time>2016-08-07T09:19:09Z</time>
      </trkpt>
      <trkpt lat="43.58521" lon="3.36011">
        <ele>169.3</ele>
        <time>2016-08-07T09:19:11Z</time>
      </trkpt>
      <trkpt lat="43.5851" lon="3.3602">
        <ele>169.5</ele>
        <time>2016-08-07T09:19:13Z</time>
      </trkpt>
      <trkpt lat="43.58498" lon="3.36032">
        <ele>170</ele>
        <time>2016-08-07T09:19:15Z</time>
      </trkpt>
      <trkpt lat="43.58487" lon="3.36042">
        <ele>169.7</ele>
        <time>2016-08-07T09:19:17Z</time>
      </trkpt>
      <trkpt lat="43.58476" lon="3.36053">
        <ele>169</ele>
        <time>2016-08-07T09:19:19Z</time>
      </trkpt>
      <trkpt lat="43.58465" lon="3.36061">
        <ele>168.1</ele>
        <time>2016-08-07T09:19:21Z</time>
      </trkpt>
      <trkpt lat="43.58455" lon="3.36068">
        <ele>167.3</ele>
        <time>2016-08-07T09:19:23Z</time>
      </trkpt>
      <trkpt lat="43.58444" lon="3.36077">
        <ele>167.8</ele>
        <time>2016-08-07T09:19:25Z</time>
      </trkpt>
      <trkpt lat="43.58435" lon="3.36086">
        <ele>167.5</ele>
        <time>2016-08-07T09:19:27Z</time>
      </trkpt>
      <trkpt lat="43.58427" lon="3.36096">
        <ele>166.6</ele>
        <time>2016-08-07T09:19:29Z</time>
      </trkpt>
      <trkpt lat="43.5842" lon="3.36107">
        <ele>165.6</ele>
        <time>2016-08-07T09:19:31Z</time>
      </trkpt>
      <trkpt lat="43.58411" lon="3.36119">
        <ele>165.6</ele>
        <time>2016-08-07T09:19:33Z</time>
      </trkpt>
      <trkpt lat="43.58403" lon="3.3613">
        <ele>165.5</ele>
        <time>2016-08-07T09:19:35Z</time>
      </trkpt>
      <trkpt lat="43.58395" lon="3.36142">
        <ele>165.6</ele>
        <time>2016-08-07T09:19:37Z</time>
      </trkpt>
      <trkpt lat="43.58386" lon="3.36154">
        <ele>165.3</ele>
        <time>2016-08-07T09:19:39Z</time>
      </trkpt>
      <trkpt lat="43.58378" lon="3.36164">
        <ele>165.1</ele>
        <time>2016-08-07T09:19:41Z</time>
      </trkpt>
      <trkpt lat="43.5837" lon="3.36174">
        <ele>165.3</ele>
        <time>2016-08-07T09:19:43Z</time>
      </trkpt>
      <trkpt lat="43.58361" lon="3.36181">
        <ele>165.6</ele>
        <time>2016-08-07T09:19:45Z</time>
      </trkpt>
      <trkpt lat="43.58352" lon="3.36187">
        <ele>165.3</ele>
        <time>2016-08-07T09:19:47Z</time>
      </trkpt>
      <trkpt lat="43.58341" lon="3.36189">
        <ele>164.8</ele>
        <time>2016-08-07T09:19:49Z</time>
      </trkpt>
      <trkpt lat="43.58331" lon="3.36192">
        <ele>164.4</ele>
        <time>2016-08-07T09:19:51Z</time>
      </trkpt>
      <trkpt lat="43.58321" lon="3.36196">
        <ele>164.6</ele>
        <time>2016-08-07T09:19:53Z</time>
      </trkpt>
      <trkpt lat="43.5831" lon="3.362">
        <ele>164.1</ele>
        <time>2016-08-07T09:19:55Z</time>
      </trkpt>
      <trkpt lat="43.583" lon="3.36203">
        <ele>164.1</ele>
        <time>2016-08-07T09:19:57Z</time>
      </trkpt>
      <trkpt lat="43.58291" lon="3.36207">
        <ele>164.6</ele>
        <time>2016-08-07T09:19:59Z</time>
      </trkpt>
      <trkpt lat="43.58283" lon="3.36209">
        <ele>164.9</ele>
        <time>2016-08-07T09:20:01Z</time>
      </trkpt>
      <trkpt lat="43.58275" lon="3.3621">
        <ele>165.8</ele>
        <time>2016-08-07T09:20:03Z</time>
      </trkpt>
      <trkpt lat="43.58267" lon="3.36216">
        <ele>166.3</ele>
        <time>2016-08-07T09:20:05Z</time>
      </trkpt>
      <trkpt lat="43.58259" lon="3.3622">
        <ele>166.7</ele>
        <time>2016-08-07T09:20:07Z</time>
      </trkpt>
      <trkpt lat="43.58251" lon="3.36224">
        <ele>166.5</ele>
        <time>2016-08-07T09:20:09Z</time>
      </trkpt>
      <trkpt lat="43.58242" lon="3.36229">
        <ele>166.3</ele>
        <time>2016-08-07T09:20:11Z</time>
      </trkpt>
      <trkpt lat="43.58231" lon="3.36235">
        <ele>166</ele>
        <time>2016-08-07T09:20:13Z</time>
      </trkpt>
      <trkpt lat="43.58222" lon="3.3624">
        <ele>165.3</ele>
        <time>2016-08-07T09:20:15Z</time>
      </trkpt>
      <trkpt lat="43.58212" lon="3.36244">
        <ele>164.5</ele>
        <time>2016-08-07T09:20:17Z</time>
      </trkpt>
      <trkpt lat="43.58202" lon="3.3625">
        <ele>163.7</ele>
        <time>2016-08-07T09:20:19Z</time>
      </trkpt>
      <trkpt lat="43.58191" lon="3.36257">
        <ele>163.2</ele>
        <time>2016-08-07T09:20:21Z</time>
      </trkpt>
      <trkpt lat="43.58181" lon="3.36263">
        <ele>163.3</ele>
        <time>2016-08-07T09:20:23Z</time>
      </trkpt>
      <trkpt lat="43.58169" lon="3.36269">
        <ele>163.2</ele>
        <time>2016-08-07T09:20:25Z</time>
      </trkpt>
      <trkpt lat="43.58158" lon="3.36276">
        <ele>163</ele>
        <time>2016-08-07T09:20:27Z</time>
      </trkpt>
      <trkpt lat="43.58146" lon="3.36282">
        <ele>162.8</ele>
        <time>2016-08-07T09:20:29Z</time>
      </trkpt>
      <trkpt lat="43.58133" lon="3.36289">
        <ele>162.6</ele>
        <time>2016-08-07T09:20:31Z</time>
      </trkpt>
      <trkpt lat="43.5812" lon="3.36297">
        <ele>162.1</ele>
        <time>2016-08-07T09:20:33Z</time>
      </trkpt>
      <trkpt lat="43.58107" lon="3.36303">
        <ele>161.6</ele>
        <time>2016-08-07T09:20:35Z</time>
      </trkpt>
      <trkpt lat="43.58095" lon="3.3631">
        <ele>161.5</ele>
        <time>2016-08-07T09:20:37Z</time>
      </trkpt>
      <trkpt lat="43.58088" lon="3.36314">
        <ele>161.5</ele>
        <time>2016-08-07T09:20:38Z</time>
      </trkpt>
      <trkpt lat="43.58082" lon="3.36318">
        <ele>161.4</ele>
        <time>2016-08-07T09:20:39Z</time>
      </trkpt>
      <trkpt lat="43.58068" lon="3.36325">
        <ele>161.7</ele>
        <time>2016-08-07T09:20:41Z</time>
      </trkpt>
      <trkpt lat="43.58055" lon="3.36332">
        <ele>161.8</ele>
        <time>2016-08-07T09:20:43Z</time>
      </trkpt>
      <trkpt lat="43.58043" lon="3.36339">
        <ele>161.6</ele>
        <time>2016-08-07T09:20:45Z</time>
      </trkpt>
      <trkpt lat="43.5803" lon="3.36345">
        <ele>162.1</ele>
        <time>2016-08-07T09:20:47Z</time>
      </trkpt>
      <trkpt lat="43.58023" lon="3.36348">
        <ele>162.3</ele>
        <time>2016-08-07T09:20:48Z</time>
      </trkpt>
      <trkpt lat="43.58009" lon="3.36352">
        <ele>162.6</ele>
        <time>2016-08-07T09:20:50Z</time>
      </trkpt>
      <trkpt lat="43.58002" lon="3.36354">
        <ele>162.7</ele>
        <time>2016-08-07T09:20:51Z</time>
      </trkpt>
      <trkpt lat="43.57988" lon="3.36356">
        <ele>162</ele>
        <time>2016-08-07T09:20:53Z</time>
      </trkpt>
      <trkpt lat="43.57975" lon="3.36359">
        <ele>162.7</ele>
        <time>2016-08-07T09:20:55Z</time>
      </trkpt>
      <trkpt lat="43.57967" lon="3.36362">
        <ele>163.2</ele>
        <time>2016-08-07T09:20:56Z</time>
      </trkpt>
      <trkpt lat="43.57954" lon="3.36365">
        <ele>163.1</ele>
        <time>2016-08-07T09:20:58Z</time>
      </trkpt>
      <trkpt lat="43.57946" lon="3.36366">
        <ele>163</ele>
        <time>2016-08-07T09:20:59Z</time>
      </trkpt>
      <trkpt lat="43.57933" lon="3.36368">
        <ele>162.4</ele>
        <time>2016-08-07T09:21:01Z</time>
      </trkpt>
      <trkpt lat="43.5792" lon="3.3637">
        <ele>161.5</ele>
        <time>2016-08-07T09:21:03Z</time>
      </trkpt>
      <trkpt lat="43.57906" lon="3.36372">
        <ele>160.8</ele>
        <time>2016-08-07T09:21:05Z</time>
      </trkpt>
      <trkpt lat="43.57894" lon="3.36375">
        <ele>160.8</ele>
        <time>2016-08-07T09:21:07Z</time>
      </trkpt>
      <trkpt lat="43.57881" lon="3.36378">
        <ele>160.8</ele>
        <time>2016-08-07T09:21:09Z</time>
      </trkpt>
      <trkpt lat="43.57866" lon="3.36377">
        <ele>161.3</ele>
        <time>2016-08-07T09:21:11Z</time>
      </trkpt>
      <trkpt lat="43.57855" lon="3.36368">
        <ele>162.5</ele>
        <time>2016-08-07T09:21:13Z</time>
      </trkpt>
      <trkpt lat="43.57846" lon="3.36358">
        <ele>163.6</ele>
        <time>2016-08-07T09:21:15Z</time>
      </trkpt>
      <trkpt lat="43.57837" lon="3.36348">
        <ele>165</ele>
        <time>2016-08-07T09:21:17Z</time>
      </trkpt>
      <trkpt lat="43.57827" lon="3.36339">
        <ele>166.3</ele>
        <time>2016-08-07T09:21:19Z</time>
      </trkpt>
      <trkpt lat="43.57815" lon="3.36332">
        <ele>166.2</ele>
        <time>2016-08-07T09:21:21Z</time>
      </trkpt>
      <trkpt lat="43.57804" lon="3.36325">
        <ele>166</ele>
        <time>2016-08-07T09:21:23Z</time>
      </trkpt>
      <trkpt lat="43.57794" lon="3.3632">
        <ele>166</ele>
        <time>2016-08-07T09:21:25Z</time>
      </trkpt>
      <trkpt lat="43.57786" lon="3.36317">
        <ele>166.7</ele>
        <time>2016-08-07T09:21:27Z</time>
      </trkpt>
      <trkpt lat="43.57778" lon="3.36314">
        <ele>168.4</ele>
        <time>2016-08-07T09:21:29Z</time>
      </trkpt>
      <trkpt lat="43.5777" lon="3.36313">
        <ele>169.6</ele>
        <time>2016-08-07T09:21:31Z</time>
      </trkpt>
      <trkpt lat="43.57762" lon="3.36311">
        <ele>170.2</ele>
        <time>2016-08-07T09:21:33Z</time>
      </trkpt>
      <trkpt lat="43.57752" lon="3.36308">
        <ele>171.2</ele>
        <time>2016-08-07T09:21:35Z</time>
      </trkpt>
      <trkpt lat="43.57742" lon="3.36304">
        <ele>171.8</ele>
        <time>2016-08-07T09:21:37Z</time>
      </trkpt>
      <trkpt lat="43.57737" lon="3.36293">
        <ele>172</ele>
        <time>2016-08-07T09:21:40Z</time>
      </trkpt>
      <trkpt lat="43.57734" lon="3.36283">
        <ele>171.9</ele>
        <time>2016-08-07T09:21:44Z</time>
      </trkpt>
      <trkpt lat="43.57734" lon="3.36271">
        <ele>171.9</ele>
        <time>2016-08-07T09:21:48Z</time>
      </trkpt>
      <trkpt lat="43.57735" lon="3.36264">
        <ele>171.5</ele>
        <time>2016-08-07T09:21:54Z</time>
      </trkpt>
      <trkpt lat="43.57732" lon="3.36259">
        <ele>172.4</ele>
        <time>2016-08-07T09:28:02Z</time>
      </trkpt>
      <trkpt lat="43.57733" lon="3.36261">
        <ele>171.5</ele>
        <time>2016-08-07T09:28:27Z</time>
      </trkpt>
      <trkpt lat="43.57727" lon="3.3626">
        <ele>170.9</ele>
        <time>2016-08-07T09:28:34Z</time>
      </trkpt>
      <trkpt lat="43.57723" lon="3.3626">
        <ele>170.4</ele>
        <time>2016-08-07T09:28:41Z</time>
      </trkpt>
      <trkpt lat="43.57722" lon="3.3626">
        <ele>170</ele>
        <time>2016-08-07T09:28:48Z</time>
      </trkpt>
      <trkpt lat="43.5772" lon="3.36263">
        <ele>170.1</ele>
        <time>2016-08-07T09:28:58Z</time>
      </trkpt>
      <trkpt lat="43.57718" lon="3.36262">
        <ele>168.5</ele>
        <time>2016-08-07T09:31:15Z</time>
      </trkpt>
      <trkpt lat="43.57718" lon="3.36265">
        <ele>167.8</ele>
        <time>2016-08-07T09:32:22Z</time>
      </trkpt>
    </trkseg>
  </trk>
</gpx>